GEFSSE_prec_meanprecacc_012.txt.gz
Total_Precipitation_Accumulation
0.01 0.00 0.00 0.00 0.00 0.00 0.00 0.00 0.00 0.00 0.00 0.00 0.00 0.01 0.01 0.02 0.03 0.02 0.03 0.03 0.05 0.09 0.13 0.11 0.09 0.11 0.11 0.12 0.10 0.07 0.04 0.02 0.01 0.02 0.02 0.02 0.02 0.02 0.02 0.02 0.01 0.03 0.00
0.01 0.00 0.00 0.00 0.00 0.00 0.00 0.00 0.00 0.00 0.00 0.00 0.00 0.00 0.01 0.01 0.02 0.05 0.04 0.04 0.07 0.09 0.10 0.10 0.11 0.10 0.08 0.08 0.07 0.06 0.03 0.01 0.01 0.00 0.00 0.02 0.11 0.09 0.03 0.02 0.05 0.05 0.00
0.00 0.00 0.00 0.00 0.00 0.00 0.00 0.00 0.00 0.00 0.00 0.01 0.02 0.01 0.01 0.01 0.02 0.05 0.05 0.05 0.07 0.07 0.05 0.07 0.09 0.08 0.07 0.04 0.03 0.02 0.01 0.00 0.00 0.00 0.02 0.03 0.16 0.14 0.04 0.02 0.06 0.07 0.01
0.00 0.00 0.00 0.00 0.00 0.00 0.00 0.00 0.00 0.00 0.01 0.02 0.04 0.04 0.02 0.02 0.02 0.03 0.03 0.03 0.04 0.03 0.02 0.03 0.05 0.05 0.03 0.01 0.01 0.01 0.00 0.00 0.00 0.02 0.03 0.04 0.15 0.14 0.06 0.03 0.06 0.09 0.07
0.01 0.01 0.00 0.00 0.00 0.00 0.00 0.00 0.01 0.01 0.01 0.03 0.05 0.07 0.04 0.02 0.01 0.01 0.02 0.04 0.06 0.05 0.05 0.07 0.07 0.03 0.02 0.02 0.02 0.01 0.01 0.00 0.01 0.04 0.08 0.12 0.24 0.21 0.09 0.04 0.07 0.09 0.12
0.01 0.00 0.00 0.01 0.01 0.00 0.00 0.00 0.01 0.03 0.02 0.02 0.03 0.05 0.06 0.04 0.02 0.02 0.05 0.07 0.08 0.07 0.09 0.14 0.13 0.10 0.06 0.03 0.02 0.01 0.01 0.00 0.02 0.06 0.11 0.13 0.19 0.13 0.04 0.03 0.04 0.08 0.13
0.01 0.00 0.00 0.00 0.01 0.01 0.01 0.01 0.02 0.02 0.01 0.03 0.03 0.05 0.08 0.04 0.02 0.04 0.09 0.11 0.11 0.10 0.09 0.08 0.06 0.06 0.06 0.03 0.02 0.01 0.00 0.01 0.03 0.07 0.12 0.13 0.11 0.07 0.05 0.04 0.03 0.04 0.04
0.00 0.00 0.00 0.00 0.01 0.01 0.01 0.02 0.03 0.01 0.01 0.03 0.03 0.07 0.09 0.05 0.02 0.05 0.10 0.16 0.20 0.17 0.10 0.05 0.05 0.03 0.02 0.01 0.01 0.01 0.02 0.03 0.03 0.04 0.05 0.04 0.04 0.05 0.06 0.07 0.06 0.06 0.04
0.04 0.04 0.03 0.01 0.01 0.02 0.01 0.01 0.02 0.01 0.01 0.02 0.02 0.05 0.08 0.07 0.04 0.06 0.11 0.16 0.15 0.10 0.08 0.08 0.06 0.04 0.02 0.01 0.01 0.02 0.03 0.04 0.04 0.03 0.02 0.01 0.01 0.02 0.02 0.02 0.02 0.03 0.03
0.29 0.53 0.33 0.07 0.02 0.01 0.00 0.00 0.00 0.00 0.00 0.01 0.01 0.02 0.03 0.05 0.06 0.08 0.10 0.08 0.05 0.02 0.02 0.02 0.02 0.02 0.01 0.01 0.01 0.01 0.02 0.02 0.02 0.01 0.00 0.00 0.00 0.00 0.00 0.00 0.00 0.00 0.00
0.52 0.73 0.33 0.11 0.03 0.00 0.00 0.00 0.00 0.00 0.00 0.01 0.01 0.02 0.04 0.08 0.09 0.08 0.05 0.05 0.02 0.01 0.00 0.00 0.00 0.01 0.01 0.00 0.00 0.00 0.00 0.00 0.00 0.00 0.00 0.00 0.00 0.00 0.00 0.00 0.00 0.00 0.00
0.34 0.28 0.16 0.08 0.02 0.00 0.00 0.00 0.01 0.01 0.01 0.02 0.02 0.02 0.07 0.10 0.13 0.08 0.03 0.01 0.00 0.00 0.00 0.00 0.00 0.00 0.00 0.00 0.00 0.00 0.00 0.00 0.00 0.00 0.00 0.00 0.00 0.00 0.00 0.00 0.00 0.00 0.00
0.30 0.11 0.06 0.05 0.04 0.01 0.00 0.00 0.01 0.01 0.01 0.02 0.02 0.03 0.06 0.07 0.05 0.03 0.00 0.00 0.00 0.00 0.00 0.00 0.00 0.00 0.00 0.00 0.00 0.00 0.00 0.00 0.00 0.00 0.00 0.00 0.00 0.00 0.00 0.00 0.00 0.00 0.00
0.16 0.09 0.06 0.06 0.05 0.03 0.01 0.01 0.02 0.02 0.01 0.02 0.02 0.02 0.04 0.04 0.02 0.01 0.00 0.00 0.00 0.00 0.00 0.00 0.00 0.00 0.00 0.00 0.00 0.00 0.00 0.00 0.00 0.00 0.00 0.00 0.00 0.00 0.00 0.00 0.00 0.00 0.00
0.13 0.09 0.09 0.09 0.05 0.03 0.01 0.00 0.01 0.01 0.01 0.01 0.01 0.01 0.01 0.01 0.01 0.00 0.00 0.00 0.00 0.00 0.00 0.00 0.00 0.00 0.00 0.00 0.00 0.00 0.00 0.00 0.00 0.00 0.00 0.00 0.00 0.00 0.00 0.00 0.00 0.00 0.00
0.11 0.10 0.12 0.09 0.03 0.01 0.00 0.00 0.00 0.00 0.00 0.01 0.00 0.00 0.00 0.00 0.00 0.00 0.00 0.00 0.00 0.00 0.00 0.00 0.00 0.00 0.00 0.00 0.00 0.00 0.00 0.00 0.00 0.00 0.00 0.00 0.00 0.00 0.00 0.00 0.00 0.00 0.00
0.10 0.14 0.15 0.06 0.01 0.00 0.00 0.00 0.00 0.00 0.00 0.00 0.00 0.00 0.00 0.00 0.00 0.00 0.00 0.00 0.00 0.00 0.00 0.00 0.00 0.00 0.00 0.00 0.00 0.00 0.01 0.01 0.01 0.01 0.01 0.00 0.00 0.00 0.00 0.01 0.01 0.01 0.01
0.20 0.37 0.31 0.09 0.01 0.00 0.00 0.00 0.00 0.00 0.00 0.00 0.00 0.00 0.00 0.00 0.00 0.00 0.00 0.00 0.00 0.00 0.01 0.01 0.01 0.01 0.01 0.01 0.02 0.02 0.02 0.02 0.01 0.01 0.01 0.01 0.00 0.00 0.00 0.00 0.00 0.01 0.01
0.42 0.78 0.57 0.13 0.02 0.00 0.00 0.00 0.00 0.00 0.00 0.00 0.00 0.00 0.00 0.00 0.00 0.00 0.00 0.00 0.00 0.01 0.03 0.05 0.06 0.07 0.06 0.06 0.06 0.04 0.03 0.02 0.02 0.01 0.01 0.01 0.01 0.01 0.00 0.00 0.00 0.01 0.01
0.78 1.25 0.79 0.22 0.07 0.02 0.01 0.00 0.00 0.00 0.00 0.00 0.00 0.00 0.00 0.01 0.02 0.02 0.02 0.03 0.03 0.05 0.08 0.11 0.13 0.11 0.08 0.06 0.04 0.03 0.03 0.02 0.02 0.01 0.01 0.01 0.01 0.00 0.00 0.00 0.00 0.01 0.03
0.63 0.81 0.54 0.26 0.14 0.06 0.05 0.06 0.04 0.02 0.02 0.03 0.03 0.04 0.07 0.10 0.11 0.10 0.07 0.09 0.09 0.09 0.08 0.06 0.07 0.07 0.06 0.04 0.03 0.02 0.01 0.01 0.01 0.00 0.00 0.00 0.00 0.00 0.00 0.00 0.00 0.00 0.01
0.23 0.30 0.29 0.27 0.25 0.12 0.09 0.09 0.10 0.07 0.06 0.08 0.11 0.18 0.21 0.18 0.13 0.10 0.09 0.05 0.06 0.06 0.05 0.05 0.04 0.03 0.02 0.01 0.02 0.01 0.00 0.00 0.00 0.00 0.00 0.00 0.00 0.00 0.00 0.00 0.00 0.00 0.00
0.08 0.12 0.16 0.18 0.19 0.12 0.08 0.08 0.12 0.15 0.18 0.23 0.29 0.33 0.27 0.19 0.12 0.08 0.05 0.04 0.03 0.02 0.03 0.03 0.03 0.04 0.02 0.01 0.01 0.02 0.01 0.00 0.00 0.00 0.00 0.00 0.00 0.00 0.00 0.00 0.00 0.00 0.00
0.02 0.03 0.04 0.07 0.09 0.09 0.08 0.08 0.14 0.21 0.25 0.26 0.20 0.18 0.13 0.07 0.05 0.03 0.02 0.01 0.01 0.01 0.01 0.01 0.02 0.02 0.02 0.01 0.00 0.00 0.01 0.01 0.01 0.00 0.00 0.00 0.00 0.00 0.00 0.00 0.00 0.00 0.00
0.00 0.01 0.02 0.03 0.03 0.03 0.04 0.06 0.10 0.10 0.08 0.05 0.04 0.02 0.02 0.01 0.00 0.00 0.00 0.01 0.01 0.01 0.01 0.01 0.01 0.01 0.01 0.01 0.00 0.00 0.00 0.00 0.01 0.01 0.01 0.00 0.00 0.00 0.00 0.00 0.00 0.00 0.00
0.00 0.01 0.01 0.01 0.01 0.01 0.01 0.01 0.01 0.01 0.01 0.00 0.00 0.00 0.00 0.00 0.00 0.00 0.00 0.00 0.01 0.01 0.01 0.01 0.01 0.01 0.01 0.01 0.01 0.01 0.02 0.02 0.02 0.02 0.02 0.01 0.01 0.00 0.00 0.00 0.00 0.00 0.01

GEFSSE_prec_meanprecacc_018.txt.gz
Total_Precipitation_Accumulation
0.01 0.00 0.00 0.00 0.00 0.00 0.00 0.00 0.00 0.00 0.00 0.00 0.00 0.01 0.01 0.02 0.03 0.02 0.03 0.04 0.06 0.10 0.14 0.13 0.12 0.15 0.15 0.15 0.11 0.08 0.05 0.03 0.02 0.02 0.02 0.02 0.02 0.02 0.02 0.03 0.03 0.03 0.00
0.01 0.00 0.00 0.00 0.01 0.00 0.00 0.00 0.00 0.00 0.00 0.00 0.00 0.00 0.01 0.01 0.02 0.05 0.04 0.05 0.08 0.11 0.12 0.12 0.13 0.13 0.11 0.10 0.09 0.06 0.03 0.02 0.01 0.01 0.00 0.02 0.11 0.10 0.03 0.03 0.05 0.05 0.00
0.00 0.00 0.00 0.00 0.01 0.00 0.00 0.00 0.00 0.00 0.00 0.01 0.02 0.01 0.01 0.01 0.03 0.05 0.06 0.06 0.09 0.09 0.07 0.08 0.10 0.09 0.08 0.05 0.03 0.02 0.01 0.00 0.00 0.01 0.02 0.04 0.19 0.17 0.06 0.03 0.07 0.07 0.01
0.00 0.00 0.00 0.00 0.00 0.00 0.00 0.00 0.00 0.00 0.01 0.02 0.04 0.04 0.02 0.03 0.03 0.05 0.06 0.07 0.08 0.07 0.04 0.04 0.06 0.05 0.03 0.02 0.01 0.01 0.00 0.00 0.00 0.03 0.05 0.07 0.21 0.25 0.14 0.09 0.10 0.11 0.08
0.01 0.01 0.00 0.00 0.00 0.00 0.00 0.00 0.01 0.01 0.02 0.03 0.06 0.07 0.04 0.02 0.03 0.04 0.08 0.11 0.12 0.11 0.11 0.11 0.10 0.05 0.03 0.02 0.02 0.01 0.01 0.00 0.01 0.05 0.12 0.21 0.35 0.37 0.24 0.15 0.17 0.19 0.18
0.01 0.00 0.00 0.01 0.01 0.01 0.01 0.00 0.02 0.03 0.03 0.04 0.05 0.07 0.07 0.05 0.04 0.07 0.14 0.16 0.16 0.16 0.20 0.24 0.20 0.13 0.07 0.04 0.02 0.01 0.01 0.00 0.02 0.09 0.18 0.26 0.31 0.26 0.16 0.13 0.14 0.20 0.24
0.01 0.00 0.00 0.00 0.01 0.01 0.01 0.01 0.03 0.04 0.05 0.07 0.06 0.07 0.10 0.06 0.04 0.09 0.18 0.22 0.21 0.20 0.20 0.16 0.12 0.09 0.07 0.04 0.02 0.01 0.01 0.01 0.04 0.11 0.23 0.30 0.24 0.14 0.10 0.09 0.08 0.10 0.13
0.00 0.00 0.00 0.00 0.01 0.02 0.02 0.03 0.04 0.03 0.04 0.05 0.05 0.08 0.09 0.05 0.04 0.08 0.16 0.23 0.28 0.25 0.16 0.10 0.07 0.04 0.03 0.02 0.02 0.02 0.02 0.03 0.04 0.09 0.15 0.15 0.12 0.07 0.07 0.07 0.07 0.07 0.06
0.04 0.04 0.03 0.01 0.01 0.02 0.01 0.01 0.02 0.02 0.02 0.03 0.03 0.05 0.08 0.07 0.05 0.09 0.15 0.20 0.19 0.13 0.11 0.09 0.07 0.05 0.02 0.01 0.01 0.02 0.03 0.04 0.04 0.03 0.04 0.03 0.03 0.02 0.02 0.02 0.02 0.03 0.03
0.30 0.53 0.33 0.07 0.02 0.01 0.00 0.00 0.00 0.00 0.00 0.01 0.01 0.02 0.04 0.06 0.07 0.10 0.12 0.11 0.08 0.04 0.02 0.02 0.02 0.02 0.01 0.01 0.01 0.01 0.02 0.02 0.02 0.01 0.00 0.00 0.00 0.00 0.00 0.00 0.00 0.00 0.00
0.52 0.73 0.33 0.11 0.03 0.00 0.00 0.00 0.00 0.00 0.00 0.01 0.01 0.02 0.04 0.08 0.09 0.09 0.06 0.07 0.04 0.02 0.00 0.00 0.00 0.01 0.01 0.00 0.00 0.00 0.00 0.00 0.00 0.00 0.00 0.00 0.00 0.00 0.00 0.00 0.00 0.00 0.00
0.36 0.28 0.16 0.08 0.02 0.00 0.00 0.00 0.01 0.01 0.01 0.02 0.02 0.03 0.07 0.10 0.13 0.09 0.03 0.03 0.01 0.00 0.00 0.00 0.00 0.00 0.00 0.00 0.00 0.00 0.00 0.00 0.00 0.00 0.00 0.00 0.00 0.00 0.00 0.00 0.00 0.00 0.00
0.35 0.13 0.07 0.06 0.04 0.01 0.00 0.01 0.01 0.01 0.01 0.02 0.02 0.03 0.06 0.07 0.05 0.03 0.01 0.00 0.00 0.00 0.00 0.00 0.00 0.00 0.00 0.00 0.00 0.00 0.00 0.00 0.00 0.00 0.00 0.00 0.00 0.00 0.00 0.00 0.00 0.00 0.00
0.22 0.12 0.07 0.07 0.05 0.03 0.01 0.01 0.02 0.02 0.01 0.02 0.02 0.02 0.04 0.04 0.02 0.01 0.00 0.00 0.00 0.00 0.00 0.00 0.00 0.00 0.00 0.00 0.00 0.00 0.00 0.00 0.00 0.00 0.00 0.00 0.00 0.00 0.00 0.00 0.00 0.00 0.00
0.17 0.12 0.10 0.10 0.05 0.03 0.01 0.00 0.01 0.01 0.01 0.01 0.01 0.01 0.01 0.01 0.01 0.00 0.00 0.00 0.00 0.00 0.00 0.00 0.00 0.00 0.00 0.00 0.00 0.00 0.00 0.00 0.00 0.00 0.00 0.00 0.00 0.00 0.00 0.00 0.00 0.00 0.01
0.14 0.13 0.14 0.09 0.03 0.02 0.01 0.01 0.00 0.01 0.02 0.02 0.01 0.01 0.00 0.00 0.00 0.00 0.00 0.00 0.00 0.00 0.00 0.00 0.00 0.00 0.00 0.00 0.00 0.00 0.00 0.00 0.00 0.00 0.00 0.00 0.00 0.00 0.00 0.00 0.01 0.01 0.01
0.15 0.17 0.17 0.07 0.02 0.01 0.00 0.00 0.01 0.02 0.03 0.04 0.03 0.01 0.00 0.00 0.00 0.00 0.00 0.00 0.00 0.00 0.00 0.00 0.00 0.00 0.00 0.00 0.00 0.00 0.01 0.01 0.01 0.02 0.02 0.02 0.02 0.01 0.02 0.02 0.02 0.02 0.01
0.23 0.38 0.32 0.10 0.02 0.00 0.00 0.00 0.00 0.01 0.01 0.01 0.01 0.01 0.00 0.00 0.00 0.00 0.00 0.00 0.00 0.00 0.01 0.01 0.02 0.02 0.03 0.02 0.03 0.03 0.03 0.03 0.04 0.04 0.03 0.03 0.02 0.02 0.02 0.02 0.01 0.01 0.01
0.46 0.81 0.59 0.15 0.03 0.01 0.00 0.00 0.00 0.00 0.00 0.00 0.00 0.00 0.00 0.00 0.00 0.00 0.00 0.00 0.00 0.01 0.03 0.05 0.07 0.08 0.07 0.07 0.07 0.05 0.04 0.04 0.04 0.04 0.04 0.03 0.03 0.02 0.02 0.01 0.01 0.01 0.01
0.82 1.29 0.83 0.24 0.08 0.02 0.01 0.01 0.00 0.00 0.00 0.00 0.00 0.00 0.00 0.01 0.02 0.02 0.02 0.03 0.04 0.06 0.08 0.11 0.13 0.11 0.09 0.07 0.05 0.04 0.04 0.03 0.04 0.03 0.03 0.03 0.02 0.02 0.01 0.01 0.01 0.01 0.03
0.68 0.86 0.58 0.28 0.15 0.06 0.05 0.06 0.04 0.02 0.02 0.03 0.03 0.04 0.07 0.10 0.12 0.11 0.08 0.10 0.09 0.09 0.08 0.07 0.07 0.07 0.06 0.04 0.04 0.02 0.01 0.01 0.01 0.01 0.01 0.01 0.01 0.01 0.01 0.01 0.01 0.01 0.01
0.31 0.36 0.34 0.29 0.26 0.13 0.09 0.09 0.10 0.08 0.07 0.08 0.11 0.18 0.22 0.19 0.13 0.10 0.09 0.06 0.06 0.06 0.06 0.06 0.04 0.03 0.02 0.01 0.02 0.02 0.00 0.00 0.00 0.00 0.00 0.00 0.00 0.00 0.00 0.00 0.00 0.00 0.00
0.16 0.19 0.20 0.21 0.21 0.13 0.08 0.08 0.12 0.16 0.18 0.23 0.29 0.33 0.28 0.19 0.12 0.08 0.05 0.04 0.03 0.02 0.03 0.03 0.03 0.04 0.03 0.01 0.01 0.02 0.02 0.01 0.00 0.00 0.00 0.00 0.00 0.00 0.00 0.00 0.00 0.00 0.00
0.09 0.08 0.07 0.10 0.11 0.10 0.08 0.08 0.14 0.21 0.25 0.26 0.20 0.18 0.13 0.07 0.05 0.03 0.02 0.01 0.01 0.01 0.01 0.01 0.02 0.02 0.02 0.01 0.00 0.00 0.01 0.01 0.02 0.01 0.00 0.00 0.00 0.00 0.00 0.00 0.00 0.00 0.00
0.07 0.05 0.05 0.05 0.05 0.04 0.05 0.06 0.10 0.10 0.08 0.05 0.04 0.02 0.02 0.01 0.00 0.00 0.00 0.01 0.01 0.01 0.01 0.01 0.01 0.01 0.01 0.01 0.01 0.00 0.00 0.00 0.01 0.02 0.01 0.00 0.00 0.00 0.00 0.00 0.00 0.00 0.00
0.05 0.04 0.03 0.03 0.02 0.01 0.01 0.01 0.01 0.01 0.01 0.00 0.00 0.00 0.00 0.00 0.00 0.00 0.00 0.00 0.01 0.01 0.01 0.01 0.01 0.01 0.01 0.01 0.01 0.01 0.02 0.02 0.02 0.02 0.03 0.01 0.01 0.00 0.00 0.00 0.00 0.00 0.01

GEFSSE_prec_meanprecacc_024.txt.gz
Total_Precipitation_Accumulation
0.01 0.00 0.00 0.00 0.01 0.00 0.01 0.01 0.01 0.01 0.02 0.03 0.04 0.04 0.04 0.04 0.04 0.03 0.03 0.04 0.07 0.14 0.19 0.19 0.19 0.23 0.24 0.24 0.20 0.14 0.10 0.07 0.05 0.04 0.03 0.02 0.03 0.04 0.05 0.04 0.03 0.03 0.00
0.01 0.00 0.00 0.01 0.01 0.01 0.01 0.01 0.01 0.01 0.01 0.02 0.02 0.02 0.02 0.02 0.04 0.06 0.05 0.06 0.11 0.15 0.16 0.17 0.19 0.19 0.18 0.17 0.13 0.08 0.05 0.03 0.02 0.02 0.03 0.07 0.17 0.17 0.12 0.11 0.10 0.08 0.00
0.00 0.00 0.00 0.01 0.01 0.01 0.01 0.01 0.01 0.01 0.01 0.02 0.02 0.01 0.02 0.02 0.03 0.06 0.08 0.10 0.14 0.16 0.13 0.13 0.15 0.14 0.11 0.07 0.04 0.02 0.01 0.00 0.00 0.02 0.07 0.17 0.32 0.27 0.16 0.15 0.16 0.11 0.03
0.00 0.00 0.00 0.00 0.01 0.00 0.00 0.00 0.01 0.01 0.01 0.03 0.05 0.04 0.03 0.03 0.04 0.06 0.08 0.10 0.13 0.12 0.10 0.09 0.09 0.08 0.04 0.02 0.02 0.01 0.00 0.00 0.00 0.03 0.08 0.17 0.34 0.38 0.24 0.18 0.19 0.17 0.14
0.01 0.01 0.00 0.00 0.01 0.01 0.00 0.00 0.01 0.02 0.02 0.04 0.06 0.07 0.05 0.03 0.04 0.06 0.11 0.15 0.17 0.16 0.16 0.17 0.14 0.07 0.03 0.02 0.02 0.01 0.01 0.00 0.01 0.06 0.15 0.30 0.49 0.50 0.31 0.20 0.23 0.25 0.26
0.01 0.00 0.00 0.01 0.01 0.01 0.01 0.00 0.02 0.04 0.04 0.04 0.05 0.07 0.08 0.05 0.04 0.09 0.17 0.21 0.21 0.21 0.25 0.31 0.25 0.16 0.08 0.04 0.02 0.02 0.01 0.00 0.03 0.09 0.21 0.33 0.42 0.36 0.23 0.17 0.17 0.24 0.30
0.01 0.00 0.00 0.01 0.01 0.01 0.01 0.02 0.03 0.05 0.05 0.07 0.07 0.08 0.10 0.06 0.04 0.10 0.19 0.25 0.26 0.25 0.25 0.23 0.17 0.12 0.09 0.05 0.03 0.02 0.01 0.01 0.04 0.12 0.26 0.35 0.30 0.18 0.13 0.11 0.11 0.12 0.17
0.00 0.00 0.00 0.00 0.01 0.02 0.02 0.03 0.05 0.03 0.04 0.06 0.06 0.09 0.10 0.06 0.04 0.09 0.17 0.25 0.31 0.27 0.20 0.15 0.11 0.08 0.06 0.05 0.04 0.02 0.03 0.04 0.04 0.10 0.17 0.17 0.15 0.09 0.08 0.08 0.08 0.07 0.07
0.04 0.04 0.03 0.01 0.01 0.02 0.02 0.02 0.02 0.02 0.02 0.03 0.03 0.06 0.08 0.07 0.05 0.09 0.15 0.21 0.20 0.14 0.11 0.10 0.08 0.06 0.04 0.02 0.02 0.02 0.04 0.05 0.05 0.05 0.05 0.04 0.05 0.03 0.02 0.02 0.02 0.03 0.03
0.30 0.53 0.33 0.07 0.02 0.01 0.01 0.01 0.01 0.01 0.00 0.01 0.01 0.02 0.04 0.06 0.08 0.10 0.13 0.11 0.08 0.04 0.02 0.03 0.02 0.02 0.01 0.01 0.01 0.01 0.02 0.02 0.02 0.01 0.00 0.00 0.00 0.00 0.00 0.00 0.00 0.00 0.00
0.52 0.73 0.33 0.11 0.03 0.00 0.00 0.00 0.00 0.00 0.00 0.01 0.01 0.03 0.05 0.09 0.10 0.10 0.07 0.07 0.04 0.02 0.01 0.00 0.00 0.01 0.01 0.00 0.00 0.00 0.00 0.00 0.00 0.00 0.00 0.00 0.00 0.00 0.00 0.00 0.00 0.00 0.00
0.36 0.28 0.16 0.08 0.02 0.00 0.00 0.01 0.01 0.01 0.01 0.02 0.03 0.04 0.08 0.12 0.13 0.09 0.03 0.03 0.02 0.01 0.00 0.00 0.00 0.00 0.00 0.00 0.00 0.00 0.00 0.00 0.00 0.00 0.00 0.00 0.00 0.00 0.00 0.00 0.00 0.00 0.00
0.35 0.13 0.07 0.06 0.04 0.01 0.00 0.01 0.01 0.01 0.01 0.02 0.03 0.04 0.07 0.08 0.06 0.04 0.01 0.01 0.00 0.00 0.00 0.00 0.00 0.00 0.00 0.00 0.00 0.00 0.00 0.00 0.00 0.00 0.00 0.00 0.00 0.00 0.00 0.00 0.00 0.00 0.00
0.22 0.12 0.07 0.07 0.05 0.03 0.01 0.01 0.02 0.02 0.01 0.02 0.03 0.03 0.05 0.05 0.03 0.02 0.01 0.00 0.00 0.00 0.00 0.00 0.00 0.00 0.00 0.00 0.00 0.00 0.00 0.00 0.00 0.00 0.00 0.00 0.00 0.00 0.00 0.00 0.00 0.00 0.00
0.17 0.12 0.10 0.10 0.05 0.03 0.01 0.00 0.01 0.01 0.01 0.01 0.01 0.01 0.02 0.02 0.01 0.01 0.00 0.00 0.00 0.00 0.00 0.00 0.00 0.00 0.00 0.00 0.00 0.00 0.00 0.00 0.00 0.00 0.00 0.00 0.00 0.00 0.00 0.00 0.00 0.01 0.01
0.14 0.13 0.14 0.09 0.03 0.02 0.01 0.01 0.01 0.01 0.02 0.03 0.02 0.01 0.00 0.01 0.01 0.01 0.01 0.01 0.01 0.00 0.00 0.00 0.00 0.00 0.00 0.00 0.00 0.00 0.00 0.00 0.00 0.00 0.00 0.00 0.00 0.00 0.00 0.00 0.01 0.02 0.01
0.15 0.17 0.17 0.07 0.02 0.01 0.00 0.00 0.01 0.02 0.03 0.04 0.03 0.01 0.01 0.00 0.00 0.00 0.00 0.00 0.00 0.00 0.00 0.00 0.00 0.00 0.00 0.00 0.00 0.00 0.01 0.01 0.01 0.02 0.02 0.02 0.02 0.02 0.02 0.02 0.02 0.02 0.02
0.23 0.38 0.32 0.10 0.02 0.00 0.00 0.00 0.01 0.01 0.02 0.02 0.01 0.01 0.00 0.00 0.00 0.00 0.00 0.00 0.00 0.00 0.01 0.01 0.02 0.02 0.03 0.02 0.03 0.03 0.03 0.03 0.04 0.04 0.03 0.03 0.03 0.02 0.02 0.02 0.02 0.02 0.02
0.46 0.81 0.59 0.15 0.03 0.01 0.00 0.00 0.00 0.01 0.01 0.01 0.01 0.00 0.00 0.00 0.00 0.00 0.00 0.00 0.00 0.01 0.03 0.05 0.07 0.08 0.08 0.07 0.07 0.05 0.05 0.04 0.05 0.05 0.04 0.04 0.04 0.03 0.03 0.02 0.01 0.02 0.02
0.85 1.32 0.84 0.25 0.09 0.03 0.02 0.02 0.01 0.01 0.01 0.00 0.00 0.00 0.00 0.01 0.02 0.02 0.02 0.03 0.04 0.06 0.08 0.11 0.13 0.11 0.09 0.07 0.05 0.04 0.04 0.04 0.04 0.04 0.03 0.03 0.03 0.02 0.02 0.01 0.01 0.02 0.03
0.75 0.94 0.65 0.36 0.23 0.12 0.10 0.10 0.07 0.04 0.03 0.03 0.03 0.04 0.07 0.10 0.12 0.11 0.08 0.10 0.09 0.09 0.08 0.07 0.07 0.07 0.07 0.05 0.05 0.03 0.02 0.01 0.01 0.01 0.01 0.01 0.01 0.01 0.01 0.01 0.01 0.01 0.02
0.45 0.50 0.50 0.45 0.39 0.23 0.17 0.15 0.13 0.10 0.07 0.08 0.11 0.18 0.22 0.19 0.13 0.10 0.09 0.06 0.06 0.06 0.06 0.06 0.05 0.03 0.03 0.02 0.03 0.02 0.01 0.00 0.00 0.00 0.00 0.00 0.00 0.00 0.00 0.01 0.00 0.00 0.00
0.34 0.39 0.43 0.43 0.40 0.27 0.18 0.14 0.15 0.17 0.19 0.23 0.29 0.33 0.28 0.19 0.12 0.08 0.05 0.04 0.03 0.02 0.03 0.03 0.03 0.04 0.03 0.01 0.01 0.02 0.02 0.01 0.00 0.00 0.00 0.00 0.00 0.00 0.00 0.00 0.00 0.00 0.00
0.31 0.33 0.32 0.34 0.31 0.26 0.17 0.13 0.17 0.23 0.26 0.27 0.21 0.18 0.13 0.07 0.05 0.03 0.02 0.01 0.01 0.01 0.01 0.01 0.02 0.02 0.02 0.01 0.00 0.01 0.01 0.01 0.02 0.01 0.00 0.00 0.00 0.00 0.00 0.00 0.00 0.00 0.00
0.27 0.27 0.28 0.26 0.22 0.17 0.14 0.12 0.14 0.12 0.09 0.05 0.04 0.02 0.02 0.01 0.00 0.00 0.00 0.01 0.01 0.01 0.01 0.01 0.01 0.01 0.01 0.01 0.01 0.01 0.01 0.01 0.02 0.03 0.02 0.01 0.00 0.00 0.00 0.00 0.00 0.00 0.00
0.18 0.20 0.21 0.17 0.14 0.10 0.08 0.05 0.03 0.02 0.01 0.00 0.00 0.00 0.00 0.00 0.00 0.00 0.00 0.00 0.01 0.01 0.01 0.01 0.01 0.01 0.01 0.01 0.01 0.01 0.02 0.02 0.02 0.03 0.03 0.02 0.01 0.00 0.00 0.00 0.00 0.00 0.01

GEFSSE_prec_meanprecacc_030.txt.gz
Total_Precipitation_Accumulation
0.01 0.00 0.00 0.00 0.01 0.00 0.01 0.01 0.02 0.02 0.03 0.05 0.06 0.06 0.06 0.06 0.06 0.04 0.04 0.04 0.08 0.15 0.20 0.21 0.20 0.25 0.25 0.25 0.21 0.15 0.11 0.07 0.05 0.04 0.03 0.02 0.03 0.04 0.05 0.05 0.04 0.05 0.00
0.01 0.00 0.00 0.01 0.01 0.01 0.01 0.01 0.02 0.02 0.02 0.03 0.03 0.03 0.03 0.03 0.04 0.07 0.06 0.07 0.12 0.16 0.17 0.19 0.20 0.20 0.19 0.17 0.13 0.08 0.05 0.03 0.02 0.02 0.03 0.08 0.18 0.17 0.13 0.12 0.11 0.11 0.00
0.00 0.00 0.00 0.01 0.01 0.01 0.01 0.01 0.01 0.02 0.02 0.02 0.03 0.02 0.02 0.02 0.04 0.07 0.08 0.10 0.15 0.16 0.14 0.14 0.15 0.14 0.12 0.07 0.04 0.02 0.01 0.00 0.00 0.02 0.07 0.25 0.42 0.29 0.17 0.16 0.16 0.12 0.03
0.00 0.00 0.00 0.00 0.01 0.00 0.00 0.00 0.01 0.01 0.02 0.03 0.05 0.04 0.03 0.03 0.04 0.06 0.08 0.10 0.13 0.12 0.11 0.10 0.10 0.08 0.05 0.02 0.02 0.01 0.00 0.00 0.00 0.03 0.09 0.27 0.55 0.47 0.26 0.19 0.19 0.18 0.14
0.01 0.01 0.00 0.00 0.01 0.01 0.00 0.00 0.01 0.02 0.02 0.04 0.06 0.07 0.05 0.03 0.04 0.06 0.11 0.15 0.17 0.16 0.17 0.17 0.14 0.07 0.03 0.02 0.02 0.01 0.01 0.00 0.01 0.06 0.17 0.39 0.65 0.59 0.34 0.22 0.23 0.26 0.26
0.01 0.00 0.00 0.01 0.01 0.01 0.01 0.01 0.02 0.04 0.04 0.04 0.05 0.07 0.08 0.05 0.04 0.09 0.17 0.21 0.21 0.21 0.25 0.31 0.25 0.16 0.08 0.04 0.02 0.02 0.01 0.01 0.03 0.12 0.24 0.42 0.56 0.46 0.26 0.18 0.18 0.25 0.31
0.01 0.00 0.00 0.01 0.01 0.01 0.01 0.02 0.04 0.05 0.06 0.08 0.07 0.08 0.10 0.06 0.04 0.10 0.19 0.25 0.26 0.25 0.25 0.23 0.17 0.13 0.10 0.06 0.04 0.03 0.02 0.01 0.05 0.14 0.29 0.41 0.41 0.24 0.15 0.12 0.11 0.14 0.18
0.00 0.00 0.00 0.00 0.01 0.02 0.02 0.04 0.05 0.04 0.05 0.07 0.07 0.09 0.10 0.06 0.04 0.09 0.17 0.26 0.31 0.27 0.20 0.16 0.12 0.09 0.08 0.06 0.05 0.03 0.03 0.04 0.05 0.11 0.19 0.24 0.26 0.13 0.09 0.09 0.08 0.08 0.08
0.04 0.04 0.03 0.01 0.01 0.02 0.02 0.03 0.04 0.03 0.03 0.04 0.04 0.06 0.08 0.07 0.06 0.09 0.15 0.21 0.20 0.14 0.12 0.10 0.09 0.07 0.04 0.03 0.02 0.02 0.04 0.05 0.05 0.05 0.06 0.08 0.11 0.06 0.03 0.03 0.03 0.03 0.03
0.30 0.53 0.33 0.07 0.02 0.01 0.01 0.01 0.01 0.01 0.01 0.01 0.01 0.03 0.04 0.06 0.08 0.10 0.13 0.11 0.08 0.04 0.02 0.03 0.03 0.02 0.02 0.01 0.01 0.01 0.02 0.02 0.02 0.01 0.02 0.01 0.02 0.01 0.00 0.00 0.00 0.00 0.00
0.52 0.73 0.33 0.11 0.03 0.01 0.00 0.00 0.01 0.00 0.01 0.01 0.02 0.03 0.05 0.12 0.15 0.15 0.09 0.07 0.04 0.02 0.01 0.00 0.01 0.01 0.01 0.00 0.00 0.00 0.00 0.00 0.00 0.00 0.00 0.00 0.00 0.00 0.00 0.00 0.00 0.00 0.00
0.36 0.28 0.16 0.08 0.02 0.01 0.01 0.01 0.01 0.01 0.01 0.02 0.04 0.04 0.11 0.19 0.20 0.13 0.05 0.03 0.02 0.01 0.00 0.00 0.00 0.00 0.00 0.00 0.00 0.00 0.00 0.00 0.00 0.00 0.00 0.00 0.00 0.00 0.00 0.00 0.00 0.00 0.00
0.35 0.13 0.07 0.06 0.04 0.02 0.00 0.01 0.01 0.01 0.01 0.02 0.03 0.05 0.10 0.10 0.08 0.05 0.03 0.02 0.01 0.00 0.00 0.00 0.00 0.00 0.00 0.00 0.00 0.00 0.00 0.00 0.00 0.00 0.00 0.00 0.00 0.00 0.00 0.00 0.00 0.00 0.00
0.22 0.12 0.07 0.07 0.05 0.03 0.01 0.01 0.02 0.02 0.02 0.03 0.03 0.03 0.06 0.06 0.04 0.03 0.03 0.02 0.01 0.01 0.00 0.00 0.00 0.00 0.00 0.00 0.00 0.00 0.00 0.00 0.00 0.00 0.00 0.00 0.00 0.00 0.00 0.00 0.00 0.00 0.00
0.17 0.12 0.10 0.10 0.05 0.03 0.01 0.00 0.01 0.01 0.01 0.02 0.02 0.01 0.02 0.02 0.02 0.02 0.01 0.01 0.00 0.00 0.00 0.00 0.00 0.00 0.00 0.00 0.00 0.00 0.00 0.00 0.00 0.00 0.00 0.00 0.00 0.00 0.00 0.00 0.00 0.01 0.01
0.14 0.13 0.14 0.09 0.03 0.02 0.01 0.01 0.01 0.01 0.02 0.03 0.02 0.01 0.01 0.02 0.02 0.02 0.02 0.02 0.01 0.00 0.00 0.00 0.00 0.00 0.00 0.00 0.00 0.00 0.00 0.00 0.00 0.00 0.00 0.01 0.01 0.00 0.00 0.00 0.01 0.02 0.02
0.15 0.17 0.17 0.07 0.02 0.01 0.00 0.01 0.02 0.03 0.04 0.05 0.04 0.02 0.01 0.01 0.02 0.01 0.02 0.02 0.01 0.00 0.00 0.00 0.00 0.00 0.00 0.00 0.00 0.00 0.01 0.01 0.01 0.02 0.02 0.02 0.03 0.03 0.02 0.03 0.03 0.03 0.02
0.23 0.38 0.32 0.10 0.02 0.00 0.01 0.02 0.01 0.02 0.02 0.03 0.02 0.01 0.01 0.00 0.00 0.01 0.02 0.02 0.01 0.01 0.01 0.02 0.02 0.03 0.03 0.03 0.03 0.03 0.03 0.03 0.04 0.04 0.03 0.03 0.03 0.03 0.03 0.03 0.02 0.02 0.02
0.47 0.81 0.59 0.15 0.03 0.01 0.01 0.01 0.02 0.02 0.02 0.01 0.01 0.00 0.00 0.00 0.00 0.00 0.01 0.01 0.01 0.01 0.03 0.06 0.08 0.09 0.10 0.09 0.07 0.05 0.05 0.04 0.05 0.05 0.04 0.04 0.04 0.03 0.03 0.03 0.02 0.02 0.03
0.86 1.32 0.85 0.26 0.09 0.04 0.02 0.02 0.02 0.02 0.01 0.01 0.01 0.01 0.01 0.01 0.02 0.02 0.03 0.04 0.04 0.06 0.09 0.12 0.13 0.12 0.09 0.08 0.05 0.04 0.04 0.04 0.04 0.04 0.04 0.03 0.03 0.02 0.02 0.02 0.02 0.03 0.05
0.78 0.96 0.67 0.37 0.24 0.14 0.11 0.11 0.09 0.05 0.04 0.05 0.04 0.04 0.07 0.10 0.12 0.11 0.08 0.10 0.09 0.09 0.08 0.07 0.07 0.07 0.07 0.05 0.05 0.03 0.02 0.02 0.01 0.01 0.01 0.01 0.01 0.01 0.01 0.01 0.01 0.01 0.02
0.50 0.55 0.54 0.49 0.43 0.26 0.19 0.18 0.18 0.13 0.11 0.11 0.13 0.19 0.22 0.19 0.13 0.10 0.09 0.06 0.06 0.06 0.06 0.06 0.05 0.03 0.03 0.02 0.03 0.02 0.01 0.00 0.00 0.00 0.00 0.00 0.00 0.00 0.00 0.01 0.00 0.00 0.00
0.39 0.46 0.50 0.51 0.49 0.35 0.25 0.22 0.23 0.23 0.23 0.27 0.32 0.34 0.29 0.20 0.12 0.08 0.05 0.04 0.03 0.02 0.03 0.03 0.03 0.04 0.03 0.01 0.01 0.02 0.02 0.01 0.00 0.00 0.00 0.00 0.00 0.00 0.00 0.00 0.00 0.00 0.00
0.38 0.41 0.43 0.48 0.49 0.44 0.34 0.26 0.28 0.32 0.32 0.32 0.24 0.20 0.15 0.08 0.05 0.03 0.02 0.02 0.01 0.01 0.01 0.01 0.02 0.02 0.02 0.01 0.00 0.01 0.01 0.02 0.02 0.01 0.00 0.00 0.00 0.00 0.00 0.00 0.00 0.00 0.00
0.34 0.36 0.41 0.45 0.44 0.39 0.33 0.28 0.26 0.22 0.16 0.11 0.08 0.05 0.03 0.01 0.01 0.01 0.01 0.01 0.01 0.01 0.01 0.01 0.01 0.01 0.01 0.01 0.01 0.01 0.01 0.01 0.02 0.03 0.02 0.01 0.00 0.00 0.00 0.00 0.00 0.00 0.00
0.23 0.28 0.33 0.34 0.33 0.29 0.25 0.22 0.17 0.14 0.11 0.08 0.05 0.03 0.02 0.01 0.00 0.00 0.00 0.00 0.01 0.01 0.01 0.01 0.01 0.01 0.01 0.02 0.01 0.01 0.02 0.02 0.02 0.03 0.03 0.02 0.01 0.00 0.00 0.00 0.00 0.00 0.01

GEFSSE_prec_meanprecacc_036.txt.gz
Total_Precipitation_Accumulation
0.01 0.00 0.00 0.00 0.01 0.00 0.01 0.01 0.02 0.02 0.03 0.05 0.06 0.06 0.06 0.06 0.06 0.04 0.04 0.04 0.08 0.15 0.20 0.21 0.20 0.25 0.25 0.25 0.21 0.15 0.11 0.07 0.05 0.04 0.03 0.03 0.04 0.05 0.06 0.05 0.04 0.05 0.01
0.01 0.00 0.00 0.01 0.01 0.01 0.01 0.01 0.02 0.02 0.02 0.03 0.03 0.03 0.03 0.03 0.04 0.07 0.06 0.07 0.12 0.16 0.17 0.19 0.20 0.20 0.19 0.17 0.13 0.08 0.05 0.03 0.02 0.02 0.03 0.09 0.18 0.18 0.14 0.13 0.12 0.11 0.01
0.00 0.00 0.00 0.01 0.01 0.01 0.01 0.01 0.01 0.02 0.02 0.02 0.03 0.02 0.02 0.02 0.04 0.07 0.08 0.10 0.15 0.16 0.14 0.14 0.15 0.14 0.12 0.07 0.04 0.02 0.01 0.01 0.00 0.02 0.08 0.27 0.43 0.30 0.17 0.17 0.17 0.12 0.03
0.00 0.00 0.00 0.00 0.01 0.00 0.00 0.00 0.01 0.01 0.02 0.03 0.05 0.04 0.03 0.03 0.04 0.06 0.08 0.10 0.13 0.12 0.11 0.10 0.10 0.08 0.05 0.02 0.02 0.01 0.00 0.00 0.00 0.03 0.10 0.31 0.61 0.51 0.28 0.20 0.20 0.18 0.14
0.01 0.01 0.00 0.00 0.01 0.01 0.00 0.00 0.01 0.02 0.02 0.04 0.06 0.07 0.05 0.03 0.04 0.06 0.11 0.15 0.17 0.16 0.17 0.17 0.14 0.07 0.03 0.02 0.02 0.01 0.01 0.00 0.01 0.07 0.20 0.45 0.74 0.66 0.38 0.23 0.24 0.26 0.27
0.01 0.00 0.00 0.01 0.01 0.01 0.01 0.01 0.02 0.04 0.04 0.04 0.05 0.07 0.08 0.05 0.04 0.09 0.17 0.21 0.22 0.21 0.25 0.31 0.25 0.16 0.08 0.04 0.02 0.02 0.01 0.01 0.03 0.14 0.30 0.51 0.68 0.54 0.31 0.21 0.19 0.26 0.32
0.01 0.00 0.00 0.01 0.01 0.01 0.01 0.02 0.04 0.05 0.06 0.08 0.07 0.08 0.10 0.06 0.04 0.10 0.20 0.25 0.26 0.25 0.25 0.23 0.17 0.13 0.10 0.06 0.04 0.03 0.02 0.01 0.05 0.17 0.36 0.51 0.52 0.32 0.20 0.14 0.13 0.15 0.19
0.01 0.00 0.00 0.00 0.01 0.02 0.02 0.04 0.05 0.04 0.05 0.07 0.07 0.09 0.10 0.06 0.04 0.09 0.18 0.26 0.31 0.28 0.21 0.16 0.12 0.09 0.08 0.06 0.05 0.03 0.03 0.04 0.05 0.13 0.25 0.29 0.30 0.16 0.11 0.10 0.09 0.08 0.09
0.05 0.04 0.03 0.01 0.01 0.02 0.02 0.03 0.04 0.03 0.03 0.04 0.04 0.06 0.08 0.07 0.06 0.09 0.16 0.21 0.20 0.14 0.12 0.10 0.09 0.07 0.04 0.03 0.02 0.02 0.04 0.05 0.06 0.07 0.09 0.11 0.13 0.07 0.04 0.03 0.03 0.03 0.03
0.30 0.53 0.33 0.07 0.02 0.01 0.01 0.01 0.01 0.01 0.01 0.01 0.01 0.03 0.05 0.06 0.08 0.10 0.13 0.11 0.08 0.04 0.03 0.03 0.03 0.02 0.02 0.01 0.01 0.01 0.02 0.02 0.02 0.02 0.02 0.02 0.02 0.01 0.00 0.00 0.00 0.00 0.00
0.52 0.73 0.33 0.11 0.03 0.01 0.00 0.00 0.01 0.00 0.01 0.01 0.02 0.03 0.05 0.12 0.15 0.15 0.09 0.08 0.04 0.02 0.01 0.00 0.01 0.01 0.01 0.00 0.00 0.00 0.00 0.00 0.00 0.00 0.00 0.00 0.00 0.00 0.00 0.00 0.00 0.00 0.00
0.36 0.28 0.16 0.08 0.02 0.01 0.01 0.01 0.01 0.01 0.01 0.02 0.04 0.04 0.11 0.19 0.21 0.14 0.06 0.04 0.02 0.01 0.00 0.00 0.00 0.00 0.00 0.00 0.00 0.00 0.00 0.00 0.00 0.00 0.00 0.00 0.00 0.00 0.00 0.00 0.00 0.00 0.00
0.35 0.13 0.07 0.06 0.04 0.02 0.00 0.01 0.01 0.01 0.01 0.02 0.04 0.05 0.11 0.10 0.08 0.05 0.04 0.02 0.01 0.00 0.00 0.00 0.00 0.00 0.00 0.00 0.00 0.00 0.00 0.00 0.00 0.00 0.00 0.00 0.00 0.00 0.00 0.00 0.00 0.00 0.00
0.23 0.13 0.07 0.07 0.05 0.03 0.01 0.01 0.02 0.02 0.02 0.03 0.03 0.03 0.06 0.07 0.05 0.04 0.04 0.03 0.02 0.01 0.01 0.00 0.00 0.00 0.00 0.00 0.00 0.00 0.00 0.00 0.00 0.00 0.00 0.00 0.00 0.00 0.00 0.00 0.00 0.00 0.00
0.19 0.12 0.11 0.10 0.05 0.03 0.01 0.00 0.01 0.01 0.01 0.02 0.02 0.01 0.02 0.02 0.03 0.03 0.02 0.01 0.01 0.02 0.02 0.02 0.01 0.01 0.00 0.00 0.00 0.00 0.00 0.00 0.00 0.00 0.00 0.00 0.00 0.01 0.01 0.01 0.01 0.01 0.02
0.17 0.14 0.14 0.09 0.03 0.02 0.01 0.01 0.01 0.01 0.02 0.03 0.02 0.01 0.01 0.02 0.02 0.02 0.02 0.02 0.01 0.01 0.01 0.01 0.00 0.00 0.00 0.00 0.00 0.00 0.00 0.00 0.00 0.00 0.01 0.01 0.01 0.01 0.01 0.02 0.02 0.03 0.03
0.22 0.19 0.18 0.08 0.03 0.02 0.01 0.01 0.02 0.03 0.04 0.05 0.04 0.02 0.01 0.01 0.02 0.01 0.02 0.02 0.01 0.00 0.00 0.00 0.00 0.00 0.00 0.00 0.00 0.00 0.01 0.01 0.02 0.02 0.02 0.02 0.03 0.03 0.04 0.04 0.05 0.05 0.04
0.31 0.43 0.36 0.12 0.05 0.03 0.02 0.02 0.02 0.02 0.03 0.03 0.03 0.01 0.01 0.00 0.00 0.01 0.02 0.02 0.02 0.01 0.01 0.02 0.02 0.03 0.04 0.03 0.03 0.03 0.03 0.03 0.04 0.04 0.04 0.03 0.03 0.03 0.04 0.04 0.04 0.04 0.04
0.53 0.86 0.64 0.19 0.07 0.05 0.05 0.04 0.03 0.02 0.02 0.02 0.01 0.01 0.01 0.00 0.00 0.01 0.02 0.02 0.01 0.02 0.04 0.06 0.09 0.09 0.10 0.09 0.07 0.05 0.05 0.04 0.05 0.05 0.04 0.04 0.04 0.04 0.03 0.03 0.04 0.04 0.04
0.95 1.39 0.91 0.34 0.15 0.07 0.05 0.04 0.04 0.04 0.04 0.04 0.03 0.02 0.02 0.02 0.03 0.03 0.03 0.05 0.05 0.07 0.09 0.12 0.14 0.12 0.09 0.08 0.05 0.04 0.04 0.04 0.04 0.04 0.04 0.03 0.03 0.03 0.02 0.02 0.03 0.04 0.06
0.89 1.08 0.78 0.46 0.28 0.17 0.15 0.14 0.12 0.11 0.11 0.10 0.09 0.08 0.11 0.14 0.14 0.13 0.10 0.11 0.10 0.10 0.09 0.07 0.07 0.07 0.07 0.05 0.05 0.03 0.02 0.02 0.01 0.01 0.01 0.01 0.01 0.01 0.01 0.01 0.01 0.01 0.03
0.58 0.62 0.60 0.54 0.49 0.33 0.26 0.26 0.26 0.24 0.21 0.20 0.22 0.28 0.30 0.25 0.18 0.14 0.12 0.08 0.08 0.07 0.06 0.06 0.05 0.03 0.03 0.02 0.03 0.02 0.01 0.00 0.00 0.00 0.00 0.00 0.00 0.00 0.00 0.01 0.01 0.01 0.00
0.44 0.51 0.57 0.59 0.60 0.47 0.39 0.38 0.38 0.38 0.37 0.38 0.42 0.45 0.39 0.29 0.19 0.13 0.09 0.07 0.05 0.03 0.03 0.03 0.03 0.04 0.03 0.01 0.01 0.02 0.02 0.01 0.00 0.00 0.00 0.00 0.00 0.00 0.00 0.00 0.00 0.00 0.00
0.42 0.49 0.52 0.60 0.65 0.64 0.60 0.53 0.51 0.50 0.48 0.47 0.39 0.35 0.27 0.19 0.13 0.09 0.06 0.05 0.03 0.02 0.02 0.01 0.02 0.02 0.02 0.01 0.00 0.01 0.01 0.02 0.02 0.01 0.00 0.00 0.00 0.00 0.00 0.00 0.00 0.00 0.00
0.41 0.47 0.57 0.63 0.65 0.67 0.65 0.62 0.58 0.46 0.36 0.30 0.24 0.19 0.16 0.13 0.10 0.06 0.05 0.04 0.03 0.02 0.01 0.01 0.01 0.01 0.01 0.01 0.01 0.01 0.01 0.01 0.02 0.03 0.02 0.01 0.00 0.00 0.00 0.00 0.00 0.00 0.00
0.34 0.44 0.53 0.58 0.59 0.59 0.59 0.54 0.41 0.35 0.32 0.28 0.23 0.18 0.14 0.10 0.07 0.06 0.04 0.03 0.02 0.01 0.01 0.01 0.01 0.01 0.01 0.02 0.01 0.01 0.02 0.02 0.02 0.03 0.03 0.02 0.01 0.00 0.00 0.00 0.00 0.00 0.01

GEFSSE_prec_meanprecacc_042.txt.gz
Total_Precipitation_Accumulation
0.01 0.00 0.01 0.01 0.01 0.01 0.01 0.01 0.02 0.02 0.03 0.05 0.06 0.06 0.06 0.06 0.06 0.05 0.04 0.05 0.08 0.15 0.20 0.21 0.21 0.26 0.26 0.26 0.21 0.15 0.11 0.07 0.05 0.04 0.03 0.03 0.05 0.09 0.12 0.08 0.06 0.06 0.01
0.01 0.00 0.00 0.01 0.02 0.01 0.01 0.01 0.02 0.02 0.02 0.03 0.03 0.03 0.03 0.03 0.04 0.07 0.06 0.07 0.12 0.17 0.17 0.19 0.20 0.21 0.19 0.17 0.13 0.09 0.05 0.03 0.02 0.03 0.03 0.09 0.19 0.21 0.19 0.16 0.13 0.11 0.01
0.00 0.00 0.00 0.01 0.02 0.01 0.01 0.01 0.02 0.02 0.02 0.02 0.03 0.02 0.02 0.03 0.04 0.07 0.08 0.10 0.15 0.16 0.14 0.14 0.15 0.14 0.12 0.07 0.04 0.02 0.01 0.01 0.01 0.02 0.09 0.28 0.44 0.31 0.20 0.19 0.18 0.12 0.03
0.00 0.00 0.00 0.01 0.01 0.01 0.01 0.01 0.01 0.01 0.02 0.03 0.05 0.04 0.03 0.03 0.04 0.06 0.08 0.10 0.13 0.13 0.11 0.10 0.10 0.08 0.05 0.02 0.02 0.01 0.00 0.00 0.01 0.04 0.10 0.32 0.62 0.52 0.30 0.22 0.22 0.18 0.14
0.01 0.01 0.00 0.00 0.01 0.01 0.00 0.01 0.01 0.02 0.02 0.04 0.06 0.07 0.05 0.03 0.04 0.06 0.11 0.15 0.17 0.16 0.17 0.17 0.14 0.07 0.03 0.02 0.02 0.01 0.01 0.00 0.02 0.07 0.20 0.46 0.76 0.67 0.40 0.26 0.27 0.27 0.27
0.01 0.00 0.00 0.01 0.01 0.01 0.01 0.01 0.02 0.04 0.04 0.04 0.05 0.07 0.08 0.05 0.04 0.09 0.17 0.21 0.22 0.21 0.25 0.31 0.25 0.16 0.08 0.04 0.02 0.02 0.01 0.01 0.04 0.14 0.31 0.52 0.69 0.55 0.34 0.24 0.21 0.28 0.33
0.01 0.00 0.00 0.01 0.01 0.01 0.01 0.02 0.04 0.05 0.06 0.08 0.07 0.08 0.10 0.06 0.04 0.10 0.20 0.25 0.26 0.25 0.25 0.23 0.17 0.13 0.10 0.06 0.04 0.03 0.02 0.02 0.05 0.17 0.37 0.51 0.52 0.34 0.22 0.18 0.16 0.18 0.22
0.01 0.00 0.00 0.00 0.01 0.02 0.02 0.04 0.05 0.04 0.05 0.07 0.07 0.09 0.10 0.06 0.04 0.09 0.18 0.26 0.31 0.28 0.21 0.16 0.12 0.09 0.08 0.06 0.05 0.03 0.03 0.04 0.05 0.13 0.25 0.29 0.31 0.17 0.13 0.12 0.11 0.11 0.11
0.05 0.04 0.03 0.01 0.01 0.02 0.02 0.03 0.04 0.03 0.03 0.04 0.04 0.06 0.08 0.07 0.06 0.09 0.16 0.21 0.20 0.14 0.12 0.10 0.09 0.07 0.04 0.03 0.02 0.02 0.04 0.05 0.06 0.07 0.09 0.11 0.13 0.07 0.05 0.04 0.04 0.04 0.04
0.30 0.53 0.33 0.07 0.02 0.01 0.01 0.01 0.01 0.01 0.01 0.01 0.01 0.03 0.05 0.06 0.08 0.10 0.13 0.11 0.08 0.04 0.03 0.03 0.03 0.02 0.02 0.01 0.01 0.01 0.02 0.02 0.02 0.02 0.02 0.02 0.02 0.02 0.01 0.01 0.01 0.01 0.01
0.52 0.73 0.33 0.11 0.03 0.01 0.00 0.00 0.01 0.00 0.01 0.01 0.02 0.03 0.05 0.12 0.15 0.15 0.09 0.08 0.04 0.02 0.01 0.00 0.01 0.01 0.01 0.00 0.00 0.00 0.00 0.00 0.00 0.00 0.00 0.00 0.00 0.01 0.01 0.00 0.00 0.00 0.00
0.36 0.28 0.16 0.08 0.02 0.01 0.01 0.01 0.01 0.01 0.01 0.02 0.04 0.04 0.11 0.19 0.21 0.14 0.06 0.04 0.02 0.01 0.00 0.00 0.00 0.00 0.00 0.00 0.00 0.00 0.00 0.00 0.00 0.00 0.00 0.00 0.00 0.00 0.01 0.01 0.00 0.00 0.00
0.35 0.13 0.07 0.06 0.04 0.02 0.00 0.01 0.01 0.01 0.01 0.02 0.04 0.05 0.11 0.10 0.08 0.05 0.04 0.02 0.01 0.00 0.00 0.00 0.00 0.00 0.00 0.00 0.00 0.00 0.00 0.00 0.00 0.00 0.00 0.00 0.00 0.00 0.01 0.01 0.01 0.00 0.00
0.23 0.13 0.07 0.07 0.05 0.03 0.01 0.01 0.02 0.02 0.02 0.03 0.03 0.03 0.06 0.07 0.05 0.04 0.04 0.03 0.02 0.01 0.01 0.00 0.00 0.00 0.00 0.00 0.00 0.00 0.00 0.00 0.00 0.00 0.00 0.00 0.00 0.01 0.01 0.01 0.01 0.01 0.01
0.19 0.12 0.11 0.10 0.05 0.03 0.01 0.00 0.01 0.01 0.01 0.02 0.02 0.01 0.02 0.02 0.03 0.03 0.02 0.01 0.01 0.02 0.02 0.02 0.01 0.01 0.00 0.00 0.00 0.00 0.00 0.00 0.00 0.00 0.00 0.00 0.01 0.02 0.03 0.03 0.03 0.03 0.03
0.17 0.14 0.14 0.10 0.03 0.02 0.01 0.01 0.01 0.01 0.02 0.03 0.02 0.01 0.01 0.02 0.02 0.02 0.02 0.02 0.01 0.01 0.02 0.01 0.00 0.01 0.00 0.00 0.00 0.00 0.00 0.00 0.00 0.00 0.01 0.01 0.02 0.02 0.03 0.05 0.05 0.07 0.06
0.22 0.19 0.19 0.08 0.03 0.02 0.01 0.01 0.02 0.03 0.04 0.05 0.04 0.02 0.01 0.01 0.02 0.02 0.04 0.03 0.02 0.01 0.02 0.02 0.01 0.01 0.01 0.01 0.01 0.01 0.01 0.01 0.02 0.02 0.02 0.02 0.03 0.04 0.05 0.07 0.07 0.08 0.07
0.31 0.43 0.37 0.12 0.05 0.04 0.03 0.03 0.02 0.03 0.03 0.04 0.04 0.03 0.03 0.03 0.03 0.04 0.05 0.04 0.04 0.03 0.04 0.05 0.05 0.05 0.05 0.04 0.04 0.04 0.04 0.04 0.04 0.04 0.04 0.04 0.03 0.04 0.04 0.05 0.06 0.07 0.07
0.53 0.86 0.64 0.19 0.08 0.07 0.07 0.06 0.06 0.07 0.09 0.10 0.10 0.10 0.10 0.07 0.06 0.06 0.07 0.07 0.07 0.07 0.09 0.11 0.13 0.12 0.12 0.11 0.09 0.07 0.06 0.04 0.05 0.05 0.04 0.04 0.04 0.04 0.03 0.04 0.05 0.05 0.06
0.95 1.39 0.92 0.35 0.16 0.11 0.12 0.13 0.16 0.18 0.20 0.22 0.20 0.17 0.15 0.14 0.14 0.13 0.14 0.15 0.15 0.16 0.17 0.19 0.19 0.15 0.12 0.10 0.07 0.05 0.05 0.04 0.04 0.04 0.04 0.03 0.03 0.03 0.02 0.02 0.03 0.04 0.07
0.89 1.09 0.79 0.48 0.31 0.24 0.28 0.33 0.39 0.41 0.41 0.38 0.37 0.37 0.38 0.37 0.34 0.29 0.26 0.26 0.23 0.21 0.17 0.13 0.11 0.10 0.09 0.06 0.05 0.03 0.02 0.02 0.01 0.01 0.01 0.01 0.01 0.01 0.01 0.01 0.01 0.01 0.03
0.58 0.62 0.61 0.55 0.53 0.43 0.45 0.53 0.62 0.68 0.66 0.68 0.75 0.82 0.79 0.64 0.49 0.42 0.35 0.26 0.21 0.16 0.13 0.11 0.09 0.06 0.04 0.03 0.03 0.02 0.01 0.00 0.00 0.00 0.00 0.00 0.00 0.00 0.00 0.01 0.01 0.01 0.00
0.45 0.51 0.58 0.61 0.66 0.65 0.71 0.77 0.86 0.99 1.07 1.11 1.13 1.09 0.96 0.74 0.55 0.45 0.36 0.27 0.19 0.14 0.12 0.10 0.08 0.07 0.04 0.02 0.01 0.02 0.02 0.01 0.00 0.00 0.00 0.00 0.00 0.00 0.00 0.00 0.00 0.00 0.00
0.42 0.50 0.54 0.64 0.77 0.89 0.97 1.00 1.15 1.33 1.35 1.26 1.02 0.85 0.72 0.59 0.49 0.40 0.32 0.26 0.21 0.18 0.13 0.07 0.04 0.04 0.03 0.01 0.01 0.01 0.01 0.02 0.02 0.01 0.00 0.00 0.00 0.00 0.00 0.00 0.00 0.00 0.00
0.42 0.49 0.61 0.72 0.87 1.03 1.19 1.30 1.45 1.45 1.22 0.97 0.76 0.63 0.55 0.46 0.40 0.34 0.30 0.27 0.23 0.15 0.08 0.03 0.02 0.02 0.01 0.01 0.01 0.01 0.01 0.01 0.02 0.03 0.02 0.01 0.00 0.00 0.00 0.00 0.00 0.00 0.00
0.36 0.49 0.62 0.77 0.92 1.09 1.28 1.41 1.39 1.27 1.08 0.85 0.67 0.57 0.51 0.42 0.35 0.30 0.25 0.19 0.12 0.07 0.04 0.02 0.02 0.01 0.01 0.02 0.01 0.01 0.02 0.02 0.02 0.03 0.03 0.02 0.01 0.00 0.00 0.00 0.00 0.00 0.01

GEFSSE_prec_meanprecacc_048.txt.gz
Total_Precipitation_Accumulation
0.01 0.00 0.01 0.01 0.02 0.01 0.01 0.02 0.03 0.04 0.05 0.06 0.07 0.07 0.07 0.08 0.08 0.06 0.05 0.05 0.08 0.16 0.21 0.22 0.22 0.27 0.27 0.27 0.21 0.15 0.11 0.07 0.05 0.04 0.03 0.03 0.06 0.09 0.12 0.09 0.06 0.07 0.02
0.01 0.00 0.00 0.01 0.02 0.02 0.01 0.02 0.03 0.03 0.03 0.04 0.04 0.03 0.04 0.04 0.05 0.07 0.07 0.07 0.12 0.17 0.18 0.20 0.21 0.22 0.20 0.18 0.14 0.09 0.05 0.03 0.02 0.03 0.04 0.09 0.20 0.21 0.20 0.16 0.13 0.12 0.01
0.00 0.00 0.00 0.01 0.02 0.02 0.02 0.02 0.02 0.02 0.02 0.03 0.03 0.02 0.03 0.03 0.05 0.07 0.09 0.10 0.15 0.17 0.14 0.14 0.16 0.15 0.12 0.07 0.04 0.02 0.01 0.01 0.01 0.03 0.09 0.29 0.44 0.31 0.21 0.19 0.18 0.12 0.03
0.00 0.00 0.00 0.01 0.02 0.01 0.01 0.01 0.01 0.01 0.02 0.03 0.05 0.04 0.03 0.04 0.05 0.06 0.09 0.11 0.13 0.13 0.11 0.10 0.10 0.08 0.05 0.02 0.02 0.01 0.00 0.00 0.01 0.04 0.11 0.32 0.62 0.52 0.30 0.22 0.22 0.19 0.15
0.01 0.01 0.00 0.00 0.01 0.01 0.00 0.01 0.02 0.02 0.02 0.04 0.06 0.08 0.05 0.03 0.04 0.06 0.11 0.15 0.18 0.17 0.17 0.17 0.14 0.07 0.03 0.02 0.02 0.01 0.01 0.01 0.02 0.08 0.21 0.46 0.76 0.68 0.41 0.27 0.27 0.28 0.28
0.01 0.00 0.00 0.01 0.01 0.01 0.01 0.01 0.02 0.04 0.04 0.04 0.05 0.07 0.08 0.05 0.05 0.10 0.18 0.22 0.22 0.21 0.26 0.31 0.25 0.16 0.08 0.04 0.02 0.02 0.02 0.02 0.04 0.14 0.31 0.52 0.70 0.57 0.36 0.26 0.22 0.29 0.34
0.01 0.00 0.00 0.01 0.01 0.01 0.01 0.02 0.04 0.05 0.06 0.08 0.07 0.08 0.10 0.06 0.05 0.11 0.20 0.26 0.26 0.25 0.26 0.23 0.17 0.13 0.10 0.06 0.04 0.03 0.02 0.02 0.06 0.18 0.37 0.52 0.53 0.34 0.24 0.20 0.18 0.20 0.23
0.01 0.00 0.00 0.00 0.01 0.02 0.02 0.04 0.06 0.05 0.06 0.07 0.07 0.09 0.10 0.06 0.04 0.09 0.18 0.27 0.32 0.29 0.21 0.16 0.12 0.09 0.08 0.06 0.05 0.03 0.04 0.04 0.05 0.13 0.25 0.30 0.31 0.18 0.14 0.13 0.13 0.13 0.13
0.05 0.04 0.03 0.01 0.01 0.02 0.02 0.03 0.04 0.03 0.03 0.04 0.04 0.06 0.08 0.07 0.06 0.09 0.16 0.22 0.21 0.15 0.12 0.11 0.09 0.07 0.04 0.03 0.02 0.03 0.04 0.05 0.06 0.07 0.10 0.11 0.13 0.08 0.06 0.05 0.05 0.05 0.05
0.30 0.53 0.33 0.07 0.02 0.01 0.01 0.01 0.01 0.01 0.01 0.01 0.01 0.03 0.05 0.06 0.08 0.11 0.14 0.12 0.09 0.05 0.03 0.03 0.03 0.02 0.02 0.01 0.01 0.01 0.02 0.02 0.02 0.02 0.02 0.02 0.02 0.02 0.03 0.02 0.01 0.01 0.02
0.52 0.73 0.33 0.11 0.03 0.01 0.00 0.00 0.01 0.00 0.01 0.01 0.02 0.03 0.05 0.12 0.15 0.15 0.09 0.08 0.04 0.02 0.01 0.01 0.01 0.01 0.01 0.00 0.00 0.00 0.00 0.00 0.00 0.00 0.00 0.00 0.01 0.02 0.02 0.02 0.01 0.01 0.01
0.36 0.28 0.16 0.08 0.02 0.01 0.01 0.01 0.01 0.01 0.01 0.02 0.04 0.04 0.11 0.19 0.21 0.14 0.06 0.04 0.02 0.01 0.00 0.00 0.00 0.00 0.00 0.00 0.00 0.00 0.00 0.00 0.00 0.00 0.00 0.00 0.00 0.01 0.02 0.02 0.01 0.01 0.01
0.35 0.13 0.07 0.06 0.04 0.02 0.00 0.01 0.01 0.01 0.01 0.02 0.04 0.05 0.11 0.11 0.08 0.05 0.04 0.03 0.02 0.01 0.01 0.00 0.00 0.00 0.00 0.00 0.00 0.00 0.00 0.00 0.00 0.00 0.00 0.00 0.00 0.01 0.01 0.02 0.01 0.01 0.01
0.23 0.13 0.07 0.07 0.05 0.03 0.01 0.01 0.02 0.02 0.02 0.03 0.03 0.03 0.06 0.08 0.06 0.05 0.04 0.03 0.03 0.02 0.02 0.01 0.01 0.01 0.00 0.00 0.00 0.00 0.00 0.00 0.00 0.00 0.00 0.00 0.00 0.01 0.02 0.02 0.02 0.02 0.02
0.19 0.12 0.11 0.10 0.05 0.03 0.01 0.00 0.01 0.01 0.01 0.02 0.02 0.02 0.03 0.03 0.03 0.04 0.04 0.03 0.03 0.04 0.04 0.03 0.02 0.01 0.00 0.00 0.00 0.00 0.00 0.00 0.00 0.00 0.00 0.00 0.01 0.02 0.03 0.04 0.04 0.04 0.05
0.17 0.14 0.14 0.10 0.03 0.02 0.01 0.01 0.01 0.01 0.03 0.04 0.03 0.01 0.01 0.03 0.04 0.04 0.05 0.06 0.04 0.04 0.05 0.04 0.03 0.03 0.01 0.01 0.00 0.00 0.00 0.00 0.00 0.00 0.01 0.01 0.02 0.02 0.03 0.05 0.06 0.08 0.08
0.22 0.19 0.19 0.08 0.03 0.02 0.01 0.01 0.02 0.03 0.05 0.06 0.05 0.03 0.02 0.03 0.04 0.05 0.07 0.07 0.06 0.05 0.05 0.06 0.05 0.05 0.04 0.03 0.03 0.03 0.03 0.02 0.02 0.02 0.03 0.03 0.03 0.04 0.05 0.07 0.08 0.08 0.07
0.31 0.43 0.37 0.12 0.05 0.04 0.04 0.03 0.02 0.03 0.04 0.05 0.05 0.06 0.07 0.08 0.10 0.12 0.14 0.13 0.12 0.11 0.11 0.13 0.13 0.12 0.11 0.09 0.09 0.08 0.07 0.06 0.05 0.05 0.04 0.04 0.04 0.04 0.04 0.06 0.06 0.07 0.07
0.53 0.86 0.64 0.19 0.08 0.07 0.07 0.06 0.07 0.10 0.13 0.15 0.17 0.17 0.19 0.19 0.19 0.21 0.23 0.24 0.23 0.23 0.25 0.25 0.26 0.24 0.22 0.20 0.16 0.12 0.09 0.06 0.06 0.06 0.05 0.04 0.04 0.04 0.03 0.04 0.05 0.06 0.06
0.95 1.39 0.92 0.35 0.17 0.12 0.13 0.15 0.20 0.25 0.33 0.40 0.38 0.33 0.31 0.32 0.35 0.37 0.39 0.43 0.44 0.44 0.43 0.42 0.39 0.34 0.27 0.21 0.14 0.10 0.07 0.05 0.05 0.05 0.04 0.04 0.03 0.03 0.02 0.02 0.03 0.04 0.07
0.89 1.09 0.80 0.48 0.33 0.26 0.32 0.40 0.51 0.59 0.66 0.67 0.65 0.67 0.71 0.75 0.74 0.69 0.66 0.65 0.59 0.55 0.49 0.41 0.35 0.30 0.25 0.19 0.13 0.08 0.05 0.03 0.02 0.02 0.01 0.01 0.01 0.01 0.01 0.01 0.01 0.01 0.03
0.58 0.62 0.62 0.56 0.55 0.46 0.54 0.68 0.87 1.01 1.06 1.09 1.18 1.31 1.38 1.29 1.13 1.03 0.93 0.76 0.65 0.56 0.50 0.42 0.35 0.26 0.18 0.12 0.09 0.07 0.04 0.02 0.01 0.01 0.01 0.01 0.00 0.00 0.00 0.01 0.01 0.01 0.00
0.45 0.52 0.58 0.63 0.70 0.71 0.84 0.99 1.19 1.38 1.53 1.65 1.72 1.72 1.61 1.41 1.25 1.10 0.93 0.79 0.68 0.62 0.58 0.50 0.38 0.28 0.18 0.10 0.06 0.06 0.05 0.03 0.01 0.01 0.00 0.00 0.00 0.00 0.00 0.00 0.00 0.00 0.00
0.43 0.50 0.55 0.67 0.82 0.97 1.12 1.25 1.48 1.72 1.83 1.83 1.63 1.47 1.28 1.10 0.95 0.81 0.73 0.69 0.67 0.63 0.56 0.44 0.32 0.22 0.15 0.08 0.05 0.04 0.03 0.03 0.03 0.02 0.00 0.00 0.00 0.00 0.00 0.00 0.00 0.00 0.00
0.42 0.50 0.62 0.76 0.92 1.13 1.35 1.52 1.71 1.78 1.65 1.44 1.25 1.06 0.97 0.86 0.74 0.66 0.62 0.60 0.55 0.45 0.34 0.25 0.19 0.14 0.08 0.05 0.03 0.03 0.02 0.02 0.02 0.03 0.02 0.01 0.00 0.00 0.00 0.00 0.00 0.00 0.00
0.37 0.51 0.64 0.80 0.97 1.17 1.41 1.58 1.61 1.57 1.45 1.24 1.02 0.88 0.80 0.68 0.56 0.47 0.39 0.32 0.26 0.20 0.15 0.10 0.06 0.04 0.03 0.03 0.03 0.02 0.03 0.03 0.03 0.03 0.04 0.02 0.01 0.00 0.00 0.00 0.00 0.00 0.01

GEFSSE_prec_meanprecacc_054.txt.gz
Total_Precipitation_Accumulation
0.01 0.00 0.01 0.01 0.02 0.01 0.01 0.03 0.05 0.07 0.08 0.08 0.08 0.07 0.07 0.09 0.09 0.08 0.06 0.06 0.10 0.18 0.24 0.26 0.25 0.28 0.28 0.27 0.22 0.15 0.11 0.07 0.05 0.04 0.03 0.03 0.06 0.09 0.12 0.09 0.07 0.07 0.02
0.01 0.00 0.00 0.01 0.02 0.02 0.02 0.04 0.05 0.06 0.06 0.07 0.07 0.06 0.07 0.07 0.08 0.10 0.09 0.09 0.14 0.19 0.21 0.23 0.24 0.23 0.21 0.18 0.14 0.09 0.05 0.03 0.02 0.03 0.04 0.10 0.20 0.21 0.20 0.17 0.16 0.13 0.02
0.00 0.00 0.00 0.01 0.02 0.02 0.02 0.03 0.05 0.06 0.06 0.06 0.07 0.07 0.08 0.08 0.08 0.10 0.11 0.12 0.17 0.19 0.16 0.16 0.18 0.16 0.13 0.07 0.04 0.02 0.01 0.01 0.01 0.04 0.16 0.34 0.44 0.31 0.21 0.19 0.19 0.13 0.04
0.00 0.00 0.00 0.01 0.02 0.01 0.01 0.02 0.03 0.04 0.06 0.08 0.10 0.08 0.08 0.08 0.08 0.09 0.10 0.12 0.15 0.15 0.13 0.11 0.11 0.09 0.05 0.02 0.02 0.01 0.00 0.00 0.01 0.08 0.27 0.45 0.65 0.52 0.30 0.22 0.22 0.19 0.15
0.01 0.01 0.00 0.00 0.01 0.01 0.01 0.01 0.03 0.05 0.06 0.07 0.10 0.11 0.09 0.07 0.06 0.08 0.13 0.16 0.19 0.18 0.18 0.18 0.14 0.07 0.04 0.03 0.02 0.02 0.01 0.01 0.04 0.13 0.35 0.61 0.81 0.69 0.41 0.27 0.27 0.28 0.28
0.01 0.00 0.00 0.01 0.01 0.01 0.01 0.01 0.03 0.06 0.07 0.07 0.08 0.10 0.10 0.08 0.06 0.11 0.19 0.23 0.23 0.22 0.26 0.31 0.25 0.16 0.08 0.04 0.02 0.02 0.02 0.02 0.05 0.18 0.44 0.67 0.74 0.58 0.36 0.26 0.23 0.29 0.35
0.01 0.00 0.00 0.01 0.01 0.01 0.01 0.02 0.05 0.07 0.08 0.10 0.09 0.10 0.12 0.08 0.06 0.12 0.21 0.27 0.27 0.26 0.26 0.23 0.17 0.13 0.10 0.06 0.04 0.03 0.02 0.03 0.08 0.23 0.49 0.64 0.57 0.36 0.24 0.20 0.18 0.20 0.24
0.01 0.00 0.00 0.00 0.01 0.02 0.02 0.04 0.07 0.06 0.07 0.09 0.08 0.11 0.11 0.07 0.05 0.10 0.19 0.27 0.33 0.29 0.21 0.16 0.12 0.09 0.08 0.06 0.05 0.03 0.04 0.05 0.07 0.18 0.34 0.36 0.33 0.18 0.14 0.14 0.14 0.13 0.13
0.05 0.04 0.03 0.01 0.01 0.02 0.02 0.03 0.04 0.04 0.04 0.05 0.05 0.07 0.09 0.08 0.06 0.10 0.17 0.23 0.22 0.15 0.12 0.11 0.09 0.07 0.04 0.03 0.02 0.03 0.04 0.05 0.07 0.10 0.14 0.14 0.15 0.09 0.07 0.06 0.06 0.06 0.06
0.30 0.53 0.33 0.07 0.02 0.01 0.01 0.01 0.02 0.01 0.01 0.01 0.01 0.03 0.05 0.06 0.08 0.11 0.14 0.12 0.09 0.05 0.03 0.03 0.03 0.02 0.02 0.01 0.01 0.01 0.02 0.02 0.03 0.05 0.07 0.06 0.06 0.04 0.04 0.03 0.02 0.02 0.02
0.52 0.73 0.33 0.11 0.03 0.01 0.00 0.00 0.01 0.01 0.01 0.01 0.02 0.03 0.05 0.12 0.16 0.17 0.11 0.09 0.05 0.02 0.01 0.01 0.01 0.01 0.01 0.00 0.00 0.00 0.00 0.00 0.01 0.03 0.05 0.08 0.08 0.05 0.03 0.02 0.02 0.01 0.01
0.36 0.28 0.16 0.08 0.02 0.01 0.01 0.01 0.01 0.01 0.01 0.02 0.04 0.05 0.11 0.21 0.25 0.18 0.11 0.06 0.03 0.01 0.01 0.00 0.00 0.00 0.00 0.00 0.01 0.00 0.00 0.00 0.01 0.02 0.01 0.01 0.02 0.02 0.02 0.03 0.02 0.01 0.01
0.35 0.13 0.07 0.06 0.04 0.02 0.00 0.01 0.01 0.01 0.02 0.02 0.04 0.06 0.12 0.13 0.10 0.08 0.08 0.05 0.03 0.01 0.02 0.02 0.01 0.01 0.00 0.01 0.01 0.01 0.00 0.00 0.01 0.01 0.00 0.00 0.01 0.01 0.02 0.02 0.02 0.02 0.02
0.23 0.13 0.07 0.07 0.05 0.03 0.01 0.01 0.02 0.02 0.02 0.03 0.04 0.04 0.09 0.11 0.09 0.08 0.09 0.09 0.08 0.07 0.07 0.07 0.04 0.02 0.01 0.01 0.01 0.01 0.01 0.01 0.00 0.00 0.00 0.00 0.00 0.01 0.02 0.03 0.03 0.03 0.03
0.19 0.12 0.11 0.10 0.05 0.03 0.01 0.01 0.01 0.01 0.02 0.03 0.04 0.04 0.05 0.07 0.07 0.07 0.07 0.07 0.07 0.10 0.12 0.11 0.09 0.03 0.02 0.01 0.01 0.03 0.03 0.01 0.01 0.02 0.01 0.01 0.01 0.02 0.04 0.04 0.04 0.05 0.05
0.17 0.14 0.14 0.10 0.03 0.02 0.01 0.01 0.01 0.01 0.03 0.05 0.04 0.04 0.03 0.05 0.07 0.09 0.10 0.12 0.08 0.08 0.10 0.10 0.10 0.06 0.03 0.02 0.02 0.03 0.05 0.02 0.02 0.02 0.01 0.02 0.03 0.03 0.04 0.06 0.07 0.08 0.08
0.22 0.19 0.19 0.08 0.03 0.02 0.01 0.01 0.02 0.03 0.05 0.06 0.06 0.05 0.04 0.05 0.08 0.10 0.15 0.17 0.14 0.11 0.10 0.10 0.09 0.10 0.08 0.07 0.07 0.07 0.06 0.05 0.05 0.04 0.04 0.03 0.05 0.06 0.08 0.09 0.09 0.09 0.08
0.31 0.43 0.37 0.12 0.05 0.04 0.04 0.03 0.03 0.04 0.05 0.06 0.07 0.07 0.09 0.11 0.14 0.18 0.23 0.24 0.24 0.21 0.21 0.22 0.21 0.19 0.18 0.16 0.15 0.14 0.13 0.11 0.09 0.07 0.06 0.05 0.05 0.05 0.06 0.07 0.07 0.07 0.08
0.53 0.86 0.64 0.19 0.08 0.07 0.07 0.07 0.08 0.11 0.15 0.18 0.20 0.20 0.22 0.21 0.22 0.28 0.32 0.35 0.36 0.37 0.38 0.37 0.39 0.37 0.36 0.33 0.26 0.22 0.18 0.14 0.13 0.10 0.08 0.07 0.06 0.05 0.04 0.04 0.05 0.06 0.07
0.95 1.40 0.93 0.36 0.18 0.13 0.13 0.16 0.21 0.26 0.35 0.42 0.40 0.36 0.35 0.36 0.39 0.45 0.48 0.55 0.57 0.58 0.58 0.57 0.54 0.48 0.42 0.36 0.28 0.21 0.18 0.14 0.11 0.09 0.07 0.05 0.05 0.04 0.03 0.03 0.03 0.04 0.07
0.90 1.10 0.81 0.50 0.35 0.28 0.34 0.42 0.53 0.63 0.71 0.72 0.71 0.72 0.77 0.81 0.82 0.79 0.77 0.77 0.72 0.68 0.64 0.57 0.51 0.46 0.42 0.35 0.28 0.20 0.13 0.08 0.07 0.05 0.04 0.03 0.02 0.02 0.02 0.01 0.02 0.02 0.03
0.59 0.63 0.63 0.59 0.59 0.51 0.59 0.73 0.93 1.11 1.17 1.20 1.30 1.42 1.50 1.41 1.24 1.13 1.02 0.86 0.75 0.68 0.64 0.58 0.52 0.46 0.38 0.29 0.24 0.21 0.14 0.08 0.04 0.03 0.03 0.02 0.01 0.01 0.01 0.01 0.01 0.01 0.00
0.45 0.53 0.60 0.67 0.76 0.77 0.91 1.08 1.30 1.51 1.68 1.78 1.84 1.83 1.72 1.52 1.36 1.21 1.02 0.88 0.78 0.71 0.69 0.64 0.54 0.46 0.36 0.25 0.19 0.17 0.15 0.09 0.04 0.02 0.02 0.01 0.01 0.01 0.00 0.00 0.01 0.00 0.00
0.43 0.52 0.58 0.72 0.88 1.06 1.24 1.39 1.62 1.87 2.00 1.96 1.73 1.56 1.36 1.17 1.02 0.88 0.79 0.75 0.73 0.70 0.64 0.52 0.40 0.32 0.25 0.17 0.12 0.09 0.08 0.06 0.06 0.04 0.01 0.01 0.01 0.00 0.00 0.00 0.00 0.00 0.00
0.44 0.53 0.66 0.82 0.99 1.24 1.50 1.70 1.88 1.95 1.83 1.60 1.36 1.13 1.02 0.91 0.78 0.69 0.64 0.62 0.58 0.48 0.38 0.28 0.22 0.18 0.13 0.09 0.06 0.05 0.04 0.04 0.04 0.05 0.03 0.01 0.01 0.00 0.00 0.00 0.00 0.00 0.00
0.39 0.53 0.69 0.86 1.05 1.29 1.55 1.76 1.80 1.74 1.60 1.37 1.11 0.95 0.85 0.72 0.59 0.49 0.40 0.33 0.27 0.21 0.16 0.11 0.08 0.06 0.05 0.05 0.05 0.04 0.05 0.05 0.05 0.06 0.06 0.04 0.02 0.01 0.01 0.01 0.01 0.01 0.01

GEFSSE_prec_meanprecacc_060.txt.gz
Total_Precipitation_Accumulation
0.01 0.00 0.01 0.01 0.02 0.01 0.01 0.03 0.05 0.07 0.08 0.08 0.08 0.07 0.07 0.09 0.09 0.08 0.07 0.07 0.10 0.18 0.25 0.26 0.26 0.29 0.28 0.27 0.22 0.15 0.12 0.08 0.07 0.06 0.05 0.05 0.07 0.10 0.13 0.10 0.08 0.07 0.02
0.01 0.00 0.00 0.01 0.02 0.02 0.02 0.04 0.06 0.06 0.07 0.07 0.07 0.06 0.07 0.07 0.09 0.10 0.09 0.09 0.14 0.20 0.21 0.23 0.24 0.24 0.22 0.18 0.14 0.09 0.06 0.04 0.04 0.04 0.05 0.11 0.22 0.23 0.21 0.18 0.16 0.14 0.02
0.01 0.00 0.00 0.01 0.02 0.02 0.02 0.04 0.06 0.07 0.07 0.07 0.08 0.07 0.08 0.08 0.09 0.10 0.11 0.12 0.17 0.19 0.17 0.17 0.18 0.16 0.13 0.07 0.04 0.03 0.02 0.02 0.04 0.06 0.18 0.36 0.46 0.33 0.22 0.20 0.19 0.13 0.04
0.00 0.00 0.00 0.01 0.02 0.01 0.01 0.02 0.04 0.05 0.07 0.09 0.10 0.09 0.09 0.09 0.09 0.09 0.11 0.12 0.15 0.15 0.13 0.12 0.11 0.09 0.05 0.02 0.02 0.01 0.01 0.02 0.06 0.14 0.34 0.50 0.69 0.54 0.32 0.23 0.22 0.19 0.15
0.01 0.01 0.00 0.01 0.01 0.01 0.01 0.02 0.04 0.06 0.06 0.08 0.11 0.12 0.10 0.07 0.07 0.09 0.13 0.17 0.19 0.18 0.18 0.18 0.14 0.08 0.04 0.03 0.02 0.02 0.02 0.03 0.08 0.21 0.49 0.76 0.89 0.73 0.43 0.27 0.28 0.28 0.28
0.01 0.00 0.00 0.01 0.01 0.01 0.01 0.01 0.04 0.07 0.07 0.08 0.09 0.11 0.11 0.08 0.07 0.12 0.20 0.23 0.23 0.22 0.26 0.31 0.25 0.16 0.08 0.04 0.02 0.02 0.02 0.03 0.08 0.26 0.67 0.96 0.91 0.66 0.39 0.27 0.23 0.29 0.35
0.01 0.00 0.00 0.01 0.01 0.01 0.01 0.02 0.05 0.07 0.09 0.11 0.10 0.11 0.12 0.08 0.06 0.12 0.22 0.27 0.27 0.26 0.26 0.23 0.17 0.13 0.10 0.06 0.04 0.03 0.02 0.03 0.10 0.30 0.64 0.92 0.76 0.46 0.29 0.22 0.19 0.21 0.24
0.01 0.00 0.00 0.00 0.01 0.02 0.02 0.04 0.07 0.06 0.07 0.09 0.09 0.11 0.11 0.07 0.05 0.10 0.19 0.27 0.33 0.29 0.21 0.16 0.12 0.09 0.08 0.06 0.05 0.03 0.04 0.05 0.09 0.23 0.48 0.57 0.47 0.28 0.18 0.16 0.14 0.13 0.13
0.05 0.04 0.03 0.01 0.01 0.02 0.02 0.03 0.04 0.04 0.04 0.05 0.05 0.07 0.09 0.08 0.06 0.10 0.17 0.23 0.22 0.15 0.12 0.11 0.09 0.07 0.04 0.03 0.02 0.03 0.04 0.05 0.08 0.15 0.28 0.38 0.35 0.18 0.10 0.07 0.07 0.06 0.06
0.30 0.53 0.33 0.07 0.02 0.01 0.01 0.01 0.02 0.01 0.01 0.01 0.01 0.03 0.05 0.06 0.08 0.11 0.14 0.13 0.09 0.05 0.03 0.03 0.03 0.02 0.02 0.01 0.01 0.01 0.02 0.02 0.04 0.08 0.16 0.23 0.21 0.12 0.08 0.05 0.03 0.02 0.02
0.52 0.73 0.33 0.11 0.03 0.01 0.00 0.00 0.01 0.01 0.01 0.01 0.02 0.03 0.05 0.12 0.16 0.17 0.11 0.09 0.05 0.02 0.01 0.01 0.01 0.01 0.01 0.00 0.00 0.00 0.00 0.00 0.02 0.06 0.10 0.15 0.18 0.12 0.07 0.05 0.03 0.02 0.02
0.36 0.29 0.17 0.08 0.02 0.01 0.01 0.01 0.01 0.01 0.01 0.02 0.04 0.05 0.11 0.21 0.25 0.19 0.11 0.07 0.03 0.02 0.01 0.01 0.01 0.00 0.00 0.00 0.01 0.00 0.00 0.01 0.02 0.04 0.03 0.04 0.08 0.07 0.06 0.05 0.03 0.02 0.02
0.35 0.13 0.07 0.06 0.04 0.02 0.00 0.01 0.01 0.01 0.02 0.02 0.04 0.06 0.12 0.14 0.11 0.09 0.09 0.06 0.04 0.03 0.02 0.03 0.02 0.01 0.01 0.01 0.01 0.02 0.02 0.02 0.02 0.03 0.03 0.04 0.06 0.06 0.05 0.04 0.03 0.03 0.03
0.24 0.13 0.07 0.07 0.05 0.03 0.01 0.01 0.02 0.02 0.02 0.03 0.04 0.04 0.09 0.11 0.10 0.09 0.10 0.11 0.12 0.10 0.08 0.08 0.06 0.03 0.02 0.02 0.03 0.03 0.02 0.02 0.02 0.02 0.05 0.07 0.07 0.07 0.06 0.05 0.04 0.04 0.04
0.19 0.13 0.11 0.10 0.05 0.03 0.01 0.01 0.01 0.01 0.02 0.03 0.04 0.04 0.05 0.07 0.08 0.08 0.08 0.09 0.09 0.13 0.15 0.14 0.12 0.06 0.04 0.03 0.03 0.04 0.04 0.02 0.03 0.06 0.07 0.06 0.05 0.07 0.08 0.07 0.06 0.06 0.06
0.18 0.14 0.14 0.10 0.03 0.02 0.01 0.01 0.01 0.01 0.04 0.05 0.05 0.04 0.03 0.05 0.08 0.09 0.11 0.12 0.09 0.09 0.11 0.11 0.12 0.08 0.04 0.03 0.04 0.05 0.06 0.04 0.04 0.08 0.10 0.09 0.09 0.09 0.10 0.11 0.11 0.11 0.11
0.23 0.20 0.19 0.08 0.03 0.02 0.01 0.01 0.02 0.03 0.05 0.07 0.07 0.06 0.05 0.05 0.08 0.10 0.15 0.18 0.15 0.12 0.11 0.11 0.11 0.11 0.10 0.08 0.09 0.09 0.08 0.08 0.10 0.11 0.10 0.12 0.13 0.13 0.15 0.14 0.13 0.12 0.10
0.33 0.44 0.37 0.13 0.05 0.04 0.04 0.04 0.04 0.05 0.06 0.08 0.10 0.11 0.12 0.12 0.14 0.19 0.24 0.24 0.25 0.22 0.22 0.24 0.23 0.22 0.21 0.19 0.18 0.17 0.16 0.15 0.14 0.13 0.12 0.11 0.10 0.10 0.11 0.10 0.10 0.10 0.10
0.56 0.89 0.66 0.20 0.08 0.08 0.08 0.08 0.10 0.13 0.17 0.21 0.23 0.22 0.23 0.22 0.24 0.29 0.34 0.37 0.38 0.38 0.39 0.39 0.41 0.39 0.38 0.36 0.29 0.24 0.21 0.18 0.18 0.15 0.12 0.12 0.11 0.09 0.08 0.07 0.07 0.07 0.08
1.02 1.44 0.96 0.38 0.19 0.14 0.15 0.18 0.23 0.29 0.39 0.47 0.45 0.40 0.39 0.42 0.46 0.53 0.56 0.59 0.60 0.61 0.60 0.60 0.56 0.49 0.42 0.37 0.29 0.23 0.20 0.18 0.16 0.13 0.10 0.08 0.07 0.06 0.04 0.03 0.04 0.05 0.08
0.99 1.16 0.85 0.52 0.37 0.30 0.36 0.45 0.56 0.67 0.78 0.80 0.79 0.82 0.89 0.96 0.98 0.97 0.93 0.87 0.79 0.74 0.69 0.59 0.52 0.47 0.42 0.35 0.28 0.21 0.13 0.10 0.08 0.07 0.06 0.05 0.04 0.03 0.02 0.02 0.02 0.02 0.03
0.76 0.73 0.71 0.66 0.65 0.55 0.63 0.78 1.00 1.20 1.27 1.32 1.43 1.60 1.71 1.64 1.46 1.33 1.19 0.99 0.85 0.75 0.68 0.60 0.53 0.46 0.38 0.29 0.24 0.21 0.14 0.08 0.05 0.03 0.03 0.03 0.02 0.02 0.01 0.01 0.01 0.01 0.01
0.70 0.69 0.71 0.78 0.88 0.86 0.99 1.17 1.40 1.66 1.86 1.98 2.05 2.09 2.01 1.81 1.62 1.44 1.20 1.01 0.90 0.80 0.74 0.67 0.55 0.47 0.36 0.26 0.19 0.18 0.15 0.10 0.05 0.03 0.02 0.01 0.01 0.01 0.01 0.01 0.01 0.01 0.01
0.64 0.75 0.76 0.87 1.02 1.20 1.40 1.56 1.82 2.11 2.27 2.26 2.05 1.88 1.68 1.49 1.31 1.12 0.99 0.92 0.85 0.77 0.69 0.56 0.41 0.32 0.25 0.18 0.12 0.09 0.08 0.06 0.06 0.04 0.01 0.01 0.01 0.01 0.01 0.01 0.01 0.01 0.01
0.60 0.69 0.82 0.99 1.19 1.49 1.81 2.04 2.24 2.34 2.24 2.02 1.77 1.50 1.37 1.23 1.07 0.92 0.82 0.77 0.68 0.55 0.43 0.31 0.23 0.18 0.13 0.09 0.06 0.05 0.05 0.05 0.05 0.06 0.04 0.02 0.01 0.01 0.01 0.01 0.01 0.01 0.01
0.50 0.67 0.86 1.09 1.35 1.61 1.88 2.14 2.21 2.17 2.07 1.85 1.52 1.30 1.17 1.01 0.82 0.67 0.54 0.44 0.35 0.26 0.19 0.13 0.08 0.06 0.05 0.05 0.05 0.05 0.05 0.06 0.06 0.07 0.06 0.04 0.02 0.01 0.01 0.01 0.01 0.01 0.01

GEFSSE_prec_meanprecacc_066.txt.gz
Total_Precipitation_Accumulation
0.01 0.00 0.01 0.02 0.02 0.02 0.02 0.03 0.05 0.07 0.08 0.08 0.08 0.07 0.07 0.09 0.10 0.08 0.07 0.07 0.11 0.19 0.25 0.26 0.26 0.29 0.29 0.27 0.22 0.16 0.12 0.08 0.07 0.06 0.06 0.07 0.10 0.13 0.14 0.11 0.09 0.08 0.03
0.01 0.01 0.01 0.02 0.02 0.02 0.02 0.04 0.06 0.06 0.07 0.07 0.07 0.06 0.07 0.07 0.09 0.10 0.09 0.10 0.15 0.20 0.21 0.23 0.25 0.24 0.22 0.18 0.14 0.09 0.06 0.04 0.04 0.05 0.07 0.13 0.25 0.26 0.24 0.20 0.17 0.14 0.03
0.01 0.00 0.01 0.02 0.03 0.02 0.02 0.04 0.06 0.07 0.07 0.07 0.08 0.07 0.08 0.08 0.09 0.11 0.11 0.13 0.18 0.20 0.17 0.17 0.18 0.17 0.13 0.08 0.04 0.03 0.03 0.03 0.04 0.07 0.18 0.36 0.48 0.36 0.25 0.21 0.20 0.14 0.04
0.01 0.00 0.00 0.01 0.02 0.01 0.01 0.02 0.04 0.05 0.07 0.09 0.10 0.09 0.09 0.09 0.09 0.09 0.11 0.13 0.15 0.15 0.13 0.12 0.11 0.09 0.05 0.02 0.02 0.01 0.02 0.03 0.06 0.15 0.34 0.51 0.70 0.56 0.33 0.24 0.23 0.20 0.15
0.01 0.01 0.00 0.01 0.02 0.01 0.01 0.02 0.04 0.06 0.06 0.08 0.11 0.12 0.10 0.07 0.07 0.09 0.13 0.17 0.19 0.18 0.19 0.18 0.14 0.08 0.04 0.03 0.02 0.02 0.02 0.04 0.08 0.21 0.49 0.76 0.90 0.75 0.44 0.28 0.28 0.29 0.29
0.01 0.00 0.01 0.02 0.02 0.01 0.01 0.01 0.04 0.07 0.07 0.08 0.09 0.11 0.11 0.08 0.07 0.12 0.20 0.23 0.23 0.22 0.26 0.31 0.25 0.16 0.08 0.04 0.03 0.02 0.03 0.04 0.09 0.26 0.68 0.97 0.91 0.67 0.41 0.28 0.24 0.30 0.36
0.01 0.00 0.01 0.02 0.02 0.02 0.01 0.02 0.05 0.07 0.09 0.11 0.10 0.11 0.12 0.08 0.06 0.12 0.22 0.27 0.27 0.26 0.26 0.23 0.17 0.13 0.10 0.06 0.05 0.03 0.02 0.04 0.11 0.30 0.65 0.92 0.76 0.48 0.31 0.24 0.20 0.22 0.25
0.01 0.00 0.00 0.01 0.02 0.03 0.03 0.05 0.07 0.06 0.07 0.09 0.09 0.11 0.11 0.07 0.05 0.10 0.19 0.27 0.33 0.29 0.21 0.16 0.12 0.09 0.08 0.06 0.05 0.03 0.04 0.05 0.09 0.24 0.48 0.58 0.48 0.30 0.20 0.17 0.16 0.14 0.14
0.05 0.04 0.03 0.01 0.01 0.03 0.03 0.03 0.04 0.04 0.04 0.05 0.05 0.07 0.09 0.08 0.06 0.10 0.17 0.23 0.22 0.15 0.12 0.11 0.09 0.07 0.04 0.03 0.02 0.03 0.04 0.06 0.08 0.15 0.28 0.38 0.35 0.20 0.12 0.09 0.09 0.09 0.08
0.30 0.53 0.33 0.07 0.02 0.01 0.01 0.01 0.02 0.01 0.01 0.01 0.01 0.03 0.05 0.06 0.08 0.11 0.14 0.13 0.09 0.05 0.03 0.03 0.03 0.02 0.02 0.01 0.01 0.01 0.02 0.02 0.04 0.09 0.16 0.23 0.22 0.14 0.10 0.07 0.05 0.04 0.05
0.52 0.73 0.33 0.11 0.03 0.01 0.00 0.00 0.01 0.01 0.01 0.01 0.02 0.03 0.05 0.12 0.16 0.17 0.11 0.09 0.05 0.02 0.01 0.01 0.01 0.01 0.01 0.00 0.00 0.00 0.00 0.00 0.02 0.07 0.10 0.16 0.19 0.14 0.10 0.08 0.06 0.04 0.04
0.36 0.29 0.17 0.08 0.02 0.01 0.01 0.01 0.01 0.01 0.01 0.02 0.04 0.05 0.11 0.21 0.25 0.19 0.11 0.07 0.03 0.02 0.01 0.01 0.01 0.01 0.00 0.00 0.01 0.00 0.01 0.01 0.03 0.04 0.03 0.05 0.10 0.10 0.10 0.10 0.06 0.04 0.04
0.35 0.13 0.07 0.06 0.04 0.02 0.00 0.01 0.01 0.01 0.02 0.02 0.04 0.06 0.12 0.14 0.11 0.09 0.09 0.06 0.05 0.03 0.03 0.03 0.02 0.01 0.01 0.01 0.01 0.02 0.02 0.02 0.03 0.03 0.03 0.06 0.08 0.10 0.10 0.09 0.07 0.05 0.05
0.24 0.13 0.07 0.07 0.05 0.03 0.01 0.01 0.02 0.02 0.02 0.03 0.04 0.04 0.09 0.11 0.10 0.09 0.10 0.11 0.13 0.10 0.09 0.08 0.06 0.03 0.02 0.02 0.03 0.03 0.02 0.02 0.02 0.03 0.05 0.09 0.10 0.11 0.13 0.12 0.09 0.07 0.07
0.20 0.13 0.11 0.10 0.05 0.03 0.01 0.01 0.01 0.01 0.02 0.03 0.04 0.04 0.05 0.07 0.08 0.08 0.08 0.09 0.10 0.13 0.16 0.14 0.13 0.07 0.04 0.03 0.03 0.04 0.04 0.03 0.03 0.07 0.08 0.08 0.08 0.10 0.14 0.14 0.12 0.10 0.10
0.18 0.14 0.14 0.10 0.03 0.02 0.01 0.01 0.01 0.01 0.04 0.05 0.05 0.04 0.04 0.05 0.08 0.10 0.12 0.13 0.10 0.10 0.12 0.13 0.14 0.10 0.06 0.04 0.05 0.06 0.07 0.05 0.05 0.09 0.11 0.11 0.11 0.12 0.16 0.18 0.18 0.17 0.15
0.23 0.20 0.19 0.08 0.03 0.02 0.01 0.01 0.02 0.03 0.06 0.07 0.07 0.07 0.07 0.07 0.10 0.12 0.16 0.19 0.17 0.14 0.13 0.14 0.14 0.15 0.13 0.10 0.11 0.11 0.10 0.10 0.11 0.12 0.11 0.14 0.16 0.18 0.22 0.21 0.19 0.17 0.16
0.34 0.45 0.38 0.14 0.06 0.05 0.04 0.04 0.06 0.08 0.09 0.10 0.13 0.15 0.16 0.16 0.16 0.20 0.26 0.29 0.32 0.29 0.28 0.30 0.28 0.25 0.24 0.21 0.19 0.18 0.17 0.16 0.16 0.15 0.14 0.13 0.12 0.13 0.14 0.15 0.15 0.16 0.16
0.57 0.90 0.67 0.22 0.10 0.09 0.09 0.11 0.15 0.18 0.23 0.26 0.29 0.28 0.26 0.27 0.31 0.39 0.48 0.53 0.55 0.54 0.52 0.47 0.47 0.43 0.41 0.38 0.30 0.25 0.21 0.19 0.19 0.16 0.13 0.13 0.12 0.11 0.10 0.10 0.12 0.13 0.13
1.04 1.46 0.98 0.41 0.23 0.18 0.20 0.25 0.33 0.41 0.50 0.59 0.57 0.52 0.50 0.53 0.61 0.71 0.78 0.85 0.83 0.79 0.74 0.70 0.64 0.55 0.47 0.41 0.32 0.25 0.21 0.18 0.16 0.13 0.10 0.08 0.07 0.07 0.06 0.05 0.06 0.07 0.11
1.02 1.18 0.88 0.57 0.44 0.40 0.48 0.58 0.72 0.84 0.94 1.00 1.00 1.02 1.09 1.15 1.18 1.17 1.13 1.11 1.02 0.94 0.86 0.74 0.64 0.56 0.50 0.41 0.32 0.23 0.14 0.10 0.08 0.08 0.06 0.05 0.04 0.04 0.03 0.02 0.02 0.02 0.04
0.83 0.80 0.78 0.74 0.76 0.71 0.82 1.02 1.27 1.50 1.59 1.68 1.76 1.90 2.01 1.95 1.78 1.63 1.47 1.26 1.11 1.00 0.91 0.81 0.70 0.60 0.48 0.36 0.29 0.24 0.15 0.09 0.05 0.03 0.03 0.03 0.02 0.02 0.02 0.02 0.02 0.02 0.02
0.78 0.80 0.83 0.91 1.04 1.03 1.22 1.48 1.79 2.10 2.32 2.46 2.48 2.49 2.39 2.19 2.03 1.87 1.60 1.37 1.25 1.13 1.03 0.92 0.75 0.61 0.46 0.31 0.22 0.20 0.17 0.10 0.05 0.03 0.02 0.01 0.01 0.01 0.01 0.01 0.01 0.01 0.01
0.71 0.85 0.93 1.04 1.23 1.48 1.72 1.96 2.32 2.67 2.87 2.87 2.65 2.46 2.22 1.98 1.79 1.60 1.46 1.35 1.25 1.13 1.00 0.81 0.61 0.46 0.34 0.24 0.16 0.12 0.10 0.07 0.06 0.04 0.01 0.01 0.01 0.01 0.01 0.01 0.01 0.01 0.01
0.69 0.81 0.99 1.18 1.40 1.80 2.26 2.62 2.92 3.08 2.98 2.72 2.46 2.14 1.93 1.72 1.52 1.32 1.18 1.08 0.97 0.82 0.65 0.49 0.36 0.29 0.22 0.17 0.12 0.09 0.07 0.05 0.05 0.06 0.04 0.02 0.01 0.01 0.01 0.01 0.01 0.01 0.01
0.59 0.77 0.98 1.24 1.52 1.90 2.31 2.67 2.83 2.87 2.78 2.53 2.16 1.81 1.59 1.38 1.16 0.97 0.77 0.63 0.51 0.39 0.29 0.22 0.17 0.14 0.13 0.11 0.08 0.07 0.06 0.06 0.06 0.07 0.07 0.04 0.02 0.01 0.01 0.01 0.01 0.01 0.01

GEFSSE_prec_meanprecacc_072.txt.gz
Total_Precipitation_Accumulation
0.01 0.01 0.02 0.02 0.03 0.06 0.05 0.05 0.06 0.08 0.09 0.09 0.08 0.08 0.08 0.09 0.10 0.08 0.07 0.07 0.11 0.19 0.25 0.26 0.26 0.29 0.29 0.28 0.22 0.16 0.12 0.08 0.07 0.07 0.07 0.08 0.10 0.13 0.15 0.12 0.09 0.08 0.04
0.01 0.01 0.01 0.02 0.03 0.04 0.05 0.06 0.07 0.07 0.07 0.07 0.07 0.06 0.07 0.07 0.09 0.10 0.09 0.10 0.15 0.20 0.22 0.23 0.25 0.24 0.22 0.19 0.14 0.09 0.06 0.05 0.05 0.06 0.08 0.14 0.25 0.26 0.24 0.20 0.18 0.15 0.03
0.01 0.00 0.01 0.02 0.03 0.03 0.05 0.06 0.07 0.08 0.07 0.07 0.08 0.07 0.08 0.09 0.09 0.11 0.11 0.13 0.18 0.20 0.18 0.17 0.19 0.17 0.14 0.08 0.05 0.03 0.03 0.04 0.05 0.08 0.21 0.38 0.49 0.36 0.25 0.22 0.21 0.15 0.06
0.01 0.00 0.00 0.01 0.02 0.02 0.02 0.03 0.05 0.06 0.07 0.09 0.10 0.10 0.09 0.09 0.09 0.10 0.11 0.13 0.16 0.16 0.14 0.12 0.11 0.09 0.05 0.02 0.02 0.02 0.02 0.04 0.07 0.16 0.35 0.52 0.71 0.57 0.34 0.25 0.24 0.22 0.18
0.01 0.01 0.01 0.01 0.02 0.02 0.01 0.02 0.05 0.06 0.07 0.08 0.11 0.12 0.10 0.08 0.07 0.10 0.14 0.18 0.20 0.19 0.19 0.19 0.14 0.08 0.04 0.03 0.02 0.02 0.02 0.04 0.08 0.22 0.49 0.77 0.91 0.76 0.45 0.30 0.30 0.31 0.32
0.01 0.00 0.01 0.02 0.02 0.02 0.01 0.02 0.04 0.07 0.07 0.08 0.09 0.11 0.11 0.09 0.08 0.13 0.21 0.24 0.24 0.23 0.27 0.32 0.25 0.16 0.08 0.04 0.03 0.03 0.04 0.05 0.09 0.27 0.68 0.97 0.92 0.68 0.43 0.30 0.26 0.33 0.39
0.01 0.00 0.01 0.02 0.02 0.02 0.02 0.03 0.06 0.08 0.09 0.11 0.10 0.11 0.13 0.08 0.07 0.13 0.23 0.28 0.28 0.26 0.26 0.24 0.18 0.13 0.10 0.06 0.05 0.04 0.03 0.05 0.11 0.31 0.65 0.93 0.78 0.49 0.33 0.27 0.24 0.25 0.29
0.01 0.00 0.00 0.01 0.02 0.03 0.04 0.05 0.08 0.07 0.08 0.09 0.09 0.11 0.12 0.07 0.06 0.11 0.21 0.29 0.34 0.29 0.22 0.16 0.12 0.09 0.08 0.06 0.05 0.04 0.04 0.06 0.10 0.24 0.49 0.58 0.49 0.31 0.23 0.22 0.21 0.20 0.19
0.05 0.04 0.03 0.01 0.02 0.04 0.05 0.06 0.06 0.05 0.05 0.06 0.05 0.07 0.09 0.08 0.07 0.11 0.18 0.23 0.22 0.16 0.13 0.11 0.09 0.07 0.04 0.03 0.02 0.03 0.05 0.06 0.08 0.15 0.28 0.38 0.37 0.22 0.15 0.12 0.12 0.13 0.13
0.30 0.53 0.33 0.07 0.03 0.02 0.02 0.04 0.04 0.04 0.03 0.02 0.02 0.04 0.05 0.07 0.09 0.11 0.15 0.13 0.10 0.05 0.03 0.03 0.03 0.02 0.02 0.01 0.01 0.01 0.02 0.03 0.04 0.09 0.17 0.24 0.23 0.16 0.13 0.11 0.09 0.09 0.09
0.53 0.74 0.33 0.11 0.04 0.02 0.01 0.01 0.02 0.02 0.02 0.02 0.02 0.04 0.06 0.13 0.17 0.17 0.11 0.09 0.05 0.02 0.01 0.01 0.01 0.01 0.01 0.00 0.00 0.00 0.00 0.00 0.03 0.07 0.10 0.16 0.20 0.17 0.14 0.13 0.11 0.08 0.07
0.36 0.29 0.17 0.08 0.03 0.02 0.02 0.02 0.04 0.03 0.02 0.03 0.06 0.05 0.12 0.23 0.26 0.19 0.12 0.07 0.03 0.02 0.02 0.02 0.02 0.01 0.01 0.01 0.01 0.00 0.01 0.01 0.03 0.04 0.03 0.06 0.11 0.13 0.14 0.16 0.11 0.07 0.06
0.35 0.13 0.07 0.06 0.04 0.03 0.02 0.03 0.05 0.05 0.05 0.04 0.06 0.07 0.14 0.15 0.12 0.09 0.10 0.07 0.06 0.05 0.05 0.05 0.03 0.03 0.02 0.02 0.01 0.02 0.02 0.02 0.03 0.03 0.03 0.07 0.10 0.13 0.15 0.16 0.12 0.09 0.08
0.24 0.13 0.07 0.07 0.05 0.04 0.03 0.03 0.04 0.04 0.04 0.05 0.05 0.05 0.10 0.12 0.11 0.09 0.10 0.12 0.15 0.14 0.12 0.11 0.08 0.04 0.03 0.03 0.03 0.03 0.02 0.02 0.02 0.03 0.06 0.09 0.11 0.14 0.17 0.20 0.15 0.12 0.11
0.20 0.13 0.11 0.10 0.06 0.04 0.03 0.02 0.02 0.03 0.03 0.04 0.05 0.05 0.05 0.07 0.08 0.09 0.09 0.11 0.13 0.17 0.21 0.18 0.15 0.09 0.06 0.04 0.04 0.05 0.05 0.03 0.03 0.07 0.08 0.08 0.10 0.14 0.20 0.21 0.18 0.17 0.15
0.19 0.15 0.14 0.10 0.04 0.02 0.02 0.02 0.02 0.02 0.04 0.06 0.05 0.05 0.04 0.06 0.10 0.12 0.14 0.16 0.14 0.15 0.17 0.18 0.18 0.14 0.08 0.06 0.07 0.08 0.08 0.05 0.05 0.09 0.11 0.12 0.13 0.15 0.20 0.23 0.25 0.24 0.21
0.24 0.20 0.19 0.09 0.03 0.03 0.02 0.02 0.03 0.04 0.06 0.08 0.08 0.08 0.08 0.09 0.11 0.13 0.19 0.24 0.23 0.21 0.20 0.21 0.21 0.19 0.16 0.13 0.14 0.13 0.12 0.11 0.13 0.13 0.12 0.16 0.18 0.20 0.25 0.25 0.24 0.24 0.22
0.34 0.45 0.38 0.14 0.06 0.05 0.05 0.05 0.06 0.08 0.09 0.10 0.14 0.16 0.18 0.18 0.18 0.23 0.33 0.37 0.41 0.40 0.39 0.40 0.38 0.35 0.32 0.27 0.24 0.20 0.19 0.18 0.17 0.16 0.15 0.14 0.14 0.16 0.17 0.18 0.19 0.21 0.21
0.58 0.90 0.68 0.23 0.12 0.11 0.10 0.12 0.16 0.21 0.27 0.30 0.33 0.33 0.32 0.32 0.38 0.50 0.63 0.68 0.68 0.67 0.67 0.62 0.61 0.55 0.53 0.47 0.37 0.29 0.24 0.22 0.22 0.17 0.14 0.14 0.13 0.13 0.12 0.12 0.13 0.14 0.15
1.05 1.47 1.00 0.43 0.26 0.21 0.25 0.29 0.37 0.49 0.62 0.70 0.68 0.63 0.62 0.67 0.76 0.86 0.92 0.98 0.99 1.00 0.94 0.88 0.82 0.70 0.60 0.53 0.41 0.31 0.26 0.22 0.19 0.15 0.12 0.10 0.09 0.07 0.06 0.06 0.07 0.09 0.12
1.04 1.21 0.91 0.60 0.47 0.44 0.53 0.64 0.79 0.91 1.04 1.12 1.16 1.21 1.28 1.35 1.36 1.36 1.35 1.32 1.24 1.17 1.08 0.96 0.85 0.74 0.66 0.53 0.43 0.32 0.21 0.14 0.12 0.11 0.09 0.07 0.05 0.05 0.03 0.03 0.03 0.04 0.06
0.88 0.86 0.83 0.78 0.81 0.76 0.90 1.13 1.40 1.67 1.80 1.94 2.09 2.22 2.30 2.24 2.08 1.95 1.79 1.57 1.40 1.28 1.20 1.06 0.91 0.78 0.65 0.50 0.41 0.35 0.24 0.14 0.08 0.06 0.06 0.05 0.04 0.03 0.02 0.02 0.03 0.03 0.02
0.84 0.87 0.88 0.95 1.08 1.09 1.33 1.68 2.05 2.39 2.62 2.77 2.86 2.91 2.83 2.59 2.38 2.21 1.94 1.71 1.57 1.45 1.32 1.17 0.95 0.79 0.61 0.44 0.32 0.30 0.27 0.20 0.11 0.06 0.04 0.03 0.02 0.01 0.01 0.01 0.02 0.01 0.01
0.77 0.91 0.98 1.09 1.28 1.56 1.84 2.14 2.59 3.01 3.23 3.26 3.07 2.89 2.63 2.37 2.13 1.89 1.74 1.66 1.55 1.39 1.23 1.01 0.78 0.61 0.48 0.36 0.26 0.22 0.19 0.15 0.12 0.07 0.03 0.02 0.01 0.01 0.01 0.01 0.01 0.01 0.01
0.75 0.88 1.06 1.23 1.47 1.89 2.39 2.78 3.14 3.38 3.35 3.08 2.79 2.43 2.20 1.99 1.78 1.57 1.41 1.33 1.24 1.07 0.86 0.66 0.52 0.42 0.33 0.26 0.20 0.16 0.14 0.12 0.10 0.10 0.07 0.03 0.02 0.01 0.01 0.01 0.01 0.01 0.01
0.64 0.82 1.05 1.32 1.59 1.98 2.43 2.87 3.10 3.20 3.15 2.87 2.46 2.10 1.84 1.61 1.38 1.18 0.96 0.79 0.66 0.52 0.39 0.30 0.24 0.20 0.18 0.15 0.12 0.11 0.11 0.11 0.11 0.11 0.10 0.06 0.03 0.01 0.01 0.01 0.01 0.01 0.01

GEFSSE_prec_meanprecacc_078.txt.gz
Total_Precipitation_Accumulation
0.01 0.01 0.02 0.02 0.03 0.06 0.06 0.05 0.06 0.08 0.09 0.09 0.08 0.08 0.08 0.09 0.10 0.08 0.07 0.07 0.11 0.19 0.26 0.27 0.27 0.30 0.30 0.28 0.22 0.16 0.12 0.08 0.07 0.07 0.07 0.08 0.11 0.13 0.15 0.12 0.11 0.09 0.04
0.02 0.01 0.01 0.02 0.03 0.05 0.05 0.07 0.07 0.07 0.07 0.07 0.07 0.06 0.07 0.08 0.09 0.11 0.09 0.10 0.15 0.21 0.22 0.24 0.25 0.25 0.22 0.19 0.14 0.09 0.06 0.05 0.05 0.06 0.08 0.15 0.25 0.26 0.25 0.21 0.22 0.16 0.04
0.01 0.00 0.01 0.02 0.03 0.03 0.05 0.07 0.08 0.08 0.07 0.07 0.08 0.08 0.09 0.09 0.10 0.11 0.12 0.13 0.18 0.21 0.18 0.18 0.19 0.17 0.14 0.08 0.05 0.03 0.03 0.04 0.06 0.10 0.27 0.41 0.49 0.36 0.26 0.23 0.24 0.16 0.07
0.01 0.00 0.00 0.01 0.02 0.03 0.03 0.04 0.07 0.08 0.09 0.10 0.11 0.11 0.10 0.10 0.10 0.10 0.12 0.13 0.16 0.17 0.14 0.13 0.12 0.09 0.05 0.02 0.02 0.02 0.02 0.04 0.09 0.22 0.49 0.57 0.72 0.57 0.34 0.25 0.26 0.24 0.20
0.01 0.01 0.01 0.01 0.02 0.02 0.02 0.03 0.06 0.09 0.09 0.10 0.13 0.14 0.11 0.08 0.08 0.10 0.14 0.18 0.20 0.19 0.20 0.19 0.15 0.08 0.04 0.03 0.03 0.02 0.03 0.05 0.11 0.30 0.59 0.83 0.93 0.77 0.46 0.30 0.31 0.33 0.34
0.01 0.00 0.01 0.02 0.02 0.02 0.03 0.03 0.06 0.11 0.12 0.11 0.12 0.13 0.13 0.10 0.09 0.13 0.21 0.24 0.24 0.23 0.27 0.32 0.25 0.16 0.08 0.04 0.03 0.03 0.04 0.06 0.12 0.33 0.77 1.07 0.96 0.69 0.43 0.31 0.27 0.36 0.42
0.01 0.00 0.01 0.02 0.03 0.03 0.03 0.05 0.09 0.12 0.13 0.15 0.14 0.15 0.16 0.10 0.08 0.14 0.23 0.28 0.28 0.26 0.26 0.24 0.18 0.13 0.10 0.06 0.05 0.04 0.04 0.06 0.15 0.36 0.72 0.98 0.81 0.50 0.34 0.28 0.25 0.27 0.32
0.01 0.00 0.01 0.01 0.02 0.04 0.06 0.09 0.12 0.11 0.13 0.14 0.14 0.15 0.14 0.09 0.07 0.12 0.21 0.29 0.34 0.30 0.22 0.16 0.12 0.09 0.08 0.07 0.06 0.05 0.05 0.07 0.11 0.26 0.52 0.61 0.51 0.32 0.24 0.23 0.23 0.21 0.21
0.05 0.04 0.03 0.01 0.02 0.05 0.08 0.10 0.10 0.10 0.10 0.11 0.09 0.10 0.11 0.10 0.08 0.12 0.18 0.24 0.23 0.16 0.13 0.11 0.09 0.07 0.05 0.03 0.03 0.04 0.05 0.06 0.09 0.17 0.32 0.43 0.39 0.23 0.16 0.13 0.14 0.15 0.15
0.30 0.53 0.33 0.07 0.03 0.02 0.02 0.06 0.08 0.09 0.08 0.07 0.05 0.05 0.07 0.07 0.09 0.12 0.15 0.13 0.10 0.05 0.03 0.03 0.03 0.02 0.02 0.01 0.01 0.01 0.02 0.03 0.05 0.12 0.23 0.34 0.30 0.18 0.14 0.12 0.11 0.10 0.10
0.53 0.74 0.34 0.11 0.04 0.02 0.01 0.01 0.03 0.04 0.05 0.04 0.03 0.04 0.07 0.14 0.19 0.19 0.12 0.10 0.05 0.03 0.01 0.01 0.01 0.01 0.01 0.01 0.00 0.00 0.00 0.01 0.04 0.10 0.15 0.23 0.26 0.19 0.16 0.15 0.13 0.09 0.08
0.36 0.29 0.17 0.09 0.03 0.02 0.03 0.04 0.05 0.05 0.04 0.04 0.09 0.06 0.14 0.30 0.34 0.24 0.15 0.08 0.04 0.02 0.02 0.02 0.02 0.02 0.01 0.02 0.02 0.01 0.01 0.02 0.05 0.07 0.06 0.08 0.14 0.15 0.16 0.18 0.13 0.10 0.09
0.35 0.14 0.07 0.06 0.05 0.04 0.05 0.08 0.10 0.13 0.12 0.12 0.17 0.12 0.20 0.22 0.18 0.13 0.13 0.10 0.08 0.06 0.07 0.09 0.06 0.05 0.04 0.04 0.03 0.03 0.03 0.03 0.05 0.05 0.05 0.08 0.12 0.15 0.16 0.19 0.14 0.12 0.12
0.24 0.13 0.08 0.07 0.06 0.06 0.06 0.09 0.09 0.10 0.10 0.12 0.14 0.11 0.18 0.19 0.16 0.13 0.15 0.17 0.20 0.18 0.18 0.17 0.12 0.08 0.06 0.05 0.05 0.04 0.03 0.03 0.04 0.06 0.08 0.11 0.13 0.17 0.20 0.22 0.17 0.16 0.15
0.20 0.13 0.11 0.11 0.08 0.08 0.09 0.09 0.06 0.07 0.07 0.10 0.13 0.12 0.13 0.13 0.12 0.11 0.12 0.15 0.17 0.23 0.27 0.23 0.18 0.13 0.08 0.06 0.05 0.05 0.05 0.03 0.04 0.09 0.11 0.11 0.12 0.17 0.23 0.23 0.20 0.20 0.20
0.19 0.15 0.15 0.10 0.05 0.05 0.06 0.07 0.07 0.06 0.10 0.13 0.12 0.10 0.09 0.11 0.14 0.16 0.18 0.21 0.18 0.20 0.24 0.25 0.25 0.19 0.12 0.09 0.09 0.10 0.10 0.07 0.06 0.10 0.13 0.18 0.18 0.19 0.23 0.26 0.28 0.28 0.26
0.24 0.20 0.19 0.09 0.06 0.05 0.06 0.06 0.07 0.08 0.10 0.12 0.15 0.14 0.11 0.12 0.15 0.17 0.25 0.31 0.29 0.27 0.27 0.28 0.28 0.26 0.21 0.17 0.20 0.20 0.18 0.20 0.21 0.18 0.15 0.21 0.26 0.27 0.31 0.30 0.28 0.27 0.25
0.36 0.47 0.39 0.16 0.09 0.08 0.09 0.10 0.10 0.13 0.13 0.14 0.17 0.20 0.21 0.21 0.22 0.29 0.39 0.45 0.49 0.48 0.49 0.51 0.48 0.45 0.42 0.36 0.32 0.29 0.27 0.26 0.24 0.25 0.21 0.21 0.27 0.30 0.32 0.28 0.25 0.26 0.24
0.60 0.93 0.71 0.26 0.17 0.16 0.15 0.16 0.19 0.25 0.32 0.36 0.38 0.38 0.38 0.38 0.46 0.59 0.71 0.78 0.79 0.79 0.78 0.73 0.73 0.68 0.70 0.62 0.49 0.40 0.33 0.29 0.30 0.27 0.21 0.20 0.24 0.29 0.31 0.30 0.25 0.21 0.19
1.07 1.51 1.04 0.48 0.33 0.31 0.34 0.36 0.44 0.56 0.69 0.77 0.76 0.73 0.71 0.76 0.84 0.95 1.01 1.08 1.10 1.12 1.06 1.01 0.94 0.82 0.74 0.65 0.52 0.42 0.38 0.34 0.31 0.27 0.22 0.17 0.16 0.17 0.19 0.20 0.20 0.18 0.17
1.09 1.28 1.00 0.69 0.57 0.55 0.64 0.75 0.91 1.05 1.17 1.25 1.28 1.32 1.41 1.48 1.48 1.48 1.47 1.45 1.36 1.32 1.25 1.12 0.98 0.88 0.78 0.64 0.54 0.44 0.34 0.26 0.23 0.22 0.18 0.14 0.12 0.12 0.12 0.12 0.13 0.13 0.13
0.98 0.95 0.92 0.88 0.92 0.87 1.02 1.29 1.59 1.85 1.97 2.12 2.26 2.39 2.46 2.40 2.24 2.11 1.95 1.73 1.53 1.42 1.34 1.21 1.04 0.91 0.78 0.64 0.55 0.50 0.38 0.28 0.20 0.14 0.12 0.11 0.09 0.08 0.09 0.08 0.09 0.09 0.08
0.93 0.98 0.99 1.05 1.19 1.22 1.49 1.89 2.28 2.63 2.85 3.02 3.07 3.09 3.00 2.74 2.50 2.31 2.04 1.81 1.67 1.55 1.42 1.29 1.09 0.95 0.76 0.58 0.46 0.45 0.42 0.33 0.22 0.13 0.08 0.06 0.05 0.05 0.05 0.05 0.05 0.04 0.05
0.83 1.00 1.09 1.19 1.38 1.68 1.99 2.34 2.82 3.21 3.46 3.51 3.33 3.10 2.79 2.49 2.23 1.98 1.81 1.72 1.61 1.46 1.32 1.12 0.90 0.75 0.61 0.49 0.41 0.37 0.32 0.27 0.23 0.16 0.10 0.06 0.05 0.04 0.04 0.04 0.03 0.03 0.04
0.81 0.95 1.15 1.33 1.59 2.00 2.54 2.98 3.37 3.65 3.66 3.39 3.05 2.63 2.36 2.13 1.90 1.66 1.49 1.39 1.30 1.14 0.94 0.74 0.58 0.49 0.40 0.33 0.28 0.25 0.22 0.19 0.17 0.16 0.13 0.08 0.05 0.03 0.03 0.03 0.03 0.04 0.04
0.70 0.89 1.11 1.38 1.68 2.09 2.57 3.08 3.35 3.48 3.44 3.15 2.71 2.31 2.02 1.75 1.49 1.27 1.03 0.86 0.72 0.58 0.45 0.35 0.29 0.25 0.22 0.19 0.16 0.15 0.15 0.15 0.14 0.14 0.14 0.09 0.06 0.04 0.03 0.03 0.03 0.03 0.03

GEFSSE_prec_meanprecacc_084.txt.gz
Total_Precipitation_Accumulation
0.02 0.01 0.02 0.02 0.03 0.06 0.06 0.05 0.06 0.08 0.09 0.09 0.08 0.08 0.08 0.09 0.10 0.08 0.07 0.07 0.11 0.20 0.26 0.28 0.27 0.31 0.30 0.29 0.23 0.17 0.13 0.09 0.08 0.08 0.08 0.08 0.11 0.14 0.16 0.13 0.11 0.09 0.04
0.02 0.01 0.01 0.02 0.03 0.05 0.05 0.07 0.07 0.07 0.07 0.07 0.07 0.07 0.07 0.08 0.09 0.11 0.09 0.10 0.15 0.21 0.22 0.24 0.25 0.25 0.22 0.19 0.15 0.10 0.06 0.05 0.06 0.07 0.10 0.15 0.26 0.27 0.26 0.22 0.23 0.17 0.04
0.02 0.00 0.01 0.02 0.03 0.03 0.05 0.07 0.08 0.08 0.07 0.07 0.08 0.08 0.09 0.09 0.10 0.11 0.12 0.13 0.19 0.21 0.18 0.18 0.19 0.17 0.14 0.08 0.05 0.04 0.03 0.05 0.07 0.12 0.29 0.42 0.50 0.37 0.27 0.24 0.24 0.17 0.07
0.01 0.00 0.00 0.01 0.02 0.03 0.03 0.04 0.07 0.08 0.09 0.10 0.12 0.11 0.10 0.10 0.10 0.10 0.12 0.13 0.16 0.17 0.14 0.13 0.12 0.09 0.05 0.03 0.02 0.02 0.02 0.05 0.11 0.26 0.53 0.59 0.73 0.58 0.35 0.26 0.26 0.24 0.21
0.01 0.01 0.01 0.01 0.02 0.02 0.02 0.03 0.07 0.09 0.10 0.11 0.13 0.14 0.11 0.09 0.08 0.10 0.15 0.18 0.20 0.19 0.20 0.19 0.15 0.08 0.04 0.03 0.03 0.03 0.03 0.06 0.15 0.35 0.66 0.88 0.95 0.78 0.46 0.31 0.31 0.33 0.35
0.01 0.00 0.01 0.02 0.02 0.02 0.03 0.03 0.07 0.11 0.13 0.12 0.13 0.14 0.14 0.11 0.09 0.14 0.21 0.24 0.24 0.23 0.27 0.32 0.26 0.16 0.08 0.04 0.03 0.04 0.05 0.10 0.17 0.40 0.88 1.19 1.00 0.71 0.44 0.31 0.27 0.36 0.43
0.01 0.00 0.01 0.02 0.03 0.03 0.03 0.06 0.11 0.13 0.15 0.17 0.15 0.15 0.17 0.11 0.09 0.14 0.23 0.28 0.28 0.26 0.26 0.24 0.18 0.13 0.10 0.06 0.05 0.05 0.05 0.09 0.19 0.44 0.82 1.08 0.85 0.53 0.36 0.29 0.26 0.27 0.32
0.01 0.01 0.01 0.02 0.03 0.05 0.07 0.09 0.13 0.12 0.14 0.15 0.14 0.15 0.15 0.10 0.08 0.13 0.21 0.29 0.34 0.30 0.22 0.16 0.12 0.09 0.08 0.07 0.06 0.05 0.06 0.08 0.14 0.33 0.63 0.73 0.58 0.37 0.27 0.24 0.24 0.22 0.21
0.05 0.04 0.03 0.01 0.02 0.06 0.09 0.10 0.11 0.11 0.12 0.12 0.10 0.10 0.12 0.10 0.08 0.12 0.19 0.24 0.23 0.16 0.13 0.11 0.09 0.07 0.05 0.03 0.03 0.04 0.06 0.08 0.12 0.22 0.47 0.60 0.49 0.31 0.20 0.16 0.15 0.16 0.15
0.31 0.53 0.33 0.07 0.03 0.02 0.02 0.07 0.09 0.09 0.09 0.08 0.06 0.06 0.07 0.08 0.10 0.12 0.16 0.14 0.10 0.05 0.03 0.03 0.03 0.02 0.02 0.01 0.01 0.01 0.03 0.03 0.07 0.16 0.36 0.50 0.42 0.26 0.19 0.15 0.12 0.11 0.11
0.54 0.74 0.34 0.12 0.04 0.02 0.02 0.02 0.03 0.05 0.06 0.05 0.04 0.05 0.07 0.14 0.19 0.19 0.12 0.10 0.05 0.03 0.01 0.01 0.01 0.01 0.01 0.01 0.01 0.01 0.01 0.01 0.06 0.15 0.24 0.34 0.35 0.27 0.22 0.19 0.16 0.12 0.10
0.38 0.29 0.17 0.09 0.04 0.03 0.03 0.04 0.06 0.05 0.05 0.04 0.09 0.06 0.14 0.30 0.34 0.24 0.15 0.09 0.05 0.02 0.02 0.02 0.03 0.02 0.02 0.02 0.03 0.03 0.03 0.05 0.09 0.13 0.16 0.15 0.21 0.23 0.23 0.23 0.17 0.13 0.11
0.38 0.15 0.08 0.06 0.05 0.04 0.06 0.08 0.11 0.13 0.13 0.12 0.17 0.12 0.20 0.23 0.19 0.15 0.14 0.11 0.09 0.07 0.08 0.10 0.08 0.07 0.05 0.06 0.07 0.07 0.08 0.10 0.10 0.12 0.12 0.17 0.19 0.22 0.24 0.25 0.19 0.16 0.15
0.30 0.16 0.10 0.09 0.07 0.07 0.07 0.10 0.10 0.11 0.11 0.13 0.15 0.12 0.19 0.21 0.19 0.15 0.17 0.18 0.21 0.20 0.20 0.19 0.16 0.11 0.10 0.09 0.09 0.07 0.09 0.09 0.09 0.13 0.17 0.23 0.20 0.24 0.29 0.30 0.24 0.21 0.19
0.34 0.21 0.17 0.17 0.11 0.12 0.12 0.11 0.07 0.08 0.09 0.12 0.16 0.15 0.17 0.16 0.15 0.14 0.15 0.18 0.19 0.26 0.33 0.32 0.27 0.19 0.14 0.10 0.08 0.10 0.12 0.10 0.12 0.17 0.19 0.21 0.20 0.26 0.34 0.34 0.30 0.29 0.27
0.41 0.29 0.25 0.27 0.14 0.14 0.14 0.13 0.11 0.10 0.17 0.22 0.19 0.16 0.15 0.15 0.17 0.18 0.20 0.23 0.20 0.24 0.30 0.35 0.31 0.23 0.16 0.13 0.13 0.16 0.17 0.14 0.15 0.20 0.24 0.29 0.28 0.29 0.36 0.40 0.40 0.38 0.35
0.55 0.43 0.36 0.25 0.24 0.20 0.18 0.17 0.15 0.14 0.19 0.26 0.29 0.28 0.20 0.19 0.21 0.21 0.27 0.33 0.32 0.30 0.30 0.31 0.31 0.30 0.25 0.22 0.25 0.25 0.25 0.28 0.32 0.32 0.28 0.34 0.41 0.42 0.46 0.44 0.42 0.40 0.37
0.71 0.79 0.67 0.32 0.28 0.28 0.24 0.24 0.22 0.24 0.27 0.29 0.33 0.39 0.33 0.30 0.29 0.34 0.42 0.47 0.52 0.51 0.52 0.54 0.51 0.47 0.44 0.39 0.35 0.32 0.31 0.32 0.33 0.37 0.37 0.38 0.46 0.49 0.49 0.43 0.40 0.39 0.37
1.06 1.28 0.99 0.51 0.34 0.31 0.29 0.29 0.34 0.42 0.51 0.57 0.60 0.61 0.53 0.48 0.54 0.65 0.75 0.82 0.85 0.84 0.82 0.76 0.76 0.71 0.72 0.65 0.52 0.43 0.37 0.35 0.39 0.38 0.35 0.34 0.36 0.43 0.45 0.42 0.38 0.37 0.33
1.55 1.87 1.39 0.75 0.55 0.47 0.49 0.52 0.60 0.74 0.91 1.05 1.02 0.92 0.89 0.90 0.95 1.03 1.07 1.14 1.15 1.16 1.11 1.05 0.98 0.86 0.78 0.68 0.54 0.45 0.41 0.37 0.36 0.34 0.30 0.26 0.25 0.26 0.26 0.27 0.29 0.29 0.29
1.70 1.72 1.44 1.08 0.87 0.77 0.81 0.92 1.08 1.25 1.41 1.52 1.55 1.55 1.62 1.66 1.62 1.59 1.56 1.53 1.43 1.37 1.30 1.16 1.02 0.92 0.81 0.66 0.56 0.47 0.36 0.28 0.25 0.24 0.22 0.20 0.19 0.19 0.19 0.20 0.22 0.24 0.24
1.62 1.51 1.45 1.33 1.24 1.13 1.26 1.50 1.80 2.05 2.19 2.38 2.54 2.66 2.71 2.62 2.42 2.25 2.07 1.81 1.60 1.47 1.38 1.24 1.07 0.94 0.81 0.66 0.57 0.52 0.41 0.29 0.21 0.16 0.16 0.16 0.15 0.15 0.15 0.14 0.15 0.16 0.14
1.54 1.53 1.53 1.57 1.57 1.53 1.77 2.17 2.57 2.89 3.09 3.24 3.32 3.34 3.24 2.96 2.71 2.49 2.17 1.91 1.74 1.60 1.46 1.31 1.11 0.97 0.79 0.60 0.48 0.48 0.44 0.36 0.24 0.15 0.09 0.07 0.07 0.07 0.08 0.07 0.07 0.07 0.08
1.34 1.45 1.48 1.57 1.75 2.03 2.27 2.63 3.17 3.59 3.81 3.86 3.63 3.37 3.03 2.71 2.43 2.13 1.93 1.80 1.66 1.50 1.35 1.14 0.91 0.76 0.63 0.51 0.43 0.39 0.35 0.29 0.25 0.18 0.10 0.07 0.06 0.06 0.05 0.05 0.04 0.04 0.05
1.23 1.33 1.45 1.55 1.84 2.31 2.86 3.30 3.76 4.11 4.10 3.82 3.43 2.93 2.59 2.30 2.02 1.77 1.58 1.46 1.36 1.18 0.97 0.75 0.60 0.50 0.41 0.35 0.30 0.26 0.24 0.21 0.18 0.17 0.14 0.09 0.07 0.05 0.04 0.04 0.04 0.04 0.05
1.01 1.17 1.39 1.61 1.88 2.32 2.80 3.32 3.68 3.89 3.83 3.52 2.99 2.51 2.19 1.90 1.62 1.38 1.12 0.94 0.79 0.63 0.49 0.38 0.32 0.28 0.25 0.22 0.18 0.16 0.16 0.16 0.15 0.15 0.15 0.10 0.07 0.05 0.05 0.04 0.04 0.03 0.04

GEFSSE_prec_meanprecacc_090.txt.gz
Total_Precipitation_Accumulation
0.02 0.01 0.02 0.02 0.03 0.06 0.06 0.05 0.06 0.08 0.09 0.09 0.08 0.08 0.08 0.09 0.10 0.08 0.07 0.07 0.11 0.20 0.26 0.28 0.28 0.31 0.31 0.29 0.24 0.17 0.13 0.09 0.08 0.08 0.09 0.10 0.13 0.16 0.18 0.14 0.12 0.10 0.05
0.02 0.01 0.01 0.02 0.03 0.05 0.05 0.07 0.07 0.07 0.07 0.07 0.07 0.07 0.07 0.08 0.09 0.11 0.09 0.10 0.15 0.21 0.23 0.24 0.25 0.25 0.23 0.19 0.15 0.10 0.07 0.06 0.07 0.09 0.12 0.18 0.29 0.32 0.30 0.24 0.23 0.17 0.05
0.02 0.00 0.01 0.02 0.03 0.03 0.05 0.07 0.08 0.08 0.07 0.07 0.08 0.08 0.09 0.09 0.10 0.11 0.12 0.13 0.19 0.21 0.19 0.18 0.19 0.17 0.14 0.08 0.05 0.04 0.04 0.06 0.09 0.14 0.30 0.43 0.53 0.42 0.31 0.26 0.25 0.17 0.08
0.01 0.00 0.00 0.01 0.02 0.03 0.03 0.04 0.07 0.08 0.09 0.10 0.12 0.11 0.10 0.10 0.10 0.10 0.12 0.13 0.16 0.17 0.15 0.13 0.12 0.09 0.05 0.03 0.03 0.03 0.03 0.06 0.13 0.27 0.54 0.60 0.75 0.62 0.38 0.27 0.26 0.25 0.21
0.02 0.01 0.01 0.01 0.02 0.02 0.02 0.03 0.07 0.09 0.10 0.11 0.13 0.14 0.11 0.09 0.08 0.10 0.15 0.18 0.20 0.19 0.20 0.19 0.15 0.08 0.04 0.03 0.03 0.03 0.04 0.08 0.16 0.35 0.66 0.88 0.97 0.81 0.49 0.33 0.32 0.34 0.35
0.01 0.01 0.01 0.02 0.02 0.02 0.03 0.03 0.07 0.12 0.13 0.12 0.13 0.14 0.14 0.11 0.09 0.14 0.21 0.24 0.24 0.23 0.27 0.32 0.26 0.16 0.08 0.05 0.04 0.04 0.06 0.11 0.18 0.40 0.88 1.19 1.01 0.74 0.47 0.33 0.29 0.37 0.44
0.01 0.00 0.01 0.02 0.03 0.03 0.03 0.06 0.11 0.13 0.15 0.17 0.15 0.15 0.17 0.11 0.09 0.14 0.23 0.28 0.28 0.27 0.27 0.24 0.18 0.13 0.10 0.06 0.06 0.05 0.06 0.10 0.20 0.44 0.82 1.08 0.86 0.55 0.39 0.32 0.29 0.30 0.34
0.02 0.01 0.01 0.02 0.03 0.05 0.07 0.10 0.14 0.13 0.14 0.15 0.15 0.15 0.15 0.10 0.09 0.13 0.22 0.29 0.34 0.30 0.22 0.16 0.12 0.09 0.08 0.07 0.06 0.05 0.07 0.09 0.15 0.33 0.64 0.73 0.58 0.40 0.31 0.29 0.28 0.25 0.25
0.07 0.05 0.03 0.02 0.02 0.06 0.10 0.11 0.13 0.13 0.12 0.12 0.10 0.10 0.12 0.11 0.09 0.13 0.19 0.24 0.23 0.16 0.13 0.11 0.09 0.07 0.05 0.03 0.03 0.04 0.06 0.08 0.12 0.22 0.47 0.60 0.50 0.34 0.26 0.21 0.19 0.19 0.20
0.35 0.56 0.34 0.08 0.03 0.03 0.03 0.09 0.12 0.13 0.11 0.09 0.06 0.06 0.07 0.08 0.10 0.13 0.16 0.14 0.10 0.05 0.03 0.03 0.03 0.02 0.02 0.01 0.02 0.02 0.03 0.04 0.07 0.16 0.36 0.50 0.44 0.31 0.27 0.22 0.17 0.15 0.15
0.59 0.79 0.36 0.13 0.05 0.04 0.04 0.05 0.07 0.08 0.10 0.07 0.05 0.06 0.07 0.14 0.19 0.20 0.13 0.11 0.06 0.03 0.01 0.01 0.01 0.01 0.01 0.01 0.01 0.02 0.02 0.02 0.07 0.15 0.25 0.35 0.38 0.33 0.30 0.26 0.21 0.17 0.14
0.43 0.34 0.22 0.15 0.08 0.05 0.05 0.06 0.07 0.06 0.06 0.05 0.10 0.07 0.14 0.30 0.34 0.25 0.16 0.10 0.06 0.04 0.03 0.03 0.04 0.03 0.03 0.02 0.03 0.03 0.04 0.06 0.09 0.13 0.16 0.16 0.24 0.29 0.31 0.31 0.23 0.18 0.16
0.44 0.20 0.14 0.12 0.12 0.10 0.10 0.11 0.12 0.15 0.14 0.13 0.18 0.12 0.20 0.23 0.19 0.16 0.15 0.12 0.10 0.09 0.09 0.11 0.09 0.07 0.06 0.07 0.08 0.08 0.08 0.10 0.10 0.13 0.13 0.18 0.22 0.28 0.33 0.33 0.27 0.24 0.21
0.41 0.25 0.18 0.17 0.16 0.16 0.15 0.15 0.13 0.14 0.14 0.14 0.15 0.12 0.19 0.22 0.21 0.17 0.18 0.20 0.23 0.22 0.21 0.20 0.17 0.12 0.11 0.11 0.11 0.08 0.10 0.10 0.11 0.15 0.19 0.26 0.25 0.31 0.39 0.40 0.34 0.32 0.28
0.52 0.33 0.25 0.26 0.22 0.23 0.23 0.20 0.14 0.14 0.13 0.14 0.18 0.17 0.19 0.18 0.18 0.17 0.18 0.21 0.23 0.29 0.35 0.34 0.29 0.21 0.16 0.14 0.11 0.12 0.13 0.11 0.13 0.19 0.22 0.25 0.25 0.33 0.44 0.47 0.43 0.41 0.38
0.57 0.42 0.36 0.39 0.25 0.24 0.25 0.25 0.22 0.20 0.24 0.28 0.25 0.22 0.19 0.20 0.22 0.24 0.25 0.28 0.26 0.29 0.34 0.38 0.35 0.27 0.19 0.16 0.16 0.18 0.19 0.17 0.17 0.23 0.28 0.34 0.34 0.36 0.47 0.52 0.52 0.51 0.50
0.73 0.61 0.55 0.41 0.40 0.35 0.31 0.30 0.27 0.29 0.32 0.37 0.38 0.37 0.30 0.31 0.31 0.31 0.38 0.43 0.39 0.36 0.35 0.36 0.36 0.33 0.28 0.25 0.27 0.28 0.27 0.30 0.34 0.35 0.32 0.39 0.47 0.49 0.55 0.53 0.52 0.52 0.52
0.93 1.00 0.89 0.48 0.47 0.49 0.46 0.46 0.37 0.39 0.43 0.45 0.50 0.58 0.54 0.51 0.48 0.51 0.58 0.61 0.63 0.59 0.58 0.61 0.56 0.51 0.47 0.41 0.38 0.34 0.32 0.34 0.35 0.40 0.40 0.42 0.50 0.55 0.57 0.53 0.51 0.52 0.52
1.37 1.57 1.27 0.80 0.63 0.61 0.58 0.62 0.62 0.68 0.77 0.82 0.86 0.87 0.79 0.74 0.76 0.84 0.91 0.96 0.97 0.94 0.91 0.85 0.83 0.76 0.76 0.68 0.55 0.45 0.39 0.37 0.42 0.40 0.37 0.37 0.39 0.48 0.50 0.48 0.46 0.46 0.45
1.88 2.23 1.79 1.19 0.99 0.94 0.92 0.87 0.95 1.07 1.26 1.42 1.40 1.29 1.25 1.22 1.20 1.22 1.23 1.30 1.30 1.30 1.23 1.15 1.06 0.91 0.83 0.72 0.57 0.48 0.44 0.40 0.38 0.36 0.31 0.28 0.28 0.30 0.31 0.32 0.33 0.34 0.35
2.06 2.15 1.93 1.61 1.41 1.32 1.34 1.35 1.48 1.65 1.79 1.94 2.01 1.98 1.98 1.97 1.88 1.82 1.79 1.73 1.61 1.53 1.42 1.27 1.11 0.98 0.86 0.71 0.60 0.50 0.39 0.31 0.28 0.26 0.24 0.21 0.21 0.22 0.22 0.23 0.26 0.28 0.30
2.06 2.01 2.04 2.01 1.94 1.79 1.89 2.08 2.33 2.54 2.62 2.77 2.98 3.10 3.07 2.90 2.66 2.48 2.29 2.02 1.77 1.62 1.50 1.34 1.15 1.00 0.86 0.71 0.61 0.55 0.43 0.31 0.23 0.17 0.17 0.17 0.16 0.17 0.17 0.16 0.18 0.20 0.20
1.98 2.09 2.16 2.35 2.35 2.24 2.51 2.88 3.22 3.46 3.52 3.58 3.61 3.64 3.52 3.21 2.94 2.69 2.36 2.07 1.88 1.73 1.56 1.40 1.19 1.04 0.85 0.65 0.52 0.50 0.46 0.37 0.25 0.15 0.10 0.08 0.08 0.08 0.09 0.08 0.09 0.09 0.10
1.73 1.91 1.99 2.24 2.50 2.74 3.03 3.41 3.84 4.11 4.24 4.19 3.92 3.64 3.28 2.94 2.62 2.29 2.08 1.94 1.79 1.63 1.48 1.26 1.01 0.83 0.69 0.56 0.47 0.41 0.36 0.30 0.26 0.19 0.12 0.08 0.07 0.07 0.07 0.07 0.07 0.07 0.07
1.49 1.67 1.82 2.01 2.37 2.92 3.51 3.96 4.33 4.57 4.46 4.08 3.65 3.12 2.74 2.43 2.15 1.90 1.72 1.63 1.54 1.34 1.11 0.86 0.66 0.55 0.46 0.39 0.32 0.28 0.26 0.22 0.19 0.20 0.17 0.11 0.08 0.07 0.06 0.06 0.07 0.07 0.08
1.13 1.36 1.63 1.90 2.21 2.73 3.27 3.79 4.13 4.29 4.16 3.75 3.17 2.65 2.30 1.99 1.72 1.48 1.22 1.04 0.89 0.73 0.55 0.43 0.36 0.32 0.29 0.25 0.20 0.18 0.17 0.17 0.16 0.16 0.16 0.11 0.08 0.06 0.06 0.05 0.05 0.05 0.05

GEFSSE_prec_meanprecacc_096.txt.gz
Total_Precipitation_Accumulation
0.02 0.01 0.02 0.02 0.04 0.07 0.07 0.07 0.07 0.08 0.09 0.09 0.08 0.08 0.08 0.09 0.10 0.08 0.07 0.07 0.11 0.20 0.27 0.28 0.29 0.33 0.32 0.30 0.25 0.18 0.14 0.10 0.09 0.09 0.10 0.11 0.15 0.18 0.19 0.15 0.13 0.10 0.06
0.02 0.01 0.01 0.02 0.03 0.05 0.06 0.08 0.09 0.08 0.07 0.08 0.07 0.07 0.08 0.08 0.09 0.11 0.09 0.10 0.15 0.21 0.23 0.25 0.26 0.26 0.23 0.20 0.16 0.11 0.07 0.06 0.08 0.10 0.14 0.20 0.31 0.33 0.31 0.25 0.24 0.18 0.06
0.02 0.00 0.01 0.02 0.03 0.04 0.06 0.08 0.09 0.09 0.08 0.07 0.08 0.08 0.09 0.09 0.10 0.11 0.12 0.13 0.19 0.21 0.19 0.18 0.20 0.18 0.14 0.08 0.06 0.04 0.04 0.07 0.11 0.16 0.34 0.47 0.55 0.44 0.32 0.27 0.25 0.18 0.09
0.01 0.01 0.00 0.02 0.03 0.03 0.03 0.05 0.07 0.08 0.09 0.10 0.12 0.11 0.10 0.10 0.10 0.10 0.12 0.13 0.16 0.17 0.15 0.13 0.12 0.10 0.06 0.03 0.03 0.03 0.04 0.07 0.14 0.28 0.56 0.62 0.78 0.64 0.40 0.28 0.27 0.25 0.22
0.02 0.02 0.01 0.01 0.02 0.02 0.02 0.04 0.07 0.10 0.10 0.11 0.13 0.14 0.11 0.09 0.08 0.10 0.15 0.18 0.20 0.19 0.20 0.20 0.15 0.08 0.04 0.04 0.04 0.04 0.05 0.08 0.16 0.36 0.67 0.90 1.01 0.85 0.52 0.35 0.33 0.35 0.37
0.02 0.01 0.01 0.02 0.02 0.02 0.03 0.03 0.07 0.12 0.13 0.12 0.13 0.14 0.14 0.11 0.09 0.14 0.21 0.25 0.24 0.23 0.28 0.32 0.26 0.17 0.09 0.05 0.04 0.05 0.08 0.12 0.18 0.40 0.88 1.20 1.03 0.77 0.51 0.38 0.32 0.40 0.46
0.01 0.01 0.01 0.02 0.03 0.03 0.03 0.06 0.11 0.13 0.15 0.17 0.15 0.15 0.17 0.11 0.09 0.15 0.24 0.29 0.28 0.27 0.27 0.24 0.18 0.13 0.10 0.07 0.06 0.07 0.08 0.11 0.20 0.45 0.83 1.08 0.88 0.58 0.42 0.37 0.34 0.36 0.40
0.02 0.01 0.01 0.02 0.03 0.05 0.07 0.10 0.14 0.13 0.15 0.16 0.15 0.16 0.15 0.10 0.09 0.14 0.23 0.30 0.35 0.30 0.22 0.17 0.12 0.09 0.08 0.07 0.07 0.06 0.09 0.11 0.15 0.33 0.65 0.74 0.60 0.42 0.35 0.34 0.34 0.31 0.30
0.07 0.06 0.04 0.02 0.03 0.06 0.10 0.12 0.14 0.14 0.14 0.13 0.11 0.11 0.13 0.12 0.10 0.13 0.20 0.25 0.24 0.17 0.13 0.11 0.10 0.07 0.05 0.03 0.03 0.05 0.08 0.09 0.12 0.22 0.48 0.62 0.52 0.37 0.31 0.28 0.24 0.25 0.25
0.36 0.57 0.35 0.08 0.03 0.03 0.04 0.12 0.17 0.18 0.16 0.12 0.08 0.08 0.08 0.09 0.11 0.14 0.17 0.15 0.11 0.06 0.03 0.04 0.03 0.02 0.02 0.02 0.02 0.03 0.04 0.04 0.07 0.16 0.37 0.51 0.46 0.35 0.33 0.29 0.24 0.21 0.20
0.61 0.81 0.39 0.15 0.06 0.04 0.05 0.07 0.13 0.17 0.18 0.14 0.10 0.10 0.10 0.15 0.20 0.21 0.13 0.11 0.07 0.04 0.02 0.01 0.01 0.01 0.01 0.01 0.02 0.02 0.02 0.02 0.07 0.15 0.25 0.36 0.40 0.37 0.36 0.34 0.28 0.23 0.20
0.46 0.36 0.25 0.19 0.12 0.09 0.07 0.10 0.14 0.15 0.16 0.13 0.20 0.15 0.18 0.34 0.39 0.27 0.17 0.11 0.07 0.04 0.04 0.04 0.04 0.04 0.03 0.03 0.03 0.03 0.04 0.06 0.09 0.14 0.16 0.16 0.26 0.32 0.36 0.37 0.30 0.25 0.23
0.46 0.22 0.16 0.16 0.18 0.15 0.17 0.19 0.18 0.20 0.20 0.21 0.28 0.21 0.27 0.30 0.25 0.19 0.17 0.14 0.13 0.11 0.12 0.13 0.09 0.08 0.07 0.08 0.09 0.08 0.08 0.10 0.11 0.13 0.13 0.18 0.23 0.31 0.39 0.41 0.35 0.31 0.29
0.44 0.28 0.21 0.21 0.23 0.24 0.27 0.27 0.22 0.25 0.24 0.22 0.26 0.21 0.29 0.33 0.29 0.21 0.22 0.23 0.27 0.26 0.26 0.23 0.19 0.14 0.12 0.11 0.12 0.09 0.10 0.10 0.11 0.16 0.20 0.27 0.26 0.34 0.44 0.50 0.45 0.42 0.38
0.56 0.36 0.30 0.34 0.31 0.34 0.39 0.37 0.31 0.35 0.38 0.38 0.40 0.33 0.32 0.32 0.28 0.25 0.23 0.25 0.28 0.35 0.40 0.38 0.32 0.23 0.18 0.16 0.12 0.13 0.14 0.12 0.14 0.20 0.25 0.27 0.27 0.37 0.51 0.56 0.56 0.55 0.54
0.64 0.50 0.45 0.50 0.38 0.39 0.45 0.47 0.47 0.48 0.56 0.70 0.65 0.47 0.38 0.37 0.35 0.35 0.35 0.38 0.35 0.36 0.41 0.44 0.39 0.31 0.23 0.20 0.19 0.20 0.21 0.18 0.18 0.25 0.32 0.38 0.36 0.39 0.52 0.62 0.65 0.65 0.67
0.82 0.70 0.65 0.52 0.54 0.53 0.54 0.54 0.50 0.60 0.72 0.81 0.80 0.74 0.56 0.49 0.51 0.49 0.55 0.59 0.52 0.46 0.44 0.44 0.43 0.39 0.33 0.29 0.31 0.30 0.29 0.32 0.36 0.36 0.34 0.43 0.51 0.52 0.58 0.59 0.61 0.65 0.66
0.99 1.08 1.01 0.60 0.61 0.68 0.69 0.69 0.63 0.71 0.84 0.87 0.88 0.92 0.83 0.76 0.73 0.78 0.80 0.79 0.77 0.71 0.69 0.71 0.67 0.62 0.56 0.47 0.42 0.36 0.34 0.36 0.37 0.41 0.42 0.44 0.54 0.60 0.62 0.57 0.57 0.59 0.62
1.45 1.66 1.42 0.96 0.81 0.81 0.85 0.94 0.92 1.03 1.20 1.27 1.28 1.23 1.08 1.02 1.03 1.12 1.17 1.15 1.14 1.10 1.06 0.98 0.96 0.88 0.86 0.75 0.60 0.49 0.41 0.39 0.44 0.42 0.39 0.39 0.42 0.52 0.56 0.53 0.50 0.49 0.50
1.97 2.33 1.91 1.36 1.22 1.19 1.19 1.13 1.22 1.39 1.65 1.85 1.83 1.67 1.59 1.56 1.53 1.49 1.49 1.54 1.51 1.49 1.39 1.29 1.18 1.01 0.90 0.79 0.62 0.52 0.46 0.43 0.40 0.37 0.33 0.29 0.29 0.31 0.34 0.35 0.39 0.39 0.39
2.14 2.26 2.08 1.79 1.66 1.64 1.65 1.61 1.76 1.94 2.07 2.23 2.32 2.30 2.26 2.23 2.17 2.11 2.05 1.95 1.80 1.71 1.60 1.42 1.23 1.07 0.94 0.78 0.67 0.55 0.41 0.33 0.29 0.28 0.26 0.23 0.23 0.23 0.22 0.24 0.28 0.32 0.33
2.12 2.08 2.16 2.21 2.18 2.05 2.20 2.41 2.67 2.88 2.92 3.06 3.26 3.36 3.33 3.15 2.90 2.71 2.51 2.21 1.93 1.78 1.65 1.47 1.25 1.08 0.92 0.77 0.69 0.64 0.48 0.34 0.24 0.19 0.18 0.18 0.18 0.18 0.17 0.16 0.19 0.21 0.21
2.02 2.14 2.26 2.52 2.58 2.48 2.81 3.24 3.63 3.87 3.88 3.88 3.88 3.88 3.74 3.43 3.15 2.90 2.55 2.25 2.03 1.86 1.68 1.52 1.31 1.14 0.92 0.70 0.58 0.58 0.55 0.44 0.27 0.17 0.11 0.09 0.08 0.09 0.10 0.09 0.10 0.10 0.11
1.77 1.96 2.09 2.39 2.73 2.99 3.32 3.78 4.29 4.54 4.63 4.55 4.23 3.90 3.51 3.14 2.83 2.49 2.25 2.11 1.92 1.74 1.57 1.35 1.11 0.93 0.77 0.62 0.52 0.45 0.42 0.36 0.30 0.22 0.13 0.09 0.08 0.08 0.08 0.08 0.08 0.08 0.09
1.54 1.73 1.93 2.18 2.62 3.18 3.80 4.33 4.74 5.01 4.90 4.49 4.02 3.44 3.01 2.63 2.34 2.08 1.88 1.80 1.68 1.46 1.20 0.94 0.74 0.63 0.52 0.45 0.37 0.32 0.29 0.26 0.23 0.23 0.19 0.12 0.09 0.08 0.07 0.07 0.08 0.09 0.10
1.17 1.42 1.71 2.05 2.38 2.92 3.50 4.08 4.43 4.62 4.51 4.09 3.47 2.93 2.53 2.17 1.86 1.59 1.31 1.13 0.98 0.81 0.64 0.51 0.43 0.38 0.34 0.31 0.26 0.23 0.21 0.21 0.20 0.19 0.19 0.13 0.10 0.07 0.06 0.06 0.06 0.06 0.06

GEFSSE_prec_meanprecacc_102.txt.gz
Total_Precipitation_Accumulation
0.07 0.01 0.02 0.02 0.04 0.07 0.07 0.07 0.07 0.08 0.09 0.09 0.08 0.08 0.08 0.09 0.10 0.08 0.07 0.08 0.11 0.20 0.28 0.30 0.30 0.35 0.34 0.32 0.26 0.20 0.15 0.11 0.09 0.09 0.10 0.11 0.15 0.18 0.19 0.15 0.15 0.11 0.06
0.12 0.02 0.01 0.02 0.03 0.05 0.06 0.09 0.09 0.08 0.08 0.08 0.07 0.07 0.08 0.08 0.09 0.11 0.10 0.10 0.16 0.21 0.23 0.26 0.27 0.27 0.25 0.21 0.17 0.12 0.08 0.07 0.08 0.11 0.14 0.20 0.31 0.34 0.32 0.26 0.27 0.19 0.06
0.04 0.00 0.01 0.02 0.03 0.04 0.06 0.08 0.09 0.09 0.08 0.08 0.09 0.08 0.09 0.09 0.10 0.11 0.12 0.13 0.19 0.21 0.19 0.19 0.20 0.19 0.15 0.09 0.06 0.05 0.05 0.07 0.11 0.18 0.40 0.53 0.56 0.44 0.32 0.27 0.27 0.18 0.09
0.02 0.01 0.00 0.02 0.03 0.03 0.03 0.05 0.08 0.09 0.09 0.11 0.12 0.11 0.10 0.10 0.10 0.10 0.12 0.13 0.17 0.17 0.15 0.14 0.13 0.10 0.06 0.03 0.03 0.04 0.04 0.07 0.16 0.35 0.73 0.71 0.80 0.64 0.40 0.29 0.28 0.26 0.22
0.02 0.02 0.01 0.01 0.02 0.02 0.03 0.04 0.07 0.10 0.11 0.11 0.14 0.14 0.11 0.09 0.08 0.10 0.15 0.18 0.20 0.20 0.21 0.20 0.16 0.09 0.04 0.04 0.04 0.05 0.05 0.10 0.20 0.45 0.78 0.97 1.05 0.86 0.52 0.35 0.34 0.36 0.38
0.02 0.01 0.01 0.02 0.02 0.02 0.03 0.04 0.07 0.12 0.13 0.13 0.13 0.14 0.14 0.11 0.09 0.14 0.22 0.25 0.25 0.23 0.28 0.33 0.26 0.17 0.09 0.05 0.05 0.05 0.08 0.13 0.23 0.50 0.95 1.25 1.06 0.79 0.51 0.38 0.33 0.42 0.49
0.01 0.01 0.01 0.02 0.03 0.03 0.04 0.06 0.11 0.14 0.16 0.17 0.15 0.16 0.17 0.11 0.09 0.15 0.24 0.29 0.28 0.27 0.27 0.24 0.18 0.14 0.10 0.07 0.06 0.07 0.09 0.12 0.26 0.53 0.86 1.12 0.91 0.59 0.43 0.38 0.36 0.38 0.42
0.02 0.01 0.01 0.02 0.03 0.05 0.07 0.10 0.14 0.13 0.16 0.17 0.16 0.16 0.15 0.11 0.09 0.14 0.23 0.30 0.35 0.31 0.23 0.17 0.12 0.09 0.08 0.07 0.07 0.06 0.09 0.11 0.17 0.37 0.67 0.77 0.62 0.42 0.35 0.35 0.36 0.33 0.32
0.07 0.06 0.04 0.02 0.03 0.07 0.10 0.12 0.14 0.15 0.15 0.14 0.12 0.13 0.14 0.12 0.10 0.14 0.20 0.26 0.24 0.17 0.14 0.11 0.10 0.08 0.05 0.03 0.03 0.05 0.08 0.09 0.13 0.25 0.52 0.64 0.54 0.37 0.31 0.29 0.26 0.26 0.27
0.42 0.58 0.35 0.08 0.03 0.03 0.04 0.13 0.18 0.19 0.18 0.15 0.11 0.10 0.10 0.10 0.12 0.15 0.17 0.15 0.11 0.06 0.04 0.04 0.03 0.03 0.02 0.02 0.02 0.03 0.04 0.05 0.09 0.21 0.42 0.54 0.47 0.35 0.34 0.30 0.26 0.22 0.22
0.67 0.85 0.41 0.16 0.06 0.04 0.05 0.08 0.13 0.18 0.20 0.15 0.12 0.12 0.13 0.17 0.23 0.23 0.15 0.13 0.07 0.04 0.02 0.01 0.01 0.02 0.02 0.01 0.02 0.02 0.03 0.05 0.21 0.24 0.32 0.40 0.41 0.37 0.37 0.36 0.30 0.26 0.22
0.51 0.46 0.36 0.24 0.14 0.10 0.08 0.12 0.15 0.16 0.17 0.14 0.22 0.17 0.22 0.44 0.51 0.38 0.27 0.15 0.09 0.06 0.04 0.04 0.04 0.04 0.03 0.04 0.04 0.03 0.05 0.10 0.19 0.27 0.23 0.19 0.27 0.33 0.38 0.40 0.33 0.28 0.26
0.60 0.32 0.33 0.29 0.24 0.21 0.22 0.24 0.21 0.25 0.27 0.26 0.38 0.29 0.38 0.46 0.40 0.37 0.33 0.21 0.17 0.14 0.14 0.15 0.11 0.10 0.08 0.10 0.10 0.09 0.09 0.12 0.15 0.20 0.20 0.24 0.27 0.33 0.40 0.43 0.37 0.34 0.32
0.78 0.56 0.43 0.43 0.44 0.42 0.43 0.42 0.33 0.37 0.41 0.40 0.48 0.40 0.48 0.56 0.51 0.43 0.43 0.37 0.37 0.33 0.33 0.29 0.23 0.17 0.14 0.12 0.13 0.09 0.11 0.12 0.14 0.21 0.28 0.33 0.29 0.36 0.47 0.52 0.48 0.45 0.43
0.85 0.69 0.64 0.63 0.58 0.58 0.66 0.66 0.54 0.56 0.61 0.65 0.68 0.59 0.62 0.62 0.56 0.52 0.47 0.46 0.46 0.52 0.51 0.47 0.38 0.27 0.21 0.17 0.13 0.14 0.15 0.15 0.18 0.27 0.36 0.33 0.29 0.39 0.54 0.60 0.60 0.61 0.60
0.93 0.78 0.73 0.78 0.61 0.63 0.72 0.75 0.76 0.79 0.94 1.08 1.07 0.89 0.83 0.80 0.77 0.73 0.70 0.68 0.55 0.56 0.56 0.54 0.44 0.36 0.27 0.24 0.22 0.22 0.23 0.21 0.22 0.30 0.40 0.43 0.38 0.41 0.54 0.67 0.73 0.73 0.74
1.07 0.95 0.84 0.71 0.75 0.73 0.79 0.82 0.78 0.89 1.06 1.18 1.21 1.27 1.10 0.96 1.03 1.01 1.02 0.97 0.76 0.64 0.64 0.59 0.54 0.48 0.40 0.35 0.37 0.34 0.32 0.35 0.40 0.43 0.45 0.56 0.60 0.56 0.61 0.63 0.66 0.70 0.72
1.16 1.26 1.16 0.76 0.83 0.93 0.94 1.00 0.97 1.06 1.21 1.26 1.29 1.41 1.33 1.23 1.21 1.30 1.28 1.18 1.07 0.95 0.92 0.94 0.84 0.75 0.69 0.58 0.53 0.44 0.41 0.43 0.42 0.49 0.52 0.56 0.68 0.72 0.68 0.60 0.60 0.63 0.67
1.57 1.81 1.59 1.15 1.05 1.08 1.17 1.27 1.24 1.32 1.57 1.72 1.70 1.59 1.46 1.42 1.48 1.56 1.59 1.56 1.47 1.40 1.31 1.18 1.17 1.05 1.04 0.90 0.70 0.59 0.49 0.47 0.52 0.51 0.49 0.49 0.53 0.63 0.64 0.58 0.53 0.53 0.53
2.05 2.46 2.06 1.54 1.44 1.49 1.52 1.52 1.65 1.77 1.99 2.25 2.22 1.99 1.87 1.88 1.88 1.90 1.88 1.87 1.84 1.81 1.70 1.55 1.42 1.23 1.11 0.97 0.75 0.67 0.61 0.53 0.49 0.46 0.40 0.37 0.36 0.37 0.41 0.46 0.49 0.44 0.42
2.20 2.35 2.22 1.97 1.85 1.86 1.94 1.93 2.12 2.32 2.44 2.58 2.64 2.63 2.57 2.51 2.43 2.39 2.36 2.26 2.13 2.04 1.89 1.69 1.48 1.30 1.14 0.97 0.90 0.78 0.61 0.44 0.37 0.35 0.32 0.29 0.28 0.28 0.28 0.32 0.37 0.40 0.39
2.19 2.17 2.27 2.35 2.32 2.17 2.38 2.63 2.91 3.17 3.22 3.33 3.51 3.64 3.61 3.39 3.14 2.95 2.79 2.52 2.24 2.10 1.96 1.75 1.50 1.32 1.13 0.95 0.91 0.86 0.68 0.46 0.32 0.24 0.22 0.22 0.21 0.21 0.20 0.20 0.25 0.28 0.28
2.07 2.23 2.36 2.62 2.70 2.61 2.96 3.41 3.85 4.11 4.08 4.05 4.06 4.06 3.92 3.60 3.31 3.06 2.73 2.48 2.27 2.09 1.92 1.76 1.53 1.37 1.13 0.88 0.77 0.79 0.76 0.61 0.38 0.22 0.15 0.13 0.14 0.14 0.13 0.12 0.13 0.13 0.14
1.80 2.02 2.17 2.49 2.84 3.11 3.45 3.91 4.44 4.71 4.83 4.74 4.40 4.08 3.67 3.32 3.03 2.65 2.40 2.28 2.11 1.92 1.76 1.54 1.28 1.12 0.98 0.81 0.69 0.65 0.60 0.53 0.43 0.30 0.18 0.13 0.12 0.12 0.12 0.11 0.10 0.09 0.11
1.57 1.78 1.99 2.26 2.70 3.28 3.93 4.46 4.87 5.17 5.09 4.69 4.22 3.64 3.22 2.85 2.58 2.32 2.08 1.99 1.86 1.63 1.36 1.10 0.91 0.79 0.70 0.63 0.54 0.46 0.40 0.36 0.33 0.32 0.26 0.16 0.12 0.10 0.09 0.09 0.09 0.10 0.11
1.21 1.47 1.77 2.12 2.46 3.01 3.62 4.21 4.57 4.79 4.71 4.29 3.67 3.14 2.76 2.41 2.11 1.84 1.54 1.32 1.15 0.96 0.79 0.66 0.57 0.51 0.47 0.44 0.39 0.33 0.30 0.28 0.26 0.26 0.25 0.19 0.13 0.10 0.09 0.08 0.07 0.07 0.07

GEFSSE_prec_meanprecacc_108.txt.gz
Total_Precipitation_Accumulation
0.19 0.05 0.02 0.02 0.04 0.07 0.07 0.07 0.07 0.08 0.09 0.09 0.08 0.08 0.08 0.09 0.10 0.08 0.07 0.08 0.11 0.20 0.28 0.30 0.30 0.35 0.35 0.33 0.28 0.22 0.16 0.12 0.10 0.10 0.11 0.12 0.15 0.18 0.19 0.15 0.15 0.11 0.06
0.17 0.04 0.01 0.02 0.03 0.05 0.06 0.09 0.09 0.08 0.08 0.08 0.07 0.07 0.08 0.08 0.09 0.11 0.10 0.10 0.16 0.22 0.24 0.26 0.27 0.28 0.25 0.22 0.18 0.13 0.09 0.08 0.10 0.12 0.16 0.21 0.31 0.34 0.32 0.26 0.27 0.19 0.06
0.06 0.01 0.01 0.02 0.03 0.04 0.06 0.08 0.09 0.09 0.08 0.08 0.09 0.08 0.09 0.09 0.10 0.11 0.12 0.14 0.19 0.21 0.19 0.19 0.21 0.19 0.16 0.10 0.07 0.06 0.06 0.09 0.14 0.21 0.42 0.54 0.57 0.44 0.32 0.28 0.27 0.18 0.09
0.03 0.01 0.00 0.02 0.03 0.03 0.03 0.05 0.08 0.09 0.09 0.11 0.12 0.11 0.10 0.10 0.10 0.10 0.12 0.14 0.17 0.17 0.15 0.14 0.13 0.11 0.07 0.04 0.04 0.04 0.06 0.10 0.20 0.41 0.77 0.73 0.81 0.65 0.41 0.29 0.28 0.26 0.23
0.03 0.02 0.01 0.01 0.02 0.02 0.03 0.04 0.07 0.10 0.11 0.11 0.14 0.14 0.11 0.09 0.08 0.10 0.15 0.18 0.21 0.20 0.21 0.20 0.16 0.09 0.04 0.04 0.05 0.06 0.07 0.13 0.26 0.54 0.87 1.04 1.08 0.88 0.54 0.35 0.34 0.36 0.38
0.03 0.01 0.01 0.02 0.02 0.02 0.03 0.04 0.07 0.12 0.13 0.13 0.13 0.14 0.14 0.11 0.09 0.14 0.22 0.25 0.25 0.24 0.28 0.33 0.26 0.17 0.09 0.06 0.05 0.06 0.10 0.17 0.30 0.61 1.08 1.36 1.12 0.82 0.53 0.39 0.33 0.42 0.49
0.05 0.02 0.01 0.03 0.03 0.03 0.04 0.06 0.11 0.14 0.16 0.18 0.15 0.16 0.17 0.11 0.09 0.15 0.24 0.29 0.29 0.27 0.27 0.25 0.18 0.14 0.10 0.07 0.07 0.07 0.11 0.18 0.33 0.63 0.98 1.25 0.99 0.63 0.45 0.39 0.37 0.39 0.42
0.11 0.04 0.03 0.04 0.04 0.05 0.07 0.10 0.14 0.14 0.16 0.17 0.16 0.16 0.15 0.11 0.10 0.15 0.23 0.30 0.36 0.31 0.23 0.17 0.13 0.09 0.08 0.07 0.07 0.07 0.10 0.15 0.23 0.49 0.79 0.85 0.68 0.47 0.38 0.37 0.37 0.34 0.33
0.23 0.14 0.08 0.04 0.05 0.07 0.10 0.12 0.15 0.15 0.16 0.15 0.13 0.13 0.14 0.13 0.11 0.14 0.21 0.26 0.25 0.18 0.14 0.12 0.10 0.08 0.05 0.03 0.04 0.05 0.09 0.13 0.19 0.40 0.68 0.72 0.62 0.44 0.35 0.30 0.27 0.27 0.27
0.65 0.72 0.43 0.13 0.05 0.04 0.06 0.14 0.19 0.21 0.19 0.16 0.12 0.11 0.11 0.11 0.13 0.15 0.18 0.16 0.12 0.06 0.04 0.04 0.03 0.03 0.02 0.02 0.02 0.04 0.06 0.08 0.14 0.32 0.54 0.63 0.57 0.42 0.37 0.32 0.27 0.23 0.23
0.93 1.10 0.58 0.25 0.13 0.10 0.09 0.11 0.16 0.20 0.22 0.17 0.13 0.14 0.14 0.18 0.24 0.24 0.16 0.13 0.08 0.05 0.03 0.02 0.02 0.02 0.02 0.02 0.02 0.03 0.04 0.08 0.27 0.36 0.45 0.50 0.50 0.45 0.42 0.38 0.32 0.27 0.23
0.84 0.79 0.68 0.42 0.26 0.20 0.16 0.18 0.20 0.19 0.20 0.16 0.24 0.18 0.23 0.45 0.52 0.39 0.29 0.17 0.11 0.08 0.06 0.05 0.05 0.04 0.04 0.05 0.06 0.05 0.08 0.15 0.26 0.39 0.38 0.31 0.37 0.42 0.44 0.43 0.35 0.30 0.28
1.14 0.80 0.75 0.60 0.45 0.38 0.37 0.36 0.29 0.30 0.30 0.29 0.40 0.32 0.41 0.49 0.43 0.40 0.36 0.25 0.22 0.17 0.16 0.17 0.13 0.11 0.10 0.11 0.13 0.12 0.14 0.19 0.26 0.39 0.36 0.36 0.36 0.40 0.46 0.47 0.40 0.36 0.36
1.18 1.00 0.83 0.81 0.76 0.70 0.68 0.66 0.49 0.48 0.48 0.47 0.57 0.47 0.54 0.62 0.58 0.49 0.51 0.45 0.46 0.41 0.40 0.35 0.27 0.19 0.18 0.17 0.18 0.16 0.19 0.21 0.25 0.31 0.36 0.39 0.36 0.43 0.52 0.56 0.51 0.49 0.46
1.15 1.02 0.96 1.02 1.00 0.99 1.00 1.00 0.84 0.78 0.79 0.80 0.81 0.69 0.74 0.74 0.69 0.64 0.62 0.63 0.63 0.67 0.63 0.57 0.46 0.35 0.29 0.26 0.23 0.24 0.28 0.28 0.32 0.37 0.43 0.39 0.34 0.45 0.60 0.66 0.65 0.65 0.64
1.13 1.09 1.06 1.14 1.08 1.14 1.19 1.19 1.09 1.03 1.14 1.26 1.24 1.06 1.01 1.02 0.98 0.92 0.91 0.92 0.83 0.81 0.81 0.74 0.61 0.54 0.43 0.37 0.36 0.37 0.37 0.34 0.37 0.41 0.49 0.48 0.43 0.46 0.60 0.72 0.79 0.80 0.80
1.29 1.29 1.25 1.14 1.19 1.22 1.28 1.25 1.15 1.18 1.35 1.48 1.47 1.49 1.33 1.20 1.25 1.19 1.22 1.25 1.08 1.01 1.05 1.05 0.86 0.74 0.65 0.56 0.56 0.50 0.46 0.50 0.53 0.56 0.61 0.64 0.64 0.61 0.66 0.67 0.71 0.75 0.77
1.34 1.59 1.56 1.20 1.28 1.35 1.35 1.40 1.35 1.43 1.58 1.71 1.68 1.75 1.63 1.48 1.44 1.51 1.47 1.40 1.32 1.27 1.35 1.44 1.22 1.07 0.98 0.85 0.79 0.64 0.58 0.57 0.54 0.59 0.64 0.64 0.75 0.77 0.72 0.63 0.64 0.67 0.70
1.70 2.01 1.82 1.41 1.42 1.52 1.64 1.74 1.70 1.73 1.96 2.08 2.09 2.00 1.77 1.65 1.71 1.78 1.79 1.75 1.68 1.63 1.64 1.55 1.51 1.32 1.31 1.17 0.93 0.78 0.70 0.67 0.67 0.64 0.62 0.62 0.64 0.70 0.69 0.62 0.57 0.55 0.56
2.14 2.60 2.24 1.73 1.70 1.86 1.86 1.84 2.02 2.16 2.41 2.64 2.55 2.34 2.17 2.15 2.14 2.14 2.09 2.12 2.14 2.13 1.97 1.85 1.73 1.50 1.34 1.20 0.97 0.86 0.82 0.78 0.70 0.63 0.55 0.52 0.50 0.46 0.47 0.53 0.55 0.48 0.45
2.27 2.45 2.38 2.19 2.17 2.26 2.33 2.21 2.35 2.61 2.84 3.02 3.00 2.95 2.88 2.81 2.74 2.67 2.61 2.50 2.37 2.27 2.11 1.91 1.74 1.56 1.38 1.15 1.08 0.93 0.76 0.66 0.58 0.50 0.44 0.40 0.37 0.34 0.32 0.36 0.43 0.45 0.42
2.27 2.26 2.37 2.49 2.51 2.38 2.61 2.84 3.13 3.43 3.55 3.73 3.92 4.00 3.93 3.69 3.42 3.26 3.09 2.80 2.48 2.31 2.19 1.96 1.71 1.54 1.34 1.11 1.06 1.01 0.81 0.61 0.48 0.38 0.34 0.32 0.29 0.26 0.24 0.23 0.28 0.31 0.31
2.13 2.31 2.44 2.69 2.79 2.74 3.11 3.59 4.06 4.35 4.36 4.34 4.35 4.35 4.21 3.87 3.55 3.29 2.95 2.69 2.47 2.28 2.12 1.97 1.74 1.58 1.33 1.06 0.91 0.93 0.90 0.75 0.51 0.36 0.27 0.22 0.20 0.18 0.16 0.14 0.15 0.16 0.18
1.85 2.07 2.24 2.58 2.94 3.24 3.60 4.06 4.61 4.90 5.06 4.96 4.61 4.31 3.90 3.51 3.19 2.79 2.53 2.44 2.25 2.08 1.92 1.70 1.45 1.30 1.17 1.01 0.87 0.80 0.73 0.65 0.54 0.42 0.30 0.21 0.17 0.16 0.15 0.14 0.13 0.11 0.13
1.61 1.83 2.06 2.35 2.80 3.39 4.06 4.61 5.03 5.34 5.30 4.88 4.39 3.80 3.39 3.02 2.73 2.45 2.22 2.17 2.03 1.77 1.51 1.24 1.03 0.92 0.85 0.79 0.71 0.65 0.59 0.50 0.43 0.40 0.34 0.23 0.17 0.13 0.12 0.12 0.13 0.13 0.12
1.27 1.55 1.89 2.26 2.57 3.13 3.76 4.34 4.70 4.93 4.84 4.42 3.79 3.26 2.89 2.57 2.26 1.98 1.72 1.53 1.37 1.15 0.95 0.79 0.69 0.63 0.59 0.55 0.51 0.47 0.45 0.42 0.38 0.35 0.33 0.26 0.20 0.15 0.12 0.10 0.10 0.11 0.11

GEFSSE_prec_meanprecacc_114.txt.gz
Total_Precipitation_Accumulation
0.19 0.05 0.02 0.02 0.04 0.07 0.08 0.07 0.08 0.09 0.09 0.10 0.09 0.08 0.08 0.09 0.10 0.09 0.07 0.08 0.11 0.21 0.28 0.30 0.31 0.36 0.36 0.35 0.30 0.23 0.17 0.12 0.11 0.11 0.12 0.13 0.16 0.19 0.20 0.16 0.16 0.11 0.07
0.17 0.04 0.02 0.02 0.03 0.05 0.07 0.09 0.09 0.08 0.08 0.08 0.08 0.07 0.08 0.08 0.09 0.11 0.10 0.10 0.16 0.22 0.24 0.26 0.28 0.29 0.26 0.24 0.19 0.14 0.10 0.09 0.10 0.13 0.18 0.23 0.34 0.36 0.33 0.27 0.28 0.19 0.07
0.06 0.01 0.01 0.02 0.03 0.04 0.06 0.08 0.10 0.09 0.08 0.08 0.09 0.08 0.09 0.09 0.10 0.11 0.12 0.14 0.19 0.22 0.20 0.20 0.21 0.20 0.17 0.11 0.08 0.07 0.07 0.10 0.15 0.23 0.44 0.56 0.60 0.47 0.34 0.29 0.27 0.19 0.09
0.03 0.01 0.00 0.02 0.03 0.03 0.03 0.05 0.08 0.09 0.10 0.11 0.12 0.11 0.10 0.10 0.10 0.10 0.12 0.14 0.17 0.18 0.16 0.15 0.14 0.11 0.07 0.05 0.04 0.06 0.07 0.11 0.23 0.43 0.79 0.74 0.83 0.67 0.42 0.30 0.28 0.26 0.23
0.03 0.02 0.01 0.01 0.02 0.02 0.03 0.04 0.07 0.10 0.11 0.11 0.14 0.14 0.11 0.09 0.09 0.11 0.15 0.19 0.21 0.20 0.21 0.20 0.16 0.09 0.05 0.05 0.06 0.07 0.09 0.15 0.29 0.55 0.88 1.05 1.10 0.91 0.55 0.36 0.34 0.36 0.38
0.03 0.01 0.01 0.02 0.02 0.02 0.03 0.04 0.07 0.12 0.14 0.13 0.14 0.14 0.14 0.11 0.09 0.14 0.22 0.25 0.25 0.24 0.28 0.33 0.27 0.17 0.09 0.06 0.06 0.08 0.12 0.20 0.33 0.62 1.08 1.37 1.14 0.85 0.55 0.40 0.34 0.43 0.49
0.06 0.03 0.03 0.05 0.04 0.04 0.04 0.06 0.11 0.14 0.16 0.18 0.16 0.16 0.17 0.12 0.10 0.15 0.24 0.29 0.29 0.28 0.28 0.25 0.19 0.14 0.11 0.08 0.08 0.09 0.13 0.21 0.35 0.64 0.99 1.25 1.00 0.66 0.47 0.42 0.38 0.40 0.44
0.17 0.07 0.06 0.07 0.08 0.09 0.11 0.11 0.15 0.14 0.17 0.17 0.17 0.18 0.16 0.11 0.10 0.15 0.23 0.31 0.36 0.31 0.23 0.17 0.13 0.10 0.09 0.08 0.08 0.09 0.13 0.18 0.24 0.49 0.80 0.86 0.69 0.50 0.41 0.39 0.40 0.36 0.35
0.29 0.19 0.14 0.10 0.10 0.12 0.14 0.14 0.17 0.17 0.17 0.16 0.14 0.15 0.16 0.14 0.12 0.15 0.21 0.26 0.25 0.18 0.14 0.12 0.10 0.08 0.05 0.04 0.04 0.07 0.12 0.16 0.21 0.42 0.69 0.74 0.64 0.47 0.38 0.32 0.29 0.29 0.29
0.69 0.77 0.51 0.19 0.12 0.12 0.13 0.19 0.24 0.25 0.22 0.18 0.15 0.13 0.12 0.12 0.14 0.16 0.18 0.16 0.12 0.07 0.04 0.05 0.04 0.03 0.03 0.03 0.03 0.05 0.09 0.09 0.15 0.34 0.56 0.64 0.60 0.47 0.42 0.34 0.29 0.25 0.24
0.98 1.16 0.63 0.32 0.23 0.21 0.21 0.20 0.24 0.26 0.26 0.21 0.16 0.16 0.16 0.20 0.25 0.25 0.17 0.14 0.09 0.06 0.04 0.03 0.03 0.03 0.03 0.03 0.04 0.06 0.07 0.08 0.28 0.39 0.47 0.51 0.54 0.51 0.46 0.41 0.34 0.29 0.25
0.91 0.86 0.76 0.51 0.36 0.32 0.29 0.29 0.28 0.26 0.26 0.20 0.27 0.22 0.26 0.48 0.55 0.41 0.31 0.19 0.12 0.09 0.07 0.07 0.07 0.05 0.04 0.05 0.07 0.07 0.09 0.16 0.27 0.41 0.39 0.33 0.41 0.47 0.49 0.46 0.38 0.32 0.30
1.22 0.87 0.83 0.69 0.51 0.45 0.47 0.49 0.41 0.37 0.36 0.35 0.46 0.37 0.45 0.54 0.47 0.44 0.40 0.29 0.25 0.21 0.19 0.20 0.15 0.12 0.10 0.12 0.13 0.13 0.15 0.20 0.27 0.40 0.37 0.38 0.40 0.47 0.53 0.51 0.43 0.40 0.40
1.25 1.06 0.88 0.87 0.82 0.78 0.77 0.76 0.62 0.59 0.58 0.56 0.66 0.54 0.61 0.69 0.65 0.56 0.58 0.52 0.51 0.46 0.44 0.38 0.29 0.21 0.19 0.18 0.19 0.18 0.20 0.22 0.27 0.33 0.38 0.43 0.40 0.49 0.59 0.63 0.57 0.53 0.50
1.19 1.06 1.01 1.09 1.08 1.09 1.12 1.15 1.01 0.95 0.95 0.94 0.92 0.78 0.82 0.82 0.76 0.72 0.71 0.72 0.72 0.74 0.68 0.61 0.50 0.38 0.32 0.29 0.26 0.28 0.31 0.31 0.35 0.40 0.47 0.44 0.38 0.49 0.67 0.74 0.72 0.72 0.69
1.17 1.14 1.12 1.21 1.18 1.25 1.35 1.41 1.35 1.25 1.34 1.46 1.42 1.20 1.13 1.11 1.06 1.00 0.99 1.00 0.91 0.93 0.93 0.85 0.68 0.59 0.46 0.43 0.43 0.44 0.44 0.40 0.42 0.46 0.53 0.51 0.46 0.50 0.67 0.81 0.88 0.88 0.87
1.31 1.32 1.31 1.22 1.31 1.40 1.56 1.55 1.46 1.48 1.61 1.73 1.69 1.66 1.46 1.31 1.35 1.30 1.32 1.33 1.16 1.11 1.17 1.16 0.96 0.83 0.72 0.63 0.66 0.62 0.56 0.58 0.61 0.62 0.67 0.67 0.67 0.66 0.74 0.76 0.79 0.83 0.84
1.37 1.64 1.63 1.29 1.40 1.49 1.55 1.64 1.58 1.66 1.83 1.98 1.93 1.96 1.81 1.61 1.57 1.62 1.59 1.50 1.42 1.38 1.46 1.54 1.33 1.18 1.10 0.99 0.95 0.83 0.75 0.72 0.67 0.72 0.73 0.72 0.81 0.83 0.79 0.70 0.69 0.72 0.76
1.74 2.06 1.89 1.52 1.54 1.62 1.75 1.86 1.86 1.95 2.21 2.38 2.42 2.27 1.97 1.82 1.86 1.93 1.93 1.90 1.82 1.77 1.78 1.71 1.67 1.48 1.49 1.39 1.16 1.02 0.92 0.85 0.83 0.80 0.77 0.76 0.75 0.79 0.78 0.69 0.63 0.60 0.60
2.17 2.63 2.28 1.80 1.78 1.94 1.95 1.95 2.16 2.36 2.65 2.88 2.78 2.55 2.38 2.35 2.33 2.33 2.27 2.31 2.31 2.31 2.14 2.03 1.92 1.70 1.55 1.45 1.25 1.14 1.06 0.99 0.88 0.80 0.71 0.66 0.63 0.59 0.59 0.62 0.62 0.53 0.49
2.29 2.48 2.42 2.25 2.25 2.37 2.47 2.34 2.51 2.80 3.09 3.32 3.26 3.18 3.09 3.03 2.97 2.89 2.83 2.73 2.57 2.48 2.31 2.11 1.94 1.77 1.60 1.39 1.34 1.18 0.97 0.84 0.75 0.66 0.59 0.55 0.50 0.46 0.42 0.44 0.50 0.51 0.47
2.30 2.31 2.42 2.55 2.60 2.48 2.73 2.97 3.26 3.58 3.75 4.00 4.26 4.32 4.20 3.95 3.69 3.51 3.31 3.03 2.69 2.51 2.39 2.16 1.91 1.74 1.53 1.35 1.30 1.25 1.02 0.81 0.64 0.53 0.47 0.43 0.40 0.38 0.34 0.30 0.34 0.38 0.36
2.17 2.37 2.50 2.75 2.87 2.83 3.21 3.69 4.16 4.47 4.49 4.51 4.57 4.65 4.61 4.20 3.84 3.54 3.18 2.91 2.65 2.46 2.30 2.16 1.94 1.76 1.53 1.29 1.15 1.16 1.10 0.96 0.72 0.57 0.44 0.35 0.32 0.29 0.25 0.21 0.21 0.21 0.23
1.91 2.14 2.32 2.66 3.04 3.36 3.76 4.24 4.77 5.04 5.18 5.10 4.79 4.55 4.25 3.87 3.51 3.06 2.77 2.69 2.45 2.24 2.08 1.87 1.65 1.49 1.35 1.20 1.09 1.00 0.90 0.80 0.71 0.62 0.51 0.41 0.34 0.30 0.27 0.25 0.22 0.19 0.19
1.65 1.89 2.17 2.46 2.90 3.51 4.21 4.78 5.22 5.50 5.45 5.03 4.55 3.98 3.57 3.23 2.95 2.68 2.43 2.38 2.25 1.97 1.70 1.43 1.22 1.11 1.02 0.97 0.92 0.86 0.79 0.67 0.57 0.52 0.50 0.42 0.37 0.32 0.26 0.24 0.24 0.21 0.19
1.30 1.58 1.94 2.36 2.71 3.26 3.90 4.49 4.86 5.10 5.00 4.58 3.94 3.39 3.04 2.71 2.41 2.17 1.90 1.72 1.59 1.39 1.22 1.06 0.91 0.85 0.80 0.77 0.72 0.69 0.68 0.64 0.57 0.50 0.47 0.42 0.39 0.37 0.30 0.24 0.19 0.18 0.16

GEFSSE_prec_meanprecacc_120.txt.gz
Total_Precipitation_Accumulation
0.19 0.05 0.02 0.02 0.04 0.07 0.08 0.09 0.09 0.10 0.11 0.11 0.10 0.09 0.09 0.10 0.10 0.09 0.07 0.08 0.12 0.21 0.28 0.31 0.32 0.38 0.38 0.37 0.32 0.23 0.18 0.13 0.11 0.11 0.12 0.13 0.17 0.20 0.21 0.16 0.16 0.12 0.07
0.17 0.04 0.02 0.02 0.03 0.05 0.07 0.10 0.10 0.10 0.10 0.10 0.09 0.08 0.09 0.09 0.10 0.11 0.10 0.11 0.16 0.22 0.24 0.27 0.29 0.30 0.28 0.25 0.21 0.15 0.10 0.09 0.11 0.14 0.19 0.24 0.35 0.37 0.34 0.27 0.28 0.20 0.07
0.06 0.01 0.01 0.02 0.03 0.04 0.06 0.08 0.10 0.11 0.11 0.10 0.11 0.11 0.10 0.10 0.11 0.12 0.12 0.14 0.20 0.22 0.20 0.20 0.22 0.22 0.18 0.12 0.10 0.08 0.08 0.10 0.17 0.25 0.46 0.57 0.60 0.48 0.34 0.29 0.28 0.19 0.10
0.03 0.01 0.00 0.02 0.03 0.03 0.04 0.05 0.09 0.11 0.12 0.14 0.16 0.13 0.10 0.11 0.11 0.11 0.12 0.14 0.17 0.18 0.16 0.15 0.15 0.12 0.09 0.06 0.06 0.06 0.08 0.12 0.24 0.45 0.81 0.76 0.84 0.68 0.43 0.31 0.29 0.27 0.24
0.04 0.03 0.01 0.01 0.02 0.03 0.03 0.04 0.08 0.12 0.12 0.15 0.17 0.15 0.11 0.10 0.09 0.11 0.15 0.19 0.21 0.21 0.22 0.21 0.17 0.10 0.06 0.06 0.07 0.08 0.10 0.16 0.30 0.57 0.89 1.07 1.13 0.93 0.56 0.38 0.36 0.37 0.39
0.04 0.02 0.02 0.03 0.03 0.03 0.03 0.04 0.08 0.13 0.14 0.14 0.14 0.15 0.15 0.11 0.10 0.15 0.22 0.25 0.25 0.24 0.29 0.33 0.27 0.18 0.10 0.07 0.07 0.09 0.13 0.22 0.34 0.62 1.09 1.38 1.16 0.88 0.57 0.42 0.35 0.44 0.51
0.06 0.03 0.05 0.06 0.05 0.05 0.05 0.07 0.11 0.14 0.17 0.19 0.17 0.17 0.18 0.12 0.10 0.16 0.25 0.29 0.29 0.28 0.28 0.25 0.19 0.14 0.11 0.09 0.09 0.11 0.15 0.25 0.37 0.65 1.00 1.27 1.04 0.70 0.51 0.45 0.40 0.42 0.46
0.17 0.08 0.08 0.09 0.09 0.09 0.11 0.14 0.16 0.16 0.18 0.18 0.18 0.19 0.18 0.12 0.11 0.15 0.24 0.31 0.36 0.32 0.24 0.18 0.13 0.10 0.09 0.09 0.10 0.11 0.17 0.22 0.26 0.50 0.82 0.89 0.72 0.53 0.44 0.43 0.44 0.39 0.38
0.29 0.20 0.16 0.14 0.12 0.13 0.15 0.16 0.18 0.19 0.19 0.19 0.17 0.17 0.17 0.15 0.13 0.16 0.22 0.27 0.26 0.19 0.15 0.13 0.11 0.08 0.06 0.05 0.05 0.08 0.14 0.19 0.24 0.45 0.71 0.77 0.66 0.50 0.42 0.36 0.32 0.32 0.32
0.69 0.78 0.53 0.23 0.15 0.14 0.14 0.21 0.26 0.27 0.26 0.23 0.19 0.16 0.14 0.13 0.15 0.18 0.20 0.17 0.13 0.08 0.05 0.06 0.05 0.04 0.03 0.03 0.04 0.06 0.11 0.11 0.17 0.37 0.60 0.67 0.63 0.51 0.47 0.38 0.32 0.27 0.26
0.98 1.17 0.65 0.34 0.26 0.24 0.23 0.23 0.27 0.30 0.31 0.26 0.22 0.22 0.19 0.23 0.28 0.27 0.18 0.16 0.11 0.07 0.05 0.05 0.04 0.04 0.04 0.04 0.05 0.07 0.08 0.09 0.29 0.42 0.50 0.54 0.58 0.57 0.54 0.46 0.37 0.32 0.28
0.92 0.87 0.78 0.55 0.39 0.34 0.31 0.34 0.35 0.32 0.33 0.28 0.35 0.29 0.34 0.57 0.63 0.46 0.35 0.23 0.16 0.12 0.10 0.10 0.09 0.07 0.05 0.06 0.08 0.08 0.10 0.16 0.28 0.42 0.41 0.34 0.45 0.54 0.58 0.53 0.42 0.37 0.35
1.24 0.90 0.87 0.73 0.56 0.49 0.51 0.57 0.51 0.48 0.47 0.46 0.58 0.48 0.56 0.65 0.58 0.52 0.48 0.37 0.32 0.27 0.27 0.27 0.20 0.16 0.13 0.16 0.16 0.14 0.17 0.21 0.28 0.41 0.38 0.40 0.43 0.53 0.62 0.58 0.49 0.45 0.44
1.27 1.09 0.91 0.90 0.86 0.83 0.82 0.83 0.73 0.72 0.70 0.69 0.79 0.65 0.71 0.78 0.75 0.66 0.68 0.62 0.62 0.57 0.55 0.47 0.37 0.29 0.26 0.23 0.22 0.21 0.22 0.24 0.29 0.35 0.41 0.44 0.43 0.54 0.67 0.70 0.63 0.58 0.54
1.22 1.10 1.05 1.13 1.12 1.14 1.16 1.21 1.10 1.06 1.07 1.08 1.08 0.89 0.91 0.90 0.84 0.80 0.81 0.82 0.82 0.85 0.81 0.73 0.60 0.48 0.40 0.37 0.31 0.31 0.33 0.33 0.37 0.42 0.50 0.47 0.41 0.54 0.74 0.84 0.82 0.80 0.76
1.23 1.20 1.17 1.26 1.24 1.31 1.42 1.50 1.45 1.36 1.48 1.62 1.57 1.33 1.25 1.21 1.13 1.06 1.08 1.09 1.01 1.04 1.06 0.98 0.80 0.70 0.58 0.55 0.51 0.50 0.50 0.46 0.46 0.50 0.60 0.57 0.51 0.55 0.76 0.93 1.01 1.01 0.97
1.34 1.36 1.35 1.27 1.36 1.46 1.64 1.68 1.59 1.63 1.77 1.90 1.87 1.82 1.60 1.43 1.46 1.38 1.39 1.40 1.23 1.20 1.27 1.28 1.09 0.96 0.85 0.74 0.76 0.72 0.67 0.69 0.68 0.69 0.76 0.79 0.77 0.74 0.83 0.85 0.90 0.95 0.96
1.39 1.67 1.66 1.33 1.44 1.54 1.62 1.73 1.67 1.77 1.95 2.08 2.04 2.08 1.94 1.75 1.69 1.73 1.68 1.57 1.50 1.48 1.56 1.66 1.46 1.30 1.21 1.10 1.07 0.94 0.85 0.82 0.76 0.82 0.85 0.86 0.99 0.98 0.91 0.80 0.79 0.83 0.87
1.75 2.08 1.94 1.58 1.59 1.67 1.80 1.92 1.94 2.04 2.31 2.47 2.53 2.41 2.12 1.99 2.02 2.08 2.07 2.01 1.92 1.89 1.90 1.82 1.80 1.61 1.61 1.51 1.27 1.12 1.01 0.95 0.94 0.92 0.92 0.94 0.95 1.00 0.98 0.84 0.75 0.72 0.70
2.20 2.66 2.33 1.85 1.82 1.99 1.99 2.01 2.22 2.43 2.72 2.96 2.88 2.69 2.54 2.53 2.52 2.52 2.45 2.46 2.44 2.44 2.27 2.15 2.04 1.83 1.71 1.62 1.40 1.26 1.17 1.09 0.99 0.91 0.84 0.82 0.80 0.75 0.76 0.79 0.78 0.66 0.58
2.31 2.51 2.45 2.29 2.29 2.42 2.51 2.38 2.55 2.85 3.16 3.39 3.34 3.27 3.19 3.15 3.10 3.06 3.00 2.88 2.71 2.62 2.46 2.26 2.07 1.90 1.74 1.55 1.50 1.31 1.09 0.96 0.86 0.76 0.71 0.68 0.64 0.59 0.57 0.61 0.68 0.67 0.60
2.31 2.33 2.44 2.58 2.64 2.52 2.77 3.01 3.30 3.63 3.81 4.07 4.32 4.39 4.28 4.03 3.79 3.62 3.46 3.17 2.81 2.63 2.51 2.31 2.07 1.89 1.68 1.51 1.46 1.39 1.15 0.96 0.77 0.64 0.60 0.57 0.54 0.52 0.48 0.45 0.50 0.53 0.50
2.18 2.39 2.54 2.79 2.90 2.87 3.25 3.74 4.22 4.52 4.55 4.58 4.64 4.72 4.68 4.28 3.92 3.64 3.31 3.04 2.76 2.57 2.41 2.30 2.11 1.95 1.71 1.49 1.35 1.38 1.31 1.13 0.86 0.72 0.59 0.51 0.48 0.46 0.42 0.36 0.35 0.34 0.34
1.94 2.16 2.34 2.68 3.06 3.39 3.80 4.30 4.84 5.11 5.27 5.18 4.86 4.62 4.35 3.97 3.60 3.17 2.92 2.85 2.60 2.36 2.20 2.02 1.83 1.70 1.59 1.44 1.32 1.21 1.10 0.99 0.90 0.83 0.73 0.63 0.56 0.53 0.49 0.44 0.38 0.32 0.31
1.66 1.90 2.18 2.48 2.92 3.54 4.24 4.84 5.28 5.58 5.53 5.11 4.63 4.07 3.66 3.34 3.06 2.80 2.58 2.56 2.43 2.14 1.88 1.63 1.43 1.33 1.29 1.24 1.17 1.10 1.01 0.88 0.77 0.72 0.73 0.69 0.65 0.59 0.52 0.49 0.45 0.40 0.35
1.31 1.58 1.94 2.37 2.72 3.28 3.92 4.52 4.90 5.15 5.08 4.66 4.03 3.50 3.13 2.79 2.51 2.28 2.03 1.87 1.74 1.53 1.37 1.24 1.11 1.05 1.03 1.02 0.97 0.92 0.89 0.85 0.79 0.72 0.69 0.65 0.66 0.69 0.60 0.50 0.42 0.35 0.31

GEFSSE_prec_meanprecacc_126.txt.gz
Total_Precipitation_Accumulation
0.19 0.05 0.02 0.02 0.04 0.07 0.08 0.09 0.10 0.11 0.12 0.11 0.10 0.09 0.09 0.10 0.10 0.09 0.08 0.08 0.12 0.21 0.29 0.31 0.33 0.38 0.39 0.38 0.32 0.24 0.18 0.13 0.11 0.11 0.12 0.13 0.17 0.20 0.21 0.17 0.18 0.13 0.07
0.18 0.04 0.02 0.02 0.03 0.05 0.07 0.10 0.11 0.10 0.11 0.10 0.09 0.09 0.09 0.09 0.10 0.12 0.10 0.11 0.16 0.22 0.25 0.27 0.29 0.31 0.29 0.26 0.21 0.15 0.11 0.09 0.11 0.14 0.19 0.24 0.35 0.37 0.34 0.28 0.31 0.21 0.08
0.07 0.01 0.01 0.02 0.03 0.04 0.06 0.09 0.11 0.11 0.12 0.10 0.11 0.11 0.11 0.11 0.11 0.12 0.13 0.14 0.20 0.22 0.21 0.21 0.23 0.22 0.19 0.14 0.11 0.09 0.08 0.11 0.17 0.26 0.49 0.59 0.60 0.48 0.35 0.30 0.29 0.20 0.10
0.04 0.02 0.01 0.02 0.03 0.03 0.04 0.06 0.09 0.12 0.14 0.15 0.17 0.13 0.11 0.12 0.12 0.12 0.13 0.15 0.18 0.19 0.17 0.16 0.15 0.13 0.10 0.08 0.07 0.07 0.08 0.13 0.25 0.48 0.92 0.81 0.85 0.68 0.43 0.32 0.30 0.27 0.24
0.05 0.04 0.01 0.01 0.02 0.03 0.03 0.05 0.10 0.14 0.14 0.16 0.18 0.16 0.12 0.10 0.10 0.12 0.16 0.20 0.22 0.21 0.22 0.22 0.18 0.11 0.07 0.07 0.08 0.09 0.10 0.16 0.32 0.62 0.97 1.14 1.18 0.94 0.56 0.38 0.36 0.37 0.40
0.04 0.02 0.02 0.03 0.03 0.04 0.04 0.05 0.09 0.15 0.16 0.16 0.16 0.17 0.16 0.13 0.11 0.16 0.23 0.26 0.26 0.26 0.30 0.35 0.28 0.19 0.11 0.08 0.08 0.10 0.14 0.23 0.36 0.66 1.15 1.46 1.22 0.89 0.57 0.42 0.36 0.44 0.51
0.07 0.03 0.05 0.06 0.05 0.06 0.06 0.08 0.13 0.17 0.19 0.21 0.20 0.19 0.20 0.15 0.12 0.17 0.26 0.30 0.31 0.30 0.30 0.27 0.20 0.15 0.12 0.10 0.11 0.12 0.16 0.26 0.39 0.69 1.05 1.33 1.10 0.72 0.51 0.46 0.41 0.43 0.47
0.17 0.08 0.08 0.09 0.09 0.10 0.12 0.15 0.18 0.18 0.20 0.21 0.21 0.22 0.21 0.15 0.13 0.17 0.25 0.32 0.38 0.33 0.25 0.19 0.14 0.11 0.10 0.10 0.11 0.12 0.18 0.23 0.28 0.53 0.85 0.95 0.78 0.55 0.45 0.44 0.45 0.42 0.40
0.29 0.21 0.17 0.14 0.12 0.13 0.15 0.16 0.19 0.20 0.21 0.21 0.19 0.19 0.19 0.17 0.14 0.17 0.24 0.29 0.27 0.20 0.17 0.14 0.12 0.09 0.07 0.05 0.06 0.09 0.15 0.20 0.27 0.47 0.74 0.82 0.69 0.52 0.44 0.37 0.33 0.34 0.33
0.70 0.78 0.54 0.25 0.17 0.14 0.14 0.21 0.27 0.28 0.28 0.25 0.21 0.17 0.16 0.15 0.17 0.19 0.21 0.20 0.16 0.10 0.07 0.07 0.06 0.05 0.04 0.04 0.05 0.07 0.12 0.13 0.20 0.39 0.65 0.73 0.68 0.53 0.49 0.39 0.33 0.29 0.28
1.00 1.18 0.67 0.38 0.30 0.27 0.25 0.23 0.28 0.32 0.33 0.28 0.24 0.25 0.24 0.26 0.33 0.33 0.22 0.20 0.14 0.09 0.07 0.07 0.06 0.05 0.04 0.05 0.06 0.08 0.09 0.11 0.34 0.45 0.58 0.65 0.65 0.61 0.57 0.49 0.39 0.33 0.30
0.96 0.90 0.82 0.60 0.44 0.39 0.36 0.39 0.40 0.38 0.38 0.32 0.42 0.36 0.42 0.72 0.78 0.59 0.51 0.36 0.24 0.17 0.14 0.13 0.12 0.09 0.06 0.08 0.10 0.09 0.10 0.17 0.33 0.51 0.52 0.44 0.51 0.58 0.61 0.56 0.45 0.40 0.37
1.35 0.97 0.92 0.80 0.67 0.61 0.64 0.69 0.66 0.62 0.64 0.62 0.76 0.64 0.72 0.84 0.76 0.71 0.69 0.53 0.46 0.37 0.37 0.37 0.26 0.20 0.17 0.20 0.22 0.18 0.18 0.22 0.30 0.46 0.46 0.48 0.50 0.58 0.67 0.62 0.52 0.49 0.48
1.44 1.23 0.99 1.00 0.98 1.02 1.05 1.02 0.93 0.95 0.94 0.91 1.00 0.83 0.93 1.01 0.98 0.89 0.92 0.84 0.82 0.76 0.75 0.64 0.53 0.42 0.38 0.32 0.32 0.29 0.28 0.26 0.31 0.39 0.49 0.54 0.50 0.61 0.74 0.76 0.68 0.63 0.59
1.44 1.25 1.14 1.22 1.22 1.25 1.34 1.44 1.38 1.32 1.37 1.39 1.39 1.18 1.19 1.15 1.10 1.07 1.05 1.07 1.06 1.11 1.07 0.99 0.84 0.68 0.56 0.47 0.39 0.38 0.38 0.38 0.45 0.51 0.60 0.56 0.48 0.62 0.83 0.93 0.90 0.88 0.82
1.48 1.34 1.24 1.33 1.32 1.41 1.54 1.65 1.62 1.55 1.71 1.91 2.02 1.85 1.63 1.55 1.45 1.38 1.38 1.37 1.25 1.28 1.31 1.26 1.09 0.96 0.78 0.66 0.58 0.54 0.53 0.49 0.54 0.61 0.73 0.72 0.62 0.64 0.84 1.03 1.12 1.12 1.06
1.51 1.47 1.45 1.33 1.43 1.55 1.75 1.80 1.74 1.80 1.95 2.10 2.15 2.18 1.94 1.70 1.74 1.66 1.65 1.65 1.46 1.43 1.54 1.55 1.39 1.19 1.02 0.86 0.84 0.78 0.73 0.75 0.75 0.79 0.92 0.98 0.97 0.90 0.93 0.94 1.00 1.06 1.08
1.46 1.74 1.75 1.40 1.51 1.61 1.70 1.82 1.80 1.92 2.10 2.25 2.23 2.29 2.12 1.91 1.85 1.89 1.85 1.77 1.70 1.71 1.86 1.95 1.72 1.52 1.40 1.27 1.20 1.04 0.94 0.91 0.85 0.93 0.98 1.06 1.26 1.23 1.07 0.90 0.89 0.94 0.99
1.80 2.13 1.98 1.63 1.64 1.74 1.87 2.00 2.03 2.14 2.42 2.61 2.67 2.54 2.23 2.09 2.13 2.20 2.20 2.17 2.12 2.12 2.14 2.05 2.06 1.85 1.84 1.73 1.43 1.26 1.14 1.08 1.08 1.06 1.08 1.14 1.20 1.27 1.20 1.02 0.90 0.87 0.84
2.22 2.69 2.36 1.89 1.88 2.05 2.05 2.07 2.28 2.50 2.79 3.03 2.95 2.76 2.60 2.59 2.58 2.61 2.56 2.58 2.61 2.64 2.47 2.36 2.29 2.05 1.90 1.83 1.57 1.41 1.32 1.24 1.15 1.08 1.03 1.04 1.06 1.02 1.03 1.01 0.97 0.84 0.77
2.32 2.52 2.48 2.33 2.34 2.48 2.57 2.44 2.61 2.92 3.23 3.47 3.41 3.32 3.23 3.19 3.16 3.14 3.11 3.03 2.88 2.78 2.63 2.44 2.28 2.13 1.95 1.75 1.68 1.46 1.22 1.07 0.98 0.90 0.88 0.88 0.85 0.82 0.83 0.88 0.92 0.89 0.80
2.33 2.34 2.46 2.61 2.68 2.57 2.84 3.08 3.36 3.69 3.86 4.12 4.37 4.44 4.32 4.09 3.85 3.69 3.55 3.28 2.92 2.75 2.65 2.47 2.27 2.11 1.89 1.70 1.63 1.56 1.28 1.06 0.86 0.73 0.71 0.70 0.70 0.73 0.72 0.67 0.71 0.72 0.67
2.19 2.40 2.55 2.81 2.92 2.90 3.29 3.79 4.27 4.57 4.60 4.63 4.69 4.77 4.74 4.33 3.97 3.69 3.37 3.13 2.87 2.67 2.52 2.44 2.29 2.16 1.93 1.71 1.56 1.59 1.49 1.27 0.98 0.82 0.71 0.64 0.62 0.64 0.67 0.59 0.54 0.50 0.49
1.94 2.17 2.35 2.70 3.08 3.41 3.83 4.36 4.90 5.17 5.33 5.25 4.93 4.69 4.41 4.02 3.63 3.20 2.96 2.91 2.71 2.50 2.32 2.13 1.97 1.88 1.79 1.64 1.53 1.40 1.29 1.17 1.06 0.97 0.88 0.81 0.73 0.69 0.68 0.64 0.60 0.52 0.49
1.67 1.90 2.19 2.49 2.93 3.56 4.27 4.88 5.34 5.65 5.60 5.18 4.70 4.14 3.72 3.38 3.09 2.83 2.61 2.60 2.49 2.24 1.99 1.73 1.54 1.46 1.44 1.42 1.36 1.30 1.21 1.06 0.91 0.85 0.88 0.86 0.84 0.79 0.71 0.67 0.62 0.57 0.53
1.31 1.59 1.95 2.38 2.73 3.29 3.94 4.55 4.94 5.20 5.12 4.71 4.09 3.56 3.19 2.84 2.55 2.31 2.06 1.90 1.78 1.59 1.45 1.32 1.19 1.15 1.15 1.17 1.16 1.11 1.07 1.01 0.93 0.86 0.84 0.81 0.85 0.91 0.81 0.70 0.60 0.51 0.45

GEFSSE_prec_meanprecacc_132.txt.gz
Total_Precipitation_Accumulation
0.20 0.06 0.02 0.02 0.04 0.08 0.08 0.09 0.10 0.11 0.12 0.11 0.10 0.09 0.09 0.10 0.10 0.09 0.08 0.08 0.12 0.21 0.29 0.32 0.34 0.39 0.40 0.39 0.33 0.24 0.19 0.14 0.12 0.11 0.12 0.14 0.17 0.21 0.22 0.18 0.19 0.13 0.08
0.19 0.04 0.02 0.02 0.04 0.06 0.07 0.10 0.11 0.10 0.11 0.10 0.09 0.09 0.09 0.09 0.10 0.12 0.10 0.11 0.16 0.23 0.25 0.28 0.30 0.32 0.31 0.28 0.22 0.16 0.11 0.10 0.12 0.15 0.19 0.24 0.36 0.38 0.35 0.29 0.32 0.21 0.08
0.08 0.02 0.01 0.02 0.03 0.04 0.07 0.09 0.11 0.11 0.12 0.11 0.12 0.11 0.11 0.11 0.11 0.13 0.13 0.14 0.20 0.23 0.21 0.21 0.24 0.24 0.21 0.15 0.12 0.09 0.09 0.11 0.18 0.27 0.50 0.59 0.61 0.49 0.36 0.31 0.29 0.20 0.11
0.05 0.02 0.01 0.02 0.03 0.03 0.04 0.06 0.09 0.12 0.15 0.16 0.17 0.14 0.11 0.12 0.12 0.12 0.13 0.15 0.18 0.19 0.17 0.16 0.16 0.14 0.11 0.09 0.09 0.09 0.10 0.15 0.29 0.53 0.96 0.82 0.86 0.70 0.44 0.32 0.30 0.27 0.25
0.05 0.04 0.02 0.02 0.02 0.03 0.03 0.05 0.10 0.14 0.14 0.17 0.18 0.17 0.13 0.11 0.11 0.13 0.17 0.21 0.22 0.22 0.23 0.23 0.18 0.12 0.08 0.08 0.09 0.11 0.13 0.20 0.38 0.71 1.07 1.21 1.22 0.96 0.57 0.39 0.36 0.38 0.40
0.04 0.02 0.02 0.03 0.03 0.04 0.04 0.05 0.10 0.16 0.17 0.17 0.17 0.18 0.17 0.14 0.12 0.16 0.24 0.27 0.27 0.26 0.31 0.36 0.29 0.19 0.12 0.09 0.09 0.12 0.17 0.28 0.43 0.75 1.27 1.57 1.30 0.94 0.59 0.43 0.36 0.44 0.52
0.07 0.04 0.05 0.06 0.06 0.06 0.06 0.09 0.13 0.18 0.21 0.23 0.21 0.21 0.22 0.16 0.13 0.18 0.27 0.31 0.31 0.30 0.30 0.27 0.20 0.16 0.13 0.11 0.12 0.14 0.19 0.31 0.46 0.78 1.18 1.45 1.19 0.78 0.55 0.47 0.42 0.44 0.47
0.19 0.09 0.09 0.10 0.10 0.10 0.13 0.16 0.19 0.18 0.21 0.22 0.23 0.24 0.23 0.16 0.14 0.18 0.26 0.33 0.39 0.34 0.26 0.19 0.14 0.11 0.11 0.11 0.12 0.14 0.20 0.28 0.34 0.63 0.99 1.09 0.91 0.65 0.51 0.47 0.47 0.43 0.41
0.33 0.22 0.18 0.15 0.13 0.14 0.17 0.18 0.20 0.21 0.23 0.23 0.21 0.22 0.21 0.18 0.16 0.19 0.25 0.31 0.29 0.22 0.18 0.15 0.13 0.10 0.07 0.06 0.06 0.10 0.18 0.25 0.34 0.58 0.85 0.97 0.82 0.63 0.50 0.41 0.36 0.35 0.34
0.73 0.80 0.55 0.26 0.19 0.16 0.16 0.23 0.28 0.30 0.30 0.27 0.23 0.20 0.18 0.17 0.18 0.22 0.23 0.22 0.18 0.12 0.08 0.08 0.07 0.06 0.05 0.04 0.05 0.09 0.14 0.16 0.25 0.49 0.78 0.86 0.80 0.63 0.55 0.43 0.36 0.30 0.28
1.06 1.22 0.70 0.40 0.32 0.30 0.28 0.25 0.30 0.34 0.35 0.31 0.27 0.28 0.26 0.28 0.35 0.36 0.27 0.25 0.18 0.13 0.10 0.09 0.08 0.07 0.06 0.05 0.07 0.09 0.11 0.14 0.40 0.54 0.68 0.77 0.79 0.72 0.64 0.54 0.43 0.36 0.31
1.12 0.99 0.90 0.68 0.48 0.44 0.41 0.44 0.44 0.41 0.42 0.36 0.46 0.40 0.46 0.75 0.84 0.67 0.61 0.48 0.33 0.23 0.19 0.18 0.16 0.13 0.09 0.09 0.11 0.11 0.13 0.21 0.40 0.61 0.63 0.59 0.65 0.69 0.69 0.62 0.50 0.44 0.39
1.67 1.20 1.07 0.94 0.77 0.69 0.75 0.78 0.74 0.72 0.75 0.70 0.83 0.72 0.81 0.93 0.87 0.84 0.84 0.70 0.61 0.50 0.46 0.45 0.33 0.26 0.22 0.24 0.25 0.22 0.23 0.28 0.38 0.62 0.61 0.62 0.65 0.74 0.79 0.70 0.59 0.54 0.52
1.87 1.63 1.20 1.14 1.11 1.20 1.27 1.18 1.06 1.13 1.14 1.08 1.15 1.00 1.08 1.22 1.21 1.09 1.13 1.06 1.02 0.91 0.88 0.75 0.62 0.50 0.45 0.40 0.38 0.38 0.39 0.40 0.43 0.59 0.68 0.71 0.72 0.82 0.89 0.88 0.77 0.70 0.65
1.83 1.62 1.46 1.52 1.49 1.49 1.54 1.66 1.55 1.45 1.60 1.60 1.60 1.40 1.41 1.38 1.33 1.32 1.27 1.26 1.24 1.29 1.26 1.16 0.99 0.82 0.67 0.57 0.49 0.50 0.52 0.52 0.61 0.67 0.85 0.83 0.73 0.84 1.00 1.09 1.04 0.99 0.90
1.72 1.62 1.55 1.72 1.67 1.64 1.73 1.89 1.84 1.73 1.89 2.08 2.19 2.08 1.84 1.70 1.61 1.54 1.59 1.62 1.47 1.47 1.53 1.51 1.34 1.15 0.92 0.78 0.71 0.67 0.65 0.61 0.70 0.78 0.92 0.98 0.91 0.89 1.04 1.20 1.27 1.24 1.15
1.74 1.64 1.64 1.59 1.73 1.82 1.94 2.01 1.96 1.98 2.12 2.28 2.35 2.39 2.13 1.86 1.86 1.79 1.83 1.85 1.63 1.57 1.71 1.78 1.64 1.45 1.18 0.99 0.97 0.93 0.88 0.89 0.90 0.96 1.07 1.15 1.14 1.05 1.10 1.10 1.14 1.17 1.18
1.76 1.96 1.90 1.58 1.76 1.92 2.00 2.06 1.97 2.08 2.30 2.44 2.39 2.48 2.37 2.07 1.99 2.03 1.98 1.89 1.81 1.83 1.98 2.11 1.94 1.79 1.61 1.43 1.33 1.16 1.06 1.05 1.02 1.10 1.11 1.17 1.40 1.36 1.20 1.03 1.02 1.07 1.11
2.01 2.36 2.11 1.76 1.86 1.96 2.09 2.20 2.16 2.23 2.53 2.74 2.78 2.64 2.39 2.21 2.20 2.29 2.29 2.27 2.23 2.22 2.23 2.15 2.19 2.04 2.05 1.92 1.61 1.39 1.25 1.20 1.23 1.20 1.21 1.26 1.35 1.43 1.35 1.17 1.05 1.03 1.01
2.34 2.84 2.46 1.98 2.00 2.17 2.15 2.16 2.35 2.55 2.84 3.09 3.01 2.81 2.66 2.66 2.63 2.67 2.62 2.65 2.67 2.71 2.53 2.43 2.38 2.17 2.07 2.00 1.74 1.58 1.46 1.35 1.27 1.22 1.16 1.16 1.19 1.17 1.19 1.16 1.13 1.02 0.95
2.41 2.68 2.65 2.43 2.43 2.56 2.63 2.47 2.64 2.95 3.27 3.52 3.45 3.37 3.33 3.28 3.21 3.19 3.17 3.08 2.94 2.86 2.71 2.52 2.35 2.23 2.08 1.90 1.83 1.62 1.38 1.21 1.09 1.01 1.02 1.02 0.98 0.96 0.98 1.06 1.10 1.04 0.96
2.37 2.40 2.57 2.69 2.72 2.61 2.88 3.10 3.38 3.71 3.89 4.16 4.41 4.48 4.36 4.12 3.88 3.72 3.58 3.31 2.97 2.80 2.70 2.52 2.32 2.17 1.99 1.82 1.75 1.70 1.43 1.20 0.95 0.82 0.81 0.80 0.83 0.86 0.85 0.83 0.90 0.87 0.80
2.23 2.43 2.58 2.84 2.95 2.92 3.31 3.81 4.28 4.59 4.63 4.68 4.74 4.82 4.77 4.36 3.99 3.71 3.40 3.16 2.91 2.73 2.59 2.49 2.34 2.21 2.01 1.82 1.68 1.72 1.61 1.41 1.11 0.92 0.80 0.74 0.74 0.78 0.80 0.74 0.72 0.70 0.66
1.98 2.20 2.37 2.72 3.10 3.43 3.84 4.37 4.91 5.20 5.37 5.29 4.97 4.73 4.44 4.04 3.66 3.23 2.99 2.94 2.74 2.53 2.37 2.19 2.02 1.94 1.86 1.75 1.65 1.51 1.40 1.32 1.22 1.08 0.97 0.90 0.83 0.82 0.83 0.80 0.79 0.74 0.69
1.69 1.93 2.21 2.51 2.94 3.56 4.27 4.89 5.35 5.67 5.63 5.22 4.74 4.17 3.75 3.42 3.12 2.85 2.62 2.62 2.52 2.27 2.03 1.78 1.58 1.51 1.49 1.50 1.46 1.40 1.32 1.20 1.03 0.92 0.93 0.92 0.92 0.89 0.84 0.81 0.78 0.76 0.70
1.34 1.61 1.97 2.40 2.74 3.30 3.95 4.56 4.95 5.22 5.14 4.74 4.13 3.59 3.21 2.86 2.57 2.33 2.07 1.91 1.79 1.61 1.48 1.36 1.24 1.20 1.18 1.22 1.24 1.18 1.14 1.10 1.03 0.96 0.92 0.89 0.93 1.00 0.91 0.81 0.72 0.64 0.60

GEFSSE_prec_meanprecacc_138.txt.gz
Total_Precipitation_Accumulation
0.20 0.06 0.03 0.04 0.05 0.08 0.09 0.09 0.10 0.11 0.12 0.11 0.11 0.10 0.09 0.10 0.11 0.09 0.08 0.08 0.13 0.22 0.31 0.33 0.35 0.41 0.42 0.41 0.34 0.25 0.20 0.15 0.12 0.12 0.14 0.16 0.19 0.23 0.23 0.19 0.20 0.14 0.09
0.19 0.05 0.03 0.03 0.04 0.06 0.08 0.11 0.12 0.11 0.11 0.10 0.10 0.09 0.10 0.10 0.10 0.12 0.11 0.11 0.17 0.24 0.26 0.29 0.31 0.34 0.32 0.29 0.23 0.17 0.12 0.11 0.13 0.17 0.23 0.29 0.40 0.41 0.37 0.29 0.32 0.22 0.09
0.08 0.02 0.02 0.03 0.04 0.05 0.07 0.09 0.12 0.12 0.12 0.11 0.12 0.12 0.12 0.11 0.11 0.13 0.13 0.15 0.21 0.24 0.22 0.23 0.25 0.25 0.22 0.16 0.13 0.11 0.11 0.13 0.21 0.31 0.53 0.62 0.65 0.53 0.39 0.32 0.30 0.21 0.12
0.05 0.03 0.02 0.03 0.04 0.03 0.05 0.06 0.10 0.13 0.16 0.16 0.18 0.14 0.12 0.12 0.13 0.13 0.13 0.15 0.19 0.20 0.19 0.18 0.17 0.16 0.13 0.11 0.10 0.11 0.13 0.18 0.34 0.57 0.97 0.83 0.88 0.74 0.48 0.35 0.31 0.28 0.26
0.05 0.05 0.04 0.04 0.04 0.04 0.04 0.06 0.11 0.15 0.16 0.18 0.19 0.17 0.13 0.11 0.11 0.14 0.18 0.21 0.23 0.23 0.24 0.24 0.20 0.13 0.10 0.10 0.11 0.13 0.17 0.26 0.46 0.75 1.09 1.24 1.25 1.01 0.61 0.42 0.38 0.38 0.41
0.05 0.04 0.05 0.07 0.06 0.06 0.06 0.06 0.11 0.17 0.18 0.18 0.19 0.19 0.18 0.14 0.13 0.18 0.25 0.28 0.28 0.27 0.32 0.37 0.30 0.21 0.13 0.11 0.11 0.14 0.21 0.35 0.50 0.78 1.31 1.60 1.35 0.98 0.64 0.47 0.38 0.45 0.53
0.09 0.06 0.08 0.10 0.08 0.08 0.08 0.11 0.15 0.19 0.22 0.24 0.23 0.23 0.23 0.17 0.15 0.20 0.28 0.32 0.32 0.31 0.31 0.28 0.22 0.17 0.14 0.12 0.13 0.17 0.23 0.37 0.50 0.81 1.21 1.49 1.24 0.83 0.59 0.51 0.44 0.46 0.49
0.20 0.10 0.11 0.12 0.12 0.13 0.15 0.18 0.20 0.20 0.23 0.24 0.25 0.26 0.24 0.18 0.16 0.20 0.27 0.34 0.40 0.35 0.27 0.21 0.16 0.12 0.12 0.12 0.13 0.16 0.23 0.33 0.37 0.66 1.01 1.13 0.95 0.70 0.55 0.51 0.50 0.46 0.43
0.35 0.23 0.20 0.18 0.17 0.18 0.19 0.20 0.22 0.23 0.24 0.25 0.23 0.23 0.23 0.20 0.17 0.20 0.27 0.32 0.30 0.23 0.19 0.16 0.14 0.11 0.09 0.07 0.09 0.13 0.21 0.30 0.38 0.63 0.88 1.00 0.85 0.68 0.55 0.45 0.39 0.38 0.36
0.79 0.84 0.58 0.29 0.21 0.18 0.18 0.25 0.31 0.32 0.31 0.28 0.25 0.22 0.20 0.18 0.20 0.23 0.25 0.24 0.20 0.14 0.10 0.10 0.09 0.08 0.06 0.06 0.08 0.12 0.18 0.20 0.27 0.52 0.80 0.89 0.83 0.69 0.62 0.48 0.39 0.32 0.30
1.14 1.29 0.73 0.43 0.35 0.32 0.30 0.28 0.33 0.36 0.38 0.32 0.28 0.29 0.27 0.29 0.37 0.38 0.29 0.28 0.21 0.16 0.14 0.13 0.11 0.10 0.08 0.08 0.10 0.13 0.14 0.17 0.43 0.56 0.71 0.79 0.85 0.81 0.72 0.60 0.48 0.39 0.33
1.21 1.05 0.95 0.73 0.51 0.47 0.44 0.46 0.46 0.43 0.45 0.38 0.47 0.41 0.47 0.76 0.85 0.69 0.64 0.53 0.39 0.29 0.24 0.23 0.22 0.18 0.13 0.11 0.13 0.14 0.15 0.23 0.42 0.63 0.67 0.64 0.72 0.79 0.80 0.70 0.57 0.49 0.43
1.79 1.28 1.11 1.00 0.81 0.73 0.79 0.82 0.77 0.75 0.77 0.72 0.85 0.74 0.82 0.94 0.88 0.86 0.87 0.75 0.66 0.55 0.50 0.49 0.37 0.29 0.24 0.25 0.26 0.23 0.24 0.31 0.40 0.65 0.66 0.70 0.74 0.85 0.91 0.80 0.66 0.62 0.61
2.02 1.74 1.29 1.24 1.19 1.29 1.35 1.24 1.12 1.17 1.17 1.10 1.17 1.01 1.09 1.23 1.23 1.12 1.16 1.09 1.06 0.95 0.92 0.79 0.65 0.53 0.47 0.42 0.40 0.39 0.41 0.43 0.46 0.61 0.73 0.79 0.82 0.95 1.04 0.99 0.86 0.77 0.73
1.99 1.78 1.60 1.68 1.64 1.63 1.63 1.73 1.61 1.50 1.63 1.63 1.63 1.43 1.45 1.42 1.36 1.35 1.30 1.30 1.27 1.33 1.31 1.22 1.03 0.85 0.70 0.60 0.52 0.52 0.54 0.55 0.66 0.71 0.90 0.91 0.81 0.95 1.15 1.24 1.18 1.10 1.00
1.86 1.83 1.76 1.96 1.85 1.78 1.84 1.98 1.93 1.78 1.94 2.13 2.25 2.15 1.92 1.77 1.66 1.58 1.63 1.66 1.50 1.51 1.59 1.59 1.42 1.21 0.97 0.83 0.74 0.70 0.68 0.64 0.74 0.84 0.98 1.05 1.00 0.99 1.20 1.39 1.45 1.40 1.28
1.85 1.77 1.81 1.76 1.90 2.00 2.11 2.12 2.06 2.07 2.20 2.35 2.43 2.47 2.21 1.94 1.92 1.84 1.87 1.89 1.67 1.63 1.78 1.88 1.75 1.57 1.26 1.06 1.02 0.97 0.91 0.94 0.96 1.04 1.16 1.24 1.23 1.16 1.23 1.25 1.30 1.34 1.34
1.87 2.09 2.09 1.81 2.01 2.14 2.17 2.19 2.07 2.16 2.37 2.49 2.46 2.55 2.43 2.13 2.03 2.07 2.01 1.92 1.86 1.91 2.09 2.23 2.10 1.96 1.74 1.53 1.40 1.22 1.12 1.11 1.09 1.18 1.18 1.24 1.47 1.44 1.30 1.15 1.16 1.24 1.28
2.13 2.51 2.27 1.95 2.04 2.11 2.24 2.36 2.26 2.31 2.59 2.81 2.88 2.74 2.46 2.25 2.24 2.33 2.32 2.30 2.27 2.28 2.32 2.26 2.31 2.17 2.18 2.01 1.67 1.45 1.32 1.27 1.30 1.31 1.30 1.32 1.41 1.50 1.44 1.28 1.18 1.20 1.20
2.45 2.93 2.53 2.06 2.09 2.29 2.28 2.26 2.43 2.63 2.90 3.14 3.08 2.87 2.72 2.70 2.68 2.71 2.66 2.69 2.73 2.76 2.59 2.50 2.45 2.26 2.15 2.08 1.81 1.64 1.53 1.42 1.32 1.29 1.25 1.25 1.27 1.25 1.27 1.25 1.24 1.15 1.16
2.52 2.77 2.72 2.49 2.50 2.65 2.73 2.54 2.71 3.01 3.32 3.57 3.50 3.41 3.37 3.32 3.25 3.23 3.21 3.13 3.00 2.91 2.77 2.58 2.41 2.29 2.14 1.96 1.89 1.66 1.43 1.26 1.12 1.06 1.09 1.11 1.07 1.04 1.07 1.15 1.20 1.15 1.10
2.42 2.48 2.66 2.77 2.80 2.68 2.96 3.19 3.46 3.79 3.94 4.21 4.46 4.52 4.39 4.16 3.92 3.75 3.62 3.37 3.04 2.85 2.75 2.57 2.36 2.20 2.03 1.86 1.79 1.74 1.46 1.23 0.98 0.85 0.86 0.87 0.91 0.96 0.97 0.94 1.00 0.96 0.89
2.29 2.50 2.65 2.91 3.01 2.96 3.37 3.91 4.39 4.67 4.69 4.75 4.78 4.85 4.80 4.39 4.03 3.75 3.44 3.21 2.96 2.77 2.63 2.54 2.38 2.23 2.04 1.86 1.72 1.76 1.65 1.43 1.13 0.95 0.83 0.80 0.82 0.88 0.90 0.86 0.83 0.79 0.75
2.06 2.29 2.45 2.79 3.16 3.47 3.88 4.42 4.98 5.27 5.43 5.34 5.01 4.77 4.48 4.08 3.70 3.27 3.02 2.98 2.79 2.58 2.41 2.22 2.06 1.97 1.90 1.79 1.69 1.56 1.45 1.36 1.26 1.12 1.01 0.95 0.91 0.91 0.93 0.92 0.93 0.89 0.81
1.73 2.00 2.28 2.58 2.99 3.59 4.31 4.93 5.38 5.70 5.66 5.25 4.77 4.21 3.79 3.46 3.16 2.89 2.66 2.66 2.55 2.31 2.07 1.81 1.62 1.54 1.53 1.55 1.51 1.45 1.37 1.25 1.08 0.97 0.98 0.96 0.97 0.95 0.93 0.92 0.92 0.90 0.84
1.39 1.67 2.03 2.45 2.77 3.32 3.98 4.59 4.98 5.25 5.18 4.78 4.17 3.63 3.24 2.90 2.60 2.36 2.11 1.95 1.82 1.64 1.50 1.39 1.27 1.24 1.23 1.28 1.30 1.23 1.18 1.15 1.08 1.02 0.97 0.93 0.99 1.07 0.99 0.89 0.82 0.76 0.74

GEFSSE_prec_meanprecacc_144.txt.gz
Total_Precipitation_Accumulation
0.22 0.07 0.04 0.04 0.05 0.08 0.10 0.10 0.12 0.12 0.12 0.11 0.11 0.10 0.09 0.10 0.11 0.09 0.08 0.09 0.13 0.23 0.32 0.35 0.37 0.42 0.43 0.42 0.35 0.26 0.20 0.15 0.13 0.12 0.14 0.16 0.20 0.24 0.24 0.20 0.21 0.15 0.10
0.20 0.05 0.04 0.04 0.05 0.07 0.09 0.12 0.13 0.12 0.12 0.10 0.10 0.09 0.10 0.10 0.10 0.12 0.11 0.12 0.18 0.25 0.27 0.30 0.32 0.34 0.33 0.29 0.24 0.17 0.13 0.12 0.14 0.18 0.24 0.30 0.41 0.42 0.38 0.30 0.33 0.23 0.10
0.10 0.04 0.03 0.04 0.05 0.06 0.08 0.11 0.14 0.14 0.13 0.11 0.12 0.12 0.12 0.11 0.11 0.13 0.14 0.15 0.22 0.24 0.23 0.23 0.26 0.26 0.22 0.17 0.13 0.12 0.11 0.15 0.23 0.33 0.56 0.64 0.67 0.54 0.40 0.33 0.31 0.21 0.12
0.07 0.05 0.03 0.04 0.05 0.05 0.06 0.08 0.12 0.15 0.17 0.17 0.18 0.14 0.12 0.13 0.13 0.13 0.14 0.16 0.20 0.21 0.19 0.18 0.18 0.16 0.13 0.11 0.11 0.12 0.14 0.21 0.37 0.60 1.00 0.85 0.90 0.76 0.49 0.35 0.32 0.29 0.26
0.07 0.08 0.07 0.06 0.06 0.05 0.04 0.07 0.12 0.17 0.18 0.20 0.20 0.18 0.14 0.12 0.12 0.14 0.19 0.22 0.24 0.24 0.26 0.25 0.20 0.13 0.10 0.11 0.12 0.15 0.19 0.29 0.48 0.77 1.10 1.25 1.30 1.04 0.62 0.43 0.38 0.39 0.41
0.07 0.06 0.07 0.09 0.08 0.07 0.07 0.07 0.13 0.19 0.20 0.20 0.20 0.20 0.18 0.15 0.14 0.18 0.26 0.29 0.29 0.28 0.33 0.39 0.32 0.22 0.14 0.11 0.12 0.16 0.24 0.39 0.52 0.80 1.32 1.62 1.37 1.01 0.65 0.48 0.39 0.46 0.53
0.10 0.08 0.10 0.14 0.12 0.11 0.10 0.13 0.18 0.21 0.23 0.25 0.24 0.24 0.24 0.18 0.16 0.21 0.29 0.33 0.33 0.32 0.32 0.30 0.23 0.19 0.15 0.13 0.15 0.19 0.27 0.41 0.53 0.85 1.25 1.53 1.28 0.87 0.61 0.53 0.46 0.47 0.50
0.22 0.12 0.14 0.17 0.19 0.18 0.19 0.23 0.25 0.23 0.25 0.26 0.27 0.28 0.26 0.19 0.17 0.22 0.29 0.36 0.41 0.37 0.29 0.22 0.17 0.14 0.13 0.13 0.14 0.17 0.26 0.38 0.40 0.70 1.05 1.19 1.00 0.74 0.60 0.55 0.54 0.48 0.45
0.38 0.26 0.23 0.22 0.24 0.26 0.25 0.25 0.30 0.31 0.30 0.29 0.28 0.27 0.26 0.22 0.19 0.23 0.29 0.34 0.32 0.25 0.21 0.18 0.15 0.12 0.10 0.09 0.10 0.14 0.23 0.34 0.42 0.67 0.91 1.06 0.89 0.73 0.62 0.52 0.43 0.40 0.39
0.84 0.88 0.62 0.33 0.25 0.24 0.25 0.31 0.37 0.41 0.40 0.35 0.30 0.26 0.24 0.23 0.22 0.26 0.28 0.27 0.23 0.17 0.13 0.14 0.12 0.10 0.08 0.08 0.10 0.13 0.21 0.23 0.30 0.55 0.85 0.93 0.86 0.75 0.73 0.60 0.47 0.38 0.34
1.22 1.35 0.78 0.48 0.41 0.39 0.37 0.36 0.44 0.48 0.46 0.40 0.34 0.34 0.31 0.33 0.42 0.42 0.33 0.34 0.27 0.21 0.19 0.18 0.16 0.13 0.11 0.10 0.13 0.16 0.16 0.19 0.44 0.59 0.75 0.82 0.89 0.90 0.85 0.73 0.59 0.47 0.39
1.30 1.14 1.03 0.82 0.59 0.54 0.51 0.52 0.53 0.51 0.53 0.47 0.54 0.47 0.53 0.82 0.90 0.74 0.68 0.58 0.46 0.36 0.30 0.29 0.28 0.22 0.16 0.14 0.17 0.17 0.17 0.25 0.44 0.66 0.69 0.67 0.78 0.90 0.95 0.85 0.67 0.60 0.53
1.87 1.35 1.19 1.08 0.89 0.81 0.88 0.90 0.85 0.84 0.87 0.81 0.92 0.79 0.88 1.00 0.94 0.92 0.95 0.82 0.74 0.63 0.59 0.60 0.45 0.36 0.30 0.31 0.32 0.28 0.28 0.35 0.44 0.67 0.69 0.75 0.81 0.95 1.09 0.99 0.78 0.74 0.72
2.07 1.79 1.35 1.33 1.31 1.40 1.45 1.33 1.19 1.25 1.25 1.16 1.22 1.06 1.15 1.28 1.29 1.18 1.24 1.18 1.16 1.06 1.04 0.91 0.77 0.62 0.54 0.47 0.45 0.44 0.47 0.49 0.51 0.65 0.78 0.84 0.88 1.05 1.20 1.19 1.04 0.94 0.89
2.05 1.84 1.67 1.78 1.76 1.74 1.71 1.80 1.68 1.57 1.69 1.69 1.68 1.47 1.50 1.48 1.41 1.39 1.36 1.38 1.37 1.43 1.41 1.33 1.13 0.94 0.79 0.67 0.57 0.57 0.61 0.62 0.72 0.77 0.95 0.95 0.85 1.01 1.25 1.39 1.36 1.30 1.24
1.97 1.97 1.91 2.09 1.96 1.86 1.91 2.05 1.99 1.85 2.00 2.18 2.28 2.18 1.95 1.82 1.70 1.63 1.68 1.73 1.57 1.59 1.67 1.67 1.49 1.29 1.06 0.92 0.82 0.76 0.75 0.71 0.79 0.90 1.03 1.11 1.05 1.05 1.32 1.57 1.66 1.64 1.54
2.02 1.95 1.98 1.90 2.03 2.13 2.20 2.17 2.10 2.11 2.25 2.39 2.48 2.51 2.26 1.99 1.98 1.89 1.92 1.94 1.73 1.68 1.83 1.94 1.83 1.66 1.35 1.14 1.10 1.06 1.00 1.01 1.02 1.09 1.22 1.31 1.31 1.24 1.33 1.40 1.48 1.54 1.57
1.98 2.22 2.18 1.88 2.10 2.24 2.27 2.26 2.14 2.23 2.43 2.56 2.52 2.61 2.50 2.20 2.09 2.12 2.06 1.96 1.91 1.96 2.14 2.29 2.19 2.09 1.86 1.63 1.51 1.32 1.21 1.18 1.16 1.26 1.25 1.30 1.54 1.50 1.37 1.23 1.27 1.38 1.48
2.21 2.60 2.35 2.01 2.10 2.18 2.32 2.44 2.33 2.38 2.66 2.87 2.93 2.79 2.50 2.30 2.29 2.37 2.37 2.34 2.30 2.33 2.37 2.30 2.39 2.26 2.29 2.12 1.77 1.54 1.40 1.34 1.36 1.36 1.34 1.36 1.47 1.56 1.51 1.36 1.27 1.31 1.34
2.51 3.00 2.60 2.11 2.15 2.35 2.34 2.32 2.49 2.69 2.96 3.19 3.11 2.91 2.75 2.74 2.71 2.75 2.70 2.73 2.76 2.80 2.64 2.55 2.52 2.33 2.22 2.15 1.88 1.71 1.61 1.49 1.37 1.34 1.29 1.29 1.32 1.31 1.35 1.33 1.33 1.24 1.25
2.56 2.85 2.80 2.56 2.55 2.70 2.77 2.58 2.75 3.06 3.37 3.61 3.54 3.45 3.40 3.35 3.27 3.25 3.23 3.16 3.03 2.96 2.82 2.64 2.46 2.35 2.19 2.01 1.94 1.71 1.47 1.29 1.16 1.09 1.12 1.14 1.10 1.09 1.13 1.22 1.27 1.22 1.18
2.44 2.55 2.78 2.87 2.85 2.72 2.99 3.22 3.50 3.83 3.99 4.26 4.50 4.56 4.42 4.19 3.95 3.77 3.64 3.41 3.08 2.90 2.81 2.64 2.41 2.26 2.08 1.91 1.85 1.82 1.52 1.27 1.01 0.87 0.88 0.89 0.93 0.99 1.01 1.01 1.08 1.04 0.96
2.30 2.53 2.78 3.00 3.06 2.99 3.39 3.94 4.43 4.71 4.73 4.79 4.82 4.88 4.83 4.42 4.05 3.76 3.45 3.23 3.00 2.82 2.69 2.62 2.44 2.28 2.10 1.91 1.78 1.84 1.73 1.51 1.18 0.99 0.86 0.82 0.85 0.92 0.95 0.91 0.89 0.86 0.83
2.07 2.33 2.56 2.85 3.21 3.51 3.92 4.45 5.02 5.32 5.47 5.38 5.04 4.80 4.50 4.11 3.73 3.29 3.04 3.00 2.83 2.63 2.47 2.28 2.12 2.02 1.96 1.86 1.75 1.62 1.53 1.44 1.33 1.17 1.05 0.99 0.94 0.94 0.97 0.96 0.98 0.96 0.90
1.75 2.04 2.35 2.67 3.05 3.64 4.35 4.96 5.41 5.73 5.69 5.28 4.80 4.23 3.81 3.48 3.18 2.91 2.68 2.68 2.59 2.34 2.10 1.84 1.66 1.59 1.59 1.63 1.59 1.51 1.43 1.32 1.15 1.05 1.04 1.02 1.00 0.98 0.97 0.97 0.98 0.98 0.93
1.40 1.69 2.06 2.49 2.81 3.36 4.02 4.63 5.00 5.27 5.19 4.80 4.19 3.65 3.27 2.92 2.62 2.37 2.12 1.97 1.85 1.67 1.54 1.43 1.31 1.28 1.27 1.33 1.36 1.30 1.26 1.24 1.17 1.11 1.06 1.00 1.04 1.10 1.02 0.93 0.87 0.84 0.83

GEFSSE_prec_meanprecacc_150.txt.gz
Total_Precipitation_Accumulation
0.23 0.07 0.04 0.05 0.06 0.09 0.10 0.11 0.13 0.12 0.12 0.12 0.11 0.10 0.10 0.11 0.11 0.09 0.08 0.09 0.13 0.24 0.32 0.35 0.37 0.42 0.43 0.42 0.35 0.26 0.20 0.15 0.13 0.13 0.14 0.16 0.20 0.24 0.24 0.21 0.26 0.19 0.11
0.21 0.06 0.04 0.04 0.05 0.07 0.10 0.14 0.14 0.13 0.12 0.11 0.10 0.09 0.10 0.10 0.10 0.12 0.11 0.12 0.19 0.25 0.28 0.31 0.33 0.35 0.33 0.29 0.24 0.17 0.13 0.12 0.14 0.18 0.24 0.30 0.41 0.43 0.38 0.32 0.40 0.27 0.10
0.11 0.04 0.03 0.04 0.05 0.07 0.10 0.13 0.16 0.15 0.13 0.12 0.12 0.12 0.12 0.11 0.11 0.13 0.14 0.16 0.22 0.25 0.24 0.24 0.26 0.26 0.23 0.17 0.13 0.12 0.12 0.15 0.24 0.35 0.61 0.69 0.67 0.54 0.40 0.34 0.33 0.22 0.12
0.08 0.06 0.04 0.04 0.05 0.05 0.07 0.10 0.14 0.17 0.19 0.19 0.19 0.15 0.12 0.13 0.13 0.13 0.14 0.17 0.20 0.21 0.20 0.19 0.19 0.17 0.14 0.12 0.11 0.12 0.15 0.21 0.38 0.63 1.09 0.91 0.93 0.77 0.49 0.36 0.32 0.29 0.26
0.08 0.10 0.08 0.06 0.06 0.06 0.06 0.09 0.15 0.19 0.20 0.22 0.22 0.19 0.14 0.12 0.12 0.15 0.19 0.23 0.25 0.25 0.26 0.26 0.21 0.14 0.11 0.11 0.12 0.15 0.20 0.29 0.49 0.80 1.17 1.31 1.42 1.10 0.63 0.43 0.39 0.39 0.41
0.09 0.08 0.08 0.10 0.09 0.08 0.08 0.09 0.16 0.22 0.24 0.22 0.22 0.22 0.20 0.16 0.14 0.19 0.26 0.30 0.30 0.29 0.34 0.39 0.32 0.22 0.14 0.12 0.13 0.17 0.24 0.40 0.54 0.83 1.35 1.65 1.49 1.08 0.67 0.48 0.39 0.46 0.54
0.13 0.10 0.12 0.15 0.13 0.13 0.13 0.16 0.21 0.25 0.27 0.28 0.27 0.26 0.26 0.19 0.17 0.22 0.30 0.34 0.34 0.33 0.33 0.30 0.24 0.19 0.16 0.14 0.16 0.20 0.27 0.42 0.56 0.92 1.29 1.58 1.37 0.93 0.64 0.54 0.48 0.49 0.51
0.26 0.15 0.17 0.19 0.21 0.20 0.22 0.26 0.28 0.28 0.30 0.30 0.31 0.30 0.27 0.20 0.19 0.23 0.30 0.38 0.43 0.38 0.30 0.23 0.18 0.14 0.14 0.14 0.15 0.18 0.27 0.39 0.42 0.72 1.07 1.23 1.06 0.77 0.62 0.57 0.55 0.49 0.46
0.45 0.32 0.27 0.26 0.28 0.30 0.30 0.30 0.34 0.35 0.33 0.32 0.31 0.29 0.27 0.24 0.21 0.25 0.31 0.36 0.35 0.28 0.23 0.20 0.17 0.13 0.11 0.10 0.11 0.15 0.24 0.35 0.44 0.68 0.93 1.08 0.91 0.75 0.66 0.56 0.46 0.43 0.43
0.94 1.00 0.69 0.40 0.32 0.30 0.30 0.37 0.42 0.46 0.45 0.40 0.35 0.29 0.27 0.25 0.25 0.29 0.30 0.30 0.26 0.20 0.16 0.16 0.14 0.11 0.09 0.09 0.11 0.14 0.21 0.23 0.31 0.57 0.88 0.96 0.88 0.78 0.77 0.65 0.52 0.43 0.39
1.29 1.47 0.96 0.65 0.53 0.49 0.49 0.45 0.51 0.54 0.52 0.48 0.41 0.39 0.37 0.41 0.54 0.56 0.42 0.40 0.30 0.25 0.22 0.21 0.18 0.14 0.12 0.11 0.14 0.17 0.17 0.20 0.46 0.66 0.84 0.88 0.93 0.93 0.88 0.77 0.64 0.52 0.44
1.38 1.23 1.17 1.08 0.86 0.71 0.70 0.73 0.71 0.64 0.64 0.59 0.65 0.55 0.62 0.95 1.06 0.90 0.83 0.68 0.51 0.40 0.34 0.33 0.32 0.26 0.20 0.20 0.27 0.25 0.22 0.30 0.49 0.76 0.85 0.78 0.86 0.95 0.99 0.88 0.70 0.65 0.58
1.96 1.44 1.29 1.25 1.16 1.03 1.10 1.16 1.12 1.05 1.04 0.96 1.05 0.91 1.02 1.15 1.10 1.08 1.12 0.97 0.86 0.73 0.73 0.76 0.57 0.45 0.42 0.43 0.45 0.43 0.40 0.44 0.51 0.74 0.81 0.85 0.89 1.02 1.14 1.05 0.84 0.80 0.79
2.15 1.90 1.48 1.45 1.47 1.57 1.62 1.53 1.38 1.43 1.47 1.38 1.39 1.20 1.29 1.45 1.46 1.35 1.44 1.38 1.36 1.26 1.24 1.11 0.97 0.78 0.67 0.59 0.54 0.52 0.53 0.54 0.56 0.70 0.86 0.91 0.95 1.10 1.26 1.24 1.10 1.01 0.97
2.12 1.94 1.77 1.87 1.88 1.86 1.86 1.96 1.84 1.75 1.92 1.91 1.87 1.65 1.64 1.63 1.57 1.54 1.54 1.55 1.52 1.58 1.59 1.50 1.27 1.06 0.91 0.79 0.66 0.66 0.68 0.68 0.78 0.84 1.03 1.03 0.91 1.06 1.31 1.47 1.45 1.40 1.34
2.01 2.03 2.00 2.19 2.05 1.95 2.02 2.18 2.14 2.02 2.19 2.35 2.48 2.36 2.09 1.95 1.84 1.76 1.82 1.86 1.70 1.70 1.80 1.81 1.62 1.41 1.18 1.04 0.91 0.84 0.81 0.77 0.86 0.97 1.12 1.21 1.12 1.10 1.38 1.67 1.76 1.77 1.69
2.06 1.99 2.02 1.97 2.11 2.20 2.28 2.27 2.22 2.26 2.41 2.56 2.67 2.69 2.40 2.10 2.09 2.02 2.08 2.10 1.86 1.82 1.97 2.06 1.96 1.79 1.47 1.25 1.19 1.16 1.09 1.08 1.09 1.16 1.28 1.40 1.41 1.31 1.39 1.48 1.57 1.66 1.69
2.03 2.26 2.22 1.93 2.16 2.30 2.34 2.35 2.24 2.34 2.55 2.70 2.70 2.82 2.69 2.34 2.22 2.23 2.16 2.07 2.02 2.08 2.28 2.44 2.32 2.20 1.97 1.74 1.60 1.40 1.28 1.25 1.22 1.33 1.32 1.36 1.63 1.60 1.49 1.31 1.33 1.46 1.57
2.24 2.64 2.38 2.04 2.13 2.22 2.39 2.54 2.42 2.47 2.74 2.97 3.04 2.90 2.60 2.39 2.38 2.45 2.45 2.43 2.39 2.43 2.48 2.44 2.53 2.37 2.40 2.22 1.82 1.59 1.44 1.39 1.43 1.42 1.42 1.43 1.56 1.66 1.63 1.47 1.34 1.38 1.42
2.54 3.02 2.62 2.13 2.17 2.39 2.39 2.40 2.58 2.76 3.02 3.26 3.18 2.97 2.80 2.79 2.75 2.80 2.78 2.83 2.88 2.93 2.76 2.67 2.64 2.44 2.33 2.24 1.94 1.77 1.67 1.53 1.42 1.41 1.37 1.37 1.42 1.39 1.44 1.45 1.46 1.34 1.35
2.59 2.87 2.81 2.57 2.58 2.73 2.82 2.63 2.82 3.11 3.42 3.67 3.59 3.49 3.44 3.38 3.31 3.30 3.30 3.25 3.13 3.08 2.95 2.75 2.56 2.45 2.29 2.09 2.01 1.78 1.52 1.34 1.21 1.17 1.21 1.26 1.20 1.16 1.22 1.34 1.41 1.36 1.29
2.46 2.56 2.79 2.88 2.87 2.75 3.03 3.27 3.54 3.86 4.02 4.30 4.55 4.61 4.47 4.23 3.99 3.81 3.69 3.47 3.15 2.99 2.90 2.71 2.49 2.35 2.17 2.00 1.94 1.89 1.59 1.36 1.10 0.96 0.98 0.98 1.01 1.08 1.09 1.07 1.16 1.15 1.09
2.32 2.55 2.79 3.02 3.08 3.02 3.43 3.98 4.47 4.75 4.76 4.83 4.88 4.94 4.89 4.46 4.10 3.81 3.49 3.28 3.05 2.87 2.75 2.68 2.52 2.37 2.19 2.00 1.87 1.94 1.84 1.61 1.28 1.09 0.95 0.89 0.91 0.98 1.00 0.96 0.95 0.93 0.91
2.09 2.35 2.58 2.89 3.24 3.54 3.96 4.49 5.06 5.37 5.52 5.43 5.10 4.85 4.55 4.15 3.77 3.33 3.08 3.05 2.88 2.68 2.51 2.33 2.18 2.10 2.05 1.95 1.84 1.72 1.64 1.57 1.45 1.29 1.15 1.07 1.00 0.99 1.02 1.02 1.04 1.02 0.97
1.77 2.05 2.38 2.72 3.09 3.68 4.41 5.02 5.46 5.78 5.75 5.34 4.86 4.29 3.87 3.53 3.22 2.95 2.73 2.73 2.64 2.40 2.16 1.90 1.73 1.67 1.68 1.72 1.69 1.62 1.54 1.46 1.30 1.20 1.18 1.12 1.07 1.04 1.02 1.03 1.05 1.05 1.01
1.42 1.71 2.09 2.53 2.85 3.39 4.05 4.67 5.05 5.32 5.24 4.85 4.23 3.71 3.33 2.97 2.67 2.41 2.15 2.01 1.89 1.72 1.61 1.51 1.40 1.35 1.34 1.40 1.44 1.40 1.36 1.34 1.29 1.24 1.19 1.12 1.11 1.16 1.06 0.98 0.93 0.90 0.90

GEFSSE_prec_meanprecacc_156.txt.gz
Total_Precipitation_Accumulation
0.25 0.08 0.05 0.05 0.06 0.09 0.10 0.11 0.13 0.13 0.12 0.12 0.11 0.10 0.10 0.11 0.11 0.09 0.08 0.09 0.14 0.24 0.33 0.35 0.37 0.43 0.44 0.43 0.36 0.27 0.21 0.17 0.14 0.13 0.15 0.17 0.21 0.25 0.26 0.23 0.27 0.20 0.11
0.22 0.06 0.04 0.05 0.05 0.07 0.10 0.14 0.15 0.13 0.13 0.11 0.10 0.09 0.10 0.10 0.10 0.12 0.12 0.13 0.19 0.26 0.28 0.31 0.33 0.35 0.33 0.30 0.24 0.18 0.13 0.13 0.16 0.21 0.27 0.32 0.42 0.44 0.41 0.35 0.42 0.28 0.10
0.12 0.05 0.03 0.04 0.05 0.07 0.10 0.13 0.16 0.15 0.14 0.12 0.13 0.12 0.12 0.12 0.12 0.13 0.14 0.16 0.23 0.25 0.24 0.24 0.27 0.26 0.23 0.17 0.14 0.12 0.12 0.16 0.28 0.41 0.66 0.71 0.69 0.56 0.43 0.37 0.35 0.23 0.13
0.09 0.07 0.04 0.04 0.05 0.05 0.08 0.10 0.14 0.17 0.19 0.19 0.20 0.15 0.13 0.13 0.13 0.14 0.14 0.17 0.20 0.22 0.20 0.19 0.19 0.17 0.14 0.12 0.11 0.12 0.16 0.23 0.42 0.69 1.16 0.96 0.98 0.81 0.53 0.38 0.34 0.30 0.27
0.10 0.11 0.09 0.07 0.07 0.06 0.06 0.09 0.15 0.19 0.20 0.22 0.22 0.19 0.15 0.12 0.13 0.15 0.19 0.23 0.25 0.25 0.26 0.26 0.21 0.14 0.11 0.11 0.12 0.15 0.21 0.32 0.54 0.87 1.29 1.43 1.52 1.21 0.67 0.46 0.40 0.40 0.41
0.10 0.09 0.09 0.11 0.10 0.09 0.08 0.09 0.16 0.22 0.24 0.22 0.22 0.22 0.20 0.16 0.15 0.20 0.27 0.30 0.30 0.29 0.34 0.39 0.32 0.22 0.15 0.12 0.13 0.17 0.26 0.44 0.59 0.89 1.45 1.76 1.62 1.22 0.72 0.51 0.41 0.48 0.55
0.14 0.11 0.13 0.16 0.14 0.14 0.14 0.16 0.22 0.25 0.27 0.29 0.27 0.27 0.27 0.21 0.18 0.23 0.31 0.35 0.35 0.33 0.33 0.30 0.24 0.20 0.16 0.14 0.16 0.21 0.29 0.47 0.61 0.99 1.40 1.69 1.47 1.07 0.72 0.59 0.50 0.51 0.53
0.28 0.16 0.18 0.21 0.23 0.22 0.23 0.27 0.30 0.29 0.31 0.31 0.32 0.32 0.28 0.21 0.20 0.24 0.32 0.39 0.44 0.40 0.31 0.24 0.18 0.15 0.15 0.15 0.16 0.19 0.29 0.43 0.50 0.80 1.17 1.33 1.14 0.88 0.72 0.63 0.59 0.51 0.47
0.53 0.40 0.30 0.28 0.31 0.33 0.33 0.33 0.36 0.36 0.34 0.33 0.32 0.31 0.29 0.26 0.22 0.27 0.33 0.38 0.36 0.29 0.25 0.22 0.17 0.14 0.12 0.10 0.12 0.16 0.26 0.40 0.53 0.77 1.02 1.18 0.99 0.85 0.76 0.64 0.51 0.46 0.45
1.04 1.18 0.76 0.43 0.35 0.33 0.33 0.41 0.46 0.48 0.47 0.42 0.36 0.31 0.28 0.28 0.28 0.32 0.33 0.33 0.30 0.23 0.19 0.19 0.16 0.13 0.10 0.10 0.12 0.15 0.24 0.27 0.35 0.63 0.99 1.09 1.00 0.91 0.88 0.73 0.56 0.46 0.41
1.33 1.56 1.02 0.69 0.58 0.54 0.55 0.53 0.58 0.60 0.56 0.51 0.44 0.41 0.39 0.43 0.57 0.60 0.47 0.46 0.35 0.29 0.26 0.25 0.21 0.16 0.14 0.13 0.16 0.19 0.20 0.23 0.52 0.78 0.99 1.05 1.08 1.08 1.00 0.85 0.70 0.56 0.47
1.43 1.28 1.22 1.14 0.96 0.82 0.81 0.84 0.82 0.72 0.70 0.64 0.69 0.58 0.64 0.97 1.08 0.93 0.88 0.75 0.59 0.48 0.40 0.38 0.36 0.29 0.22 0.21 0.30 0.30 0.26 0.38 0.59 0.95 1.05 0.97 1.02 1.12 1.14 0.98 0.79 0.71 0.62
2.00 1.50 1.35 1.29 1.21 1.10 1.16 1.25 1.23 1.15 1.12 1.02 1.10 0.96 1.05 1.18 1.14 1.15 1.20 1.04 0.94 0.80 0.78 0.80 0.62 0.50 0.46 0.49 0.51 0.51 0.49 0.53 0.65 0.89 1.02 1.03 1.07 1.22 1.31 1.17 0.92 0.87 0.84
2.19 1.94 1.53 1.51 1.53 1.67 1.70 1.59 1.52 1.56 1.54 1.43 1.46 1.31 1.38 1.51 1.53 1.46 1.57 1.48 1.44 1.33 1.30 1.16 1.03 0.87 0.78 0.68 0.62 0.63 0.66 0.67 0.70 0.85 1.02 1.14 1.15 1.28 1.41 1.36 1.19 1.09 1.04
2.17 1.98 1.81 1.93 1.93 1.94 1.93 2.02 1.92 1.85 2.00 1.99 1.99 1.85 1.80 1.72 1.64 1.63 1.65 1.69 1.63 1.69 1.69 1.58 1.35 1.16 1.00 0.86 0.73 0.74 0.81 0.82 0.91 0.98 1.16 1.16 1.05 1.18 1.44 1.60 1.57 1.51 1.44
2.09 2.11 2.06 2.23 2.08 2.00 2.08 2.24 2.20 2.07 2.25 2.43 2.59 2.50 2.21 2.04 1.94 1.91 1.98 1.99 1.79 1.79 1.88 1.91 1.73 1.50 1.26 1.10 0.95 0.90 0.88 0.86 0.96 1.07 1.23 1.33 1.22 1.19 1.48 1.79 1.89 1.89 1.81
2.18 2.09 2.11 2.00 2.14 2.24 2.33 2.32 2.27 2.31 2.46 2.62 2.76 2.82 2.53 2.22 2.21 2.17 2.27 2.27 1.98 1.90 2.04 2.13 2.04 1.87 1.54 1.30 1.24 1.21 1.15 1.15 1.15 1.21 1.36 1.49 1.50 1.41 1.49 1.58 1.68 1.76 1.80
2.19 2.40 2.32 1.97 2.19 2.34 2.38 2.38 2.28 2.39 2.60 2.75 2.76 2.87 2.75 2.42 2.30 2.31 2.25 2.15 2.09 2.15 2.33 2.49 2.39 2.29 2.03 1.78 1.64 1.45 1.32 1.30 1.25 1.36 1.36 1.43 1.70 1.66 1.55 1.39 1.41 1.55 1.67
2.43 2.81 2.51 2.10 2.17 2.26 2.43 2.57 2.46 2.50 2.77 3.00 3.07 2.94 2.64 2.44 2.43 2.50 2.49 2.48 2.42 2.46 2.51 2.47 2.59 2.43 2.46 2.27 1.87 1.63 1.47 1.42 1.47 1.47 1.48 1.49 1.61 1.71 1.67 1.52 1.42 1.47 1.51
2.64 3.12 2.74 2.25 2.28 2.44 2.43 2.43 2.59 2.77 3.05 3.29 3.21 3.01 2.84 2.83 2.81 2.86 2.82 2.86 2.91 2.96 2.79 2.71 2.67 2.48 2.38 2.30 1.98 1.81 1.69 1.57 1.48 1.46 1.41 1.42 1.48 1.44 1.47 1.49 1.51 1.41 1.42
2.66 2.92 2.87 2.63 2.65 2.77 2.84 2.65 2.82 3.11 3.44 3.69 3.61 3.52 3.48 3.42 3.35 3.34 3.35 3.29 3.17 3.12 2.98 2.82 2.63 2.52 2.35 2.14 2.06 1.83 1.56 1.38 1.26 1.21 1.25 1.29 1.24 1.20 1.25 1.38 1.47 1.42 1.36
2.51 2.61 2.83 2.92 2.90 2.78 3.04 3.29 3.56 3.87 4.04 4.31 4.57 4.63 4.51 4.27 4.03 3.84 3.74 3.53 3.21 3.03 2.92 2.74 2.57 2.44 2.24 2.05 2.00 1.95 1.63 1.40 1.14 0.99 1.02 1.03 1.06 1.11 1.13 1.11 1.20 1.20 1.15
2.34 2.57 2.82 3.05 3.10 3.04 3.45 3.99 4.49 4.76 4.78 4.84 4.90 4.97 4.91 4.49 4.13 3.85 3.55 3.33 3.10 2.91 2.79 2.71 2.56 2.44 2.25 2.07 1.95 2.01 1.89 1.65 1.31 1.13 1.00 0.96 0.98 1.02 1.02 0.98 0.97 0.96 0.95
2.13 2.38 2.61 2.92 3.27 3.56 3.98 4.50 5.08 5.39 5.54 5.45 5.14 4.90 4.59 4.18 3.80 3.35 3.12 3.10 2.93 2.71 2.54 2.37 2.21 2.14 2.09 2.00 1.91 1.77 1.71 1.63 1.49 1.34 1.22 1.16 1.09 1.06 1.06 1.04 1.06 1.05 1.01
1.86 2.11 2.42 2.76 3.12 3.72 4.45 5.04 5.48 5.81 5.78 5.38 4.90 4.34 3.90 3.56 3.26 2.98 2.76 2.76 2.67 2.43 2.18 1.93 1.76 1.69 1.70 1.75 1.72 1.66 1.58 1.51 1.35 1.24 1.23 1.18 1.15 1.10 1.06 1.05 1.07 1.07 1.05
1.55 1.81 2.17 2.58 2.89 3.42 4.08 4.70 5.07 5.34 5.28 4.90 4.28 3.75 3.37 3.01 2.70 2.44 2.18 2.03 1.91 1.74 1.63 1.53 1.41 1.37 1.36 1.43 1.47 1.43 1.40 1.38 1.34 1.28 1.23 1.15 1.15 1.21 1.11 1.00 0.95 0.92 0.93

GEFSSE_prec_meanprecacc_162.txt.gz
Total_Precipitation_Accumulation
0.28 0.10 0.06 0.05 0.06 0.10 0.11 0.11 0.13 0.13 0.12 0.12 0.11 0.10 0.10 0.11 0.11 0.10 0.09 0.09 0.14 0.25 0.33 0.36 0.38 0.44 0.45 0.44 0.37 0.28 0.22 0.18 0.15 0.14 0.16 0.19 0.26 0.31 0.29 0.25 0.29 0.20 0.13
0.23 0.08 0.06 0.05 0.06 0.08 0.10 0.14 0.15 0.13 0.13 0.11 0.10 0.10 0.10 0.10 0.11 0.13 0.12 0.13 0.20 0.26 0.28 0.31 0.34 0.36 0.34 0.31 0.25 0.19 0.14 0.15 0.19 0.23 0.29 0.34 0.47 0.51 0.47 0.38 0.44 0.29 0.11
0.14 0.06 0.04 0.05 0.06 0.07 0.10 0.13 0.16 0.15 0.14 0.12 0.13 0.12 0.12 0.12 0.12 0.14 0.14 0.17 0.23 0.26 0.24 0.24 0.27 0.26 0.23 0.18 0.14 0.14 0.15 0.20 0.33 0.46 0.69 0.73 0.72 0.63 0.50 0.41 0.37 0.24 0.14
0.11 0.08 0.05 0.05 0.06 0.06 0.08 0.10 0.14 0.17 0.19 0.19 0.20 0.15 0.13 0.13 0.14 0.14 0.15 0.17 0.21 0.22 0.21 0.20 0.19 0.17 0.15 0.13 0.12 0.14 0.19 0.27 0.51 0.77 1.18 0.97 1.00 0.85 0.57 0.42 0.37 0.31 0.28
0.12 0.13 0.10 0.08 0.07 0.06 0.06 0.09 0.16 0.19 0.21 0.22 0.22 0.19 0.15 0.13 0.13 0.16 0.20 0.23 0.25 0.25 0.27 0.26 0.21 0.15 0.12 0.13 0.14 0.18 0.24 0.35 0.60 0.95 1.33 1.47 1.56 1.25 0.71 0.48 0.42 0.41 0.42
0.12 0.12 0.11 0.12 0.10 0.09 0.09 0.10 0.16 0.23 0.24 0.23 0.22 0.22 0.20 0.17 0.15 0.20 0.27 0.30 0.30 0.29 0.34 0.39 0.33 0.23 0.16 0.14 0.16 0.20 0.30 0.47 0.63 0.93 1.48 1.79 1.66 1.28 0.77 0.54 0.43 0.50 0.57
0.16 0.13 0.16 0.18 0.16 0.15 0.15 0.18 0.22 0.26 0.28 0.29 0.28 0.27 0.27 0.21 0.18 0.24 0.32 0.36 0.36 0.34 0.34 0.31 0.25 0.20 0.17 0.16 0.18 0.23 0.33 0.52 0.65 1.02 1.43 1.73 1.51 1.14 0.81 0.64 0.54 0.53 0.55
0.29 0.18 0.21 0.24 0.26 0.25 0.25 0.28 0.31 0.30 0.31 0.32 0.32 0.32 0.29 0.22 0.20 0.25 0.33 0.40 0.45 0.41 0.33 0.25 0.19 0.15 0.15 0.16 0.17 0.21 0.32 0.46 0.53 0.83 1.20 1.36 1.18 0.95 0.81 0.72 0.66 0.56 0.50
0.55 0.40 0.31 0.31 0.34 0.35 0.34 0.34 0.37 0.37 0.35 0.34 0.33 0.31 0.29 0.26 0.22 0.27 0.35 0.39 0.39 0.32 0.27 0.24 0.19 0.15 0.12 0.11 0.13 0.18 0.29 0.44 0.55 0.79 1.05 1.21 1.04 0.93 0.87 0.74 0.61 0.55 0.49
1.06 1.19 0.77 0.45 0.37 0.35 0.36 0.43 0.48 0.50 0.48 0.43 0.37 0.31 0.29 0.28 0.29 0.34 0.35 0.35 0.33 0.26 0.22 0.21 0.18 0.15 0.13 0.12 0.15 0.19 0.27 0.30 0.38 0.65 1.01 1.11 1.05 1.01 1.02 0.86 0.67 0.56 0.49
1.36 1.58 1.05 0.73 0.61 0.57 0.58 0.56 0.60 0.61 0.57 0.52 0.45 0.42 0.40 0.44 0.57 0.61 0.49 0.48 0.38 0.32 0.29 0.28 0.24 0.20 0.18 0.16 0.20 0.24 0.23 0.25 0.53 0.79 1.00 1.08 1.15 1.19 1.16 0.99 0.81 0.68 0.59
1.47 1.31 1.26 1.20 1.02 0.88 0.85 0.88 0.86 0.75 0.72 0.65 0.70 0.59 0.65 0.98 1.09 0.94 0.89 0.76 0.62 0.51 0.43 0.42 0.41 0.34 0.26 0.23 0.32 0.33 0.28 0.39 0.61 0.97 1.08 1.02 1.10 1.24 1.30 1.14 0.93 0.85 0.76
2.04 1.54 1.40 1.35 1.26 1.14 1.20 1.28 1.26 1.17 1.15 1.04 1.11 0.96 1.06 1.19 1.15 1.16 1.20 1.05 0.95 0.82 0.81 0.83 0.66 0.52 0.48 0.51 0.54 0.53 0.51 0.55 0.68 0.92 1.06 1.10 1.17 1.37 1.50 1.36 1.09 1.02 0.99
2.24 1.99 1.57 1.55 1.58 1.71 1.75 1.64 1.56 1.58 1.56 1.45 1.48 1.32 1.39 1.52 1.54 1.47 1.58 1.49 1.45 1.34 1.31 1.18 1.05 0.89 0.81 0.70 0.65 0.65 0.68 0.70 0.74 0.88 1.07 1.21 1.24 1.40 1.58 1.56 1.38 1.26 1.19
2.22 2.03 1.85 1.96 1.97 1.97 1.97 2.06 1.94 1.87 2.03 2.01 2.00 1.86 1.82 1.74 1.65 1.64 1.66 1.70 1.65 1.71 1.71 1.61 1.38 1.19 1.04 0.89 0.75 0.77 0.82 0.84 0.94 1.01 1.20 1.22 1.12 1.29 1.59 1.79 1.75 1.70 1.62
2.15 2.15 2.10 2.27 2.12 2.04 2.12 2.27 2.24 2.10 2.28 2.46 2.62 2.53 2.23 2.06 1.96 1.93 2.00 2.01 1.82 1.82 1.91 1.94 1.76 1.54 1.30 1.13 0.98 0.92 0.90 0.88 0.98 1.11 1.28 1.38 1.30 1.28 1.60 1.94 2.06 2.08 2.00
2.24 2.14 2.17 2.07 2.19 2.29 2.38 2.35 2.30 2.34 2.48 2.65 2.79 2.86 2.57 2.26 2.25 2.20 2.30 2.31 2.01 1.93 2.06 2.16 2.07 1.92 1.58 1.34 1.27 1.24 1.18 1.17 1.17 1.25 1.40 1.54 1.56 1.49 1.59 1.69 1.80 1.91 1.95
2.26 2.46 2.38 2.04 2.24 2.38 2.42 2.41 2.31 2.41 2.61 2.76 2.77 2.89 2.77 2.45 2.34 2.35 2.28 2.18 2.12 2.19 2.37 2.53 2.44 2.36 2.09 1.84 1.69 1.49 1.37 1.34 1.29 1.40 1.42 1.48 1.76 1.71 1.62 1.47 1.51 1.66 1.80
2.49 2.88 2.57 2.16 2.22 2.31 2.47 2.61 2.48 2.52 2.79 3.01 3.08 2.94 2.65 2.46 2.46 2.55 2.55 2.51 2.45 2.49 2.55 2.51 2.65 2.49 2.52 2.33 1.93 1.68 1.52 1.47 1.51 1.52 1.53 1.54 1.65 1.76 1.72 1.58 1.50 1.55 1.61
2.72 3.21 2.81 2.31 2.34 2.50 2.47 2.46 2.62 2.80 3.08 3.30 3.23 3.03 2.87 2.86 2.84 2.89 2.86 2.92 2.95 2.99 2.83 2.75 2.72 2.54 2.44 2.37 2.04 1.86 1.75 1.61 1.53 1.51 1.47 1.47 1.52 1.48 1.51 1.52 1.55 1.46 1.50
2.76 3.02 2.96 2.72 2.75 2.85 2.92 2.70 2.86 3.14 3.47 3.71 3.64 3.54 3.51 3.45 3.39 3.38 3.38 3.34 3.23 3.16 3.02 2.85 2.67 2.57 2.41 2.19 2.12 1.88 1.61 1.42 1.31 1.26 1.29 1.34 1.29 1.24 1.29 1.41 1.50 1.46 1.40
2.61 2.74 2.98 3.03 2.99 2.84 3.15 3.38 3.60 3.91 4.07 4.34 4.59 4.65 4.52 4.29 4.05 3.86 3.78 3.57 3.26 3.08 2.96 2.78 2.61 2.48 2.27 2.10 2.05 2.00 1.67 1.44 1.19 1.03 1.06 1.07 1.11 1.16 1.17 1.14 1.22 1.22 1.18
2.41 2.67 2.95 3.18 3.19 3.10 3.54 4.11 4.54 4.80 4.81 4.87 4.93 4.99 4.93 4.51 4.15 3.87 3.57 3.38 3.16 2.98 2.84 2.76 2.61 2.48 2.29 2.11 1.97 2.04 1.92 1.68 1.34 1.17 1.05 1.01 1.02 1.06 1.06 1.00 0.99 0.98 0.97
2.17 2.43 2.66 3.00 3.36 3.66 4.08 4.61 5.16 5.44 5.58 5.49 5.18 4.93 4.61 4.20 3.82 3.38 3.14 3.13 2.97 2.76 2.58 2.40 2.24 2.18 2.13 2.04 1.94 1.80 1.74 1.67 1.54 1.38 1.24 1.20 1.14 1.10 1.09 1.07 1.08 1.07 1.04
1.91 2.15 2.46 2.80 3.19 3.82 4.62 5.19 5.58 5.88 5.84 5.43 4.95 4.39 3.94 3.59 3.29 3.01 2.79 2.79 2.70 2.45 2.20 1.95 1.78 1.71 1.72 1.77 1.75 1.69 1.61 1.54 1.39 1.28 1.26 1.21 1.19 1.15 1.10 1.09 1.10 1.10 1.07
1.60 1.86 2.21 2.63 2.96 3.51 4.24 4.88 5.19 5.40 5.34 4.98 4.35 3.82 3.43 3.05 2.74 2.48 2.22 2.08 1.95 1.78 1.66 1.55 1.43 1.39 1.37 1.44 1.49 1.45 1.44 1.42 1.38 1.34 1.27 1.18 1.18 1.26 1.16 1.03 0.97 0.94 0.95

GEFSSE_prec_meanprecacc_168.txt.gz
Total_Precipitation_Accumulation
0.30 0.11 0.07 0.06 0.07 0.11 0.12 0.13 0.15 0.14 0.13 0.12 0.11 0.10 0.10 0.11 0.11 0.10 0.09 0.10 0.15 0.25 0.33 0.37 0.39 0.44 0.46 0.44 0.37 0.28 0.22 0.18 0.15 0.15 0.16 0.20 0.27 0.32 0.31 0.26 0.30 0.24 0.15
0.25 0.09 0.07 0.07 0.07 0.09 0.12 0.15 0.16 0.15 0.14 0.12 0.11 0.10 0.11 0.10 0.11 0.13 0.12 0.13 0.20 0.26 0.29 0.32 0.34 0.36 0.34 0.31 0.25 0.19 0.15 0.15 0.20 0.23 0.30 0.35 0.49 0.53 0.49 0.39 0.46 0.33 0.12
0.16 0.08 0.05 0.06 0.06 0.08 0.11 0.14 0.17 0.16 0.15 0.13 0.13 0.13 0.13 0.12 0.13 0.15 0.15 0.17 0.24 0.27 0.25 0.25 0.27 0.27 0.23 0.18 0.15 0.15 0.16 0.21 0.35 0.47 0.70 0.76 0.75 0.65 0.52 0.43 0.39 0.26 0.15
0.14 0.11 0.06 0.06 0.07 0.06 0.08 0.11 0.15 0.18 0.20 0.20 0.21 0.16 0.14 0.14 0.15 0.15 0.16 0.18 0.22 0.23 0.21 0.20 0.20 0.17 0.15 0.13 0.13 0.15 0.20 0.28 0.53 0.79 1.20 0.99 1.02 0.87 0.59 0.44 0.38 0.33 0.29
0.15 0.16 0.12 0.09 0.08 0.07 0.07 0.11 0.17 0.21 0.22 0.24 0.24 0.20 0.16 0.14 0.14 0.17 0.20 0.24 0.26 0.26 0.27 0.26 0.22 0.15 0.12 0.13 0.15 0.19 0.25 0.37 0.63 0.97 1.35 1.48 1.58 1.28 0.73 0.50 0.44 0.43 0.44
0.16 0.16 0.14 0.15 0.12 0.11 0.11 0.12 0.19 0.24 0.25 0.24 0.23 0.23 0.21 0.17 0.16 0.21 0.28 0.32 0.31 0.30 0.35 0.40 0.33 0.24 0.17 0.15 0.17 0.22 0.32 0.50 0.66 0.95 1.51 1.82 1.70 1.32 0.80 0.56 0.47 0.54 0.60
0.20 0.19 0.21 0.23 0.20 0.19 0.18 0.20 0.24 0.27 0.29 0.30 0.29 0.28 0.29 0.22 0.20 0.25 0.34 0.38 0.38 0.37 0.36 0.33 0.27 0.22 0.19 0.18 0.20 0.25 0.35 0.55 0.67 1.04 1.47 1.78 1.57 1.19 0.85 0.69 0.60 0.60 0.60
0.34 0.24 0.27 0.31 0.33 0.34 0.32 0.33 0.33 0.32 0.33 0.33 0.34 0.34 0.31 0.24 0.22 0.27 0.35 0.42 0.48 0.44 0.37 0.30 0.23 0.19 0.18 0.18 0.20 0.24 0.36 0.50 0.55 0.85 1.22 1.41 1.24 1.01 0.91 0.83 0.75 0.65 0.57
0.58 0.45 0.37 0.37 0.39 0.41 0.41 0.40 0.41 0.40 0.37 0.36 0.35 0.34 0.32 0.28 0.25 0.30 0.37 0.42 0.41 0.35 0.31 0.27 0.23 0.20 0.17 0.15 0.17 0.22 0.33 0.48 0.58 0.81 1.06 1.25 1.07 1.00 1.00 0.89 0.73 0.68 0.61
1.09 1.24 0.83 0.53 0.45 0.42 0.42 0.49 0.53 0.55 0.52 0.46 0.40 0.34 0.32 0.31 0.31 0.36 0.38 0.39 0.36 0.30 0.26 0.25 0.22 0.19 0.17 0.16 0.18 0.23 0.32 0.35 0.40 0.67 1.04 1.14 1.08 1.09 1.18 1.02 0.81 0.71 0.63
1.38 1.61 1.09 0.79 0.68 0.64 0.65 0.62 0.66 0.67 0.62 0.56 0.49 0.45 0.43 0.48 0.62 0.64 0.52 0.53 0.42 0.36 0.32 0.32 0.28 0.24 0.22 0.21 0.25 0.29 0.27 0.30 0.58 0.84 1.04 1.12 1.20 1.30 1.31 1.16 0.97 0.84 0.73
1.49 1.34 1.30 1.25 1.06 0.92 0.90 0.93 0.92 0.80 0.76 0.69 0.74 0.62 0.69 1.02 1.13 0.96 0.91 0.79 0.64 0.54 0.46 0.44 0.44 0.38 0.32 0.31 0.40 0.39 0.33 0.43 0.66 1.01 1.14 1.07 1.17 1.38 1.48 1.34 1.13 1.05 0.95
2.07 1.58 1.43 1.38 1.29 1.18 1.24 1.33 1.30 1.21 1.19 1.08 1.15 1.01 1.10 1.23 1.19 1.20 1.24 1.07 0.98 0.85 0.84 0.86 0.69 0.56 0.53 0.58 0.61 0.59 0.57 0.60 0.73 0.96 1.12 1.15 1.23 1.47 1.66 1.54 1.28 1.22 1.19
2.29 2.04 1.61 1.59 1.61 1.75 1.79 1.67 1.59 1.62 1.60 1.49 1.52 1.36 1.44 1.57 1.59 1.50 1.62 1.53 1.51 1.39 1.36 1.22 1.10 0.94 0.85 0.74 0.70 0.70 0.74 0.77 0.80 0.95 1.15 1.26 1.31 1.49 1.72 1.72 1.56 1.43 1.36
2.27 2.09 1.89 1.98 1.99 2.00 1.99 2.08 1.97 1.91 2.06 2.04 2.03 1.90 1.86 1.78 1.70 1.69 1.71 1.76 1.70 1.77 1.76 1.65 1.42 1.22 1.07 0.92 0.79 0.81 0.87 0.89 1.00 1.08 1.27 1.28 1.19 1.38 1.70 1.95 1.93 1.90 1.83
2.20 2.20 2.14 2.29 2.14 2.06 2.15 2.29 2.26 2.13 2.30 2.49 2.65 2.56 2.26 2.10 2.01 1.99 2.08 2.08 1.87 1.87 1.96 1.98 1.80 1.58 1.33 1.16 1.02 0.96 0.94 0.92 1.02 1.17 1.35 1.47 1.39 1.37 1.71 2.08 2.22 2.27 2.22
2.32 2.25 2.24 2.11 2.23 2.34 2.42 2.39 2.33 2.37 2.51 2.67 2.81 2.88 2.59 2.29 2.30 2.26 2.37 2.37 2.07 1.99 2.11 2.20 2.13 1.97 1.62 1.38 1.32 1.28 1.23 1.23 1.23 1.30 1.47 1.63 1.66 1.59 1.70 1.81 1.94 2.05 2.13
2.31 2.57 2.49 2.10 2.29 2.42 2.47 2.46 2.36 2.45 2.65 2.79 2.80 2.90 2.78 2.46 2.36 2.40 2.35 2.25 2.19 2.24 2.42 2.58 2.50 2.42 2.15 1.89 1.75 1.54 1.41 1.40 1.34 1.46 1.50 1.59 1.86 1.81 1.72 1.55 1.60 1.76 1.92
2.55 2.92 2.61 2.21 2.28 2.35 2.50 2.65 2.52 2.56 2.82 3.04 3.10 2.95 2.67 2.47 2.48 2.59 2.61 2.59 2.54 2.56 2.61 2.56 2.70 2.55 2.58 2.39 1.98 1.73 1.57 1.51 1.56 1.58 1.61 1.62 1.73 1.84 1.80 1.66 1.57 1.63 1.70
2.79 3.26 2.86 2.36 2.38 2.54 2.51 2.50 2.65 2.84 3.11 3.33 3.24 3.04 2.88 2.88 2.86 2.93 2.91 2.97 3.03 3.08 2.91 2.82 2.80 2.61 2.51 2.43 2.11 1.92 1.80 1.65 1.58 1.56 1.54 1.55 1.59 1.55 1.57 1.59 1.63 1.54 1.57
2.81 3.07 3.02 2.78 2.80 2.90 2.97 2.74 2.90 3.18 3.50 3.74 3.66 3.56 3.53 3.48 3.42 3.42 3.42 3.39 3.28 3.23 3.09 2.91 2.74 2.65 2.48 2.27 2.21 1.95 1.66 1.45 1.34 1.30 1.35 1.40 1.35 1.30 1.34 1.47 1.56 1.53 1.45
2.66 2.79 3.04 3.09 3.05 2.89 3.20 3.43 3.65 3.95 4.11 4.37 4.63 4.69 4.56 4.32 4.09 3.90 3.81 3.61 3.30 3.14 3.02 2.83 2.68 2.55 2.34 2.17 2.13 2.09 1.75 1.50 1.23 1.07 1.10 1.12 1.15 1.20 1.21 1.18 1.26 1.26 1.21
2.46 2.71 2.99 3.24 3.26 3.16 3.59 4.16 4.59 4.85 4.85 4.91 4.96 5.03 4.97 4.55 4.18 3.89 3.59 3.41 3.20 3.02 2.88 2.82 2.67 2.55 2.36 2.19 2.04 2.12 2.00 1.76 1.40 1.23 1.10 1.09 1.12 1.12 1.11 1.04 1.02 1.01 1.01
2.22 2.49 2.72 3.05 3.41 3.70 4.12 4.66 5.23 5.51 5.63 5.53 5.22 4.98 4.67 4.24 3.85 3.40 3.16 3.15 3.00 2.80 2.62 2.45 2.30 2.23 2.19 2.12 2.03 1.88 1.81 1.74 1.61 1.46 1.31 1.27 1.25 1.19 1.14 1.10 1.11 1.09 1.06
1.98 2.22 2.51 2.83 3.22 3.86 4.66 5.26 5.65 5.94 5.89 5.48 5.01 4.45 4.00 3.66 3.35 3.06 2.84 2.84 2.75 2.49 2.24 1.99 1.82 1.75 1.76 1.83 1.82 1.76 1.68 1.60 1.45 1.35 1.33 1.31 1.29 1.24 1.16 1.13 1.13 1.13 1.11
1.66 1.90 2.24 2.66 3.00 3.55 4.27 4.91 5.23 5.46 5.41 5.05 4.43 3.89 3.50 3.11 2.79 2.53 2.27 2.12 1.99 1.81 1.70 1.58 1.46 1.42 1.41 1.49 1.54 1.51 1.49 1.48 1.45 1.41 1.35 1.27 1.28 1.37 1.25 1.08 1.00 0.98 0.99

GEFSSE_prec_meanprecacc_174.txt.gz
Total_Precipitation_Accumulation
0.32 0.12 0.07 0.07 0.07 0.12 0.13 0.15 0.16 0.15 0.15 0.13 0.12 0.11 0.11 0.11 0.11 0.10 0.09 0.10 0.15 0.25 0.33 0.37 0.39 0.44 0.46 0.44 0.37 0.28 0.22 0.18 0.15 0.15 0.16 0.20 0.27 0.32 0.31 0.26 0.36 0.38 0.22
0.26 0.10 0.08 0.07 0.07 0.10 0.13 0.17 0.18 0.16 0.16 0.14 0.12 0.10 0.11 0.11 0.12 0.14 0.13 0.14 0.20 0.26 0.29 0.32 0.34 0.36 0.34 0.31 0.25 0.19 0.15 0.15 0.20 0.24 0.30 0.36 0.49 0.53 0.49 0.40 0.55 0.48 0.18
0.18 0.09 0.06 0.06 0.07 0.08 0.11 0.15 0.19 0.18 0.16 0.14 0.15 0.14 0.14 0.13 0.13 0.15 0.16 0.18 0.24 0.27 0.25 0.25 0.27 0.27 0.24 0.18 0.15 0.15 0.16 0.21 0.35 0.47 0.75 0.86 0.79 0.66 0.53 0.43 0.41 0.30 0.17
0.16 0.13 0.07 0.06 0.07 0.07 0.09 0.13 0.17 0.19 0.21 0.21 0.22 0.17 0.15 0.15 0.15 0.15 0.16 0.18 0.22 0.23 0.22 0.20 0.20 0.18 0.15 0.13 0.13 0.15 0.20 0.28 0.53 0.80 1.29 1.13 1.12 0.93 0.61 0.45 0.39 0.34 0.31
0.17 0.18 0.14 0.10 0.08 0.08 0.08 0.13 0.19 0.23 0.24 0.26 0.25 0.22 0.17 0.15 0.15 0.17 0.21 0.24 0.27 0.26 0.27 0.27 0.22 0.15 0.12 0.13 0.15 0.19 0.26 0.37 0.63 0.98 1.40 1.57 1.72 1.36 0.75 0.52 0.45 0.44 0.45
0.17 0.17 0.16 0.16 0.13 0.12 0.12 0.14 0.21 0.27 0.27 0.25 0.25 0.25 0.22 0.18 0.17 0.22 0.29 0.32 0.32 0.31 0.36 0.41 0.34 0.24 0.17 0.15 0.17 0.22 0.32 0.50 0.66 0.97 1.55 1.92 1.86 1.42 0.83 0.58 0.48 0.55 0.61
0.24 0.22 0.23 0.25 0.22 0.21 0.19 0.22 0.27 0.31 0.33 0.34 0.31 0.30 0.30 0.24 0.21 0.27 0.35 0.39 0.39 0.38 0.37 0.34 0.28 0.22 0.20 0.18 0.21 0.26 0.36 0.55 0.68 1.09 1.53 1.86 1.71 1.30 0.91 0.73 0.63 0.63 0.62
0.38 0.30 0.31 0.32 0.36 0.38 0.35 0.36 0.37 0.35 0.36 0.36 0.36 0.36 0.33 0.26 0.24 0.28 0.36 0.43 0.49 0.45 0.38 0.31 0.24 0.20 0.19 0.19 0.21 0.25 0.37 0.51 0.56 0.90 1.27 1.51 1.37 1.10 0.97 0.87 0.79 0.68 0.61
0.61 0.50 0.42 0.41 0.43 0.45 0.45 0.45 0.45 0.43 0.40 0.38 0.37 0.36 0.34 0.31 0.27 0.32 0.38 0.43 0.43 0.37 0.32 0.28 0.24 0.21 0.18 0.16 0.18 0.23 0.34 0.49 0.59 0.84 1.11 1.35 1.23 1.15 1.09 0.94 0.77 0.72 0.66
1.13 1.30 0.90 0.61 0.53 0.47 0.46 0.51 0.55 0.57 0.54 0.47 0.42 0.36 0.34 0.34 0.35 0.39 0.41 0.42 0.39 0.31 0.27 0.26 0.23 0.20 0.18 0.17 0.19 0.24 0.33 0.36 0.42 0.73 1.11 1.24 1.21 1.22 1.28 1.10 0.88 0.78 0.70
1.42 1.67 1.16 0.86 0.74 0.70 0.70 0.64 0.69 0.70 0.65 0.59 0.53 0.47 0.46 0.53 0.69 0.72 0.57 0.57 0.46 0.39 0.35 0.34 0.30 0.26 0.23 0.22 0.27 0.30 0.30 0.32 0.61 0.91 1.16 1.27 1.31 1.40 1.42 1.26 1.07 0.92 0.81
1.52 1.37 1.34 1.30 1.12 0.98 0.96 1.00 0.99 0.86 0.82 0.75 0.81 0.68 0.76 1.11 1.23 1.06 1.01 0.86 0.69 0.57 0.49 0.47 0.46 0.40 0.34 0.36 0.46 0.43 0.36 0.47 0.70 1.08 1.26 1.23 1.31 1.47 1.57 1.44 1.23 1.14 1.04
2.11 1.61 1.47 1.42 1.35 1.25 1.34 1.41 1.39 1.30 1.26 1.15 1.22 1.10 1.19 1.33 1.30 1.30 1.35 1.17 1.05 0.91 0.91 0.93 0.74 0.60 0.58 0.64 0.68 0.66 0.62 0.65 0.79 1.05 1.26 1.32 1.40 1.60 1.76 1.64 1.38 1.32 1.28
2.32 2.06 1.64 1.63 1.65 1.80 1.86 1.74 1.66 1.68 1.67 1.57 1.59 1.44 1.52 1.64 1.67 1.59 1.70 1.60 1.58 1.47 1.46 1.32 1.18 1.00 0.90 0.79 0.76 0.78 0.80 0.82 0.87 1.06 1.38 1.40 1.42 1.58 1.81 1.81 1.65 1.55 1.49
2.30 2.11 1.92 2.02 2.03 2.04 2.05 2.13 2.02 1.96 2.12 2.10 2.09 1.95 1.92 1.85 1.77 1.77 1.78 1.83 1.77 1.83 1.84 1.74 1.50 1.30 1.14 0.99 0.85 0.88 0.94 0.95 1.06 1.16 1.36 1.35 1.26 1.44 1.78 2.04 2.03 2.01 1.96
2.24 2.26 2.19 2.34 2.20 2.12 2.23 2.38 2.32 2.18 2.36 2.54 2.70 2.60 2.31 2.17 2.08 2.06 2.15 2.14 1.94 1.94 2.02 2.05 1.88 1.67 1.42 1.24 1.08 1.01 0.98 0.95 1.08 1.23 1.42 1.53 1.44 1.43 1.78 2.17 2.31 2.37 2.34
2.38 2.33 2.34 2.22 2.35 2.46 2.55 2.52 2.43 2.42 2.55 2.71 2.86 2.93 2.64 2.35 2.36 2.32 2.44 2.43 2.12 2.03 2.16 2.25 2.20 2.06 1.70 1.46 1.38 1.33 1.28 1.28 1.28 1.37 1.53 1.69 1.71 1.66 1.77 1.90 2.03 2.16 2.25
2.36 2.63 2.60 2.20 2.44 2.59 2.62 2.61 2.49 2.55 2.71 2.85 2.86 2.97 2.84 2.52 2.43 2.47 2.41 2.30 2.24 2.28 2.47 2.64 2.58 2.50 2.24 1.99 1.83 1.61 1.46 1.45 1.39 1.50 1.55 1.65 1.93 1.92 1.83 1.65 1.69 1.85 2.02
2.59 2.96 2.67 2.27 2.40 2.52 2.67 2.78 2.64 2.66 2.93 3.11 3.17 3.02 2.73 2.54 2.54 2.66 2.69 2.66 2.60 2.61 2.67 2.62 2.78 2.63 2.66 2.47 2.06 1.81 1.64 1.59 1.63 1.64 1.67 1.71 1.84 1.97 1.92 1.75 1.64 1.70 1.78
2.82 3.30 2.91 2.42 2.46 2.70 2.72 2.70 2.77 2.94 3.22 3.42 3.31 3.11 2.95 2.94 2.92 2.99 2.99 3.04 3.09 3.14 2.97 2.89 2.88 2.70 2.59 2.51 2.17 2.00 1.88 1.75 1.70 1.66 1.59 1.60 1.69 1.66 1.69 1.69 1.73 1.61 1.64
2.85 3.12 3.08 2.85 2.86 2.98 3.09 2.89 3.04 3.29 3.58 3.80 3.71 3.61 3.58 3.53 3.48 3.48 3.49 3.47 3.35 3.29 3.16 2.98 2.81 2.73 2.55 2.34 2.28 2.02 1.72 1.51 1.43 1.38 1.40 1.46 1.43 1.39 1.47 1.59 1.66 1.63 1.54
2.69 2.84 3.08 3.14 3.12 2.96 3.29 3.53 3.75 4.04 4.18 4.43 4.66 4.73 4.61 4.37 4.15 3.95 3.88 3.67 3.36 3.21 3.09 2.90 2.75 2.63 2.41 2.24 2.20 2.18 1.83 1.56 1.29 1.13 1.18 1.19 1.21 1.29 1.36 1.34 1.36 1.36 1.32
2.49 2.74 3.03 3.29 3.33 3.24 3.68 4.23 4.64 4.90 4.89 4.95 5.00 5.08 5.01 4.59 4.23 3.94 3.65 3.48 3.27 3.09 2.95 2.88 2.74 2.62 2.43 2.26 2.14 2.23 2.11 1.85 1.48 1.31 1.19 1.17 1.21 1.22 1.20 1.13 1.11 1.10 1.14
2.26 2.53 2.78 3.11 3.48 3.78 4.21 4.73 5.28 5.55 5.67 5.57 5.27 5.04 4.71 4.28 3.90 3.47 3.23 3.22 3.07 2.87 2.70 2.50 2.36 2.30 2.26 2.18 2.12 1.99 1.92 1.85 1.71 1.54 1.38 1.34 1.34 1.29 1.21 1.17 1.20 1.18 1.17
2.06 2.30 2.59 2.91 3.32 3.96 4.76 5.33 5.71 5.97 5.93 5.52 5.06 4.49 4.05 3.70 3.39 3.10 2.89 2.90 2.82 2.56 2.30 2.04 1.89 1.82 1.83 1.90 1.91 1.86 1.77 1.71 1.56 1.45 1.41 1.37 1.36 1.31 1.22 1.18 1.20 1.22 1.21
1.75 1.98 2.30 2.73 3.06 3.60 4.32 4.94 5.26 5.49 5.44 5.09 4.47 3.93 3.54 3.15 2.84 2.57 2.31 2.16 2.04 1.86 1.75 1.64 1.51 1.48 1.48 1.56 1.61 1.59 1.58 1.58 1.54 1.51 1.44 1.34 1.36 1.44 1.33 1.18 1.11 1.07 1.07

GEFSSE_prec_meanprecacc_180.txt.gz
Total_Precipitation_Accumulation
0.33 0.12 0.08 0.07 0.08 0.12 0.14 0.15 0.17 0.16 0.15 0.13 0.12 0.11 0.11 0.12 0.12 0.10 0.09 0.10 0.15 0.25 0.34 0.37 0.39 0.45 0.46 0.45 0.38 0.29 0.23 0.18 0.16 0.15 0.17 0.20 0.28 0.34 0.34 0.29 0.38 0.40 0.23
0.27 0.10 0.08 0.07 0.07 0.10 0.13 0.17 0.18 0.17 0.16 0.14 0.12 0.11 0.11 0.11 0.12 0.14 0.13 0.14 0.21 0.27 0.29 0.32 0.34 0.36 0.35 0.31 0.25 0.19 0.15 0.16 0.21 0.26 0.32 0.39 0.51 0.56 0.52 0.43 0.58 0.51 0.20
0.19 0.09 0.06 0.06 0.07 0.08 0.11 0.15 0.19 0.18 0.16 0.15 0.15 0.14 0.14 0.13 0.13 0.15 0.16 0.18 0.24 0.27 0.25 0.25 0.28 0.27 0.24 0.18 0.15 0.15 0.16 0.21 0.37 0.52 0.82 0.97 0.87 0.72 0.59 0.48 0.45 0.33 0.20
0.17 0.13 0.07 0.06 0.07 0.07 0.10 0.13 0.17 0.20 0.21 0.21 0.22 0.18 0.15 0.16 0.16 0.16 0.16 0.18 0.22 0.24 0.22 0.20 0.20 0.18 0.15 0.13 0.13 0.15 0.21 0.29 0.56 0.85 1.38 1.26 1.29 1.05 0.70 0.51 0.43 0.37 0.33
0.17 0.18 0.14 0.10 0.09 0.08 0.08 0.13 0.19 0.23 0.24 0.26 0.26 0.22 0.18 0.15 0.15 0.17 0.21 0.25 0.27 0.27 0.28 0.27 0.22 0.15 0.12 0.13 0.15 0.19 0.26 0.38 0.67 1.03 1.49 1.71 1.88 1.57 0.89 0.60 0.51 0.48 0.48
0.18 0.18 0.16 0.17 0.13 0.12 0.12 0.14 0.21 0.27 0.28 0.26 0.25 0.25 0.23 0.19 0.17 0.22 0.29 0.33 0.33 0.32 0.36 0.41 0.34 0.24 0.17 0.15 0.17 0.22 0.32 0.52 0.69 1.00 1.62 2.03 1.99 1.61 0.99 0.70 0.56 0.60 0.65
0.25 0.23 0.23 0.25 0.23 0.21 0.20 0.23 0.28 0.31 0.33 0.34 0.32 0.31 0.31 0.24 0.22 0.27 0.36 0.39 0.39 0.38 0.38 0.35 0.28 0.23 0.20 0.18 0.21 0.26 0.37 0.57 0.71 1.14 1.63 1.98 1.88 1.54 1.12 0.89 0.74 0.69 0.66
0.38 0.31 0.31 0.33 0.37 0.38 0.36 0.37 0.38 0.36 0.36 0.37 0.37 0.37 0.34 0.27 0.25 0.29 0.37 0.44 0.49 0.46 0.38 0.31 0.25 0.20 0.19 0.19 0.21 0.25 0.38 0.52 0.58 0.97 1.44 1.64 1.54 1.32 1.18 1.04 0.91 0.77 0.67
0.62 0.50 0.43 0.41 0.43 0.45 0.46 0.45 0.46 0.44 0.41 0.39 0.38 0.37 0.35 0.32 0.27 0.32 0.39 0.44 0.44 0.37 0.33 0.29 0.25 0.21 0.18 0.16 0.18 0.24 0.35 0.51 0.63 0.90 1.22 1.49 1.37 1.35 1.35 1.14 0.93 0.83 0.76
1.14 1.31 0.91 0.61 0.53 0.47 0.46 0.51 0.55 0.57 0.55 0.48 0.42 0.36 0.34 0.34 0.35 0.40 0.42 0.43 0.40 0.33 0.28 0.28 0.25 0.21 0.19 0.17 0.20 0.25 0.35 0.39 0.46 0.78 1.19 1.36 1.35 1.42 1.55 1.36 1.10 0.93 0.81
1.44 1.69 1.17 0.86 0.75 0.70 0.70 0.64 0.69 0.70 0.65 0.59 0.53 0.48 0.46 0.54 0.70 0.74 0.58 0.58 0.48 0.41 0.38 0.36 0.32 0.28 0.25 0.23 0.27 0.32 0.32 0.34 0.64 0.96 1.22 1.38 1.49 1.63 1.67 1.52 1.25 1.06 0.93
1.54 1.40 1.37 1.32 1.13 0.99 0.96 1.01 0.99 0.87 0.83 0.75 0.82 0.70 0.77 1.12 1.24 1.07 1.02 0.89 0.72 0.59 0.52 0.49 0.48 0.42 0.36 0.37 0.47 0.45 0.38 0.50 0.75 1.15 1.34 1.36 1.48 1.69 1.80 1.61 1.38 1.26 1.14
2.15 1.66 1.54 1.49 1.39 1.26 1.35 1.43 1.40 1.30 1.28 1.16 1.23 1.11 1.20 1.34 1.31 1.31 1.36 1.20 1.08 0.94 0.93 0.94 0.77 0.62 0.59 0.65 0.69 0.68 0.65 0.70 0.85 1.12 1.32 1.39 1.50 1.76 1.92 1.75 1.48 1.41 1.37
2.35 2.10 1.69 1.68 1.69 1.84 1.89 1.77 1.68 1.70 1.68 1.58 1.60 1.44 1.53 1.66 1.70 1.63 1.73 1.62 1.60 1.49 1.48 1.34 1.21 1.03 0.92 0.81 0.79 0.83 0.86 0.88 0.95 1.13 1.46 1.50 1.51 1.72 1.96 1.91 1.74 1.63 1.57
2.36 2.15 1.95 2.05 2.06 2.08 2.10 2.17 2.05 1.98 2.14 2.11 2.11 1.97 1.95 1.88 1.81 1.81 1.82 1.86 1.80 1.87 1.87 1.77 1.53 1.32 1.17 1.01 0.89 0.94 1.06 1.06 1.18 1.27 1.48 1.51 1.39 1.55 1.89 2.13 2.13 2.11 2.05
2.31 2.30 2.21 2.37 2.22 2.15 2.27 2.44 2.39 2.22 2.40 2.58 2.73 2.63 2.35 2.21 2.12 2.11 2.21 2.20 1.99 1.99 2.08 2.10 1.93 1.71 1.44 1.26 1.10 1.04 1.06 1.07 1.21 1.39 1.57 1.68 1.64 1.56 1.87 2.26 2.40 2.47 2.43
2.43 2.36 2.39 2.26 2.39 2.50 2.59 2.57 2.50 2.51 2.62 2.78 2.91 2.97 2.68 2.40 2.42 2.40 2.52 2.51 2.21 2.12 2.24 2.32 2.26 2.10 1.74 1.48 1.39 1.35 1.31 1.33 1.35 1.48 1.67 1.79 1.79 1.73 1.84 1.97 2.11 2.24 2.34
2.42 2.69 2.65 2.26 2.48 2.64 2.67 2.67 2.56 2.65 2.85 3.01 3.00 3.07 2.90 2.59 2.51 2.57 2.51 2.38 2.31 2.37 2.55 2.70 2.63 2.53 2.27 2.02 1.86 1.64 1.50 1.49 1.46 1.62 1.68 1.74 1.99 1.96 1.88 1.71 1.77 1.93 2.11
2.65 3.03 2.74 2.34 2.47 2.58 2.74 2.84 2.69 2.73 3.04 3.26 3.33 3.19 2.87 2.62 2.62 2.75 2.80 2.76 2.68 2.70 2.74 2.67 2.82 2.67 2.70 2.51 2.09 1.85 1.67 1.61 1.69 1.74 1.79 1.81 1.91 2.03 1.99 1.81 1.72 1.79 1.87
2.88 3.37 2.99 2.51 2.54 2.78 2.79 2.76 2.83 3.00 3.30 3.55 3.47 3.24 3.04 3.00 2.97 3.04 3.04 3.09 3.13 3.18 3.02 2.93 2.91 2.74 2.63 2.54 2.20 2.03 1.90 1.77 1.74 1.73 1.67 1.68 1.75 1.73 1.80 1.81 1.83 1.72 1.75
2.90 3.18 3.13 2.90 2.93 3.04 3.13 2.95 3.10 3.34 3.64 3.87 3.79 3.69 3.63 3.58 3.52 3.52 3.54 3.51 3.39 3.33 3.19 3.01 2.85 2.76 2.58 2.37 2.31 2.04 1.74 1.53 1.46 1.43 1.46 1.52 1.50 1.48 1.57 1.73 1.80 1.74 1.63
2.74 2.88 3.12 3.18 3.17 3.01 3.34 3.58 3.79 4.08 4.22 4.46 4.71 4.79 4.65 4.42 4.19 3.99 3.91 3.71 3.41 3.27 3.16 2.97 2.81 2.67 2.43 2.27 2.23 2.20 1.85 1.59 1.32 1.17 1.23 1.24 1.28 1.39 1.47 1.43 1.44 1.42 1.39
2.58 2.81 3.08 3.34 3.39 3.30 3.72 4.26 4.68 4.95 4.94 4.99 5.05 5.12 5.06 4.64 4.27 3.97 3.68 3.51 3.31 3.13 3.00 2.93 2.79 2.67 2.47 2.30 2.18 2.28 2.16 1.89 1.52 1.34 1.24 1.24 1.28 1.31 1.31 1.24 1.19 1.16 1.20
2.36 2.63 2.86 3.19 3.54 3.83 4.25 4.78 5.33 5.59 5.70 5.60 5.30 5.07 4.76 4.33 3.94 3.51 3.27 3.24 3.08 2.89 2.74 2.55 2.40 2.33 2.29 2.22 2.16 2.03 1.97 1.90 1.75 1.59 1.43 1.41 1.41 1.38 1.31 1.26 1.29 1.29 1.27
2.13 2.38 2.67 2.97 3.35 3.99 4.78 5.35 5.72 5.99 5.95 5.55 5.08 4.51 4.07 3.73 3.41 3.13 2.91 2.92 2.83 2.58 2.34 2.12 1.92 1.84 1.86 1.94 1.95 1.91 1.83 1.76 1.60 1.51 1.49 1.43 1.41 1.38 1.29 1.24 1.25 1.28 1.26
1.84 2.06 2.36 2.77 3.09 3.62 4.34 4.96 5.28 5.50 5.46 5.10 4.49 3.95 3.57 3.17 2.85 2.58 2.32 2.17 2.06 1.88 1.77 1.67 1.56 1.50 1.50 1.59 1.65 1.63 1.62 1.61 1.58 1.55 1.51 1.40 1.41 1.50 1.39 1.23 1.15 1.12 1.11

GEFSSE_prec_meanprecacc_186.txt.gz
Total_Precipitation_Accumulation
0.33 0.13 0.09 0.08 0.08 0.13 0.14 0.16 0.17 0.16 0.15 0.13 0.12 0.11 0.11 0.12 0.12 0.10 0.09 0.10 0.15 0.26 0.34 0.37 0.40 0.45 0.46 0.46 0.38 0.29 0.23 0.19 0.16 0.16 0.18 0.21 0.30 0.38 0.39 0.35 0.44 0.42 0.26
0.27 0.10 0.08 0.08 0.07 0.10 0.13 0.18 0.19 0.17 0.16 0.15 0.12 0.11 0.11 0.11 0.12 0.14 0.13 0.14 0.21 0.27 0.29 0.32 0.34 0.36 0.35 0.31 0.26 0.20 0.16 0.17 0.23 0.29 0.36 0.41 0.54 0.62 0.63 0.53 0.65 0.56 0.25
0.19 0.10 0.06 0.07 0.07 0.08 0.12 0.16 0.19 0.18 0.17 0.15 0.16 0.14 0.14 0.14 0.13 0.15 0.16 0.18 0.24 0.27 0.25 0.25 0.28 0.27 0.24 0.19 0.15 0.16 0.18 0.24 0.40 0.55 0.86 1.00 0.90 0.78 0.68 0.58 0.51 0.38 0.25
0.17 0.13 0.07 0.07 0.08 0.07 0.10 0.13 0.17 0.20 0.21 0.22 0.23 0.18 0.16 0.16 0.16 0.16 0.17 0.19 0.22 0.24 0.22 0.21 0.20 0.18 0.15 0.14 0.14 0.16 0.22 0.32 0.58 0.89 1.42 1.31 1.34 1.11 0.77 0.59 0.50 0.41 0.37
0.17 0.18 0.14 0.11 0.09 0.09 0.09 0.13 0.20 0.23 0.25 0.26 0.26 0.23 0.18 0.15 0.16 0.18 0.22 0.25 0.27 0.27 0.28 0.27 0.22 0.15 0.13 0.14 0.16 0.20 0.28 0.40 0.70 1.06 1.53 1.77 1.93 1.63 0.96 0.66 0.56 0.52 0.51
0.19 0.18 0.16 0.17 0.14 0.12 0.13 0.15 0.22 0.28 0.28 0.26 0.26 0.25 0.23 0.19 0.18 0.23 0.29 0.33 0.33 0.32 0.36 0.41 0.34 0.25 0.18 0.16 0.18 0.23 0.34 0.54 0.72 1.02 1.66 2.08 2.03 1.66 1.07 0.77 0.62 0.65 0.69
0.26 0.23 0.23 0.25 0.23 0.22 0.20 0.23 0.28 0.32 0.33 0.34 0.32 0.31 0.31 0.25 0.22 0.28 0.36 0.39 0.40 0.38 0.38 0.35 0.29 0.23 0.21 0.20 0.22 0.27 0.38 0.58 0.72 1.14 1.65 2.02 1.92 1.60 1.21 0.98 0.83 0.77 0.72
0.39 0.31 0.31 0.33 0.37 0.39 0.37 0.38 0.39 0.36 0.37 0.37 0.37 0.37 0.34 0.28 0.25 0.29 0.37 0.44 0.50 0.46 0.39 0.32 0.25 0.21 0.20 0.20 0.22 0.26 0.39 0.53 0.59 0.98 1.45 1.67 1.56 1.38 1.28 1.14 1.01 0.86 0.75
0.62 0.51 0.43 0.42 0.44 0.46 0.46 0.46 0.46 0.44 0.41 0.39 0.39 0.37 0.36 0.32 0.28 0.33 0.40 0.44 0.44 0.38 0.34 0.31 0.26 0.23 0.19 0.18 0.20 0.26 0.37 0.53 0.64 0.91 1.23 1.52 1.39 1.41 1.44 1.24 1.02 0.92 0.85
1.15 1.32 0.92 0.62 0.54 0.48 0.47 0.52 0.56 0.58 0.55 0.48 0.43 0.37 0.35 0.35 0.36 0.41 0.43 0.44 0.42 0.35 0.31 0.31 0.27 0.24 0.21 0.19 0.22 0.27 0.37 0.41 0.46 0.78 1.20 1.39 1.37 1.49 1.67 1.50 1.23 1.06 0.92
1.45 1.70 1.18 0.87 0.75 0.71 0.70 0.65 0.70 0.71 0.66 0.60 0.53 0.48 0.47 0.54 0.70 0.74 0.59 0.60 0.50 0.44 0.40 0.39 0.35 0.31 0.28 0.26 0.31 0.35 0.34 0.36 0.65 0.97 1.23 1.39 1.51 1.69 1.80 1.67 1.39 1.17 1.03
1.56 1.42 1.40 1.34 1.14 1.00 0.97 1.01 1.00 0.87 0.83 0.76 0.82 0.70 0.77 1.12 1.25 1.07 1.03 0.90 0.73 0.62 0.55 0.53 0.52 0.46 0.39 0.40 0.50 0.49 0.41 0.53 0.76 1.16 1.35 1.38 1.51 1.78 1.94 1.77 1.53 1.39 1.26
2.19 1.68 1.55 1.50 1.40 1.28 1.36 1.44 1.41 1.32 1.29 1.17 1.24 1.12 1.21 1.34 1.31 1.32 1.37 1.20 1.10 0.96 0.96 0.97 0.80 0.65 0.61 0.67 0.71 0.70 0.69 0.74 0.87 1.13 1.34 1.43 1.55 1.84 2.03 1.90 1.62 1.55 1.50
2.44 2.16 1.72 1.70 1.71 1.85 1.90 1.78 1.69 1.72 1.70 1.59 1.61 1.46 1.54 1.67 1.71 1.64 1.74 1.64 1.63 1.52 1.51 1.37 1.23 1.05 0.93 0.83 0.80 0.84 0.89 0.91 0.97 1.15 1.49 1.55 1.57 1.79 2.05 2.04 1.85 1.75 1.71
2.46 2.24 2.00 2.08 2.09 2.10 2.11 2.18 2.06 2.00 2.15 2.13 2.13 1.99 1.97 1.91 1.85 1.85 1.86 1.90 1.84 1.90 1.90 1.80 1.55 1.34 1.19 1.03 0.91 0.96 1.08 1.08 1.20 1.29 1.50 1.55 1.45 1.61 1.96 2.23 2.22 2.22 2.16
2.39 2.40 2.32 2.45 2.27 2.19 2.31 2.48 2.42 2.25 2.44 2.62 2.77 2.67 2.40 2.26 2.19 2.18 2.28 2.26 2.04 2.03 2.10 2.12 1.96 1.74 1.47 1.28 1.12 1.07 1.08 1.09 1.23 1.41 1.59 1.71 1.67 1.60 1.92 2.33 2.48 2.55 2.50
2.52 2.47 2.55 2.41 2.51 2.59 2.68 2.66 2.57 2.56 2.68 2.83 2.96 3.03 2.75 2.47 2.51 2.49 2.61 2.59 2.27 2.15 2.26 2.36 2.29 2.14 1.77 1.51 1.43 1.39 1.35 1.38 1.38 1.51 1.69 1.80 1.80 1.76 1.89 2.02 2.17 2.31 2.41
2.53 2.82 2.82 2.47 2.70 2.81 2.80 2.79 2.67 2.73 2.94 3.07 3.06 3.14 2.98 2.65 2.57 2.64 2.58 2.43 2.34 2.39 2.59 2.75 2.67 2.57 2.31 2.06 1.91 1.69 1.54 1.54 1.50 1.65 1.70 1.75 2.00 1.97 1.91 1.75 1.83 2.00 2.20
2.77 3.18 2.94 2.57 2.68 2.75 2.88 2.97 2.80 2.84 3.13 3.34 3.39 3.26 2.94 2.69 2.69 2.82 2.86 2.80 2.72 2.74 2.79 2.72 2.86 2.71 2.73 2.55 2.12 1.89 1.71 1.65 1.72 1.77 1.81 1.82 1.93 2.04 2.00 1.84 1.77 1.85 1.95
3.07 3.57 3.17 2.67 2.68 2.92 2.92 2.87 2.94 3.09 3.37 3.63 3.55 3.32 3.10 3.06 3.03 3.10 3.09 3.14 3.18 3.22 3.06 2.98 2.94 2.77 2.66 2.56 2.23 2.06 1.92 1.79 1.76 1.74 1.68 1.69 1.76 1.74 1.81 1.83 1.87 1.76 1.81
3.07 3.33 3.25 3.01 3.04 3.15 3.21 3.03 3.21 3.44 3.73 3.95 3.86 3.75 3.68 3.63 3.58 3.58 3.61 3.59 3.46 3.39 3.24 3.05 2.89 2.80 2.61 2.40 2.33 2.06 1.76 1.56 1.49 1.45 1.48 1.54 1.51 1.49 1.58 1.75 1.82 1.77 1.67
2.82 2.96 3.20 3.28 3.27 3.10 3.41 3.65 3.86 4.15 4.28 4.52 4.75 4.83 4.70 4.46 4.23 4.04 3.97 3.79 3.50 3.33 3.21 3.01 2.85 2.71 2.47 2.29 2.26 2.23 1.87 1.61 1.35 1.19 1.26 1.27 1.30 1.41 1.49 1.46 1.47 1.44 1.41
2.66 2.88 3.15 3.42 3.48 3.38 3.79 4.31 4.73 4.99 4.98 5.04 5.09 5.16 5.11 4.69 4.32 4.02 3.74 3.58 3.39 3.21 3.05 2.97 2.83 2.70 2.50 2.33 2.22 2.32 2.20 1.93 1.55 1.37 1.26 1.27 1.32 1.36 1.35 1.29 1.23 1.20 1.24
2.44 2.70 2.94 3.26 3.61 3.90 4.31 4.81 5.37 5.63 5.74 5.65 5.34 5.10 4.78 4.36 3.97 3.54 3.32 3.31 3.16 2.96 2.78 2.59 2.44 2.37 2.32 2.24 2.19 2.06 2.01 1.93 1.80 1.63 1.47 1.45 1.46 1.43 1.36 1.30 1.34 1.36 1.34
2.21 2.45 2.74 3.04 3.42 4.05 4.83 5.38 5.76 6.03 5.99 5.58 5.10 4.52 4.08 3.73 3.42 3.14 2.94 2.97 2.88 2.62 2.38 2.16 1.95 1.88 1.88 1.95 1.96 1.92 1.85 1.79 1.63 1.55 1.54 1.48 1.45 1.42 1.34 1.29 1.30 1.35 1.35
1.93 2.14 2.43 2.82 3.15 3.68 4.38 5.01 5.32 5.53 5.48 5.13 4.52 3.97 3.57 3.18 2.86 2.59 2.33 2.20 2.09 1.91 1.80 1.72 1.60 1.53 1.52 1.61 1.66 1.64 1.63 1.64 1.62 1.59 1.57 1.47 1.45 1.53 1.42 1.27 1.20 1.16 1.16

GEFSSE_prec_meanprecacc_192.txt.gz
Total_Precipitation_Accumulation
0.33 0.14 0.10 0.09 0.09 0.13 0.15 0.17 0.18 0.17 0.16 0.14 0.13 0.12 0.11 0.12 0.12 0.11 0.10 0.11 0.16 0.27 0.35 0.38 0.40 0.46 0.47 0.46 0.39 0.29 0.23 0.19 0.17 0.17 0.18 0.22 0.30 0.38 0.40 0.36 0.45 0.44 0.28
0.27 0.11 0.09 0.09 0.08 0.11 0.14 0.18 0.20 0.19 0.18 0.16 0.13 0.11 0.12 0.11 0.12 0.14 0.13 0.15 0.22 0.28 0.30 0.32 0.35 0.37 0.35 0.32 0.26 0.20 0.16 0.18 0.23 0.30 0.36 0.42 0.54 0.62 0.64 0.55 0.67 0.58 0.26
0.19 0.10 0.07 0.08 0.08 0.09 0.12 0.16 0.20 0.19 0.18 0.16 0.17 0.15 0.15 0.14 0.14 0.16 0.17 0.19 0.25 0.29 0.26 0.26 0.28 0.27 0.24 0.19 0.16 0.16 0.18 0.24 0.40 0.56 0.88 1.02 0.92 0.78 0.69 0.60 0.53 0.40 0.27
0.18 0.14 0.08 0.08 0.09 0.08 0.10 0.13 0.18 0.21 0.22 0.23 0.24 0.19 0.17 0.16 0.17 0.17 0.17 0.19 0.23 0.25 0.22 0.21 0.20 0.18 0.15 0.14 0.14 0.17 0.22 0.32 0.59 0.89 1.43 1.32 1.35 1.13 0.79 0.61 0.52 0.43 0.39
0.18 0.19 0.15 0.12 0.11 0.10 0.10 0.14 0.20 0.24 0.25 0.27 0.27 0.24 0.19 0.16 0.17 0.19 0.22 0.25 0.28 0.28 0.28 0.28 0.22 0.16 0.13 0.14 0.16 0.20 0.28 0.41 0.70 1.07 1.54 1.78 1.95 1.66 1.01 0.71 0.60 0.56 0.54
0.19 0.18 0.17 0.18 0.15 0.14 0.14 0.15 0.22 0.29 0.29 0.27 0.27 0.26 0.24 0.20 0.19 0.24 0.30 0.34 0.34 0.32 0.36 0.41 0.35 0.26 0.19 0.17 0.19 0.24 0.34 0.55 0.72 1.04 1.68 2.09 2.05 1.70 1.12 0.84 0.68 0.70 0.72
0.26 0.24 0.24 0.27 0.24 0.23 0.21 0.24 0.29 0.33 0.35 0.35 0.33 0.32 0.32 0.26 0.23 0.28 0.37 0.40 0.40 0.39 0.38 0.36 0.29 0.24 0.22 0.21 0.23 0.28 0.39 0.59 0.73 1.17 1.67 2.04 1.96 1.64 1.25 1.04 0.91 0.83 0.77
0.40 0.32 0.32 0.34 0.38 0.40 0.37 0.39 0.40 0.37 0.38 0.39 0.38 0.38 0.35 0.28 0.25 0.29 0.38 0.45 0.51 0.48 0.41 0.34 0.27 0.22 0.21 0.21 0.23 0.27 0.39 0.54 0.59 0.99 1.46 1.68 1.58 1.41 1.31 1.18 1.07 0.93 0.83
0.63 0.52 0.45 0.44 0.46 0.48 0.48 0.47 0.48 0.46 0.43 0.41 0.40 0.38 0.37 0.33 0.29 0.35 0.42 0.47 0.47 0.41 0.37 0.33 0.29 0.24 0.21 0.20 0.21 0.27 0.39 0.54 0.65 0.92 1.23 1.53 1.40 1.43 1.48 1.29 1.08 1.00 0.94
1.16 1.33 0.93 0.64 0.56 0.50 0.49 0.54 0.58 0.60 0.57 0.50 0.45 0.39 0.38 0.38 0.39 0.44 0.45 0.47 0.45 0.38 0.34 0.33 0.30 0.27 0.23 0.22 0.25 0.30 0.40 0.43 0.47 0.79 1.21 1.39 1.37 1.52 1.72 1.58 1.32 1.14 1.02
1.46 1.72 1.20 0.89 0.78 0.73 0.73 0.68 0.72 0.74 0.69 0.63 0.57 0.52 0.50 0.57 0.73 0.78 0.62 0.64 0.53 0.46 0.42 0.41 0.37 0.33 0.32 0.30 0.35 0.39 0.38 0.38 0.67 0.98 1.25 1.41 1.52 1.73 1.87 1.76 1.48 1.26 1.12
1.57 1.44 1.42 1.36 1.17 1.02 0.99 1.05 1.04 0.91 0.87 0.80 0.87 0.74 0.80 1.15 1.28 1.10 1.05 0.93 0.76 0.64 0.57 0.55 0.56 0.49 0.42 0.43 0.54 0.53 0.46 0.55 0.79 1.19 1.38 1.40 1.52 1.82 2.01 1.84 1.60 1.47 1.34
2.20 1.70 1.58 1.54 1.44 1.31 1.40 1.49 1.46 1.38 1.34 1.21 1.28 1.15 1.23 1.37 1.34 1.34 1.39 1.22 1.12 0.98 0.99 1.01 0.84 0.69 0.64 0.70 0.74 0.73 0.72 0.78 0.91 1.17 1.37 1.45 1.58 1.87 2.08 1.96 1.69 1.63 1.59
2.46 2.17 1.75 1.74 1.76 1.90 1.94 1.83 1.74 1.77 1.75 1.63 1.65 1.49 1.58 1.70 1.74 1.66 1.77 1.67 1.66 1.55 1.55 1.41 1.28 1.11 0.98 0.86 0.83 0.87 0.91 0.94 1.01 1.20 1.54 1.59 1.60 1.82 2.10 2.10 1.93 1.83 1.79
2.48 2.27 2.05 2.13 2.14 2.15 2.16 2.23 2.12 2.06 2.19 2.17 2.17 2.02 2.01 1.96 1.89 1.88 1.89 1.94 1.86 1.94 1.94 1.85 1.60 1.41 1.26 1.09 0.95 0.99 1.11 1.11 1.22 1.32 1.55 1.60 1.50 1.66 2.02 2.30 2.32 2.31 2.26
2.42 2.45 2.40 2.53 2.35 2.26 2.39 2.56 2.50 2.32 2.50 2.67 2.81 2.71 2.45 2.32 2.23 2.22 2.33 2.31 2.08 2.07 2.15 2.17 2.00 1.79 1.53 1.33 1.16 1.10 1.11 1.12 1.26 1.43 1.62 1.75 1.72 1.65 1.97 2.39 2.57 2.66 2.62
2.55 2.51 2.60 2.50 2.62 2.71 2.80 2.77 2.67 2.65 2.75 2.89 3.01 3.07 2.80 2.51 2.54 2.52 2.65 2.63 2.32 2.22 2.33 2.44 2.37 2.20 1.82 1.55 1.46 1.42 1.37 1.41 1.41 1.54 1.72 1.84 1.85 1.80 1.93 2.07 2.24 2.40 2.51
2.57 2.86 2.86 2.53 2.80 2.93 2.94 2.90 2.76 2.81 3.01 3.14 3.13 3.20 3.03 2.70 2.62 2.69 2.62 2.47 2.39 2.44 2.64 2.81 2.73 2.62 2.36 2.10 1.95 1.72 1.57 1.57 1.54 1.70 1.75 1.80 2.06 2.02 1.95 1.79 1.87 2.06 2.28
2.80 3.22 2.99 2.64 2.78 2.90 3.03 3.11 2.91 2.94 3.23 3.43 3.47 3.31 2.98 2.73 2.73 2.88 2.91 2.85 2.78 2.79 2.84 2.76 2.90 2.74 2.77 2.59 2.16 1.92 1.75 1.69 1.76 1.82 1.87 1.88 2.00 2.12 2.07 1.88 1.80 1.89 2.00
3.11 3.62 3.23 2.76 2.80 3.07 3.09 3.02 3.05 3.18 3.45 3.70 3.61 3.37 3.15 3.11 3.08 3.17 3.16 3.21 3.25 3.28 3.11 3.01 2.97 2.80 2.68 2.60 2.26 2.09 1.96 1.82 1.79 1.77 1.72 1.75 1.83 1.80 1.86 1.87 1.91 1.80 1.84
3.10 3.38 3.30 3.09 3.12 3.24 3.30 3.11 3.28 3.50 3.78 4.00 3.91 3.79 3.73 3.68 3.64 3.63 3.66 3.65 3.53 3.44 3.29 3.09 2.92 2.83 2.64 2.44 2.37 2.09 1.79 1.58 1.52 1.48 1.52 1.59 1.57 1.54 1.63 1.79 1.87 1.82 1.72
2.85 2.99 3.23 3.32 3.33 3.16 3.47 3.69 3.90 4.20 4.35 4.58 4.81 4.89 4.77 4.53 4.30 4.08 4.01 3.84 3.55 3.38 3.25 3.05 2.90 2.75 2.50 2.33 2.30 2.27 1.90 1.64 1.38 1.22 1.29 1.31 1.36 1.47 1.54 1.51 1.52 1.49 1.46
2.68 2.91 3.18 3.46 3.53 3.43 3.83 4.35 4.76 5.04 5.04 5.12 5.17 5.24 5.19 4.76 4.38 4.07 3.78 3.63 3.44 3.25 3.09 3.01 2.88 2.75 2.54 2.36 2.25 2.36 2.25 1.97 1.59 1.41 1.29 1.30 1.37 1.42 1.40 1.34 1.29 1.26 1.28
2.46 2.73 2.97 3.30 3.66 3.94 4.35 4.85 5.42 5.69 5.80 5.72 5.42 5.17 4.84 4.40 4.02 3.59 3.36 3.35 3.20 3.00 2.83 2.62 2.47 2.41 2.36 2.28 2.22 2.09 2.05 1.99 1.84 1.68 1.51 1.49 1.51 1.49 1.41 1.34 1.38 1.40 1.38
2.24 2.48 2.77 3.08 3.47 4.09 4.86 5.43 5.81 6.09 6.04 5.64 5.16 4.56 4.12 3.76 3.45 3.17 2.98 3.00 2.92 2.66 2.42 2.19 2.00 1.92 1.93 2.00 2.00 1.96 1.89 1.83 1.68 1.61 1.59 1.53 1.50 1.48 1.39 1.33 1.35 1.40 1.39
1.97 2.18 2.46 2.86 3.18 3.71 4.42 5.05 5.38 5.59 5.53 5.17 4.55 4.01 3.62 3.23 2.90 2.63 2.36 2.23 2.12 1.95 1.84 1.76 1.65 1.59 1.57 1.67 1.72 1.68 1.68 1.68 1.66 1.65 1.62 1.53 1.53 1.60 1.47 1.32 1.25 1.21 1.21

GEFSSE_prec_meanprecacc_198.txt.gz
Total_Precipitation_Accumulation
0.37 0.15 0.10 0.09 0.09 0.14 0.15 0.17 0.20 0.19 0.17 0.15 0.14 0.13 0.12 0.13 0.13 0.12 0.10 0.11 0.16 0.27 0.35 0.38 0.41 0.46 0.47 0.46 0.39 0.30 0.24 0.19 0.17 0.17 0.19 0.22 0.30 0.38 0.40 0.36 0.47 0.52 0.34
0.30 0.12 0.09 0.09 0.08 0.11 0.14 0.19 0.21 0.20 0.19 0.17 0.14 0.12 0.13 0.12 0.13 0.15 0.14 0.15 0.22 0.28 0.30 0.33 0.35 0.37 0.35 0.32 0.26 0.20 0.16 0.18 0.23 0.30 0.36 0.42 0.55 0.63 0.65 0.56 0.70 0.68 0.31
0.21 0.11 0.07 0.08 0.08 0.09 0.13 0.17 0.21 0.20 0.19 0.17 0.17 0.16 0.16 0.15 0.15 0.17 0.17 0.19 0.26 0.29 0.27 0.26 0.28 0.27 0.24 0.19 0.16 0.16 0.18 0.24 0.40 0.56 0.88 1.06 0.96 0.81 0.70 0.61 0.54 0.44 0.30
0.19 0.15 0.09 0.08 0.09 0.09 0.11 0.14 0.19 0.21 0.23 0.23 0.24 0.20 0.17 0.17 0.18 0.18 0.18 0.20 0.24 0.25 0.23 0.21 0.20 0.18 0.16 0.14 0.14 0.17 0.22 0.32 0.59 0.89 1.46 1.40 1.41 1.21 0.82 0.63 0.54 0.45 0.41
0.20 0.20 0.15 0.12 0.11 0.11 0.10 0.14 0.21 0.25 0.26 0.27 0.28 0.24 0.20 0.17 0.17 0.19 0.24 0.27 0.28 0.28 0.29 0.28 0.22 0.16 0.13 0.14 0.16 0.21 0.28 0.41 0.70 1.07 1.57 1.83 2.02 1.75 1.04 0.73 0.62 0.57 0.56
0.20 0.19 0.17 0.19 0.16 0.14 0.14 0.16 0.23 0.29 0.30 0.28 0.28 0.27 0.25 0.21 0.20 0.24 0.31 0.35 0.34 0.33 0.37 0.41 0.35 0.26 0.19 0.17 0.19 0.24 0.35 0.55 0.73 1.05 1.69 2.12 2.11 1.77 1.15 0.87 0.71 0.72 0.75
0.27 0.25 0.25 0.27 0.26 0.23 0.21 0.25 0.31 0.35 0.37 0.37 0.35 0.33 0.33 0.27 0.24 0.30 0.38 0.41 0.41 0.39 0.39 0.36 0.30 0.25 0.22 0.21 0.23 0.28 0.39 0.59 0.74 1.18 1.68 2.07 2.01 1.70 1.28 1.06 0.94 0.86 0.81
0.41 0.33 0.34 0.35 0.39 0.41 0.39 0.40 0.41 0.38 0.39 0.40 0.40 0.40 0.37 0.30 0.27 0.31 0.39 0.47 0.53 0.49 0.42 0.35 0.28 0.23 0.22 0.22 0.23 0.27 0.40 0.54 0.60 1.00 1.48 1.72 1.63 1.44 1.34 1.20 1.11 0.96 0.87
0.67 0.57 0.48 0.46 0.47 0.48 0.49 0.49 0.49 0.47 0.44 0.42 0.42 0.41 0.40 0.37 0.32 0.37 0.45 0.50 0.50 0.44 0.40 0.36 0.31 0.26 0.23 0.21 0.22 0.28 0.40 0.55 0.66 0.93 1.24 1.56 1.44 1.47 1.53 1.32 1.12 1.03 0.99
1.20 1.42 0.98 0.69 0.61 0.54 0.52 0.56 0.60 0.61 0.59 0.52 0.47 0.41 0.40 0.41 0.42 0.48 0.50 0.51 0.48 0.42 0.37 0.36 0.33 0.29 0.25 0.23 0.26 0.31 0.40 0.43 0.47 0.80 1.23 1.42 1.42 1.57 1.77 1.62 1.35 1.17 1.06
1.49 1.77 1.26 0.96 0.86 0.80 0.78 0.71 0.75 0.76 0.72 0.66 0.61 0.55 0.55 0.64 0.81 0.86 0.67 0.68 0.56 0.48 0.44 0.43 0.38 0.35 0.33 0.31 0.36 0.40 0.39 0.39 0.68 0.99 1.27 1.44 1.56 1.77 1.90 1.80 1.52 1.29 1.16
1.62 1.49 1.48 1.43 1.22 1.07 1.05 1.13 1.11 0.98 0.94 0.86 0.95 0.82 0.88 1.23 1.35 1.16 1.11 0.97 0.80 0.67 0.59 0.57 0.57 0.50 0.43 0.44 0.56 0.55 0.48 0.57 0.82 1.22 1.42 1.43 1.56 1.86 2.04 1.87 1.64 1.51 1.38
2.24 1.74 1.63 1.59 1.50 1.37 1.48 1.59 1.57 1.47 1.43 1.28 1.36 1.24 1.32 1.45 1.40 1.40 1.45 1.29 1.18 1.03 1.03 1.05 0.87 0.70 0.66 0.73 0.77 0.75 0.74 0.79 0.94 1.20 1.42 1.51 1.63 1.91 2.12 1.99 1.73 1.67 1.63
2.52 2.25 1.81 1.79 1.82 1.97 2.02 1.92 1.83 1.85 1.82 1.71 1.74 1.58 1.68 1.79 1.82 1.74 1.84 1.74 1.74 1.62 1.61 1.45 1.31 1.13 1.01 0.89 0.86 0.89 0.94 0.96 1.03 1.24 1.59 1.64 1.64 1.86 2.13 2.14 1.97 1.88 1.85
2.53 2.31 2.08 2.17 2.19 2.21 2.24 2.31 2.18 2.13 2.28 2.25 2.25 2.12 2.11 2.05 1.99 1.97 1.97 2.02 1.93 2.00 2.00 1.89 1.63 1.44 1.29 1.13 0.98 1.03 1.15 1.14 1.25 1.38 1.64 1.68 1.55 1.70 2.06 2.35 2.37 2.37 2.33
2.45 2.48 2.42 2.56 2.39 2.32 2.45 2.63 2.58 2.41 2.57 2.75 2.89 2.79 2.53 2.41 2.33 2.33 2.43 2.41 2.16 2.13 2.21 2.22 2.05 1.84 1.57 1.36 1.19 1.16 1.17 1.18 1.30 1.47 1.68 1.82 1.76 1.67 2.00 2.43 2.61 2.70 2.67
2.57 2.53 2.63 2.53 2.67 2.77 2.88 2.86 2.79 2.76 2.84 2.97 3.09 3.15 2.86 2.60 2.65 2.62 2.76 2.74 2.40 2.29 2.40 2.50 2.44 2.26 1.87 1.59 1.49 1.45 1.40 1.44 1.44 1.56 1.75 1.89 1.90 1.84 1.95 2.09 2.27 2.44 2.57
2.58 2.90 2.90 2.57 2.85 2.99 3.02 3.01 2.87 2.92 3.13 3.26 3.24 3.30 3.11 2.77 2.68 2.77 2.70 2.54 2.47 2.52 2.73 2.91 2.82 2.70 2.42 2.15 1.98 1.76 1.61 1.61 1.56 1.73 1.79 1.86 2.14 2.09 2.00 1.82 1.89 2.08 2.31
2.84 3.26 3.04 2.69 2.83 2.96 3.11 3.22 3.03 3.05 3.35 3.54 3.57 3.40 3.06 2.79 2.79 2.95 2.98 2.93 2.87 2.89 2.95 2.86 3.00 2.83 2.83 2.64 2.21 1.97 1.79 1.72 1.80 1.86 1.92 1.94 2.06 2.18 2.14 1.92 1.82 1.91 2.02
3.14 3.64 3.26 2.81 2.85 3.13 3.18 3.11 3.12 3.24 3.51 3.77 3.68 3.43 3.20 3.16 3.14 3.23 3.21 3.26 3.31 3.35 3.18 3.08 3.06 2.88 2.75 2.66 2.30 2.13 1.99 1.86 1.83 1.82 1.76 1.80 1.89 1.86 1.94 1.93 1.97 1.84 1.88
3.11 3.39 3.33 3.13 3.17 3.30 3.36 3.16 3.33 3.56 3.83 4.06 3.96 3.84 3.78 3.74 3.71 3.70 3.72 3.70 3.58 3.49 3.34 3.14 2.99 2.89 2.70 2.50 2.43 2.14 1.83 1.61 1.55 1.52 1.56 1.64 1.63 1.60 1.70 1.87 1.96 1.92 1.80
2.86 3.01 3.26 3.36 3.38 3.22 3.52 3.73 3.94 4.26 4.40 4.64 4.87 4.95 4.84 4.59 4.37 4.14 4.07 3.90 3.60 3.43 3.30 3.10 2.95 2.81 2.56 2.41 2.37 2.34 1.97 1.69 1.42 1.26 1.34 1.36 1.42 1.54 1.61 1.58 1.61 1.62 1.59
2.71 2.95 3.23 3.50 3.58 3.49 3.88 4.40 4.81 5.11 5.11 5.19 5.24 5.30 5.26 4.82 4.43 4.11 3.83 3.67 3.49 3.31 3.15 3.06 2.94 2.81 2.60 2.42 2.32 2.44 2.32 2.04 1.67 1.48 1.35 1.36 1.43 1.48 1.47 1.42 1.38 1.38 1.42
2.50 2.77 3.03 3.34 3.71 4.00 4.41 4.89 5.46 5.73 5.84 5.76 5.47 5.22 4.89 4.45 4.06 3.62 3.40 3.39 3.25 3.05 2.88 2.67 2.53 2.47 2.42 2.33 2.27 2.16 2.12 2.07 1.93 1.76 1.57 1.55 1.56 1.55 1.48 1.42 1.48 1.52 1.51
2.28 2.54 2.83 3.12 3.51 4.16 4.93 5.47 5.85 6.12 6.09 5.69 5.20 4.61 4.16 3.80 3.48 3.21 3.02 3.04 2.96 2.71 2.48 2.25 2.06 1.99 1.99 2.06 2.07 2.02 1.95 1.91 1.77 1.69 1.65 1.58 1.55 1.53 1.45 1.41 1.45 1.52 1.51
2.00 2.23 2.55 2.94 3.25 3.78 4.52 5.13 5.43 5.65 5.59 5.22 4.60 4.07 3.68 3.28 2.95 2.66 2.40 2.28 2.16 2.00 1.90 1.81 1.70 1.65 1.64 1.74 1.80 1.77 1.76 1.77 1.75 1.74 1.71 1.59 1.58 1.64 1.51 1.38 1.32 1.29 1.30

GEFSSE_prec_meanprecacc_204.txt.gz
Total_Precipitation_Accumulation
0.41 0.16 0.11 0.09 0.09 0.14 0.15 0.17 0.20 0.19 0.17 0.15 0.14 0.13 0.12 0.13 0.13 0.12 0.10 0.11 0.17 0.27 0.35 0.39 0.41 0.46 0.48 0.46 0.39 0.30 0.24 0.20 0.18 0.18 0.20 0.23 0.32 0.41 0.42 0.38 0.49 0.53 0.35
0.33 0.15 0.11 0.09 0.08 0.11 0.15 0.19 0.21 0.20 0.19 0.17 0.14 0.12 0.13 0.13 0.13 0.16 0.14 0.15 0.22 0.28 0.30 0.33 0.35 0.37 0.35 0.32 0.26 0.20 0.16 0.18 0.24 0.31 0.37 0.43 0.57 0.66 0.68 0.59 0.72 0.71 0.33
0.22 0.12 0.08 0.08 0.09 0.10 0.13 0.17 0.21 0.20 0.19 0.17 0.18 0.16 0.16 0.15 0.15 0.17 0.17 0.20 0.26 0.30 0.27 0.27 0.28 0.27 0.24 0.19 0.16 0.16 0.18 0.25 0.41 0.57 0.89 1.07 0.98 0.85 0.73 0.64 0.58 0.47 0.32
0.20 0.15 0.09 0.08 0.09 0.09 0.11 0.14 0.19 0.21 0.23 0.24 0.25 0.20 0.18 0.18 0.18 0.18 0.18 0.20 0.24 0.26 0.24 0.22 0.21 0.18 0.16 0.14 0.14 0.17 0.22 0.32 0.59 0.90 1.48 1.44 1.46 1.28 0.89 0.68 0.57 0.48 0.44
0.22 0.21 0.16 0.13 0.12 0.11 0.10 0.14 0.21 0.25 0.26 0.28 0.28 0.25 0.20 0.18 0.18 0.20 0.25 0.28 0.29 0.29 0.29 0.28 0.23 0.17 0.14 0.15 0.16 0.21 0.28 0.41 0.71 1.09 1.61 1.90 2.12 1.85 1.13 0.80 0.66 0.60 0.59
0.21 0.20 0.17 0.19 0.16 0.14 0.15 0.16 0.23 0.30 0.30 0.29 0.28 0.28 0.26 0.22 0.21 0.25 0.33 0.36 0.35 0.33 0.37 0.42 0.35 0.26 0.19 0.18 0.19 0.24 0.35 0.55 0.74 1.07 1.73 2.18 2.19 1.88 1.24 0.94 0.77 0.77 0.79
0.29 0.26 0.25 0.28 0.26 0.24 0.22 0.25 0.31 0.35 0.37 0.38 0.35 0.34 0.34 0.28 0.25 0.30 0.39 0.42 0.42 0.40 0.40 0.37 0.31 0.25 0.22 0.22 0.24 0.28 0.39 0.60 0.75 1.20 1.71 2.13 2.10 1.81 1.39 1.14 1.00 0.91 0.86
0.43 0.35 0.34 0.35 0.39 0.41 0.39 0.40 0.41 0.39 0.40 0.41 0.41 0.42 0.39 0.31 0.29 0.32 0.40 0.47 0.54 0.50 0.43 0.36 0.29 0.23 0.22 0.22 0.24 0.28 0.41 0.55 0.60 1.03 1.51 1.76 1.68 1.53 1.45 1.29 1.18 1.01 0.91
0.71 0.59 0.49 0.46 0.47 0.49 0.49 0.49 0.50 0.48 0.46 0.44 0.43 0.42 0.41 0.38 0.33 0.38 0.46 0.51 0.51 0.45 0.40 0.36 0.31 0.27 0.23 0.21 0.23 0.29 0.40 0.55 0.67 0.94 1.26 1.60 1.50 1.55 1.62 1.40 1.19 1.09 1.03
1.25 1.48 1.01 0.69 0.61 0.55 0.52 0.57 0.61 0.63 0.61 0.54 0.48 0.43 0.42 0.43 0.44 0.49 0.52 0.53 0.50 0.43 0.38 0.37 0.34 0.30 0.26 0.24 0.27 0.32 0.41 0.45 0.48 0.81 1.25 1.44 1.47 1.66 1.89 1.73 1.44 1.24 1.12
1.56 1.82 1.29 0.97 0.86 0.81 0.79 0.72 0.76 0.78 0.75 0.69 0.63 0.58 0.58 0.66 0.84 0.88 0.70 0.71 0.59 0.50 0.46 0.44 0.40 0.36 0.34 0.32 0.37 0.42 0.40 0.40 0.69 1.01 1.29 1.47 1.62 1.86 2.02 1.92 1.64 1.39 1.24
1.74 1.58 1.53 1.45 1.23 1.10 1.08 1.16 1.13 1.01 0.98 0.90 0.99 0.85 0.91 1.27 1.38 1.19 1.14 1.01 0.84 0.70 0.62 0.60 0.61 0.54 0.46 0.45 0.57 0.57 0.49 0.58 0.84 1.25 1.46 1.51 1.66 1.97 2.14 1.97 1.74 1.62 1.49
2.45 1.96 1.75 1.66 1.55 1.42 1.52 1.65 1.67 1.61 1.53 1.37 1.41 1.28 1.36 1.49 1.43 1.43 1.48 1.32 1.22 1.08 1.07 1.08 0.91 0.73 0.68 0.75 0.79 0.77 0.76 0.82 0.97 1.25 1.47 1.59 1.74 2.00 2.19 2.07 1.82 1.77 1.74
2.71 2.52 2.02 1.91 1.95 2.07 2.14 2.04 1.96 1.98 1.94 1.79 1.81 1.65 1.73 1.84 1.86 1.77 1.86 1.76 1.77 1.65 1.64 1.48 1.34 1.16 1.04 0.92 0.90 0.92 0.97 0.99 1.06 1.27 1.63 1.70 1.70 1.93 2.20 2.23 2.07 1.97 1.94
2.64 2.44 2.20 2.25 2.31 2.35 2.33 2.38 2.25 2.20 2.33 2.32 2.33 2.21 2.20 2.13 2.04 2.02 2.01 2.05 1.96 2.04 2.05 1.94 1.68 1.49 1.35 1.17 1.02 1.07 1.18 1.17 1.29 1.42 1.68 1.73 1.59 1.76 2.14 2.43 2.45 2.46 2.40
2.49 2.53 2.47 2.60 2.45 2.37 2.48 2.66 2.62 2.45 2.66 2.85 3.01 2.90 2.63 2.50 2.42 2.40 2.48 2.46 2.21 2.20 2.28 2.30 2.13 1.90 1.62 1.41 1.24 1.20 1.20 1.21 1.34 1.52 1.73 1.87 1.80 1.72 2.06 2.49 2.68 2.78 2.75
2.61 2.59 2.69 2.57 2.70 2.80 2.90 2.87 2.80 2.79 2.88 3.02 3.16 3.22 2.92 2.66 2.70 2.67 2.82 2.80 2.47 2.36 2.48 2.58 2.52 2.34 1.94 1.65 1.54 1.50 1.44 1.48 1.49 1.59 1.78 1.92 1.93 1.88 1.99 2.13 2.32 2.49 2.63
2.63 2.94 2.94 2.60 2.87 3.01 3.05 3.03 2.89 2.94 3.15 3.29 3.28 3.35 3.16 2.82 2.73 2.82 2.75 2.59 2.51 2.57 2.80 2.99 2.90 2.78 2.49 2.22 2.04 1.79 1.63 1.64 1.61 1.77 1.83 1.90 2.18 2.12 2.04 1.85 1.92 2.11 2.35
2.88 3.30 3.06 2.70 2.85 2.98 3.14 3.27 3.07 3.09 3.39 3.58 3.62 3.46 3.13 2.87 2.87 3.01 3.02 2.97 2.90 2.92 2.99 2.91 3.05 2.88 2.90 2.70 2.26 2.02 1.82 1.77 1.84 1.89 1.95 1.97 2.09 2.21 2.17 1.95 1.86 1.94 2.06
3.18 3.69 3.29 2.83 2.88 3.17 3.22 3.16 3.18 3.29 3.56 3.82 3.76 3.52 3.29 3.24 3.20 3.28 3.25 3.31 3.35 3.39 3.22 3.14 3.13 2.94 2.81 2.70 2.34 2.17 2.03 1.90 1.86 1.84 1.78 1.82 1.91 1.88 1.96 1.96 1.99 1.87 1.92
3.15 3.44 3.37 3.16 3.21 3.35 3.40 3.21 3.38 3.62 3.90 4.15 4.08 3.97 3.89 3.81 3.76 3.76 3.77 3.76 3.63 3.55 3.39 3.20 3.06 2.96 2.75 2.54 2.47 2.18 1.87 1.64 1.58 1.54 1.58 1.66 1.65 1.63 1.72 1.89 1.99 1.95 1.83
2.90 3.05 3.30 3.39 3.43 3.27 3.57 3.80 4.02 4.33 4.48 4.76 5.00 5.07 4.92 4.66 4.44 4.21 4.14 3.95 3.66 3.48 3.35 3.14 2.99 2.85 2.60 2.45 2.41 2.38 2.00 1.71 1.44 1.28 1.36 1.38 1.45 1.57 1.65 1.62 1.66 1.67 1.64
2.76 3.00 3.28 3.57 3.67 3.59 4.00 4.51 4.90 5.18 5.19 5.27 5.31 5.37 5.33 4.90 4.50 4.18 3.89 3.73 3.55 3.36 3.19 3.09 2.97 2.85 2.63 2.46 2.37 2.50 2.36 2.07 1.70 1.51 1.38 1.40 1.47 1.52 1.52 1.47 1.43 1.42 1.46
2.54 2.81 3.06 3.41 3.79 4.08 4.49 4.96 5.52 5.77 5.89 5.81 5.52 5.28 4.96 4.54 4.15 3.71 3.48 3.46 3.30 3.09 2.92 2.70 2.56 2.51 2.45 2.36 2.32 2.21 2.19 2.13 1.98 1.80 1.61 1.61 1.63 1.60 1.54 1.49 1.53 1.58 1.58
2.34 2.59 2.88 3.19 3.60 4.25 5.01 5.53 5.89 6.16 6.14 5.74 5.25 4.66 4.22 3.88 3.57 3.30 3.11 3.11 3.01 2.76 2.53 2.29 2.09 2.01 2.02 2.10 2.12 2.09 2.02 1.97 1.83 1.75 1.68 1.61 1.58 1.57 1.50 1.47 1.51 1.58 1.57
2.12 2.33 2.68 3.08 3.37 3.89 4.61 5.20 5.48 5.70 5.65 5.28 4.66 4.13 3.75 3.36 3.03 2.74 2.47 2.35 2.23 2.07 1.96 1.86 1.73 1.67 1.66 1.78 1.86 1.83 1.82 1.82 1.79 1.79 1.75 1.62 1.60 1.67 1.56 1.43 1.36 1.33 1.34

GEFSSE_prec_meanprecacc_210.txt.gz
Total_Precipitation_Accumulation
0.41 0.17 0.11 0.10 0.10 0.14 0.16 0.17 0.20 0.19 0.17 0.15 0.14 0.13 0.12 0.13 0.13 0.12 0.11 0.12 0.18 0.28 0.37 0.39 0.41 0.46 0.48 0.47 0.39 0.30 0.25 0.21 0.19 0.19 0.21 0.25 0.34 0.44 0.46 0.42 0.52 0.56 0.38
0.34 0.16 0.11 0.09 0.09 0.12 0.15 0.20 0.21 0.20 0.19 0.17 0.15 0.13 0.13 0.13 0.14 0.16 0.14 0.16 0.23 0.30 0.31 0.34 0.36 0.37 0.36 0.33 0.27 0.21 0.17 0.19 0.25 0.32 0.39 0.45 0.60 0.70 0.74 0.65 0.77 0.75 0.36
0.23 0.13 0.08 0.09 0.09 0.10 0.13 0.18 0.22 0.20 0.19 0.18 0.18 0.17 0.17 0.16 0.16 0.18 0.18 0.20 0.27 0.31 0.29 0.27 0.29 0.28 0.25 0.20 0.16 0.16 0.18 0.25 0.42 0.58 0.91 1.09 1.00 0.90 0.80 0.72 0.66 0.54 0.37
0.21 0.16 0.10 0.09 0.10 0.09 0.11 0.14 0.20 0.22 0.23 0.24 0.25 0.21 0.18 0.18 0.19 0.19 0.19 0.21 0.25 0.27 0.24 0.22 0.21 0.19 0.16 0.15 0.15 0.17 0.23 0.32 0.60 0.91 1.50 1.46 1.47 1.33 0.95 0.75 0.65 0.55 0.51
0.23 0.22 0.16 0.13 0.12 0.11 0.11 0.15 0.21 0.25 0.27 0.28 0.28 0.25 0.21 0.18 0.18 0.21 0.25 0.28 0.29 0.29 0.30 0.29 0.24 0.17 0.14 0.15 0.17 0.21 0.28 0.41 0.72 1.10 1.62 1.92 2.14 1.90 1.19 0.87 0.73 0.67 0.65
0.23 0.21 0.18 0.20 0.17 0.15 0.15 0.17 0.24 0.30 0.31 0.29 0.29 0.28 0.26 0.22 0.21 0.26 0.33 0.36 0.35 0.34 0.38 0.42 0.36 0.27 0.20 0.18 0.20 0.24 0.35 0.56 0.75 1.08 1.74 2.19 2.22 1.93 1.29 1.00 0.83 0.83 0.85
0.30 0.27 0.26 0.29 0.27 0.25 0.22 0.26 0.32 0.36 0.38 0.39 0.36 0.35 0.35 0.29 0.26 0.31 0.39 0.42 0.43 0.41 0.41 0.38 0.31 0.26 0.23 0.22 0.24 0.29 0.40 0.61 0.75 1.21 1.72 2.14 2.12 1.86 1.44 1.20 1.06 0.99 0.93
0.45 0.37 0.37 0.38 0.41 0.42 0.40 0.42 0.43 0.40 0.41 0.42 0.42 0.43 0.40 0.32 0.30 0.34 0.41 0.49 0.55 0.51 0.44 0.37 0.30 0.24 0.23 0.23 0.25 0.28 0.41 0.56 0.61 1.04 1.51 1.77 1.70 1.56 1.49 1.34 1.24 1.08 0.99
0.77 0.68 0.55 0.50 0.49 0.50 0.51 0.51 0.51 0.50 0.47 0.46 0.45 0.44 0.43 0.40 0.36 0.42 0.49 0.54 0.54 0.48 0.43 0.39 0.33 0.29 0.25 0.23 0.24 0.30 0.42 0.57 0.68 0.95 1.27 1.61 1.51 1.59 1.67 1.46 1.24 1.16 1.12
1.32 1.57 1.09 0.73 0.62 0.55 0.53 0.58 0.62 0.64 0.63 0.57 0.53 0.49 0.47 0.48 0.50 0.56 0.56 0.57 0.56 0.49 0.43 0.42 0.38 0.34 0.30 0.27 0.30 0.34 0.44 0.47 0.50 0.82 1.26 1.45 1.49 1.70 1.96 1.80 1.50 1.31 1.20
1.62 1.87 1.32 0.99 0.87 0.82 0.81 0.74 0.78 0.79 0.78 0.74 0.69 0.63 0.63 0.72 0.91 0.93 0.73 0.75 0.65 0.58 0.53 0.51 0.47 0.42 0.40 0.37 0.41 0.45 0.43 0.41 0.71 1.02 1.30 1.49 1.65 1.91 2.10 2.01 1.72 1.48 1.33
1.76 1.59 1.55 1.47 1.26 1.13 1.11 1.18 1.17 1.04 1.02 0.93 1.01 0.89 0.97 1.32 1.42 1.23 1.18 1.06 0.90 0.77 0.69 0.68 0.69 0.62 0.53 0.50 0.61 0.60 0.50 0.59 0.86 1.26 1.48 1.54 1.71 2.04 2.23 2.05 1.83 1.72 1.58
2.46 1.98 1.78 1.69 1.59 1.46 1.56 1.71 1.73 1.64 1.57 1.38 1.44 1.31 1.39 1.52 1.47 1.47 1.52 1.37 1.27 1.14 1.13 1.14 0.97 0.79 0.74 0.80 0.85 0.82 0.80 0.85 0.99 1.28 1.51 1.64 1.79 2.08 2.29 2.16 1.90 1.85 1.84
2.73 2.54 2.05 1.95 1.99 2.13 2.21 2.11 2.01 2.02 1.97 1.82 1.83 1.67 1.75 1.87 1.91 1.82 1.91 1.81 1.83 1.71 1.70 1.55 1.40 1.22 1.10 0.98 0.95 0.99 1.04 1.04 1.09 1.29 1.66 1.75 1.76 1.99 2.29 2.33 2.16 2.07 2.05
2.66 2.47 2.23 2.28 2.35 2.41 2.39 2.43 2.30 2.24 2.37 2.35 2.36 2.24 2.22 2.16 2.10 2.10 2.09 2.12 2.03 2.11 2.12 2.02 1.75 1.57 1.42 1.23 1.08 1.12 1.23 1.22 1.33 1.44 1.71 1.78 1.65 1.83 2.22 2.52 2.54 2.55 2.50
2.51 2.56 2.50 2.64 2.49 2.41 2.52 2.70 2.66 2.49 2.69 2.88 3.03 2.93 2.66 2.54 2.48 2.47 2.56 2.54 2.29 2.28 2.36 2.39 2.22 1.99 1.70 1.49 1.31 1.27 1.26 1.25 1.37 1.55 1.76 1.91 1.85 1.78 2.10 2.54 2.75 2.87 2.85
2.64 2.62 2.72 2.60 2.73 2.83 2.94 2.92 2.84 2.82 2.90 3.04 3.18 3.25 2.96 2.71 2.77 2.76 2.91 2.89 2.56 2.46 2.57 2.67 2.62 2.43 2.03 1.75 1.64 1.61 1.54 1.55 1.53 1.62 1.81 1.95 1.96 1.91 2.03 2.17 2.37 2.56 2.70
2.69 2.99 2.98 2.63 2.90 3.04 3.07 3.06 2.93 2.98 3.18 3.32 3.31 3.39 3.22 2.90 2.82 2.91 2.85 2.70 2.62 2.67 2.89 3.07 2.98 2.86 2.57 2.30 2.10 1.86 1.70 1.69 1.64 1.79 1.84 1.91 2.19 2.14 2.07 1.89 1.97 2.17 2.41
2.97 3.38 3.14 2.76 2.89 3.02 3.18 3.30 3.10 3.13 3.44 3.62 3.66 3.51 3.18 2.93 2.94 3.09 3.11 3.06 2.99 3.01 3.08 2.98 3.11 2.94 2.96 2.77 2.32 2.06 1.86 1.80 1.86 1.91 1.97 1.98 2.10 2.23 2.19 1.98 1.91 2.00 2.12
3.26 3.78 3.39 2.92 2.95 3.23 3.26 3.21 3.22 3.35 3.62 3.88 3.82 3.59 3.34 3.27 3.24 3.35 3.31 3.37 3.43 3.47 3.31 3.21 3.19 3.00 2.86 2.77 2.42 2.22 2.06 1.92 1.88 1.86 1.81 1.85 1.95 1.91 1.99 1.98 2.02 1.91 1.98
3.23 3.54 3.49 3.27 3.31 3.43 3.48 3.30 3.47 3.69 3.96 4.20 4.13 4.01 3.93 3.86 3.82 3.83 3.85 3.83 3.71 3.62 3.47 3.28 3.14 3.01 2.80 2.60 2.54 2.24 1.90 1.66 1.60 1.56 1.60 1.68 1.68 1.66 1.75 1.92 2.02 1.97 1.86
3.00 3.14 3.41 3.50 3.53 3.36 3.66 3.90 4.11 4.39 4.52 4.79 5.04 5.11 4.97 4.73 4.51 4.30 4.24 4.04 3.73 3.54 3.40 3.20 3.05 2.90 2.64 2.49 2.46 2.44 2.05 1.74 1.46 1.30 1.38 1.40 1.46 1.60 1.68 1.65 1.68 1.69 1.66
2.87 3.11 3.38 3.66 3.77 3.68 4.09 4.58 4.97 5.23 5.22 5.30 5.35 5.40 5.37 4.96 4.58 4.28 3.98 3.81 3.62 3.43 3.26 3.16 3.03 2.90 2.67 2.50 2.41 2.55 2.41 2.10 1.71 1.52 1.40 1.41 1.48 1.54 1.54 1.49 1.46 1.45 1.49
2.67 2.96 3.21 3.55 3.93 4.21 4.60 5.06 5.60 5.85 5.95 5.86 5.56 5.31 5.01 4.60 4.23 3.79 3.56 3.54 3.38 3.17 2.99 2.77 2.63 2.57 2.50 2.41 2.36 2.25 2.23 2.16 2.01 1.81 1.62 1.62 1.64 1.61 1.55 1.50 1.55 1.60 1.61
2.49 2.75 3.03 3.35 3.76 4.39 5.14 5.66 6.04 6.30 6.22 5.79 5.30 4.71 4.26 3.94 3.64 3.36 3.16 3.18 3.09 2.84 2.61 2.37 2.18 2.09 2.09 2.15 2.17 2.13 2.05 2.00 1.85 1.76 1.69 1.62 1.59 1.58 1.51 1.48 1.53 1.60 1.60
2.26 2.48 2.81 3.22 3.53 4.04 4.76 5.38 5.66 5.83 5.73 5.33 4.71 4.17 3.80 3.41 3.08 2.77 2.51 2.39 2.28 2.13 2.02 1.92 1.80 1.74 1.73 1.83 1.89 1.85 1.84 1.85 1.82 1.81 1.76 1.63 1.61 1.68 1.56 1.44 1.37 1.34 1.35

GEFSSE_prec_meanprecacc_216.txt.gz
Total_Precipitation_Accumulation
0.43 0.18 0.12 0.11 0.11 0.15 0.17 0.18 0.21 0.20 0.19 0.17 0.15 0.13 0.13 0.14 0.14 0.12 0.11 0.12 0.19 0.29 0.37 0.40 0.41 0.46 0.48 0.47 0.40 0.31 0.26 0.22 0.20 0.19 0.22 0.26 0.36 0.46 0.48 0.44 0.54 0.57 0.40
0.35 0.17 0.12 0.11 0.10 0.12 0.16 0.20 0.22 0.21 0.20 0.18 0.16 0.13 0.14 0.14 0.14 0.17 0.15 0.16 0.24 0.30 0.32 0.35 0.37 0.38 0.36 0.33 0.27 0.21 0.17 0.19 0.25 0.32 0.39 0.46 0.60 0.72 0.76 0.67 0.79 0.77 0.39
0.23 0.13 0.09 0.10 0.10 0.11 0.14 0.18 0.23 0.21 0.20 0.19 0.19 0.18 0.18 0.17 0.17 0.19 0.19 0.21 0.28 0.31 0.30 0.29 0.30 0.29 0.25 0.20 0.17 0.17 0.18 0.25 0.42 0.58 0.92 1.10 1.01 0.92 0.82 0.74 0.68 0.56 0.39
0.22 0.16 0.10 0.10 0.11 0.11 0.12 0.15 0.20 0.22 0.24 0.25 0.26 0.22 0.19 0.19 0.19 0.19 0.20 0.22 0.26 0.27 0.26 0.24 0.22 0.20 0.17 0.15 0.15 0.17 0.23 0.32 0.61 0.92 1.51 1.47 1.49 1.35 0.97 0.78 0.68 0.58 0.53
0.24 0.23 0.17 0.14 0.14 0.13 0.13 0.16 0.22 0.26 0.28 0.30 0.31 0.27 0.22 0.18 0.19 0.21 0.26 0.30 0.31 0.32 0.32 0.31 0.26 0.19 0.17 0.17 0.18 0.22 0.29 0.42 0.73 1.11 1.63 1.93 2.17 1.94 1.22 0.89 0.77 0.71 0.68
0.24 0.22 0.19 0.21 0.19 0.17 0.17 0.19 0.26 0.32 0.33 0.32 0.33 0.32 0.29 0.24 0.23 0.28 0.35 0.38 0.38 0.37 0.41 0.45 0.37 0.29 0.22 0.20 0.22 0.26 0.37 0.57 0.76 1.10 1.77 2.21 2.24 1.97 1.33 1.04 0.86 0.88 0.89
0.31 0.28 0.28 0.31 0.29 0.26 0.24 0.28 0.34 0.38 0.41 0.41 0.39 0.38 0.37 0.31 0.28 0.34 0.42 0.45 0.45 0.43 0.43 0.40 0.33 0.28 0.24 0.23 0.25 0.30 0.41 0.62 0.77 1.24 1.76 2.18 2.17 1.90 1.48 1.24 1.10 1.03 0.97
0.46 0.38 0.39 0.40 0.42 0.44 0.42 0.44 0.44 0.41 0.42 0.44 0.46 0.46 0.43 0.36 0.33 0.36 0.45 0.53 0.59 0.54 0.46 0.39 0.32 0.27 0.26 0.25 0.26 0.30 0.43 0.57 0.63 1.07 1.55 1.80 1.73 1.59 1.52 1.37 1.27 1.12 1.02
0.78 0.69 0.56 0.52 0.51 0.53 0.53 0.52 0.53 0.52 0.50 0.48 0.48 0.47 0.47 0.44 0.40 0.46 0.54 0.58 0.58 0.52 0.48 0.44 0.38 0.32 0.28 0.27 0.28 0.33 0.45 0.60 0.71 0.98 1.29 1.63 1.54 1.62 1.70 1.48 1.26 1.19 1.17
1.34 1.59 1.11 0.75 0.66 0.60 0.59 0.61 0.64 0.67 0.66 0.60 0.56 0.51 0.50 0.51 0.54 0.60 0.61 0.62 0.60 0.55 0.51 0.50 0.45 0.40 0.34 0.31 0.33 0.37 0.47 0.50 0.52 0.84 1.28 1.47 1.51 1.73 1.99 1.84 1.54 1.34 1.24
1.64 1.91 1.36 1.05 0.96 0.90 0.88 0.77 0.81 0.83 0.82 0.78 0.72 0.66 0.66 0.76 0.94 0.96 0.76 0.79 0.69 0.63 0.59 0.58 0.54 0.50 0.47 0.42 0.45 0.49 0.47 0.44 0.73 1.04 1.32 1.50 1.67 1.94 2.14 2.06 1.79 1.54 1.39
1.78 1.61 1.57 1.53 1.32 1.18 1.14 1.22 1.20 1.08 1.06 0.97 1.05 0.92 1.00 1.36 1.45 1.24 1.19 1.08 0.92 0.81 0.74 0.73 0.75 0.70 0.63 0.60 0.68 0.66 0.54 0.62 0.88 1.28 1.50 1.56 1.74 2.07 2.28 2.13 1.91 1.81 1.67
2.48 1.99 1.79 1.71 1.61 1.50 1.60 1.74 1.76 1.69 1.61 1.41 1.46 1.33 1.42 1.55 1.49 1.49 1.54 1.38 1.30 1.18 1.18 1.20 1.04 0.89 0.84 0.90 0.95 0.91 0.85 0.89 1.03 1.31 1.54 1.68 1.84 2.15 2.36 2.24 2.00 1.94 1.92
2.74 2.55 2.06 1.96 2.01 2.16 2.25 2.14 2.04 2.04 1.99 1.84 1.85 1.68 1.78 1.90 1.94 1.85 1.94 1.84 1.85 1.75 1.76 1.63 1.49 1.33 1.22 1.09 1.06 1.09 1.14 1.13 1.15 1.34 1.72 1.81 1.82 2.07 2.36 2.40 2.25 2.16 2.13
2.66 2.47 2.24 2.30 2.37 2.43 2.42 2.45 2.32 2.26 2.39 2.37 2.37 2.25 2.24 2.19 2.13 2.13 2.12 2.15 2.06 2.15 2.18 2.11 1.85 1.67 1.53 1.35 1.18 1.21 1.32 1.31 1.41 1.51 1.78 1.86 1.72 1.88 2.27 2.59 2.62 2.63 2.60
2.52 2.57 2.52 2.66 2.52 2.44 2.55 2.73 2.68 2.51 2.70 2.89 3.04 2.94 2.68 2.56 2.50 2.50 2.60 2.58 2.34 2.33 2.41 2.47 2.32 2.09 1.81 1.60 1.43 1.38 1.38 1.37 1.47 1.63 1.83 1.97 1.90 1.82 2.15 2.59 2.80 2.93 2.93
2.66 2.64 2.74 2.63 2.76 2.87 2.98 2.95 2.87 2.84 2.92 3.07 3.22 3.28 2.99 2.74 2.80 2.79 2.95 2.93 2.62 2.53 2.64 2.74 2.71 2.56 2.17 1.88 1.76 1.72 1.64 1.65 1.63 1.71 1.89 2.01 2.00 1.95 2.07 2.21 2.41 2.60 2.76
2.71 3.01 3.01 2.67 2.94 3.09 3.12 3.11 2.96 3.01 3.21 3.35 3.34 3.42 3.25 2.94 2.86 2.95 2.89 2.74 2.66 2.71 2.94 3.14 3.08 2.99 2.72 2.45 2.24 1.98 1.79 1.77 1.72 1.86 1.92 1.97 2.24 2.18 2.11 1.93 2.00 2.20 2.47
3.00 3.42 3.20 2.83 2.99 3.13 3.26 3.36 3.14 3.18 3.48 3.64 3.69 3.55 3.23 2.97 2.98 3.13 3.15 3.10 3.04 3.05 3.12 3.04 3.19 3.03 3.06 2.87 2.41 2.16 1.94 1.87 1.92 1.97 2.01 2.02 2.14 2.26 2.22 2.01 1.93 2.03 2.17
3.29 3.83 3.45 3.01 3.06 3.33 3.34 3.26 3.26 3.39 3.69 3.94 3.86 3.64 3.39 3.31 3.28 3.39 3.36 3.42 3.48 3.53 3.36 3.27 3.26 3.07 2.91 2.82 2.48 2.27 2.11 1.96 1.92 1.90 1.84 1.87 1.97 1.94 2.02 2.02 2.06 1.94 2.01
3.28 3.60 3.56 3.38 3.44 3.52 3.54 3.35 3.52 3.73 4.03 4.30 4.20 4.07 3.99 3.90 3.86 3.87 3.90 3.89 3.77 3.68 3.52 3.33 3.19 3.07 2.85 2.65 2.58 2.28 1.93 1.69 1.62 1.58 1.63 1.70 1.70 1.70 1.79 1.96 2.06 2.02 1.89
3.05 3.22 3.49 3.60 3.64 3.43 3.71 3.95 4.17 4.46 4.58 4.88 5.15 5.19 5.04 4.78 4.55 4.34 4.29 4.10 3.80 3.61 3.47 3.28 3.13 2.97 2.71 2.55 2.50 2.48 2.09 1.78 1.49 1.32 1.41 1.43 1.49 1.63 1.72 1.69 1.73 1.74 1.70
2.92 3.18 3.47 3.75 3.85 3.74 4.14 4.63 5.04 5.31 5.29 5.36 5.43 5.46 5.42 5.01 4.62 4.32 4.03 3.87 3.69 3.52 3.35 3.27 3.15 3.02 2.77 2.58 2.47 2.60 2.47 2.15 1.76 1.56 1.42 1.43 1.51 1.57 1.57 1.54 1.50 1.49 1.54
2.72 3.00 3.25 3.60 3.98 4.27 4.68 5.13 5.66 5.91 6.01 5.90 5.61 5.36 5.04 4.64 4.27 3.85 3.61 3.61 3.45 3.24 3.05 2.84 2.71 2.67 2.60 2.50 2.44 2.33 2.30 2.23 2.07 1.86 1.65 1.65 1.67 1.64 1.58 1.54 1.59 1.65 1.65
2.54 2.80 3.09 3.41 3.82 4.45 5.21 5.73 6.11 6.38 6.29 5.85 5.36 4.76 4.32 3.99 3.69 3.42 3.22 3.23 3.13 2.88 2.66 2.41 2.22 2.14 2.14 2.21 2.23 2.20 2.14 2.08 1.91 1.81 1.73 1.65 1.62 1.61 1.54 1.51 1.56 1.64 1.64
2.30 2.55 2.89 3.30 3.60 4.11 4.83 5.46 5.75 5.93 5.84 5.42 4.77 4.22 3.84 3.45 3.11 2.81 2.54 2.43 2.31 2.16 2.05 1.95 1.84 1.78 1.78 1.89 1.96 1.91 1.90 1.91 1.87 1.86 1.80 1.66 1.64 1.71 1.58 1.46 1.40 1.37 1.38

GEFSSE_prec_meanprecacc_222.txt.gz
Total_Precipitation_Accumulation
0.44 0.19 0.12 0.12 0.12 0.16 0.17 0.19 0.21 0.20 0.19 0.17 0.15 0.13 0.13 0.14 0.14 0.13 0.12 0.13 0.19 0.30 0.38 0.40 0.42 0.47 0.49 0.48 0.40 0.31 0.26 0.23 0.20 0.20 0.22 0.26 0.36 0.46 0.49 0.44 0.55 0.59 0.45
0.36 0.18 0.12 0.11 0.11 0.14 0.17 0.21 0.22 0.21 0.21 0.19 0.16 0.14 0.14 0.14 0.15 0.17 0.16 0.17 0.25 0.31 0.33 0.36 0.37 0.38 0.37 0.33 0.28 0.22 0.18 0.19 0.26 0.32 0.39 0.47 0.61 0.73 0.77 0.67 0.81 0.82 0.44
0.23 0.13 0.09 0.10 0.11 0.12 0.15 0.19 0.23 0.22 0.21 0.20 0.20 0.19 0.18 0.18 0.18 0.20 0.20 0.22 0.29 0.32 0.30 0.30 0.32 0.30 0.27 0.22 0.18 0.18 0.20 0.27 0.43 0.59 0.92 1.11 1.04 0.96 0.85 0.77 0.71 0.59 0.42
0.22 0.17 0.10 0.10 0.12 0.12 0.13 0.16 0.21 0.23 0.25 0.27 0.29 0.24 0.20 0.20 0.21 0.21 0.21 0.24 0.28 0.30 0.28 0.25 0.24 0.22 0.19 0.17 0.17 0.19 0.25 0.34 0.62 0.93 1.52 1.49 1.51 1.41 1.03 0.82 0.72 0.62 0.56
0.25 0.23 0.17 0.15 0.14 0.14 0.14 0.17 0.23 0.27 0.29 0.32 0.33 0.29 0.24 0.21 0.22 0.24 0.29 0.33 0.34 0.35 0.35 0.34 0.28 0.22 0.19 0.19 0.19 0.23 0.30 0.43 0.75 1.12 1.65 1.95 2.18 1.99 1.27 0.94 0.80 0.76 0.72
0.25 0.23 0.20 0.22 0.20 0.18 0.18 0.20 0.27 0.33 0.35 0.34 0.35 0.35 0.33 0.27 0.26 0.31 0.39 0.42 0.41 0.38 0.43 0.47 0.39 0.31 0.24 0.22 0.23 0.27 0.38 0.58 0.78 1.12 1.79 2.24 2.27 2.03 1.39 1.09 0.90 0.91 0.94
0.33 0.30 0.30 0.32 0.31 0.28 0.26 0.29 0.36 0.41 0.43 0.43 0.41 0.41 0.41 0.34 0.31 0.38 0.46 0.49 0.48 0.45 0.45 0.42 0.35 0.29 0.26 0.25 0.26 0.31 0.42 0.63 0.79 1.26 1.78 2.21 2.21 1.96 1.54 1.30 1.15 1.08 1.03
0.47 0.40 0.42 0.42 0.45 0.46 0.44 0.45 0.47 0.44 0.44 0.46 0.48 0.49 0.46 0.39 0.35 0.39 0.47 0.55 0.61 0.57 0.49 0.42 0.35 0.29 0.27 0.26 0.27 0.31 0.44 0.59 0.66 1.09 1.57 1.84 1.77 1.63 1.57 1.42 1.31 1.16 1.07
0.80 0.72 0.60 0.55 0.54 0.56 0.55 0.53 0.55 0.53 0.51 0.49 0.49 0.49 0.48 0.46 0.41 0.47 0.55 0.60 0.61 0.54 0.50 0.47 0.41 0.34 0.31 0.29 0.30 0.35 0.47 0.62 0.73 1.00 1.31 1.65 1.56 1.64 1.73 1.52 1.29 1.22 1.21
1.37 1.63 1.15 0.79 0.69 0.63 0.61 0.63 0.67 0.68 0.67 0.61 0.57 0.52 0.51 0.53 0.56 0.62 0.63 0.64 0.62 0.56 0.52 0.52 0.48 0.43 0.38 0.35 0.36 0.40 0.49 0.52 0.53 0.86 1.30 1.49 1.53 1.75 2.02 1.86 1.57 1.38 1.30
1.69 1.94 1.39 1.07 0.98 0.93 0.91 0.80 0.84 0.84 0.83 0.80 0.74 0.67 0.68 0.78 0.97 1.00 0.78 0.81 0.71 0.64 0.60 0.59 0.55 0.52 0.51 0.47 0.51 0.54 0.52 0.48 0.76 1.07 1.35 1.53 1.70 1.98 2.17 2.10 1.83 1.58 1.44
1.82 1.64 1.57 1.55 1.33 1.19 1.16 1.25 1.23 1.11 1.09 1.00 1.09 0.96 1.03 1.41 1.51 1.28 1.23 1.11 0.95 0.82 0.75 0.74 0.76 0.71 0.65 0.64 0.77 0.78 0.62 0.67 0.92 1.31 1.53 1.59 1.78 2.13 2.34 2.19 1.97 1.87 1.72
2.51 2.01 1.80 1.73 1.64 1.52 1.63 1.78 1.80 1.75 1.69 1.49 1.54 1.41 1.49 1.61 1.54 1.53 1.58 1.42 1.33 1.20 1.21 1.22 1.07 0.91 0.86 0.94 1.01 1.00 0.91 0.93 1.06 1.34 1.58 1.72 1.90 2.22 2.43 2.32 2.07 2.01 1.99
2.76 2.57 2.08 1.99 2.05 2.21 2.29 2.19 2.09 2.11 2.09 1.96 1.96 1.76 1.85 1.95 1.98 1.90 1.98 1.88 1.90 1.80 1.82 1.68 1.54 1.38 1.26 1.14 1.12 1.17 1.22 1.18 1.18 1.37 1.77 1.85 1.85 2.10 2.41 2.45 2.30 2.22 2.21
2.68 2.50 2.27 2.33 2.43 2.50 2.48 2.52 2.39 2.36 2.53 2.48 2.44 2.32 2.31 2.25 2.19 2.18 2.16 2.19 2.09 2.18 2.21 2.15 1.90 1.70 1.58 1.42 1.25 1.29 1.40 1.38 1.47 1.56 1.82 1.90 1.76 1.93 2.32 2.65 2.68 2.70 2.68
2.56 2.62 2.55 2.70 2.57 2.50 2.61 2.81 2.80 2.64 2.80 2.97 3.11 3.00 2.75 2.62 2.55 2.55 2.65 2.64 2.39 2.37 2.45 2.51 2.37 2.15 1.88 1.68 1.49 1.46 1.47 1.45 1.54 1.69 1.88 2.02 1.94 1.86 2.21 2.65 2.86 2.99 3.00
2.72 2.69 2.78 2.67 2.81 2.94 3.07 3.05 2.98 2.92 2.99 3.12 3.26 3.33 3.03 2.78 2.85 2.84 3.00 2.99 2.66 2.58 2.70 2.80 2.76 2.63 2.24 1.96 1.84 1.80 1.75 1.76 1.72 1.78 1.96 2.08 2.04 1.99 2.13 2.27 2.45 2.66 2.81
2.78 3.06 3.05 2.71 3.01 3.19 3.24 3.23 3.06 3.09 3.28 3.40 3.39 3.47 3.29 2.98 2.90 3.00 2.94 2.80 2.73 2.78 3.01 3.21 3.15 3.07 2.82 2.54 2.33 2.06 1.88 1.87 1.81 1.95 2.02 2.07 2.30 2.22 2.15 1.96 2.03 2.24 2.50
3.08 3.48 3.24 2.88 3.05 3.21 3.35 3.45 3.25 3.28 3.57 3.72 3.76 3.64 3.32 3.04 3.04 3.19 3.21 3.17 3.10 3.13 3.19 3.10 3.26 3.12 3.16 2.97 2.52 2.27 2.06 1.97 2.02 2.06 2.10 2.08 2.19 2.30 2.27 2.05 1.96 2.05 2.19
3.37 3.88 3.50 3.07 3.13 3.39 3.39 3.32 3.33 3.47 3.77 4.02 3.96 3.75 3.49 3.40 3.34 3.46 3.43 3.49 3.55 3.61 3.44 3.34 3.36 3.16 3.01 2.93 2.56 2.36 2.21 2.07 2.03 1.99 1.92 1.94 2.03 1.99 2.06 2.06 2.09 1.96 2.02
3.33 3.64 3.60 3.42 3.48 3.56 3.59 3.40 3.59 3.81 4.12 4.41 4.32 4.19 4.08 3.98 3.94 3.96 3.99 3.98 3.85 3.76 3.60 3.42 3.32 3.20 2.97 2.76 2.68 2.37 2.02 1.77 1.69 1.65 1.69 1.76 1.75 1.75 1.84 2.00 2.10 2.07 1.93
3.08 3.23 3.51 3.64 3.68 3.48 3.77 4.02 4.25 4.55 4.68 5.02 5.31 5.34 5.16 4.88 4.64 4.43 4.39 4.19 3.90 3.72 3.58 3.39 3.25 3.09 2.82 2.67 2.61 2.59 2.19 1.86 1.56 1.37 1.46 1.46 1.51 1.66 1.75 1.72 1.77 1.79 1.74
2.94 3.20 3.49 3.78 3.89 3.80 4.20 4.69 5.11 5.41 5.41 5.49 5.56 5.58 5.53 5.10 4.70 4.42 4.14 4.00 3.84 3.67 3.50 3.40 3.26 3.14 2.89 2.71 2.59 2.71 2.56 2.23 1.82 1.61 1.46 1.46 1.53 1.59 1.59 1.56 1.53 1.53 1.57
2.74 3.02 3.27 3.62 4.01 4.31 4.72 5.18 5.72 6.01 6.13 6.00 5.70 5.46 5.14 4.74 4.35 3.93 3.70 3.71 3.57 3.36 3.16 2.94 2.81 2.77 2.70 2.58 2.52 2.42 2.39 2.32 2.14 1.91 1.71 1.70 1.71 1.67 1.61 1.57 1.62 1.67 1.68
2.55 2.82 3.10 3.44 3.85 4.49 5.25 5.78 6.17 6.46 6.40 5.96 5.46 4.88 4.43 4.11 3.80 3.51 3.30 3.32 3.22 2.97 2.74 2.48 2.29 2.20 2.20 2.27 2.29 2.27 2.22 2.17 2.00 1.88 1.78 1.71 1.68 1.66 1.59 1.55 1.60 1.67 1.68
2.32 2.57 2.91 3.33 3.63 4.15 4.88 5.52 5.81 5.99 5.92 5.51 4.86 4.32 3.95 3.56 3.20 2.87 2.59 2.49 2.38 2.23 2.11 2.01 1.90 1.85 1.85 1.95 2.01 1.96 1.96 1.98 1.95 1.93 1.86 1.71 1.69 1.76 1.64 1.51 1.44 1.41 1.42

GEFSSE_prec_meanprecacc_228.txt.gz
Total_Precipitation_Accumulation
0.48 0.21 0.14 0.12 0.12 0.16 0.17 0.19 0.21 0.20 0.19 0.17 0.15 0.13 0.13 0.14 0.14 0.13 0.12 0.14 0.19 0.30 0.38 0.40 0.42 0.47 0.49 0.49 0.41 0.32 0.28 0.25 0.23 0.23 0.25 0.29 0.39 0.49 0.51 0.47 0.58 0.61 0.49
0.38 0.20 0.15 0.11 0.11 0.14 0.17 0.21 0.22 0.21 0.21 0.19 0.16 0.14 0.14 0.14 0.15 0.18 0.17 0.18 0.25 0.32 0.33 0.36 0.38 0.39 0.37 0.34 0.28 0.22 0.19 0.21 0.27 0.34 0.41 0.48 0.64 0.77 0.80 0.70 0.84 0.84 0.47
0.25 0.15 0.11 0.12 0.12 0.12 0.15 0.19 0.23 0.22 0.21 0.20 0.21 0.19 0.19 0.18 0.18 0.20 0.20 0.23 0.30 0.33 0.31 0.31 0.32 0.31 0.28 0.22 0.19 0.19 0.21 0.27 0.44 0.60 0.94 1.13 1.06 1.01 0.90 0.81 0.74 0.61 0.44
0.25 0.20 0.13 0.12 0.13 0.13 0.14 0.17 0.21 0.23 0.25 0.27 0.29 0.24 0.20 0.21 0.22 0.22 0.22 0.26 0.29 0.31 0.29 0.26 0.24 0.22 0.20 0.18 0.18 0.20 0.25 0.35 0.63 0.94 1.53 1.49 1.52 1.47 1.09 0.87 0.76 0.65 0.59
0.28 0.27 0.20 0.17 0.16 0.15 0.16 0.19 0.24 0.28 0.30 0.33 0.33 0.30 0.24 0.21 0.22 0.24 0.30 0.34 0.37 0.37 0.36 0.35 0.29 0.22 0.19 0.20 0.20 0.24 0.31 0.44 0.75 1.13 1.65 1.96 2.20 2.04 1.34 0.98 0.84 0.78 0.75
0.28 0.26 0.23 0.24 0.21 0.19 0.19 0.22 0.28 0.34 0.36 0.35 0.35 0.35 0.33 0.27 0.27 0.32 0.39 0.43 0.42 0.41 0.45 0.49 0.41 0.32 0.25 0.22 0.23 0.27 0.38 0.59 0.79 1.13 1.80 2.25 2.29 2.07 1.45 1.15 0.96 0.96 0.99
0.35 0.32 0.33 0.34 0.32 0.29 0.27 0.30 0.37 0.41 0.43 0.43 0.42 0.41 0.41 0.34 0.32 0.38 0.46 0.49 0.48 0.47 0.47 0.45 0.37 0.30 0.27 0.26 0.27 0.32 0.43 0.64 0.80 1.27 1.79 2.23 2.23 2.00 1.61 1.38 1.23 1.15 1.08
0.48 0.42 0.43 0.44 0.46 0.48 0.45 0.46 0.48 0.45 0.45 0.47 0.49 0.50 0.47 0.40 0.36 0.40 0.48 0.55 0.62 0.57 0.50 0.44 0.36 0.30 0.28 0.27 0.29 0.32 0.45 0.60 0.66 1.10 1.58 1.86 1.82 1.68 1.65 1.49 1.38 1.23 1.12
0.82 0.73 0.61 0.56 0.55 0.58 0.56 0.54 0.56 0.54 0.52 0.50 0.51 0.50 0.50 0.47 0.42 0.49 0.57 0.62 0.62 0.55 0.51 0.48 0.43 0.35 0.32 0.30 0.31 0.37 0.48 0.63 0.74 1.01 1.32 1.67 1.59 1.71 1.82 1.59 1.35 1.29 1.28
1.40 1.65 1.16 0.80 0.70 0.64 0.62 0.64 0.67 0.69 0.68 0.63 0.59 0.54 0.53 0.55 0.58 0.65 0.66 0.67 0.64 0.57 0.53 0.54 0.50 0.44 0.39 0.36 0.38 0.41 0.51 0.55 0.55 0.88 1.32 1.51 1.57 1.82 2.10 1.94 1.64 1.44 1.35
1.71 1.98 1.42 1.08 1.00 0.94 0.91 0.80 0.84 0.86 0.85 0.81 0.75 0.70 0.71 0.80 1.00 1.02 0.81 0.84 0.74 0.66 0.61 0.60 0.58 0.54 0.52 0.48 0.52 0.56 0.54 0.51 0.79 1.10 1.38 1.56 1.75 2.04 2.24 2.16 1.90 1.65 1.50
1.86 1.68 1.60 1.56 1.35 1.20 1.17 1.26 1.24 1.11 1.10 1.01 1.11 0.99 1.07 1.45 1.54 1.32 1.26 1.16 1.00 0.87 0.79 0.78 0.81 0.76 0.70 0.66 0.78 0.80 0.65 0.70 0.96 1.34 1.56 1.63 1.84 2.20 2.41 2.24 2.02 1.92 1.78
2.56 2.05 1.83 1.75 1.66 1.54 1.66 1.82 1.83 1.77 1.71 1.51 1.57 1.45 1.53 1.65 1.58 1.57 1.62 1.47 1.39 1.26 1.26 1.26 1.11 0.95 0.91 0.97 1.03 1.02 0.94 0.97 1.10 1.36 1.61 1.76 1.95 2.28 2.50 2.36 2.11 2.06 2.05
2.81 2.62 2.13 2.04 2.12 2.26 2.34 2.26 2.15 2.14 2.12 2.01 2.01 1.79 1.89 2.00 2.03 1.95 2.03 1.92 1.94 1.84 1.85 1.72 1.58 1.42 1.31 1.19 1.17 1.21 1.26 1.22 1.20 1.39 1.80 1.89 1.89 2.16 2.48 2.50 2.34 2.26 2.24
2.75 2.57 2.35 2.45 2.58 2.64 2.61 2.61 2.47 2.44 2.61 2.57 2.50 2.37 2.37 2.31 2.24 2.22 2.19 2.22 2.11 2.21 2.25 2.20 1.95 1.75 1.64 1.48 1.30 1.33 1.45 1.44 1.51 1.60 1.86 1.94 1.80 1.99 2.40 2.72 2.74 2.75 2.73
2.68 2.74 2.69 2.86 2.76 2.68 2.75 2.90 2.89 2.73 2.92 3.10 3.19 3.07 2.81 2.68 2.62 2.60 2.68 2.66 2.41 2.39 2.47 2.54 2.41 2.20 1.93 1.75 1.55 1.51 1.55 1.53 1.60 1.74 1.93 2.07 1.99 1.93 2.28 2.72 2.94 3.07 3.07
2.85 2.84 2.94 2.82 2.98 3.09 3.17 3.14 3.06 2.99 3.08 3.24 3.37 3.43 3.11 2.85 2.91 2.90 3.04 3.02 2.69 2.60 2.73 2.82 2.79 2.66 2.27 1.99 1.89 1.85 1.81 1.83 1.80 1.87 2.06 2.18 2.15 2.10 2.25 2.38 2.57 2.76 2.90
2.92 3.18 3.17 2.82 3.13 3.29 3.31 3.30 3.16 3.21 3.43 3.57 3.56 3.62 3.41 3.07 2.99 3.07 3.01 2.85 2.77 2.82 3.05 3.25 3.18 3.10 2.85 2.57 2.37 2.11 1.93 1.91 1.87 2.02 2.11 2.19 2.46 2.39 2.32 2.11 2.16 2.34 2.58
3.26 3.62 3.35 2.97 3.13 3.28 3.41 3.52 3.34 3.41 3.71 3.84 3.88 3.74 3.40 3.13 3.14 3.29 3.31 3.24 3.16 3.17 3.23 3.13 3.29 3.15 3.20 3.01 2.56 2.31 2.10 2.01 2.06 2.12 2.19 2.19 2.33 2.47 2.44 2.20 2.07 2.14 2.26
3.53 4.09 3.67 3.16 3.20 3.47 3.44 3.38 3.42 3.57 3.85 4.08 4.03 3.82 3.56 3.47 3.42 3.55 3.51 3.55 3.62 3.66 3.48 3.38 3.40 3.21 3.07 2.98 2.62 2.42 2.26 2.11 2.08 2.08 2.03 2.06 2.14 2.10 2.18 2.18 2.19 2.03 2.09
3.43 3.82 3.81 3.52 3.54 3.60 3.62 3.46 3.67 3.88 4.18 4.47 4.39 4.25 4.15 4.04 4.01 4.03 4.06 4.04 3.90 3.81 3.66 3.48 3.38 3.27 3.04 2.84 2.77 2.46 2.09 1.83 1.75 1.71 1.76 1.84 1.84 1.83 1.93 2.10 2.20 2.13 1.98
3.13 3.32 3.61 3.72 3.74 3.52 3.82 4.09 4.31 4.62 4.74 5.08 5.36 5.40 5.22 4.94 4.71 4.50 4.46 4.26 3.97 3.78 3.64 3.45 3.32 3.16 2.88 2.73 2.68 2.64 2.23 1.89 1.58 1.40 1.49 1.50 1.55 1.71 1.81 1.78 1.83 1.84 1.77
2.97 3.24 3.53 3.82 3.93 3.84 4.23 4.73 5.15 5.45 5.45 5.53 5.59 5.61 5.57 5.15 4.78 4.51 4.22 4.09 3.93 3.75 3.58 3.47 3.35 3.22 2.96 2.77 2.64 2.76 2.60 2.25 1.84 1.63 1.48 1.48 1.55 1.62 1.63 1.60 1.58 1.57 1.60
2.78 3.07 3.31 3.65 4.05 4.35 4.75 5.20 5.74 6.03 6.16 6.04 5.72 5.47 5.16 4.78 4.42 4.01 3.79 3.81 3.67 3.46 3.25 3.01 2.88 2.84 2.77 2.64 2.57 2.46 2.43 2.35 2.17 1.93 1.73 1.72 1.75 1.71 1.64 1.60 1.65 1.71 1.72
2.59 2.86 3.13 3.47 3.88 4.51 5.27 5.80 6.18 6.47 6.43 6.00 5.49 4.90 4.45 4.14 3.85 3.57 3.38 3.43 3.33 3.10 2.88 2.62 2.39 2.29 2.26 2.32 2.34 2.31 2.25 2.19 2.03 1.91 1.81 1.73 1.71 1.69 1.63 1.60 1.64 1.71 1.71
2.36 2.61 2.93 3.35 3.66 4.17 4.90 5.54 5.83 6.01 5.94 5.55 4.91 4.35 3.97 3.58 3.24 2.91 2.65 2.56 2.47 2.31 2.20 2.14 2.06 1.99 1.95 2.02 2.06 1.99 1.98 2.00 1.97 1.96 1.89 1.73 1.72 1.79 1.68 1.55 1.48 1.45 1.47

GEFSSE_prec_meanprecacc_234.txt.gz
Total_Precipitation_Accumulation
0.52 0.26 0.19 0.15 0.14 0.17 0.18 0.19 0.21 0.21 0.20 0.18 0.15 0.14 0.13 0.15 0.14 0.14 0.13 0.14 0.20 0.31 0.39 0.41 0.43 0.48 0.51 0.50 0.43 0.34 0.29 0.27 0.25 0.26 0.29 0.33 0.43 0.53 0.56 0.52 0.62 0.64 0.54
0.39 0.24 0.20 0.13 0.13 0.15 0.18 0.21 0.22 0.22 0.21 0.19 0.17 0.15 0.15 0.15 0.15 0.18 0.17 0.19 0.27 0.33 0.34 0.37 0.39 0.40 0.38 0.35 0.29 0.23 0.20 0.22 0.29 0.36 0.44 0.51 0.67 0.80 0.84 0.74 0.88 0.88 0.53
0.27 0.20 0.17 0.15 0.14 0.14 0.16 0.19 0.23 0.22 0.21 0.20 0.21 0.20 0.19 0.19 0.19 0.21 0.21 0.24 0.31 0.34 0.32 0.32 0.34 0.31 0.29 0.23 0.20 0.20 0.21 0.28 0.45 0.62 0.96 1.14 1.07 1.04 0.94 0.85 0.79 0.67 0.50
0.28 0.28 0.19 0.15 0.16 0.14 0.15 0.18 0.22 0.24 0.26 0.28 0.29 0.24 0.21 0.21 0.23 0.23 0.23 0.27 0.30 0.31 0.30 0.28 0.26 0.23 0.20 0.19 0.19 0.21 0.27 0.36 0.64 0.96 1.53 1.50 1.53 1.49 1.14 0.92 0.82 0.70 0.64
0.35 0.41 0.27 0.19 0.18 0.18 0.18 0.20 0.25 0.28 0.31 0.35 0.34 0.30 0.25 0.22 0.23 0.25 0.31 0.35 0.38 0.38 0.38 0.36 0.30 0.23 0.20 0.21 0.22 0.26 0.33 0.46 0.77 1.15 1.66 1.96 2.21 2.06 1.38 1.04 0.91 0.85 0.81
0.34 0.38 0.31 0.27 0.23 0.21 0.22 0.24 0.29 0.35 0.37 0.36 0.37 0.37 0.34 0.28 0.28 0.33 0.41 0.44 0.43 0.42 0.47 0.51 0.43 0.34 0.27 0.24 0.25 0.29 0.39 0.60 0.80 1.14 1.82 2.27 2.30 2.09 1.49 1.21 1.02 1.04 1.06
0.39 0.39 0.39 0.39 0.34 0.31 0.29 0.32 0.38 0.42 0.44 0.44 0.43 0.44 0.43 0.36 0.34 0.40 0.48 0.50 0.50 0.48 0.49 0.47 0.39 0.33 0.29 0.28 0.30 0.34 0.45 0.65 0.81 1.27 1.80 2.24 2.24 2.02 1.63 1.43 1.29 1.22 1.16
0.51 0.46 0.48 0.49 0.50 0.50 0.47 0.48 0.49 0.46 0.46 0.48 0.50 0.52 0.49 0.43 0.40 0.42 0.50 0.58 0.65 0.60 0.53 0.46 0.39 0.33 0.31 0.30 0.32 0.36 0.48 0.62 0.67 1.11 1.59 1.87 1.83 1.70 1.68 1.54 1.43 1.30 1.21
0.84 0.77 0.66 0.61 0.60 0.62 0.59 0.56 0.58 0.55 0.53 0.52 0.52 0.52 0.52 0.50 0.46 0.53 0.61 0.67 0.67 0.59 0.54 0.51 0.45 0.39 0.35 0.33 0.34 0.40 0.51 0.66 0.77 1.01 1.32 1.67 1.60 1.73 1.85 1.64 1.42 1.37 1.36
1.44 1.70 1.19 0.84 0.74 0.67 0.64 0.65 0.69 0.71 0.70 0.66 0.63 0.59 0.57 0.59 0.62 0.69 0.70 0.72 0.70 0.63 0.59 0.59 0.54 0.48 0.42 0.38 0.40 0.45 0.55 0.58 0.58 0.89 1.33 1.52 1.58 1.85 2.13 1.99 1.69 1.50 1.41
1.75 2.01 1.44 1.11 1.02 0.96 0.94 0.83 0.87 0.89 0.89 0.86 0.79 0.73 0.75 0.84 1.03 1.06 0.85 0.89 0.80 0.74 0.71 0.69 0.64 0.60 0.57 0.52 0.55 0.59 0.59 0.55 0.83 1.13 1.40 1.58 1.77 2.07 2.28 2.20 1.94 1.69 1.54
1.89 1.70 1.63 1.59 1.40 1.27 1.23 1.29 1.28 1.15 1.14 1.05 1.16 1.04 1.11 1.48 1.56 1.34 1.29 1.22 1.09 0.96 0.89 0.87 0.89 0.85 0.77 0.72 0.83 0.85 0.68 0.73 1.00 1.38 1.59 1.66 1.87 2.24 2.46 2.29 2.06 1.97 1.85
2.61 2.08 1.88 1.82 1.75 1.64 1.73 1.86 1.87 1.81 1.75 1.55 1.62 1.50 1.56 1.67 1.60 1.59 1.63 1.50 1.45 1.34 1.33 1.33 1.19 1.03 0.97 1.02 1.08 1.07 0.97 0.99 1.11 1.38 1.63 1.79 2.00 2.33 2.57 2.42 2.15 2.11 2.11
2.84 2.66 2.19 2.12 2.26 2.46 2.49 2.36 2.21 2.19 2.18 2.06 2.06 1.84 1.94 2.04 2.06 1.97 2.04 1.94 1.98 1.89 1.91 1.77 1.64 1.48 1.38 1.24 1.20 1.25 1.29 1.26 1.23 1.41 1.81 1.92 1.95 2.22 2.55 2.58 2.39 2.31 2.30
2.79 2.61 2.39 2.51 2.69 2.82 2.78 2.71 2.52 2.48 2.66 2.62 2.56 2.43 2.42 2.36 2.28 2.25 2.22 2.24 2.14 2.24 2.29 2.24 1.99 1.80 1.69 1.54 1.36 1.38 1.49 1.47 1.54 1.63 1.88 1.96 1.86 2.05 2.47 2.82 2.84 2.84 2.82
2.71 2.79 2.74 2.90 2.81 2.77 2.86 2.99 2.94 2.76 2.95 3.14 3.23 3.11 2.84 2.71 2.64 2.62 2.72 2.70 2.44 2.43 2.52 2.60 2.47 2.25 1.97 1.79 1.60 1.57 1.60 1.57 1.63 1.76 1.94 2.08 2.02 1.98 2.34 2.81 3.05 3.19 3.19
2.90 2.90 3.01 2.89 3.03 3.15 3.25 3.20 3.11 3.03 3.11 3.27 3.41 3.47 3.14 2.87 2.94 2.94 3.09 3.08 2.75 2.66 2.79 2.87 2.83 2.70 2.30 2.01 1.90 1.88 1.85 1.88 1.82 1.90 2.08 2.21 2.18 2.13 2.31 2.47 2.69 2.90 3.05
3.00 3.27 3.26 2.89 3.19 3.35 3.36 3.34 3.19 3.26 3.48 3.62 3.62 3.67 3.44 3.09 3.01 3.10 3.03 2.88 2.82 2.88 3.12 3.31 3.24 3.14 2.87 2.59 2.38 2.12 1.94 1.93 1.89 2.04 2.14 2.22 2.49 2.43 2.35 2.18 2.27 2.50 2.76
3.35 3.71 3.43 3.03 3.20 3.35 3.47 3.57 3.40 3.47 3.77 3.90 3.94 3.79 3.43 3.15 3.15 3.30 3.33 3.26 3.19 3.21 3.29 3.19 3.34 3.19 3.23 3.02 2.57 2.33 2.11 2.01 2.06 2.14 2.21 2.22 2.35 2.49 2.47 2.24 2.15 2.28 2.43
3.59 4.14 3.73 3.22 3.25 3.54 3.50 3.43 3.48 3.63 3.89 4.13 4.08 3.86 3.60 3.51 3.44 3.57 3.53 3.58 3.65 3.70 3.53 3.44 3.46 3.26 3.10 3.01 2.64 2.44 2.28 2.12 2.10 2.09 2.04 2.08 2.18 2.14 2.22 2.22 2.24 2.10 2.20
3.47 3.87 3.85 3.58 3.60 3.65 3.68 3.51 3.72 3.95 4.23 4.50 4.43 4.30 4.19 4.09 4.05 4.06 4.09 4.07 3.94 3.85 3.70 3.53 3.42 3.31 3.07 2.87 2.81 2.49 2.12 1.85 1.77 1.73 1.78 1.86 1.86 1.86 1.97 2.16 2.25 2.18 2.03
3.16 3.35 3.65 3.75 3.78 3.57 3.87 4.14 4.36 4.68 4.79 5.12 5.41 5.46 5.27 4.98 4.75 4.54 4.50 4.30 4.01 3.82 3.68 3.49 3.35 3.19 2.92 2.77 2.71 2.68 2.25 1.91 1.59 1.41 1.50 1.51 1.57 1.73 1.83 1.81 1.86 1.87 1.81
3.02 3.28 3.58 3.88 3.98 3.88 4.28 4.77 5.19 5.48 5.48 5.57 5.63 5.65 5.60 5.18 4.80 4.56 4.29 4.16 3.98 3.81 3.63 3.52 3.39 3.26 3.00 2.80 2.67 2.80 2.63 2.27 1.85 1.64 1.48 1.48 1.56 1.63 1.64 1.62 1.60 1.59 1.63
2.83 3.12 3.36 3.71 4.10 4.40 4.80 5.26 5.78 6.05 6.19 6.06 5.75 5.50 5.19 4.81 4.45 4.05 3.84 3.86 3.73 3.52 3.31 3.06 2.94 2.90 2.81 2.69 2.61 2.49 2.46 2.38 2.19 1.95 1.73 1.73 1.76 1.72 1.65 1.62 1.68 1.74 1.74
2.64 2.91 3.18 3.51 3.92 4.56 5.32 5.86 6.21 6.49 6.45 6.02 5.52 4.93 4.48 4.17 3.88 3.61 3.43 3.50 3.39 3.15 2.93 2.67 2.44 2.33 2.31 2.37 2.40 2.36 2.29 2.23 2.06 1.93 1.82 1.74 1.73 1.70 1.65 1.61 1.65 1.73 1.74
2.40 2.66 2.98 3.39 3.70 4.21 4.94 5.58 5.86 6.03 5.97 5.56 4.94 4.40 4.01 3.62 3.28 2.96 2.69 2.60 2.52 2.37 2.26 2.19 2.11 2.05 2.02 2.09 2.13 2.07 2.05 2.05 2.01 1.99 1.91 1.74 1.73 1.80 1.70 1.57 1.49 1.47 1.50

GEFSSE_prec_meanprecacc_240.txt.gz
Total_Precipitation_Accumulation
0.52 0.27 0.24 0.20 0.16 0.20 0.20 0.22 0.24 0.23 0.22 0.19 0.17 0.15 0.14 0.16 0.16 0.15 0.14 0.15 0.21 0.32 0.39 0.42 0.45 0.50 0.52 0.52 0.45 0.36 0.32 0.29 0.27 0.27 0.31 0.36 0.46 0.56 0.58 0.53 0.64 0.65 0.56
0.41 0.26 0.27 0.18 0.16 0.18 0.20 0.23 0.26 0.25 0.24 0.21 0.18 0.16 0.16 0.16 0.16 0.20 0.19 0.20 0.28 0.34 0.35 0.38 0.40 0.41 0.40 0.37 0.31 0.26 0.22 0.25 0.31 0.38 0.46 0.54 0.70 0.83 0.87 0.77 0.91 0.90 0.57
0.28 0.22 0.27 0.21 0.18 0.17 0.18 0.22 0.26 0.26 0.24 0.23 0.23 0.21 0.20 0.20 0.20 0.22 0.23 0.26 0.34 0.37 0.34 0.33 0.34 0.32 0.30 0.25 0.22 0.22 0.23 0.30 0.47 0.64 0.98 1.15 1.09 1.06 0.96 0.88 0.82 0.70 0.53
0.29 0.33 0.33 0.23 0.22 0.18 0.17 0.19 0.23 0.26 0.30 0.31 0.32 0.26 0.22 0.22 0.24 0.24 0.24 0.29 0.34 0.38 0.35 0.30 0.28 0.25 0.22 0.20 0.21 0.23 0.30 0.39 0.68 0.99 1.55 1.51 1.54 1.51 1.17 0.96 0.86 0.73 0.67
0.37 0.48 0.41 0.30 0.24 0.22 0.22 0.23 0.28 0.31 0.34 0.38 0.38 0.32 0.26 0.22 0.23 0.27 0.32 0.37 0.41 0.43 0.44 0.40 0.34 0.27 0.23 0.23 0.24 0.28 0.36 0.49 0.81 1.18 1.67 1.98 2.23 2.09 1.41 1.07 0.94 0.88 0.85
0.41 0.45 0.40 0.34 0.29 0.26 0.29 0.30 0.34 0.39 0.40 0.38 0.39 0.40 0.37 0.30 0.29 0.34 0.42 0.46 0.46 0.45 0.51 0.55 0.47 0.39 0.32 0.28 0.28 0.31 0.42 0.64 0.83 1.16 1.84 2.28 2.32 2.12 1.51 1.23 1.06 1.08 1.11
0.44 0.44 0.48 0.48 0.45 0.42 0.40 0.40 0.44 0.45 0.47 0.47 0.45 0.46 0.47 0.39 0.36 0.42 0.49 0.53 0.53 0.52 0.54 0.53 0.45 0.40 0.35 0.33 0.34 0.39 0.50 0.70 0.84 1.30 1.82 2.26 2.25 2.03 1.65 1.45 1.31 1.25 1.21
0.55 0.53 0.58 0.60 0.61 0.60 0.55 0.53 0.53 0.49 0.48 0.50 0.52 0.53 0.52 0.46 0.44 0.48 0.54 0.62 0.69 0.66 0.60 0.54 0.48 0.41 0.37 0.37 0.38 0.41 0.54 0.67 0.71 1.13 1.61 1.89 1.85 1.71 1.69 1.55 1.45 1.34 1.26
0.87 0.83 0.73 0.68 0.66 0.68 0.65 0.61 0.63 0.61 0.57 0.55 0.54 0.54 0.55 0.55 0.52 0.59 0.69 0.74 0.73 0.66 0.62 0.59 0.55 0.48 0.41 0.39 0.40 0.45 0.56 0.71 0.81 1.04 1.34 1.70 1.61 1.74 1.86 1.65 1.43 1.39 1.40
1.45 1.74 1.25 0.90 0.80 0.74 0.71 0.71 0.74 0.77 0.76 0.71 0.67 0.64 0.63 0.66 0.69 0.76 0.76 0.78 0.76 0.70 0.66 0.68 0.66 0.58 0.49 0.43 0.44 0.48 0.59 0.62 0.61 0.92 1.36 1.54 1.59 1.86 2.15 2.01 1.71 1.52 1.45
1.76 2.04 1.48 1.16 1.07 1.01 0.98 0.90 0.96 0.97 0.97 0.92 0.86 0.82 0.84 0.93 1.11 1.14 0.95 0.97 0.87 0.82 0.80 0.79 0.74 0.70 0.66 0.58 0.59 0.63 0.63 0.58 0.86 1.16 1.43 1.59 1.78 2.09 2.30 2.23 1.96 1.72 1.57
1.91 1.73 1.65 1.62 1.43 1.31 1.27 1.34 1.34 1.20 1.20 1.13 1.25 1.14 1.21 1.57 1.66 1.42 1.37 1.30 1.17 1.05 0.99 0.98 1.02 0.96 0.88 0.83 0.92 0.92 0.74 0.77 1.04 1.41 1.61 1.67 1.89 2.27 2.49 2.32 2.08 1.99 1.88
2.62 2.10 1.91 1.85 1.78 1.67 1.76 1.89 1.89 1.83 1.77 1.58 1.67 1.58 1.67 1.80 1.74 1.72 1.73 1.58 1.53 1.42 1.44 1.45 1.33 1.16 1.07 1.12 1.21 1.18 1.05 1.06 1.16 1.41 1.65 1.81 2.02 2.37 2.61 2.47 2.19 2.14 2.14
2.86 2.68 2.22 2.14 2.27 2.48 2.51 2.38 2.23 2.21 2.20 2.08 2.09 1.90 2.02 2.13 2.15 2.05 2.10 1.98 2.02 1.94 1.98 1.84 1.72 1.60 1.47 1.32 1.30 1.37 1.40 1.35 1.29 1.47 1.85 1.95 1.97 2.26 2.61 2.65 2.46 2.36 2.35
2.81 2.63 2.42 2.56 2.71 2.83 2.80 2.73 2.53 2.49 2.68 2.65 2.60 2.48 2.47 2.41 2.32 2.28 2.24 2.27 2.17 2.28 2.33 2.29 2.05 1.87 1.76 1.59 1.42 1.46 1.58 1.58 1.63 1.69 1.92 2.00 1.89 2.08 2.51 2.88 2.91 2.92 2.88
2.73 2.81 2.76 2.94 2.83 2.79 2.88 3.00 2.96 2.77 2.97 3.17 3.27 3.15 2.89 2.76 2.68 2.65 2.73 2.72 2.48 2.46 2.55 2.63 2.51 2.30 2.02 1.83 1.64 1.62 1.65 1.62 1.69 1.83 1.99 2.11 2.06 2.02 2.39 2.86 3.11 3.28 3.28
2.92 2.92 3.02 2.92 3.07 3.17 3.27 3.22 3.13 3.05 3.13 3.32 3.45 3.51 3.19 2.93 3.00 2.97 3.12 3.10 2.77 2.68 2.81 2.90 2.87 2.75 2.35 2.07 1.95 1.92 1.89 1.92 1.85 1.93 2.14 2.26 2.22 2.18 2.36 2.52 2.75 2.97 3.14
3.04 3.31 3.30 2.92 3.22 3.38 3.40 3.38 3.23 3.30 3.52 3.66 3.66 3.71 3.49 3.14 3.06 3.15 3.07 2.90 2.84 2.90 3.15 3.35 3.28 3.19 2.93 2.65 2.42 2.15 1.97 1.97 1.93 2.08 2.17 2.26 2.54 2.47 2.40 2.24 2.33 2.56 2.82
3.39 3.75 3.46 3.07 3.23 3.40 3.52 3.62 3.43 3.51 3.81 3.93 3.97 3.83 3.49 3.20 3.18 3.33 3.36 3.29 3.22 3.25 3.32 3.23 3.39 3.25 3.30 3.08 2.62 2.37 2.15 2.06 2.10 2.16 2.24 2.26 2.40 2.54 2.50 2.28 2.21 2.35 2.51
3.65 4.20 3.77 3.26 3.30 3.58 3.56 3.47 3.51 3.66 3.92 4.15 4.11 3.90 3.65 3.55 3.48 3.60 3.56 3.61 3.68 3.74 3.57 3.48 3.50 3.30 3.15 3.07 2.69 2.48 2.32 2.16 2.13 2.11 2.06 2.11 2.22 2.18 2.26 2.26 2.28 2.15 2.26
3.51 3.91 3.91 3.63 3.65 3.69 3.71 3.56 3.76 3.99 4.26 4.53 4.45 4.33 4.23 4.13 4.08 4.10 4.12 4.10 3.97 3.88 3.73 3.55 3.45 3.34 3.10 2.91 2.85 2.53 2.15 1.88 1.79 1.75 1.79 1.88 1.88 1.89 2.01 2.19 2.30 2.24 2.10
3.21 3.39 3.70 3.81 3.84 3.61 3.90 4.18 4.43 4.75 4.84 5.15 5.44 5.48 5.30 5.02 4.79 4.58 4.54 4.33 4.04 3.86 3.72 3.52 3.38 3.22 2.95 2.81 2.77 2.74 2.31 1.94 1.62 1.43 1.51 1.52 1.58 1.75 1.85 1.83 1.90 1.93 1.87
3.07 3.34 3.64 3.93 4.04 3.92 4.31 4.81 5.24 5.57 5.55 5.61 5.66 5.68 5.63 5.21 4.83 4.58 4.33 4.19 4.02 3.84 3.66 3.55 3.43 3.29 3.03 2.83 2.71 2.87 2.70 2.33 1.89 1.66 1.50 1.50 1.58 1.66 1.66 1.64 1.62 1.62 1.67
2.86 3.15 3.40 3.75 4.14 4.43 4.84 5.30 5.84 6.12 6.26 6.12 5.79 5.54 5.22 4.84 4.48 4.07 3.86 3.89 3.76 3.56 3.35 3.10 2.98 2.93 2.85 2.72 2.65 2.54 2.53 2.45 2.25 1.98 1.76 1.75 1.79 1.75 1.68 1.65 1.72 1.78 1.78
2.65 2.92 3.21 3.54 3.94 4.58 5.35 5.89 6.26 6.54 6.50 6.05 5.54 4.96 4.52 4.20 3.90 3.63 3.45 3.52 3.42 3.18 2.97 2.70 2.48 2.37 2.34 2.40 2.44 2.41 2.35 2.29 2.11 1.99 1.86 1.77 1.76 1.73 1.68 1.65 1.70 1.79 1.80
2.41 2.68 3.01 3.42 3.73 4.23 4.96 5.60 5.88 6.07 6.00 5.59 4.97 4.44 4.05 3.64 3.30 2.98 2.70 2.63 2.55 2.40 2.29 2.24 2.16 2.10 2.07 2.13 2.16 2.10 2.09 2.10 2.05 2.04 1.95 1.78 1.76 1.83 1.72 1.60 1.53 1.51 1.54